<?xml version='1.0' encoding='UTF-8'?><gpx version="1.1" creator="JPX - https://github.com/jenetics/jpx" xmlns="http://www.topografix.com/GPX/1/1"><trk><trkseg><trkpt lat="41.68048294984075" lon="13.373509049431892"><ele>246.00000000000003</ele><time>2026-04-11T12:45:09.124Z</time></trkpt><trkpt lat="41.680546042568764" lon="13.373560349834472"><ele>246.0</ele><time>2026-04-11T12:45:13.124Z</time></trkpt><trkpt lat="41.680479945403796" lon="13.373532501187952"><ele>246.00000000000003</ele><time>2026-04-11T12:45:22.124Z</time></trkpt><trkpt lat="41.68046003654238" lon="13.373447920124974"><ele>246.00000000000003</ele><time>2026-04-11T12:45:28.94Z</time></trkpt><trkpt lat="41.68049340520611" lon="13.373373876850916"><ele>246.0</ele><time>2026-04-11T12:45:45.94Z</time></trkpt><trkpt lat="41.68054065065758" lon="13.373438515133788"><ele>246.00000000000003</ele><time>2026-04-11T12:45:50.94Z</time></trkpt><trkpt lat="41.68057712167042" lon="13.373516550039113"><ele>246.00000000000003</ele><time>2026-04-11T12:45:56.94Z</time></trkpt><trkpt lat="41.68057738321968" lon="13.37360817318013"><ele>246.00000000000003</ele><time>2026-04-11T12:46:03.94Z</time></trkpt><trkpt lat="41.68051259438195" lon="13.373668010705114"><ele>246.0</ele><time>2026-04-11T12:48:55Z</time></trkpt><trkpt lat="41.680442478821995" lon="13.373629503850557"><ele>246.00000000000003</ele><time>2026-04-11T12:48:59Z</time></trkpt><trkpt lat="41.68042148229939" lon="13.373545291384527"><ele>246.00000000000003</ele><time>2026-04-11T12:49:01Z</time></trkpt><trkpt lat="41.68040240181382" lon="13.373444774793755"><ele>246.0</ele><time>2026-04-11T12:49:04Z</time></trkpt><trkpt lat="41.680378672466055" lon="13.373347476780923"><ele>246.00000000000003</ele><time>2026-04-11T12:49:08Z</time></trkpt><trkpt lat="41.6803790944478" lon="13.373253862410081"><ele>246.00000000000003</ele><time>2026-04-11T12:49:14Z</time></trkpt><trkpt lat="41.68034746859528" lon="13.37316412839502"><ele>245.60000000000002</ele><time>2026-04-11T12:49:38Z</time></trkpt><trkpt lat="41.680251310976765" lon="13.373167900885127"><ele>245.20000000000002</ele><time>2026-04-11T12:49:40Z</time></trkpt><trkpt lat="41.68016110588462" lon="13.373188601746827"><ele>244.79999999999998</ele><time>2026-04-11T12:49:42Z</time></trkpt><trkpt lat="41.680062470663664" lon="13.373189858529146"><ele>244.39999999999998</ele><time>2026-04-11T12:49:44Z</time></trkpt><trkpt lat="41.67997557270237" lon="13.373206490690988"><ele>244.0</ele><time>2026-04-11T12:49:46Z</time></trkpt><trkpt lat="41.679885784384716" lon="13.373241067423894"><ele>243.99999999999997</ele><time>2026-04-11T12:49:48Z</time></trkpt><trkpt lat="41.67978917315225" lon="13.373251729529906"><ele>244.0</ele><time>2026-04-11T12:49:50Z</time></trkpt><trkpt lat="41.67966315936041" lon="13.373273483833259"><ele>244.0</ele><time>2026-04-11T12:49:52Z</time></trkpt><trkpt lat="41.67959553802504" lon="13.373285255103818"><ele>244.0</ele><time>2026-04-11T12:49:53Z</time></trkpt><trkpt lat="41.6795270892516" lon="13.373295743419233"><ele>243.99999999999997</ele><time>2026-04-11T12:49:54Z</time></trkpt><trkpt lat="41.679463308945756" lon="13.373311915327308"><ele>244.0</ele><time>2026-04-11T12:49:55Z</time></trkpt><trkpt lat="41.679396006210276" lon="13.373324304930586"><ele>243.49999999999997</ele><time>2026-04-11T12:49:56Z</time></trkpt><trkpt lat="41.67931578647796" lon="13.373340526243048"><ele>243.0</ele><time>2026-04-11T12:49:58Z</time></trkpt><trkpt lat="41.67925307053824" lon="13.373364122356369"><ele>242.5</ele><time>2026-04-11T12:50:01Z</time></trkpt><trkpt lat="41.67924434245121" lon="13.373532930601572"><ele>242.0</ele><time>2026-04-11T12:50:07Z</time></trkpt><trkpt lat="41.67927751021269" lon="13.373626680904158"><ele>241.49999999999997</ele><time>2026-04-11T12:50:08Z</time></trkpt><trkpt lat="41.67930186182978" lon="13.37372031208751"><ele>241.0</ele><time>2026-04-11T12:50:09Z</time></trkpt><trkpt lat="41.67931884516207" lon="13.373809232433233"><ele>240.99999999999997</ele><time>2026-04-11T12:50:10Z</time></trkpt><trkpt lat="41.679339610960646" lon="13.373907933224293"><ele>241.0</ele><time>2026-04-11T12:50:11Z</time></trkpt><trkpt lat="41.67936645746031" lon="13.374007660001258"><ele>241.0</ele><time>2026-04-11T12:50:12Z</time></trkpt><trkpt lat="41.67939601123419" lon="13.374107500558372"><ele>241.0</ele><time>2026-04-11T12:50:13Z</time></trkpt><trkpt lat="41.67942360313701" lon="13.374214148219512"><ele>240.99999999999997</ele><time>2026-04-11T12:50:14Z</time></trkpt><trkpt lat="41.67944946029277" lon="13.374325869640304"><ele>241.0</ele><time>2026-04-11T12:50:15Z</time></trkpt><trkpt lat="41.67947583691785" lon="13.374443177250406"><ele>242.0</ele><time>2026-04-11T12:50:16Z</time></trkpt><trkpt lat="41.67950395379913" lon="13.374560736082708"><ele>243.00000000000003</ele><time>2026-04-11T12:50:17Z</time></trkpt><trkpt lat="41.6795370189033" lon="13.374685679190922"><ele>244.00000000000003</ele><time>2026-04-11T12:50:18Z</time></trkpt><trkpt lat="41.67957234332865" lon="13.374815100243108"><ele>245.0</ele><time>2026-04-11T12:50:19Z</time></trkpt><trkpt lat="41.67960472968692" lon="13.374950867710172"><ele>246.0</ele><time>2026-04-11T12:50:20Z</time></trkpt><trkpt lat="41.679636276424226" lon="13.375092353708704"><ele>246.0</ele><time>2026-04-11T12:50:21Z</time></trkpt><trkpt lat="41.67967205791197" lon="13.375240566188763"><ele>246.0</ele><time>2026-04-11T12:50:22Z</time></trkpt><trkpt lat="41.67970661710563" lon="13.375389855007064"><ele>246.0</ele><time>2026-04-11T12:50:23Z</time></trkpt><trkpt lat="41.67974404899953" lon="13.375537053286791"><ele>246.0</ele><time>2026-04-11T12:50:24Z</time></trkpt><trkpt lat="41.67978024750562" lon="13.375678542347105"><ele>245.8</ele><time>2026-04-11T12:50:25Z</time></trkpt><trkpt lat="41.67981566581483" lon="13.375817267667381"><ele>245.60000000000002</ele><time>2026-04-11T12:50:26Z</time></trkpt><trkpt lat="41.67985161631785" lon="13.375951138979524"><ele>245.4</ele><time>2026-04-11T12:50:27Z</time></trkpt><trkpt lat="41.679887098031244" lon="13.376072993794665"><ele>245.2</ele><time>2026-04-11T12:50:28Z</time></trkpt><trkpt lat="41.67991671411798" lon="13.376180738015092"><ele>245.0</ele><time>2026-04-11T12:50:29Z</time></trkpt><trkpt lat="41.679942342800345" lon="13.376290329982648"><ele>245.2</ele><time>2026-04-11T12:50:30Z</time></trkpt><trkpt lat="41.679965581665314" lon="13.376402201950587"><ele>245.4</ele><time>2026-04-11T12:50:31Z</time></trkpt><trkpt lat="41.679987725206104" lon="13.37649903281842"><ele>245.60000000000002</ele><time>2026-04-11T12:50:32Z</time></trkpt><trkpt lat="41.680026824789" lon="13.376637804418264"><ele>245.8</ele><time>2026-04-11T12:50:34Z</time></trkpt><trkpt lat="41.68004448953253" lon="13.376732606918605"><ele>246.0</ele><time>2026-04-11T12:50:37Z</time></trkpt><trkpt lat="41.680160200568274" lon="13.376831457019088"><ele>246.0</ele><time>2026-04-11T12:50:49Z</time></trkpt><trkpt lat="41.680227925799464" lon="13.376830766742804"><ele>246.0</ele><time>2026-04-11T12:50:50Z</time></trkpt><trkpt lat="41.680304384706936" lon="13.376810789639064"><ele>246.0</ele><time>2026-04-11T12:50:51Z</time></trkpt><trkpt lat="41.680388288039644" lon="13.3768117938251"><ele>246.0</ele><time>2026-04-11T12:50:52Z</time></trkpt><trkpt lat="41.68047370575575" lon="13.376812917223921"><ele>246.0</ele><time>2026-04-11T12:50:53Z</time></trkpt><trkpt lat="41.68055575268233" lon="13.376815735459186"><ele>246.0</ele><time>2026-04-11T12:50:54Z</time></trkpt><trkpt lat="41.68063396725552" lon="13.376815330708956"><ele>246.33333333333334</ele><time>2026-04-11T12:50:55Z</time></trkpt><trkpt lat="41.680707666687674" lon="13.376812866027716"><ele>246.66666666666669</ele><time>2026-04-11T12:50:56Z</time></trkpt><trkpt lat="41.68077683305122" lon="13.376810714896534"><ele>247.0</ele><time>2026-04-11T12:50:57Z</time></trkpt><trkpt lat="41.68084210193327" lon="13.376810009937445"><ele>247.33333333333334</ele><time>2026-04-11T12:50:58Z</time></trkpt><trkpt lat="41.68096369219396" lon="13.376814282635468"><ele>247.66666666666669</ele><time>2026-04-11T12:50:59.999Z</time></trkpt><trkpt lat="41.681071357850534" lon="13.376818158599615"><ele>248.0</ele><time>2026-04-11T12:51:01.999Z</time></trkpt><trkpt lat="41.68118015517962" lon="13.376812189270725"><ele>248.0</ele><time>2026-04-11T12:51:03.999Z</time></trkpt><trkpt lat="41.68129210375662" lon="13.376806440201133"><ele>248.0</ele><time>2026-04-11T12:51:05.999Z</time></trkpt><trkpt lat="41.68140611869345" lon="13.376807704535786"><ele>248.0</ele><time>2026-04-11T12:51:07.999Z</time></trkpt><trkpt lat="41.68150816645299" lon="13.37680924296448"><ele>248.0</ele><time>2026-04-11T12:51:09.999Z</time></trkpt><trkpt lat="41.68160962210708" lon="13.37680920497445"><ele>248.0</ele><time>2026-04-11T12:51:11.999Z</time></trkpt><trkpt lat="41.68170966563007" lon="13.37681156306569"><ele>248.0</ele><time>2026-04-11T12:51:13.999Z</time></trkpt><trkpt lat="41.68180354285627" lon="13.3768106243371"><ele>248.0</ele><time>2026-04-11T12:51:15.999Z</time></trkpt><trkpt lat="41.681900909624645" lon="13.376798810964738"><ele>248.0</ele><time>2026-04-11T12:51:17.999Z</time></trkpt><trkpt lat="41.682000355039044" lon="13.376789719168865"><ele>248.0</ele><time>2026-04-11T12:51:20Z</time></trkpt><trkpt lat="41.68210106895787" lon="13.376805212060745"><ele>248.0</ele><time>2026-04-11T12:51:22Z</time></trkpt><trkpt lat="41.68219795569879" lon="13.376800509749755"><ele>248.66666666666669</ele><time>2026-04-11T12:51:24Z</time></trkpt><trkpt lat="41.682287306330856" lon="13.376793723880079"><ele>249.33333333333334</ele><time>2026-04-11T12:51:26Z</time></trkpt><trkpt lat="41.682381320599234" lon="13.376786984674892"><ele>250.0</ele><time>2026-04-11T12:51:28Z</time></trkpt><trkpt lat="41.68244799587692" lon="13.376778975540478"><ele>250.66666666666669</ele><time>2026-04-11T12:51:30Z</time></trkpt><trkpt lat="41.682514284374825" lon="13.376771309556378"><ele>251.33333333333334</ele><time>2026-04-11T12:51:32Z</time></trkpt><trkpt lat="41.68258421585912" lon="13.376769454193584"><ele>252.0</ele><time>2026-04-11T12:51:34Z</time></trkpt><trkpt lat="41.68265777413566" lon="13.376772093627165"><ele>252.0</ele><time>2026-04-11T12:51:36Z</time></trkpt><trkpt lat="41.68273496789964" lon="13.376773760633506"><ele>252.0</ele><time>2026-04-11T12:51:39Z</time></trkpt><trkpt lat="41.68283187760143" lon="13.37676613527804"><ele>252.0</ele><time>2026-04-11T12:51:42Z</time></trkpt><trkpt lat="41.68292075260868" lon="13.376743624877927"><ele>252.0</ele><time>2026-04-11T12:51:44Z</time></trkpt><trkpt lat="41.68305594244547" lon="13.376720719362828"><ele>252.0</ele><time>2026-04-11T12:51:46Z</time></trkpt><trkpt lat="41.68313791986461" lon="13.376720665097878"><ele>252.33333333333334</ele><time>2026-04-11T12:51:47Z</time></trkpt><trkpt lat="41.68322157756941" lon="13.37671957036879"><ele>252.66666666666669</ele><time>2026-04-11T12:51:48Z</time></trkpt><trkpt lat="41.68330689136514" lon="13.37671175191346"><ele>253.0</ele><time>2026-04-11T12:51:49Z</time></trkpt><trkpt lat="41.68337741992059" lon="13.376695277193056"><ele>253.33333333333334</ele><time>2026-04-11T12:51:50Z</time></trkpt><trkpt lat="41.683473277851334" lon="13.376679998641533"><ele>253.66666666666669</ele><time>2026-04-11T12:51:52Z</time></trkpt><trkpt lat="41.6835640209729" lon="13.376672515078173"><ele>254.0</ele><time>2026-04-11T12:51:54Z</time></trkpt><trkpt lat="41.68365465462746" lon="13.37665771056771"><ele>254.33333333333334</ele><time>2026-04-11T12:51:56Z</time></trkpt><trkpt lat="41.68372006340413" lon="13.376641153766736"><ele>254.66666666666669</ele><time>2026-04-11T12:51:58Z</time></trkpt><trkpt lat="41.683784082345966" lon="13.376624809969236"><ele>255.0</ele><time>2026-04-11T12:52:01Z</time></trkpt><trkpt lat="41.68385946133819" lon="13.376604813333223"><ele>255.33333333333331</ele><time>2026-04-11T12:52:05Z</time></trkpt><trkpt lat="41.683942900231045" lon="13.376564883796359"><ele>255.66666666666666</ele><time>2026-04-11T12:52:08Z</time></trkpt><trkpt lat="41.68402109986031" lon="13.376511569921918"><ele>256.0</ele><time>2026-04-11T12:52:09Z</time></trkpt><trkpt lat="41.68412258775544" lon="13.376463137076213"><ele>256.0</ele><time>2026-04-11T12:52:10Z</time></trkpt><trkpt lat="41.68423379558903" lon="13.376447295093584"><ele>256.0</ele><time>2026-04-11T12:52:11Z</time></trkpt><trkpt lat="41.684363644069485" lon="13.376441942717321"><ele>256.0</ele><time>2026-04-11T12:52:12Z</time></trkpt><trkpt lat="41.68451161436595" lon="13.376414985544107"><ele>256.0</ele><time>2026-04-11T12:52:13Z</time></trkpt><trkpt lat="41.68466255566831" lon="13.376390916694378"><ele>257.0</ele><time>2026-04-11T12:52:14Z</time></trkpt><trkpt lat="41.68481430011008" lon="13.376391981212397"><ele>258.0</ele><time>2026-04-11T12:52:15Z</time></trkpt><trkpt lat="41.68497353427102" lon="13.376380799791331"><ele>259.0</ele><time>2026-04-11T12:52:16Z</time></trkpt><trkpt lat="41.685136130349704" lon="13.376359934207894"><ele>259.66666666666663</ele><time>2026-04-11T12:52:17Z</time></trkpt><trkpt lat="41.68530089674717" lon="13.37632103433883"><ele>260.3333333333333</ele><time>2026-04-11T12:52:18Z</time></trkpt><trkpt lat="41.685475309601166" lon="13.376262776783442"><ele>261.0</ele><time>2026-04-11T12:52:19Z</time></trkpt><trkpt lat="41.68564615221915" lon="13.376214845138549"><ele>261.0</ele><time>2026-04-11T12:52:20Z</time></trkpt><trkpt lat="41.685812784405044" lon="13.376177345688092"><ele>261.0</ele><time>2026-04-11T12:52:21Z</time></trkpt><trkpt lat="41.68598400906784" lon="13.376140761948076"><ele>261.0</ele><time>2026-04-11T12:52:22Z</time></trkpt><trkpt lat="41.68615269342951" lon="13.37609500080979"><ele>261.3333333333333</ele><time>2026-04-11T12:52:23Z</time></trkpt><trkpt lat="41.68632502764052" lon="13.376050238600222"><ele>261.66666666666663</ele><time>2026-04-11T12:52:24Z</time></trkpt><trkpt lat="41.6864997449923" lon="13.376009213799003"><ele>262.0</ele><time>2026-04-11T12:52:25Z</time></trkpt><trkpt lat="41.68667871179255" lon="13.375977633600016"><ele>262.0</ele><time>2026-04-11T12:52:26Z</time></trkpt><trkpt lat="41.68685934936594" lon="13.375959011586687"><ele>262.0</ele><time>2026-04-11T12:52:27Z</time></trkpt><trkpt lat="41.687036816893134" lon="13.375953437469303"><ele>262.0</ele><time>2026-04-11T12:52:28Z</time></trkpt><trkpt lat="41.687217375833285" lon="13.375973251809915"><ele>262.0</ele><time>2026-04-11T12:52:29Z</time></trkpt><trkpt lat="41.687398538686296" lon="13.376000817441573"><ele>262.0</ele><time>2026-04-11T12:52:30Z</time></trkpt><trkpt lat="41.68757825596935" lon="13.376008285176942"><ele>262.0</ele><time>2026-04-11T12:52:31Z</time></trkpt><trkpt lat="41.68774585832628" lon="13.37600248612332"><ele>262.0</ele><time>2026-04-11T12:52:32Z</time></trkpt><trkpt lat="41.687915949189936" lon="13.375991860096276"><ele>262.0</ele><time>2026-04-11T12:52:33Z</time></trkpt><trkpt lat="41.68808633027589" lon="13.37599785113566"><ele>262.0</ele><time>2026-04-11T12:52:34Z</time></trkpt><trkpt lat="41.688260957585626" lon="13.376028415117636"><ele>262.0</ele><time>2026-04-11T12:52:35Z</time></trkpt><trkpt lat="41.68843856225377" lon="13.376064020502852"><ele>262.0</ele><time>2026-04-11T12:52:36Z</time></trkpt><trkpt lat="41.68862070323358" lon="13.376074820328697"><ele>262.0</ele><time>2026-04-11T12:52:37Z</time></trkpt><trkpt lat="41.68880044474606" lon="13.37605855904915"><ele>263.3333333333333</ele><time>2026-04-11T12:52:38Z</time></trkpt><trkpt lat="41.68898371787904" lon="13.3760323903749"><ele>264.6666666666667</ele><time>2026-04-11T12:52:39Z</time></trkpt><trkpt lat="41.68916893581897" lon="13.376006809572218"><ele>266.0</ele><time>2026-04-11T12:52:40Z</time></trkpt><trkpt lat="41.68935850681431" lon="13.375982431159482"><ele>265.33333333333337</ele><time>2026-04-11T12:52:41Z</time></trkpt><trkpt lat="41.689548826025785" lon="13.375957391610475"><ele>264.6666666666667</ele><time>2026-04-11T12:52:42Z</time></trkpt><trkpt lat="41.6897415956332" lon="13.375934628479435"><ele>264.0</ele><time>2026-04-11T12:52:43Z</time></trkpt><trkpt lat="41.689934098012984" lon="13.375904281635123"><ele>264.0</ele><time>2026-04-11T12:52:44Z</time></trkpt><trkpt lat="41.69012368919928" lon="13.375852648118215"><ele>264.0</ele><time>2026-04-11T12:52:45Z</time></trkpt><trkpt lat="41.6903099699678" lon="13.375781360706236"><ele>264.0</ele><time>2026-04-11T12:52:45.999Z</time></trkpt><trkpt lat="41.69049481501693" lon="13.375709031522696"><ele>264.0</ele><time>2026-04-11T12:52:46.999Z</time></trkpt><trkpt lat="41.69067590213188" lon="13.3756530025368"><ele>264.0</ele><time>2026-04-11T12:52:47.999Z</time></trkpt><trkpt lat="41.690850278052984" lon="13.375602928026442"><ele>264.0</ele><time>2026-04-11T12:52:48.999Z</time></trkpt><trkpt lat="41.691021093941465" lon="13.37554879421935"><ele>265.6666666666667</ele><time>2026-04-11T12:52:49.999Z</time></trkpt><trkpt lat="41.691192370646604" lon="13.375497386294638"><ele>267.33333333333337</ele><time>2026-04-11T12:52:50.999Z</time></trkpt><trkpt lat="41.69136369370016" lon="13.37546095743982"><ele>269.0</ele><time>2026-04-11T12:52:51.999Z</time></trkpt><trkpt lat="41.69153762307827" lon="13.375439849421408"><ele>269.0</ele><time>2026-04-11T12:52:52.999Z</time></trkpt><trkpt lat="41.691714854093355" lon="13.375412312332807"><ele>269.0</ele><time>2026-04-11T12:52:53.999Z</time></trkpt><trkpt lat="41.69189078411409" lon="13.375374850745315"><ele>269.0</ele><time>2026-04-11T12:52:54.999Z</time></trkpt><trkpt lat="41.69206249443586" lon="13.375323117230993"><ele>268.0</ele><time>2026-04-11T12:52:55.999Z</time></trkpt><trkpt lat="41.69223517015791" lon="13.375265635046327"><ele>267.0</ele><time>2026-04-11T12:52:56.999Z</time></trkpt><trkpt lat="41.69240826373265" lon="13.375200198654076"><ele>266.0</ele><time>2026-04-11T12:52:57.999Z</time></trkpt><trkpt lat="41.692586424478" lon="13.375149157624222"><ele>265.33333333333337</ele><time>2026-04-11T12:52:58.999Z</time></trkpt><trkpt lat="41.69276476045194" lon="13.375086816204059"><ele>264.6666666666667</ele><time>2026-04-11T12:52:59.999Z</time></trkpt><trkpt lat="41.692938090407836" lon="13.374999581925653"><ele>264.0</ele><time>2026-04-11T12:53:00.999Z</time></trkpt><trkpt lat="41.69311385721908" lon="13.374925621789489"><ele>264.0</ele><time>2026-04-11T12:53:01.999Z</time></trkpt><trkpt lat="41.69328538802101" lon="13.37482843503842"><ele>264.0</ele><time>2026-04-11T12:53:02.999Z</time></trkpt><trkpt lat="41.693459745714215" lon="13.374733729305584"><ele>264.0</ele><time>2026-04-11T12:53:03.999Z</time></trkpt><trkpt lat="41.693633115853075" lon="13.37464227557544"><ele>266.3333333333333</ele><time>2026-04-11T12:53:04.999Z</time></trkpt><trkpt lat="41.69379794093011" lon="13.374548051354251"><ele>268.66666666666663</ele><time>2026-04-11T12:53:05.999Z</time></trkpt><trkpt lat="41.693965702799964" lon="13.37444496609469"><ele>271.0</ele><time>2026-04-11T12:53:06.999Z</time></trkpt><trkpt lat="41.69412570604461" lon="13.374334091490535"><ele>271.0</ele><time>2026-04-11T12:53:07.999Z</time></trkpt><trkpt lat="41.69427157568452" lon="13.37422746667088"><ele>271.0</ele><time>2026-04-11T12:53:08.999Z</time></trkpt><trkpt lat="41.6944012758894" lon="13.374141961418385"><ele>271.0</ele><time>2026-04-11T12:53:09.999Z</time></trkpt><trkpt lat="41.69452725555345" lon="13.374050879454746"><ele>271.0</ele><time>2026-04-11T12:53:10.999Z</time></trkpt><trkpt lat="41.69464100810247" lon="13.373967396054551"><ele>271.0</ele><time>2026-04-11T12:53:11.999Z</time></trkpt><trkpt lat="41.69477499849207" lon="13.37392649345174"><ele>271.0</ele><time>2026-04-11T12:53:12.999Z</time></trkpt><trkpt lat="41.694916110482005" lon="13.373899876029819"><ele>271.0</ele><time>2026-04-11T12:53:13.999Z</time></trkpt><trkpt lat="41.69506904175942" lon="13.373839804913342"><ele>273.66666666666663</ele><time>2026-04-11T12:53:14.999Z</time></trkpt><trkpt lat="41.69522638060768" lon="13.373760097977012"><ele>276.3333333333333</ele><time>2026-04-11T12:53:15.999Z</time></trkpt><trkpt lat="41.69536165893538" lon="13.373616123144801"><ele>279.0</ele><time>2026-04-11T12:53:16.999Z</time></trkpt><trkpt lat="41.695504669276055" lon="13.373508433795855"><ele>279.0</ele><time>2026-04-11T12:53:17.999Z</time></trkpt><trkpt lat="41.69564957928897" lon="13.373417491326208"><ele>279.0</ele><time>2026-04-11T12:53:18.999Z</time></trkpt><trkpt lat="41.69577908931273" lon="13.373342771821537"><ele>279.0</ele><time>2026-04-11T12:53:19.999Z</time></trkpt><trkpt lat="41.69589192472247" lon="13.373282118013597"><ele>279.0</ele><time>2026-04-11T12:53:20.999Z</time></trkpt><trkpt lat="41.695998732508635" lon="13.373248369530316"><ele>278.5</ele><time>2026-04-11T12:53:21.999Z</time></trkpt><trkpt lat="41.696112656822486" lon="13.373263635502264"><ele>278.0</ele><time>2026-04-11T12:53:22.999Z</time></trkpt><trkpt lat="41.69624320867281" lon="13.373243054154635"><ele>277.5</ele><time>2026-04-11T12:53:23.999Z</time></trkpt><trkpt lat="41.69637458950938" lon="13.373253522287312"><ele>277.0</ele><time>2026-04-11T12:53:25Z</time></trkpt><trkpt lat="41.696496727740545" lon="13.373247432435821"><ele>277.0</ele><time>2026-04-11T12:53:26Z</time></trkpt><trkpt lat="41.69661245738483" lon="13.373242069779616"><ele>277.0</ele><time>2026-04-11T12:53:27Z</time></trkpt><trkpt lat="41.69671419513333" lon="13.373214104021844"><ele>277.0</ele><time>2026-04-11T12:53:28Z</time></trkpt><trkpt lat="41.696803809464335" lon="13.3731348682243"><ele>277.0</ele><time>2026-04-11T12:53:29Z</time></trkpt><trkpt lat="41.69688400568329" lon="13.373011165816688"><ele>277.0</ele><time>2026-04-11T12:53:30Z</time></trkpt><trkpt lat="41.69695690265609" lon="13.3728489418324"><ele>276.3333333333333</ele><time>2026-04-11T12:53:31Z</time></trkpt><trkpt lat="41.69703767020023" lon="13.372674638254576"><ele>275.6666666666667</ele><time>2026-04-11T12:53:32Z</time></trkpt><trkpt lat="41.69713422857241" lon="13.372503439954327"><ele>275.0</ele><time>2026-04-11T12:53:33Z</time></trkpt><trkpt lat="41.69722903991215" lon="13.372334323267017"><ele>276.0</ele><time>2026-04-11T12:53:34Z</time></trkpt><trkpt lat="41.697316573098455" lon="13.372140443246677"><ele>277.0</ele><time>2026-04-11T12:53:35Z</time></trkpt><trkpt lat="41.69739977246279" lon="13.371934489759111"><ele>278.0</ele><time>2026-04-11T12:53:36Z</time></trkpt><trkpt lat="41.69749103433099" lon="13.371724964106077"><ele>278.0</ele><time>2026-04-11T12:53:37Z</time></trkpt><trkpt lat="41.69758131527069" lon="13.3715172007876"><ele>278.0</ele><time>2026-04-11T12:53:38Z</time></trkpt><trkpt lat="41.69766928697597" lon="13.371319006996606"><ele>278.0</ele><time>2026-04-11T12:53:39Z</time></trkpt><trkpt lat="41.697753561260484" lon="13.371130644833439"><ele>278.0</ele><time>2026-04-11T12:53:40Z</time></trkpt><trkpt lat="41.69783054516135" lon="13.370955784771622"><ele>278.0</ele><time>2026-04-11T12:53:41Z</time></trkpt><trkpt lat="41.69790048682876" lon="13.370801681188224"><ele>278.0</ele><time>2026-04-11T12:53:42Z</time></trkpt><trkpt lat="41.6979607932043" lon="13.370646122070049"><ele>278.0</ele><time>2026-04-11T12:53:43Z</time></trkpt><trkpt lat="41.69800231734357" lon="13.37046596053166"><ele>278.6666666666667</ele><time>2026-04-11T12:53:44Z</time></trkpt><trkpt lat="41.69803493165027" lon="13.370267866568659"><ele>279.3333333333333</ele><time>2026-04-11T12:53:45Z</time></trkpt><trkpt lat="41.69807945444103" lon="13.370066834134436"><ele>280.0</ele><time>2026-04-11T12:53:46Z</time></trkpt><trkpt lat="41.69813404795647" lon="13.369860532941498"><ele>279.66666666666663</ele><time>2026-04-11T12:53:47Z</time></trkpt><trkpt lat="41.698206333149024" lon="13.369658726558432"><ele>279.3333333333333</ele><time>2026-04-11T12:53:48Z</time></trkpt><trkpt lat="41.69830481976717" lon="13.369463777551651"><ele>279.0</ele><time>2026-04-11T12:53:49Z</time></trkpt><trkpt lat="41.69840698990752" lon="13.36927979799126"><ele>279.0</ele><time>2026-04-11T12:53:50Z</time></trkpt><trkpt lat="41.69850014942935" lon="13.369111086509337"><ele>279.0</ele><time>2026-04-11T12:53:51Z</time></trkpt><trkpt lat="41.69858170823819" lon="13.368915142743875"><ele>279.0</ele><time>2026-04-11T12:53:52Z</time></trkpt><trkpt lat="41.698654855383296" lon="13.368704272616782"><ele>278.3333333333333</ele><time>2026-04-11T12:53:53Z</time></trkpt><trkpt lat="41.6987223161004" lon="13.368495600637969"><ele>277.66666666666663</ele><time>2026-04-11T12:53:54Z</time></trkpt><trkpt lat="41.698790625634715" lon="13.368304796450555"><ele>277.0</ele><time>2026-04-11T12:53:55Z</time></trkpt><trkpt lat="41.69885440952961" lon="13.368128245655091"><ele>277.2</ele><time>2026-04-11T12:53:56Z</time></trkpt><trkpt lat="41.69890980754822" lon="13.367973119686651"><ele>277.4</ele><time>2026-04-11T12:53:57Z</time></trkpt><trkpt lat="41.698948899929206" lon="13.367839683176891"><ele>277.6</ele><time>2026-04-11T12:53:58Z</time></trkpt><trkpt lat="41.69897463718287" lon="13.367717021578565"><ele>277.8</ele><time>2026-04-11T12:53:59Z</time></trkpt><trkpt lat="41.69900915446949" lon="13.367610590488278"><ele>278.0</ele><time>2026-04-11T12:54:00Z</time></trkpt><trkpt lat="41.69904761872189" lon="13.367508966311183"><ele>278.0</ele><time>2026-04-11T12:54:01Z</time></trkpt><trkpt lat="41.699125129536" lon="13.367420171350748"><ele>278.0</ele><time>2026-04-11T12:54:02Z</time></trkpt><trkpt lat="41.699211080510366" lon="13.367302247883762"><ele>278.0</ele><time>2026-04-11T12:54:03Z</time></trkpt><trkpt lat="41.699285581944345" lon="13.367134919937014"><ele>278.0</ele><time>2026-04-11T12:54:04Z</time></trkpt><trkpt lat="41.69936331805922" lon="13.36695037137033"><ele>277.33333333333337</ele><time>2026-04-11T12:54:05Z</time></trkpt><trkpt lat="41.699446563987976" lon="13.366769851083072"><ele>276.6666666666667</ele><time>2026-04-11T12:54:06Z</time></trkpt><trkpt lat="41.69956214311851" lon="13.36661918163329"><ele>276.0</ele><time>2026-04-11T12:54:07Z</time></trkpt><trkpt lat="41.69972680510919" lon="13.366525286177787"><ele>276.0</ele><time>2026-04-11T12:54:08Z</time></trkpt><trkpt lat="41.699915208533824" lon="13.366404447818539"><ele>276.0</ele><time>2026-04-11T12:54:09Z</time></trkpt><trkpt lat="41.700110050702385" lon="13.366304433736765"><ele>276.0</ele><time>2026-04-11T12:54:10Z</time></trkpt><trkpt lat="41.70028289280425" lon="13.366195890728111"><ele>276.6666666666667</ele><time>2026-04-11T12:54:11Z</time></trkpt><trkpt lat="41.70043919938895" lon="13.366053296378444"><ele>277.33333333333337</ele><time>2026-04-11T12:54:12Z</time></trkpt><trkpt lat="41.70058485585274" lon="13.365876552662268"><ele>278.0</ele><time>2026-04-11T12:54:13Z</time></trkpt><trkpt lat="41.700738632241766" lon="13.365718333963082"><ele>278.0</ele><time>2026-04-11T12:54:14Z</time></trkpt><trkpt lat="41.70090983174872" lon="13.365548835303205"><ele>278.0</ele><time>2026-04-11T12:54:15Z</time></trkpt><trkpt lat="41.70107288195518" lon="13.365395621496459"><ele>278.0</ele><time>2026-04-11T12:54:16Z</time></trkpt><trkpt lat="41.70123205880985" lon="13.365259959956829"><ele>279.33333333333337</ele><time>2026-04-11T12:54:17Z</time></trkpt><trkpt lat="41.701389791682224" lon="13.365139122478052"><ele>280.6666666666667</ele><time>2026-04-11T12:54:18Z</time></trkpt><trkpt lat="41.70154424348097" lon="13.365034147309418"><ele>282.0</ele><time>2026-04-11T12:54:19Z</time></trkpt><trkpt lat="41.70169529582671" lon="13.364944868570298"><ele>282.0</ele><time>2026-04-11T12:54:20Z</time></trkpt><trkpt lat="41.701837165617626" lon="13.364856489781067"><ele>282.0</ele><time>2026-04-11T12:54:21Z</time></trkpt><trkpt lat="41.701970897371716" lon="13.364752884056266"><ele>282.0</ele><time>2026-04-11T12:54:22Z</time></trkpt><trkpt lat="41.70209369249069" lon="13.364635413773282"><ele>282.4</ele><time>2026-04-11T12:54:23Z</time></trkpt><trkpt lat="41.702194073344934" lon="13.364518155655905"><ele>282.79999999999995</ele><time>2026-04-11T12:54:24Z</time></trkpt><trkpt lat="41.70227905515623" lon="13.364420923490803"><ele>283.2</ele><time>2026-04-11T12:54:25Z</time></trkpt><trkpt lat="41.70235401663039" lon="13.364343215767862"><ele>283.59999999999997</ele><time>2026-04-11T12:54:26Z</time></trkpt><trkpt lat="41.70241955430566" lon="13.364286996177496"><ele>284.0</ele><time>2026-04-11T12:54:27Z</time></trkpt><trkpt lat="41.70248896257166" lon="13.364212976739713"><ele>284.0</ele><time>2026-04-11T12:54:29Z</time></trkpt><trkpt lat="41.70253078135762" lon="13.36414559477481"><ele>284.0</ele><time>2026-04-11T12:54:36.999Z</time></trkpt><trkpt lat="41.702436972563916" lon="13.363941235383662"><ele>284.0</ele><time>2026-04-11T12:54:38.999Z</time></trkpt><trkpt lat="41.702397718170346" lon="13.363828708880666"><ele>284.0</ele><time>2026-04-11T12:54:40.999Z</time></trkpt><trkpt lat="41.70248970813432" lon="13.36373508006312"><ele>284.25</ele><time>2026-04-11T12:54:42.999Z</time></trkpt><trkpt lat="41.70259791722094" lon="13.363679099068369"><ele>284.5</ele><time>2026-04-11T12:54:43.999Z</time></trkpt><trkpt lat="41.702704212578375" lon="13.3636499730869"><ele>284.75</ele><time>2026-04-11T12:54:44.999Z</time></trkpt><trkpt lat="41.70282779285302" lon="13.363624209909387"><ele>285.0</ele><time>2026-04-11T12:54:45.999Z</time></trkpt><trkpt lat="41.70297044154702" lon="13.36359319191202"><ele>285.0</ele><time>2026-04-11T12:54:46.999Z</time></trkpt><trkpt lat="41.703132452484134" lon="13.363554965348458"><ele>285.0</ele><time>2026-04-11T12:54:47.999Z</time></trkpt><trkpt lat="41.70329337887109" lon="13.363518014123258"><ele>285.0</ele><time>2026-04-11T12:54:48.999Z</time></trkpt><trkpt lat="41.70347881803191" lon="13.363499995726306"><ele>284.6666666666667</ele><time>2026-04-11T12:54:49.999Z</time></trkpt><trkpt lat="41.70368095745215" lon="13.363499990458559"><ele>284.33333333333337</ele><time>2026-04-11T12:54:50.999Z</time></trkpt><trkpt lat="41.70388565373388" lon="13.363513597362513"><ele>284.0</ele><time>2026-04-11T12:54:51.999Z</time></trkpt><trkpt lat="41.70409289969627" lon="13.363525052645663"><ele>284.0</ele><time>2026-04-11T12:54:52.999Z</time></trkpt><trkpt lat="41.704303260015536" lon="13.36352114180564"><ele>284.0</ele><time>2026-04-11T12:54:53.999Z</time></trkpt><trkpt lat="41.70452589330559" lon="13.36347607677463"><ele>284.0</ele><time>2026-04-11T12:54:54.999Z</time></trkpt><trkpt lat="41.70476190555338" lon="13.36339901804088"><ele>284.0</ele><time>2026-04-11T12:54:55.999Z</time></trkpt><trkpt lat="41.704998229791805" lon="13.363331565233956"><ele>284.0</ele><time>2026-04-11T12:54:56.999Z</time></trkpt><trkpt lat="41.70523056948532" lon="13.36325296999665"><ele>284.5</ele><time>2026-04-11T12:54:57.999Z</time></trkpt><trkpt lat="41.70545176730172" lon="13.363120771419762"><ele>285.0</ele><time>2026-04-11T12:54:58.999Z</time></trkpt><trkpt lat="41.7056657672155" lon="13.362945789760364"><ele>285.0</ele><time>2026-04-11T12:54:59.999Z</time></trkpt><trkpt lat="41.70588593952252" lon="13.36276516317775"><ele>285.0</ele><time>2026-04-11T12:55:00.999Z</time></trkpt><trkpt lat="41.70609586805823" lon="13.362550076692509"><ele>285.0</ele><time>2026-04-11T12:55:01.999Z</time></trkpt><trkpt lat="41.70629460919626" lon="13.36232488160512"><ele>285.0</ele><time>2026-04-11T12:55:02.999Z</time></trkpt><trkpt lat="41.70651326150553" lon="13.3621456311667"><ele>285.0</ele><time>2026-04-11T12:55:03.999Z</time></trkpt><trkpt lat="41.70674413164148" lon="13.36200629005069"><ele>285.0</ele><time>2026-04-11T12:55:04.999Z</time></trkpt><trkpt lat="41.70697372054858" lon="13.361880557224126"><ele>285.6666666666667</ele><time>2026-04-11T12:55:05.999Z</time></trkpt><trkpt lat="41.70718919404957" lon="13.361790716599847"><ele>286.33333333333337</ele><time>2026-04-11T12:55:06.999Z</time></trkpt><trkpt lat="41.70738089106679" lon="13.361690599773201"><ele>287.0</ele><time>2026-04-11T12:55:07.999Z</time></trkpt><trkpt lat="41.70755761849543" lon="13.3615947248557"><ele>287.0</ele><time>2026-04-11T12:55:08.999Z</time></trkpt><trkpt lat="41.70771798366866" lon="13.361494986024816"><ele>287.0</ele><time>2026-04-11T12:55:09.999Z</time></trkpt><trkpt lat="41.70786512137808" lon="13.361410279924666"><ele>287.0</ele><time>2026-04-11T12:55:10.999Z</time></trkpt><trkpt lat="41.707998168297415" lon="13.361333907333163"><ele>287.4</ele><time>2026-04-11T12:55:11.999Z</time></trkpt><trkpt lat="41.70809167015939" lon="13.361260750966165"><ele>287.79999999999995</ele><time>2026-04-11T12:55:12.999Z</time></trkpt><trkpt lat="41.708167473524576" lon="13.36120132302204"><ele>288.2</ele><time>2026-04-11T12:55:13.999Z</time></trkpt><trkpt lat="41.7082142716821" lon="13.361103286983312"><ele>288.59999999999997</ele><time>2026-04-11T12:55:14.999Z</time></trkpt><trkpt lat="41.70822329902758" lon="13.360955432875494"><ele>289.0</ele><time>2026-04-11T12:55:15.999Z</time></trkpt><trkpt lat="41.70822787888182" lon="13.360785003475307"><ele>289.0</ele><time>2026-04-11T12:55:16.999Z</time></trkpt><trkpt lat="41.708257794755724" lon="13.36061889579274"><ele>289.0</ele><time>2026-04-11T12:55:17.999Z</time></trkpt><trkpt lat="41.70832266156219" lon="13.360463576541635"><ele>289.0</ele><time>2026-04-11T12:55:18.999Z</time></trkpt><trkpt lat="41.708429608132555" lon="13.360345931946844"><ele>289.0</ele><time>2026-04-11T12:55:19.999Z</time></trkpt><trkpt lat="41.70856809253991" lon="13.360268479295899"><ele>289.3333333333333</ele><time>2026-04-11T12:55:20.999Z</time></trkpt><trkpt lat="41.70873108241106" lon="13.36020689181688"><ele>289.6666666666667</ele><time>2026-04-11T12:55:21.999Z</time></trkpt><trkpt lat="41.70888647255601" lon="13.360132887466289"><ele>290.0</ele><time>2026-04-11T12:55:22.999Z</time></trkpt><trkpt lat="41.70902552566054" lon="13.360090341690956"><ele>290.0</ele><time>2026-04-11T12:55:23.999Z</time></trkpt><trkpt lat="41.709140316006085" lon="13.360046137901811"><ele>290.0</ele><time>2026-04-11T12:55:24.999Z</time></trkpt><trkpt lat="41.70922547737666" lon="13.360011192557813"><ele>290.0</ele><time>2026-04-11T12:55:25.999Z</time></trkpt><trkpt lat="41.70928982588188" lon="13.3599675812726"><ele>290.0</ele><time>2026-04-11T12:55:26.999Z</time></trkpt><trkpt lat="41.7093448757279" lon="13.359919924625604"><ele>290.0</ele><time>2026-04-11T12:55:27.999Z</time></trkpt><trkpt lat="41.70934323664387" lon="13.359705529445295"><ele>290.75</ele><time>2026-04-11T12:55:29.999Z</time></trkpt><trkpt lat="41.70932068297269" lon="13.359555354658461"><ele>291.5</ele><time>2026-04-11T12:55:31Z</time></trkpt><trkpt lat="41.70930372663025" lon="13.359389835080112"><ele>292.25</ele><time>2026-04-11T12:55:32Z</time></trkpt><trkpt lat="41.709284121626574" lon="13.359230539525967"><ele>293.0</ele><time>2026-04-11T12:55:33Z</time></trkpt><trkpt lat="41.70926684161031" lon="13.35909529638256"><ele>293.0</ele><time>2026-04-11T12:55:34Z</time></trkpt><trkpt lat="41.70925331579972" lon="13.35898517220565"><ele>293.0</ele><time>2026-04-11T12:55:35Z</time></trkpt><trkpt lat="41.70924397736134" lon="13.358859638681054"><ele>293.0</ele><time>2026-04-11T12:55:37Z</time></trkpt><trkpt lat="41.70924240084452" lon="13.358764782718639"><ele>293.0</ele><time>2026-04-11T12:55:39Z</time></trkpt><trkpt lat="41.709329987825306" lon="13.358681195680283"><ele>293.0</ele><time>2026-04-11T12:55:40Z</time></trkpt><trkpt lat="41.7094228624304" lon="13.3586027027701"><ele>294.5</ele><time>2026-04-11T12:55:41Z</time></trkpt><trkpt lat="41.70949989562961" lon="13.358514862681607"><ele>296.0</ele><time>2026-04-11T12:55:42Z</time></trkpt><trkpt lat="41.70958406042448" lon="13.358399442872104"><ele>297.5</ele><time>2026-04-11T12:55:43Z</time></trkpt><trkpt lat="41.70969682760958" lon="13.358239455724059"><ele>299.0</ele><time>2026-04-11T12:55:44Z</time></trkpt><trkpt lat="41.709824185238496" lon="13.35806385613142"><ele>298.6666666666667</ele><time>2026-04-11T12:55:45Z</time></trkpt><trkpt lat="41.70995315926135" lon="13.35787512196812"><ele>298.3333333333333</ele><time>2026-04-11T12:55:46Z</time></trkpt><trkpt lat="41.7100870535374" lon="13.357687579536066"><ele>298.0</ele><time>2026-04-11T12:55:47Z</time></trkpt><trkpt lat="41.71022194469206" lon="13.357495184360156"><ele>299.0</ele><time>2026-04-11T12:55:48Z</time></trkpt><trkpt lat="41.7103581099712" lon="13.357300413176848"><ele>300.0</ele><time>2026-04-11T12:55:49Z</time></trkpt><trkpt lat="41.71048984100848" lon="13.35711351879191"><ele>301.0</ele><time>2026-04-11T12:55:50Z</time></trkpt><trkpt lat="41.71062400815615" lon="13.356923183765682"><ele>301.66666666666663</ele><time>2026-04-11T12:55:51Z</time></trkpt><trkpt lat="41.710757879734906" lon="13.356731393069271"><ele>302.3333333333333</ele><time>2026-04-11T12:55:52Z</time></trkpt><trkpt lat="41.71088325281914" lon="13.356548892916539"><ele>303.0</ele><time>2026-04-11T12:55:53Z</time></trkpt><trkpt lat="41.71099392360578" lon="13.356388185029017"><ele>304.0</ele><time>2026-04-11T12:55:54Z</time></trkpt><trkpt lat="41.71110401539863" lon="13.356227088975213"><ele>305.0</ele><time>2026-04-11T12:55:55Z</time></trkpt><trkpt lat="41.71121817088591" lon="13.356063039883267"><ele>306.0</ele><time>2026-04-11T12:55:56Z</time></trkpt><trkpt lat="41.711334802458346" lon="13.355898689676474"><ele>306.0</ele><time>2026-04-11T12:55:57Z</time></trkpt><trkpt lat="41.71146116768346" lon="13.355716761417765"><ele>306.0</ele><time>2026-04-11T12:55:58Z</time></trkpt><trkpt lat="41.711616670230356" lon="13.355512807567198"><ele>306.0</ele><time>2026-04-11T12:55:59Z</time></trkpt><trkpt lat="41.71178189883179" lon="13.355276735246123"><ele>309.5</ele><time>2026-04-11T12:56:00Z</time></trkpt><trkpt lat="41.711961953452615" lon="13.355003914931192"><ele>313.0</ele><time>2026-04-11T12:56:01Z</time></trkpt><trkpt lat="41.712137998651315" lon="13.354746669068623"><ele>312.0</ele><time>2026-04-11T12:56:02Z</time></trkpt><trkpt lat="41.7123218259459" lon="13.354481879475943"><ele>311.0</ele><time>2026-04-11T12:56:03Z</time></trkpt><trkpt lat="41.71251126635624" lon="13.354212206466892"><ele>311.0</ele><time>2026-04-11T12:56:04Z</time></trkpt><trkpt lat="41.71268209966088" lon="13.3539739181032"><ele>311.0</ele><time>2026-04-11T12:56:05Z</time></trkpt><trkpt lat="41.71284659482431" lon="13.353740610518438"><ele>313.0</ele><time>2026-04-11T12:56:06Z</time></trkpt><trkpt lat="41.71300990318976" lon="13.353512585031492"><ele>315.0</ele><time>2026-04-11T12:56:07Z</time></trkpt><trkpt lat="41.713178072652" lon="13.353294910353515"><ele>315.0</ele><time>2026-04-11T12:56:08Z</time></trkpt><trkpt lat="41.713352490963686" lon="13.353096837940111"><ele>315.0</ele><time>2026-04-11T12:56:09Z</time></trkpt><trkpt lat="41.713537114971444" lon="13.352918735721753"><ele>317.0</ele><time>2026-04-11T12:56:10Z</time></trkpt><trkpt lat="41.7137327360732" lon="13.352764944818048"><ele>319.0</ele><time>2026-04-11T12:56:11Z</time></trkpt><trkpt lat="41.7139323512268" lon="13.352625495413218"><ele>319.0</ele><time>2026-04-11T12:56:12Z</time></trkpt><trkpt lat="41.71413702702461" lon="13.352508447148852"><ele>319.0</ele><time>2026-04-11T12:56:13Z</time></trkpt><trkpt lat="41.714344151366" lon="13.352407151315916"><ele>319.0</ele><time>2026-04-11T12:56:14Z</time></trkpt><trkpt lat="41.71455285431179" lon="13.352327231036309"><ele>321.3333333333333</ele><time>2026-04-11T12:56:15Z</time></trkpt><trkpt lat="41.714764291416486" lon="13.352266016002"><ele>323.6666666666667</ele><time>2026-04-11T12:56:16Z</time></trkpt><trkpt lat="41.714977320699454" lon="13.352230367033032"><ele>326.0</ele><time>2026-04-11T12:56:17Z</time></trkpt><trkpt lat="41.71519027426505" lon="13.352214872117196"><ele>324.33333333333337</ele><time>2026-04-11T12:56:18Z</time></trkpt><trkpt lat="41.71540672688406" lon="13.35219858239333"><ele>322.6666666666667</ele><time>2026-04-11T12:56:19Z</time></trkpt><trkpt lat="41.715623087139384" lon="13.352175165696485"><ele>321.0</ele><time>2026-04-11T12:56:20Z</time></trkpt><trkpt lat="41.71583814129624" lon="13.352149392992171"><ele>321.0</ele><time>2026-04-11T12:56:21Z</time></trkpt><trkpt lat="41.716051377131805" lon="13.352127648066197"><ele>321.0</ele><time>2026-04-11T12:56:22Z</time></trkpt><trkpt lat="41.71625504167449" lon="13.352109078684881"><ele>321.0</ele><time>2026-04-11T12:56:23Z</time></trkpt><trkpt lat="41.71644944583372" lon="13.35207841146455"><ele>322.3333333333333</ele><time>2026-04-11T12:56:24Z</time></trkpt><trkpt lat="41.716642438957805" lon="13.352025279618267"><ele>323.66666666666663</ele><time>2026-04-11T12:56:24.999Z</time></trkpt><trkpt lat="41.71683257767178" lon="13.351935841585178"><ele>325.0</ele><time>2026-04-11T12:56:25.999Z</time></trkpt><trkpt lat="41.71701331709626" lon="13.351822930494611"><ele>325.0</ele><time>2026-04-11T12:56:26.999Z</time></trkpt><trkpt lat="41.71717977925137" lon="13.351670744598255"><ele>325.0</ele><time>2026-04-11T12:56:27.999Z</time></trkpt><trkpt lat="41.717337183475266" lon="13.351489642097725"><ele>325.0</ele><time>2026-04-11T12:56:28.999Z</time></trkpt><trkpt lat="41.717489109612266" lon="13.351298002169663"><ele>324.66666666666663</ele><time>2026-04-11T12:56:29.999Z</time></trkpt><trkpt lat="41.717629098185625" lon="13.351090603000925"><ele>324.3333333333333</ele><time>2026-04-11T12:56:30.999Z</time></trkpt><trkpt lat="41.71774123977612" lon="13.350884692305227"><ele>324.0</ele><time>2026-04-11T12:56:31.999Z</time></trkpt><trkpt lat="41.71784134909996" lon="13.350667734061918"><ele>324.0</ele><time>2026-04-11T12:56:32.999Z</time></trkpt><trkpt lat="41.71793889686557" lon="13.350446084911654"><ele>324.0</ele><time>2026-04-11T12:56:33.999Z</time></trkpt><trkpt lat="41.71803160513968" lon="13.350225697920642"><ele>324.0</ele><time>2026-04-11T12:56:34.999Z</time></trkpt><trkpt lat="41.71812570952255" lon="13.350001863705614"><ele>324.0</ele><time>2026-04-11T12:56:35.999Z</time></trkpt><trkpt lat="41.718214412699204" lon="13.349799849939613"><ele>324.0</ele><time>2026-04-11T12:56:36.999Z</time></trkpt><trkpt lat="41.718296523449204" lon="13.3496122071143"><ele>324.0</ele><time>2026-04-11T12:56:37.999Z</time></trkpt><trkpt lat="41.71836964681092" lon="13.349440558208089"><ele>323.6</ele><time>2026-04-11T12:56:38.999Z</time></trkpt><trkpt lat="41.71843492866552" lon="13.349288447292892"><ele>323.2</ele><time>2026-04-11T12:56:39.999Z</time></trkpt><trkpt lat="41.71849602918918" lon="13.349147132183628"><ele>322.8</ele><time>2026-04-11T12:56:40.999Z</time></trkpt><trkpt lat="41.71854946670955" lon="13.349025441118123"><ele>322.40000000000003</ele><time>2026-04-11T12:56:41.999Z</time></trkpt><trkpt lat="41.71859386645415" lon="13.348922136304152"><ele>322.0</ele><time>2026-04-11T12:56:42.999Z</time></trkpt><trkpt lat="41.71863463898917" lon="13.348828190814464"><ele>323.20000000000005</ele><time>2026-04-11T12:56:43.999Z</time></trkpt><trkpt lat="41.718677738152756" lon="13.348726734736465"><ele>324.4</ele><time>2026-04-11T12:56:44.999Z</time></trkpt><trkpt lat="41.718726390429374" lon="13.348621352164646"><ele>325.6</ele><time>2026-04-11T12:56:45.999Z</time></trkpt><trkpt lat="41.71877654796631" lon="13.348513425304965"><ele>326.79999999999995</ele><time>2026-04-11T12:56:46.999Z</time></trkpt><trkpt lat="41.71882454571604" lon="13.34840167659097"><ele>328.0</ele><time>2026-04-11T12:56:47.999Z</time></trkpt><trkpt lat="41.71887166464829" lon="13.348289278492718"><ele>327.99999999999994</ele><time>2026-04-11T12:56:48.999Z</time></trkpt><trkpt lat="41.718918937562485" lon="13.348184111010209"><ele>328.0</ele><time>2026-04-11T12:56:49.999Z</time></trkpt><trkpt lat="41.7189616899545" lon="13.348097950007936"><ele>328.0</ele><time>2026-04-11T12:56:50.999Z</time></trkpt><trkpt lat="41.7190024869526" lon="13.348031702246844"><ele>328.0</ele><time>2026-04-11T12:56:51.999Z</time></trkpt><trkpt lat="41.719050088824744" lon="13.347973718703479"><ele>328.0</ele><time>2026-04-11T12:56:52.999Z</time></trkpt><trkpt lat="41.71910985321295" lon="13.347921886393186"><ele>327.99999999999994</ele><time>2026-04-11T12:56:53.999Z</time></trkpt><trkpt lat="41.71917966122256" lon="13.347894027566532"><ele>328.0</ele><time>2026-04-11T12:56:54.999Z</time></trkpt><trkpt lat="41.71925939360314" lon="13.347907441762587"><ele>329.66666666666663</ele><time>2026-04-11T12:56:55.999Z</time></trkpt><trkpt lat="41.71946584093353" lon="13.348010416531348"><ele>331.3333333333333</ele><time>2026-04-11T12:56:57.999Z</time></trkpt><trkpt lat="41.71960392998864" lon="13.348069663151199"><ele>333.0</ele><time>2026-04-11T12:56:58.999Z</time></trkpt><trkpt lat="41.71973787573267" lon="13.348148565926659"><ele>333.3333333333333</ele><time>2026-04-11T12:56:59.999Z</time></trkpt><trkpt lat="41.71988129343458" lon="13.348228441701472"><ele>333.66666666666663</ele><time>2026-04-11T12:57:00.999Z</time></trkpt><trkpt lat="41.720025448921255" lon="13.348331680706485"><ele>334.0</ele><time>2026-04-11T12:57:01.999Z</time></trkpt><trkpt lat="41.72015139915356" lon="13.34848101668122"><ele>339.66666666666663</ele><time>2026-04-11T12:57:02.999Z</time></trkpt><trkpt lat="41.72024887396709" lon="13.348672962701368"><ele>345.3333333333333</ele><time>2026-04-11T12:57:03.999Z</time></trkpt><trkpt lat="41.72031893054772" lon="13.348900646642422"><ele>351.0</ele><time>2026-04-11T12:57:04.999Z</time></trkpt><trkpt lat="41.72038150449362" lon="13.349167144151197"><ele>351.0</ele><time>2026-04-11T12:57:05.999Z</time></trkpt><trkpt lat="41.72044485024517" lon="13.34942666886348"><ele>351.0</ele><time>2026-04-11T12:57:06.999Z</time></trkpt><trkpt lat="41.72051242329146" lon="13.34964650587996"><ele>351.0</ele><time>2026-04-11T12:57:07.999Z</time></trkpt><trkpt lat="41.720602953016986" lon="13.349849785360911"><ele>352.6666666666667</ele><time>2026-04-11T12:57:08.999Z</time></trkpt><trkpt lat="41.72073660906738" lon="13.35002832473984"><ele>354.33333333333337</ele><time>2026-04-11T12:57:09.999Z</time></trkpt><trkpt lat="41.72090722977918" lon="13.350188166344886"><ele>356.0</ele><time>2026-04-11T12:57:10.999Z</time></trkpt><trkpt lat="41.72108687645641" lon="13.350350975360264"><ele>356.0</ele><time>2026-04-11T12:57:11.999Z</time></trkpt><trkpt lat="41.72126321176538" lon="13.350520592572591"><ele>356.0</ele><time>2026-04-11T12:57:12.999Z</time></trkpt><trkpt lat="41.721434962991" lon="13.350684145539999"><ele>356.0</ele><time>2026-04-11T12:57:13.999Z</time></trkpt><trkpt lat="41.72160089019197" lon="13.350838740677283"><ele>355.33333333333337</ele><time>2026-04-11T12:57:14.999Z</time></trkpt><trkpt lat="41.72174417546956" lon="13.350980098113084"><ele>354.6666666666667</ele><time>2026-04-11T12:57:15.999Z</time></trkpt><trkpt lat="41.72186828574271" lon="13.351103255045494"><ele>354.0</ele><time>2026-04-11T12:57:16.999Z</time></trkpt><trkpt lat="41.72196706331992" lon="13.35119952070361"><ele>354.0</ele><time>2026-04-11T12:57:17.999Z</time></trkpt><trkpt lat="41.72206308200625" lon="13.351277519758325"><ele>354.0</ele><time>2026-04-11T12:57:18.999Z</time></trkpt><trkpt lat="41.72216632732917" lon="13.351323725692462"><ele>354.0</ele><time>2026-04-11T12:57:19.999Z</time></trkpt><trkpt lat="41.722266700632915" lon="13.351312770803148"><ele>354.0</ele><time>2026-04-11T12:57:20.999Z</time></trkpt><trkpt lat="41.72235897309386" lon="13.351250214408077"><ele>354.0</ele><time>2026-04-11T12:57:21.999Z</time></trkpt><trkpt lat="41.72241564140062" lon="13.351130153571827"><ele>354.0</ele><time>2026-04-11T12:57:22.999Z</time></trkpt><trkpt lat="41.72242507104632" lon="13.350975807163326"><ele>354.0</ele><time>2026-04-11T12:57:23.999Z</time></trkpt><trkpt lat="41.722382443782195" lon="13.350804257214998"><ele>354.0</ele><time>2026-04-11T12:57:24.999Z</time></trkpt><trkpt lat="41.72229971209301" lon="13.350622774883377"><ele>354.0</ele><time>2026-04-11T12:57:25.999Z</time></trkpt><trkpt lat="41.722168414891264" lon="13.350401871552863"><ele>354.6666666666667</ele><time>2026-04-11T12:57:26.999Z</time></trkpt><trkpt lat="41.72205377821788" lon="13.35019398103393"><ele>355.33333333333337</ele><time>2026-04-11T12:57:27.999Z</time></trkpt><trkpt lat="41.72196758716116" lon="13.350022174945844"><ele>356.0</ele><time>2026-04-11T12:57:28.999Z</time></trkpt><trkpt lat="41.72188665404143" lon="13.349875736193002"><ele>356.0</ele><time>2026-04-11T12:57:29.999Z</time></trkpt><trkpt lat="41.72182014788745" lon="13.349740389582665"><ele>356.0</ele><time>2026-04-11T12:57:30.999Z</time></trkpt><trkpt lat="41.72174490352316" lon="13.349600172094009"><ele>356.0</ele><time>2026-04-11T12:57:31.999Z</time></trkpt><trkpt lat="41.72166346841339" lon="13.349441567119898"><ele>356.0</ele><time>2026-04-11T12:57:32.999Z</time></trkpt><trkpt lat="41.721550151169325" lon="13.34924459340013"><ele>359.33333333333337</ele><time>2026-04-11T12:57:33.999Z</time></trkpt><trkpt lat="41.721432690462194" lon="13.349019105328352"><ele>362.6666666666667</ele><time>2026-04-11T12:57:34.999Z</time></trkpt><trkpt lat="41.72132259428031" lon="13.348780087970663"><ele>366.0</ele><time>2026-04-11T12:57:35.999Z</time></trkpt><trkpt lat="41.7212271024578" lon="13.34854563198017"><ele>370.5</ele><time>2026-04-11T12:57:37Z</time></trkpt><trkpt lat="41.72117836058607" lon="13.348275073917627"><ele>375.0</ele><time>2026-04-11T12:57:38Z</time></trkpt><trkpt lat="41.721170252941775" lon="13.34795125693784"><ele>377.0</ele><time>2026-04-11T12:57:39Z</time></trkpt><trkpt lat="41.721180233109244" lon="13.347610668430123"><ele>379.0</ele><time>2026-04-11T12:57:40Z</time></trkpt><trkpt lat="41.72119759744218" lon="13.347254346733296"><ele>380.0</ele><time>2026-04-11T12:57:41Z</time></trkpt><trkpt lat="41.72121297219386" lon="13.346910915230982"><ele>381.0</ele><time>2026-04-11T12:57:42Z</time></trkpt><trkpt lat="41.72122720036882" lon="13.346590932518673"><ele>381.3333333333333</ele><time>2026-04-11T12:57:43Z</time></trkpt><trkpt lat="41.721257825948854" lon="13.346307305565846"><ele>381.66666666666663</ele><time>2026-04-11T12:57:44Z</time></trkpt><trkpt lat="41.72126638169759" lon="13.346071549392045"><ele>382.0</ele><time>2026-04-11T12:57:45Z</time></trkpt><trkpt lat="41.72127295270785" lon="13.345867060106205"><ele>382.0</ele><time>2026-04-11T12:57:46Z</time></trkpt><trkpt lat="41.72127983403978" lon="13.345705532098522"><ele>382.0</ele><time>2026-04-11T12:57:47Z</time></trkpt><trkpt lat="41.721299416730965" lon="13.345575907470273"><ele>382.0</ele><time>2026-04-11T12:57:48Z</time></trkpt><trkpt lat="41.72133730869898" lon="13.345466529153676"><ele>382.0</ele><time>2026-04-11T12:57:49Z</time></trkpt><trkpt lat="41.72139257919409" lon="13.345367928167498"><ele>382.0</ele><time>2026-04-11T12:57:50Z</time></trkpt><trkpt lat="41.721484904116394" lon="13.345319232104268"><ele>382.0</ele><time>2026-04-11T12:57:51Z</time></trkpt><trkpt lat="41.72158924508105" lon="13.345339438618149"><ele>382.0</ele><time>2026-04-11T12:57:52Z</time></trkpt><trkpt lat="41.72167780959531" lon="13.345416288554333"><ele>382.0</ele><time>2026-04-11T12:57:53Z</time></trkpt><trkpt lat="41.72173875940569" lon="13.345560147721079"><ele>382.0</ele><time>2026-04-11T12:57:54Z</time></trkpt><trkpt lat="41.72177083970837" lon="13.345761406381746"><ele>382.0</ele><time>2026-04-11T12:57:55Z</time></trkpt><trkpt lat="41.7217962315498" lon="13.34599675127289"><ele>382.0</ele><time>2026-04-11T12:57:56Z</time></trkpt><trkpt lat="41.721825102671644" lon="13.346220483407173"><ele>382.0</ele><time>2026-04-11T12:57:57Z</time></trkpt><trkpt lat="41.72186466664968" lon="13.34643653821286"><ele>381.66666666666663</ele><time>2026-04-11T12:57:58Z</time></trkpt><trkpt lat="41.72189663172574" lon="13.346659943828302"><ele>381.3333333333333</ele><time>2026-04-11T12:57:59Z</time></trkpt><trkpt lat="41.721924286581846" lon="13.346889931066867"><ele>381.0</ele><time>2026-04-11T12:58:00Z</time></trkpt><trkpt lat="41.72195263654884" lon="13.34710900213376"><ele>384.0</ele><time>2026-04-11T12:58:01Z</time></trkpt><trkpt lat="41.721979107339415" lon="13.34729686008472"><ele>387.0</ele><time>2026-04-11T12:58:02Z</time></trkpt><trkpt lat="41.7220063223898" lon="13.347463506342306"><ele>390.0</ele><time>2026-04-11T12:58:03Z</time></trkpt><trkpt lat="41.722046427001004" lon="13.347620123790302"><ele>393.0</ele><time>2026-04-11T12:58:04Z</time></trkpt><trkpt lat="41.72210407906095" lon="13.347769831256832"><ele>393.0</ele><time>2026-04-11T12:58:05Z</time></trkpt><trkpt lat="41.72218649737762" lon="13.347899889921228"><ele>393.0</ele><time>2026-04-11T12:58:06Z</time></trkpt><trkpt lat="41.72229781217286" lon="13.347981667877404"><ele>393.0</ele><time>2026-04-11T12:58:07Z</time></trkpt><trkpt lat="41.72242351163734" lon="13.348018985343622"><ele>393.0</ele><time>2026-04-11T12:58:08Z</time></trkpt><trkpt lat="41.722557526506115" lon="13.348014594965758"><ele>393.0</ele><time>2026-04-11T12:58:09Z</time></trkpt><trkpt lat="41.722696656278266" lon="13.347970772461233"><ele>393.0</ele><time>2026-04-11T12:58:10Z</time></trkpt><trkpt lat="41.72286073983585" lon="13.347950077738298"><ele>393.0</ele><time>2026-04-11T12:58:11Z</time></trkpt><trkpt lat="41.72303208240785" lon="13.347908869952786"><ele>395.66666666666663</ele><time>2026-04-11T12:58:12Z</time></trkpt><trkpt lat="41.7232102415685" lon="13.347849307593911"><ele>398.3333333333333</ele><time>2026-04-11T12:58:13Z</time></trkpt><trkpt lat="41.72338740085301" lon="13.347820475090165"><ele>401.0</ele><time>2026-04-11T12:58:14Z</time></trkpt><trkpt lat="41.72356591702652" lon="13.347784741075321"><ele>401.66666666666663</ele><time>2026-04-11T12:58:15Z</time></trkpt><trkpt lat="41.723735935624305" lon="13.34775699620587"><ele>402.33333333333337</ele><time>2026-04-11T12:58:16Z</time></trkpt><trkpt lat="41.72390577519055" lon="13.347734176242051"><ele>403.0</ele><time>2026-04-11T12:58:17Z</time></trkpt><trkpt lat="41.72407461913219" lon="13.347716607994963"><ele>403.0</ele><time>2026-04-11T12:58:18Z</time></trkpt><trkpt lat="41.72424013445868" lon="13.347691079674991"><ele>403.0</ele><time>2026-04-11T12:58:19Z</time></trkpt><trkpt lat="41.72440160283548" lon="13.347668437385392"><ele>403.0</ele><time>2026-04-11T12:58:19.999Z</time></trkpt><trkpt lat="41.72457073453023" lon="13.347636233341365"><ele>403.6666666666667</ele><time>2026-04-11T12:58:20.999Z</time></trkpt><trkpt lat="41.72475046439502" lon="13.347592991439672"><ele>404.33333333333337</ele><time>2026-04-11T12:58:21.999Z</time></trkpt><trkpt lat="41.72493750381431" lon="13.347551187275135"><ele>405.0</ele><time>2026-04-11T12:58:22.999Z</time></trkpt><trkpt lat="41.72513374103095" lon="13.347509159134777"><ele>406.0</ele><time>2026-04-11T12:58:23.999Z</time></trkpt><trkpt lat="41.72534526801044" lon="13.3474337800125"><ele>407.0</ele><time>2026-04-11T12:58:24.999Z</time></trkpt><trkpt lat="41.72558247351115" lon="13.347373988083513"><ele>407.0</ele><time>2026-04-11T12:58:25.999Z</time></trkpt><trkpt lat="41.725821300961876" lon="13.347309517133555"><ele>407.0</ele><time>2026-04-11T12:58:26.999Z</time></trkpt><trkpt lat="41.72601894914977" lon="13.347245095312523"><ele>407.0</ele><time>2026-04-11T12:58:27.999Z</time></trkpt><trkpt lat="41.726199607512946" lon="13.34719593232337"><ele>416.0</ele><time>2026-04-11T12:58:28.999Z</time></trkpt><trkpt lat="41.72637738003814" lon="13.347150096878734"><ele>425.0</ele><time>2026-04-11T12:58:29.999Z</time></trkpt><trkpt lat="41.72656549339538" lon="13.34709618286185"><ele>434.0</ele><time>2026-04-11T12:58:30.999Z</time></trkpt><trkpt lat="41.72674738037793" lon="13.347043584360224"><ele>432.0</ele><time>2026-04-11T12:58:31.999Z</time></trkpt><trkpt lat="41.72693145398827" lon="13.346989407563473"><ele>430.0</ele><time>2026-04-11T12:58:32.999Z</time></trkpt><trkpt lat="41.72710836935363" lon="13.346937062881258"><ele>428.0</ele><time>2026-04-11T12:58:33.999Z</time></trkpt><trkpt lat="41.72726437830635" lon="13.346888293323826"><ele>428.0</ele><time>2026-04-11T12:58:34.999Z</time></trkpt><trkpt lat="41.727412227052604" lon="13.346832689493203"><ele>428.0</ele><time>2026-04-11T12:58:35.999Z</time></trkpt><trkpt lat="41.72754994463099" lon="13.34676958190856"><ele>428.0</ele><time>2026-04-11T12:58:36.999Z</time></trkpt><trkpt lat="41.727674927378715" lon="13.346711832136036"><ele>428.0</ele><time>2026-04-11T12:58:37.999Z</time></trkpt><trkpt lat="41.727799010733264" lon="13.346645888316687"><ele>425.0</ele><time>2026-04-11T12:58:38.999Z</time></trkpt><trkpt lat="41.72791489238334" lon="13.34657842235724"><ele>422.0</ele><time>2026-04-11T12:58:39.999Z</time></trkpt><trkpt lat="41.72802042642503" lon="13.346514994146546"><ele>419.0</ele><time>2026-04-11T12:58:40.999Z</time></trkpt><trkpt lat="41.72812978038696" lon="13.346451377582257"><ele>416.0</ele><time>2026-04-11T12:58:41.999Z</time></trkpt><trkpt lat="41.728239698252565" lon="13.346387377013524"><ele>419.0</ele><time>2026-04-11T12:58:42.999Z</time></trkpt><trkpt lat="41.72834847593717" lon="13.346322523384046"><ele>422.0</ele><time>2026-04-11T12:58:43.999Z</time></trkpt><trkpt lat="41.72845384287116" lon="13.346259319921447"><ele>425.0</ele><time>2026-04-11T12:58:44.999Z</time></trkpt><trkpt lat="41.72855595348082" lon="13.346201486510038"><ele>428.0</ele><time>2026-04-11T12:58:45.999Z</time></trkpt><trkpt lat="41.72865601839173" lon="13.346144048509622"><ele>428.0</ele><time>2026-04-11T12:58:46.999Z</time></trkpt><trkpt lat="41.72876061407339" lon="13.346081800907154"><ele>428.0</ele><time>2026-04-11T12:58:47.999Z</time></trkpt><trkpt lat="41.72886908725511" lon="13.346016924536476"><ele>428.0</ele><time>2026-04-11T12:58:48.999Z</time></trkpt><trkpt lat="41.728985773161114" lon="13.34594767533166"><ele>428.0</ele><time>2026-04-11T12:58:49.999Z</time></trkpt><trkpt lat="41.72910925029699" lon="13.345871297312952"><ele>428.0</ele><time>2026-04-11T12:58:50.999Z</time></trkpt><trkpt lat="41.72923870840303" lon="13.345787188031705"><ele>428.0</ele><time>2026-04-11T12:58:51.999Z</time></trkpt><trkpt lat="41.72937203677581" lon="13.345704670577232"><ele>428.0</ele><time>2026-04-11T12:58:52.999Z</time></trkpt><trkpt lat="41.72951645169729" lon="13.345639157564298"><ele>428.0</ele><time>2026-04-11T12:58:53.999Z</time></trkpt><trkpt lat="41.7296588417774" lon="13.345552404466934"><ele>432.0</ele><time>2026-04-11T12:58:54.999Z</time></trkpt><trkpt lat="41.72980292015211" lon="13.34546291478898"><ele>436.0</ele><time>2026-04-11T12:58:55.999Z</time></trkpt><trkpt lat="41.72994808313404" lon="13.345375967589602"><ele>440.0</ele><time>2026-04-11T12:58:56.999Z</time></trkpt><trkpt lat="41.73009966984174" lon="13.345328314455653"><ele>439.5</ele><time>2026-04-11T12:58:57.999Z</time></trkpt><trkpt lat="41.73023290769894" lon="13.34529650111623"><ele>439.0</ele><time>2026-04-11T12:58:58.999Z</time></trkpt><trkpt lat="41.73035284221067" lon="13.345268157463122"><ele>438.5</ele><time>2026-04-11T12:58:59.999Z</time></trkpt><trkpt lat="41.730459155280286" lon="13.345238914615559"><ele>438.0</ele><time>2026-04-11T12:59:00.999Z</time></trkpt><trkpt lat="41.73055235811138" lon="13.345202018602073"><ele>438.0</ele><time>2026-04-11T12:59:01.999Z</time></trkpt><trkpt lat="41.73063431036427" lon="13.345161226632948"><ele>438.0</ele><time>2026-04-11T12:59:02.999Z</time></trkpt><trkpt lat="41.73070764424638" lon="13.345116152630771"><ele>438.0</ele><time>2026-04-11T12:59:03.999Z</time></trkpt><trkpt lat="41.730774585101216" lon="13.34507708545573"><ele>438.0</ele><time>2026-04-11T12:59:04.999Z</time></trkpt><trkpt lat="41.73087017744239" lon="13.345036469025414"><ele>438.0</ele><time>2026-04-11T12:59:06.999Z</time></trkpt><trkpt lat="41.73093810223425" lon="13.345034441130974"><ele>438.0</ele><time>2026-04-11T12:59:07.999Z</time></trkpt><trkpt lat="41.7310093484647" lon="13.345000966342369"><ele>439.79999999999995</ele><time>2026-04-11T12:59:08.999Z</time></trkpt><trkpt lat="41.73106969695848" lon="13.344934191020583"><ele>441.59999999999997</ele><time>2026-04-11T12:59:09.999Z</time></trkpt><trkpt lat="41.73111729436205" lon="13.344829758606815"><ele>443.40000000000003</ele><time>2026-04-11T12:59:10.999Z</time></trkpt><trkpt lat="41.73117112693022" lon="13.344726393893641"><ele>445.20000000000005</ele><time>2026-04-11T12:59:11.999Z</time></trkpt><trkpt lat="41.731247504168024" lon="13.344641521251756"><ele>447.0</ele><time>2026-04-11T12:59:12.999Z</time></trkpt><trkpt lat="41.73134658569083" lon="13.344564076030222"><ele>441.75</ele><time>2026-04-11T12:59:13.999Z</time></trkpt><trkpt lat="41.731461541082545" lon="13.344511243985371"><ele>436.5</ele><time>2026-04-11T12:59:14.999Z</time></trkpt><trkpt lat="41.731578543813136" lon="13.344462984836005"><ele>431.25</ele><time>2026-04-11T12:59:15.999Z</time></trkpt><trkpt lat="41.73169722395425" lon="13.344404141358545"><ele>426.0</ele><time>2026-04-11T12:59:16.999Z</time></trkpt><trkpt lat="41.73182844968097" lon="13.344334049171211"><ele>429.33333333333337</ele><time>2026-04-11T12:59:17.999Z</time></trkpt><trkpt lat="41.731982635693534" lon="13.344270543163274"><ele>432.6666666666667</ele><time>2026-04-11T12:59:18.999Z</time></trkpt><trkpt lat="41.732149795838865" lon="13.344210369477294"><ele>436.0</ele><time>2026-04-11T12:59:19.999Z</time></trkpt><trkpt lat="41.73232770450987" lon="13.34415063447841"><ele>436.0</ele><time>2026-04-11T12:59:20.999Z</time></trkpt><trkpt lat="41.73250616852955" lon="13.344078848800313"><ele>436.0</ele><time>2026-04-11T12:59:21.999Z</time></trkpt><trkpt lat="41.73269187479144" lon="13.343997710173342"><ele>436.0</ele><time>2026-04-11T12:59:22.999Z</time></trkpt><trkpt lat="41.73288522357649" lon="13.343915601683737"><ele>429.33333333333337</ele><time>2026-04-11T12:59:23.999Z</time></trkpt><trkpt lat="41.7330828825719" lon="13.343839704225864"><ele>422.66666666666663</ele><time>2026-04-11T12:59:24.999Z</time></trkpt><trkpt lat="41.73329093531154" lon="13.34378062739481"><ele>416.0</ele><time>2026-04-11T12:59:25.999Z</time></trkpt><trkpt lat="41.73350746785682" lon="13.34373632130627"><ele>415.0</ele><time>2026-04-11T12:59:26.999Z</time></trkpt><trkpt lat="41.733730965514354" lon="13.343700988921263"><ele>414.0</ele><time>2026-04-11T12:59:27.999Z</time></trkpt><trkpt lat="41.73396468393308" lon="13.343665924763217"><ele>414.0</ele><time>2026-04-11T12:59:28.999Z</time></trkpt><trkpt lat="41.73419910457517" lon="13.343632900481676"><ele>414.0</ele><time>2026-04-11T12:59:29.999Z</time></trkpt><trkpt lat="41.73442680748929" lon="13.343621992537232"><ele>413.0</ele><time>2026-04-11T12:59:30.999Z</time></trkpt><trkpt lat="41.73465945081509" lon="13.343638701493369"><ele>412.0</ele><time>2026-04-11T12:59:31.999Z</time></trkpt><trkpt lat="41.7348895541673" lon="13.343679339261026"><ele>412.0</ele><time>2026-04-11T12:59:32.999Z</time></trkpt><trkpt lat="41.73511822184243" lon="13.34375168694648"><ele>412.0</ele><time>2026-04-11T12:59:33.999Z</time></trkpt><trkpt lat="41.73533729406067" lon="13.343855607727885"><ele>414.33333333333337</ele><time>2026-04-11T12:59:34.999Z</time></trkpt><trkpt lat="41.73554183674255" lon="13.343970677930564"><ele>416.66666666666663</ele><time>2026-04-11T12:59:35.999Z</time></trkpt><trkpt lat="41.73573196140734" lon="13.34408922390986"><ele>419.0</ele><time>2026-04-11T12:59:36.999Z</time></trkpt><trkpt lat="41.73591927583915" lon="13.344195626075681"><ele>417.66666666666663</ele><time>2026-04-11T12:59:37.999Z</time></trkpt><trkpt lat="41.73610412984499" lon="13.344305471903802"><ele>416.33333333333337</ele><time>2026-04-11T12:59:38.999Z</time></trkpt><trkpt lat="41.73629530515641" lon="13.344402873109429"><ele>415.0</ele><time>2026-04-11T12:59:39.999Z</time></trkpt><trkpt lat="41.736497058843156" lon="13.344475724369255"><ele>415.0</ele><time>2026-04-11T12:59:40.999Z</time></trkpt><trkpt lat="41.73670280768294" lon="13.344528413128996"><ele>415.0</ele><time>2026-04-11T12:59:42Z</time></trkpt><trkpt lat="41.73691237769644" lon="13.34456260356433"><ele>415.0</ele><time>2026-04-11T12:59:43Z</time></trkpt><trkpt lat="41.737122159280766" lon="13.344570316081859"><ele>413.6666666666667</ele><time>2026-04-11T12:59:44Z</time></trkpt><trkpt lat="41.737322106449405" lon="13.344560167883037"><ele>412.33333333333337</ele><time>2026-04-11T12:59:45Z</time></trkpt><trkpt lat="41.737511678082186" lon="13.344535631351855"><ele>411.0</ele><time>2026-04-11T12:59:46Z</time></trkpt><trkpt lat="41.73770116748825" lon="13.344496917116912"><ele>410.0</ele><time>2026-04-11T12:59:47Z</time></trkpt><trkpt lat="41.737882099519545" lon="13.344438692092078"><ele>409.0</ele><time>2026-04-11T12:59:48Z</time></trkpt><trkpt lat="41.7380605260181" lon="13.344367710705855"><ele>408.0</ele><time>2026-04-11T12:59:49Z</time></trkpt><trkpt lat="41.73822671003966" lon="13.344309727957567"><ele>408.0</ele><time>2026-04-11T12:59:50Z</time></trkpt><trkpt lat="41.73838943103205" lon="13.344252598015022"><ele>408.0</ele><time>2026-04-11T12:59:51Z</time></trkpt><trkpt lat="41.738550605274924" lon="13.344185661081152"><ele>408.0</ele><time>2026-04-11T12:59:52Z</time></trkpt><trkpt lat="41.73873263011813" lon="13.344137781103596"><ele>407.0</ele><time>2026-04-11T12:59:53Z</time></trkpt><trkpt lat="41.738924043574556" lon="13.34406929071501"><ele>406.0</ele><time>2026-04-11T12:59:54Z</time></trkpt><trkpt lat="41.739121415296616" lon="13.34397681608627"><ele>405.0</ele><time>2026-04-11T12:59:55Z</time></trkpt><trkpt lat="41.73933314268273" lon="13.343901979927255"><ele>401.0</ele><time>2026-04-11T12:59:56Z</time></trkpt><trkpt lat="41.73955508096833" lon="13.343823735178157"><ele>397.0</ele><time>2026-04-11T12:59:57Z</time></trkpt><trkpt lat="41.739795134306476" lon="13.34375511787868"><ele>397.0</ele><time>2026-04-11T12:59:58Z</time></trkpt><trkpt lat="41.740028304959374" lon="13.343678800731233"><ele>397.0</ele><time>2026-04-11T12:59:59Z</time></trkpt><trkpt lat="41.74024629074429" lon="13.343602764923741"><ele>397.0</ele><time>2026-04-11T13:00:00Z</time></trkpt><trkpt lat="41.74045462600815" lon="13.343529096711354"><ele>397.0</ele><time>2026-04-11T13:00:01Z</time></trkpt><trkpt lat="41.74065235281865" lon="13.343455460853452"><ele>397.0</ele><time>2026-04-11T13:00:02Z</time></trkpt><trkpt lat="41.74084866276726" lon="13.343381826655111"><ele>397.0</ele><time>2026-04-11T13:00:03Z</time></trkpt><trkpt lat="41.741039732849906" lon="13.343305800266801"><ele>397.0</ele><time>2026-04-11T13:00:04Z</time></trkpt><trkpt lat="41.741216860589944" lon="13.343219337097823"><ele>397.0</ele><time>2026-04-11T13:00:05Z</time></trkpt><trkpt lat="41.74137729385583" lon="13.343110794228656"><ele>396.0</ele><time>2026-04-11T13:00:06Z</time></trkpt><trkpt lat="41.74151490474005" lon="13.342968357263574"><ele>395.0</ele><time>2026-04-11T13:00:07Z</time></trkpt><trkpt lat="41.741632607475836" lon="13.342787702008133"><ele>394.0</ele><time>2026-04-11T13:00:08Z</time></trkpt><trkpt lat="41.74171071177242" lon="13.34256155085107"><ele>394.0</ele><time>2026-04-11T13:00:09Z</time></trkpt><trkpt lat="41.74175427790247" lon="13.342312803278617"><ele>394.0</ele><time>2026-04-11T13:00:10Z</time></trkpt><trkpt lat="41.74176629375961" lon="13.34204514400784"><ele>394.0</ele><time>2026-04-11T13:00:11Z</time></trkpt><trkpt lat="41.741745361820534" lon="13.341760277659503"><ele>393.0</ele><time>2026-04-11T13:00:12Z</time></trkpt><trkpt lat="41.741726207366774" lon="13.341475372744437"><ele>392.0</ele><time>2026-04-11T13:00:13Z</time></trkpt><trkpt lat="41.74171589265863" lon="13.341215655188286"><ele>391.0</ele><time>2026-04-11T13:00:14Z</time></trkpt><trkpt lat="41.74171131196001" lon="13.340964378737457"><ele>391.0</ele><time>2026-04-11T13:00:15Z</time></trkpt><trkpt lat="41.74172632050212" lon="13.340730734277"><ele>391.0</ele><time>2026-04-11T13:00:16Z</time></trkpt><trkpt lat="41.74174814852678" lon="13.340494631652772"><ele>391.0</ele><time>2026-04-11T13:00:17Z</time></trkpt><trkpt lat="41.74179228808139" lon="13.340252686882874"><ele>391.0</ele><time>2026-04-11T13:00:17.999Z</time></trkpt><trkpt lat="41.74186452734749" lon="13.340006666408225"><ele>391.0</ele><time>2026-04-11T13:00:18.999Z</time></trkpt><trkpt lat="41.741952218250056" lon="13.33975996210376"><ele>391.0</ele><time>2026-04-11T13:00:19.999Z</time></trkpt><trkpt lat="41.74205467336098" lon="13.339508051993326"><ele>391.0</ele><time>2026-04-11T13:00:20.999Z</time></trkpt><trkpt lat="41.74215850274903" lon="13.339249842671965"><ele>391.0</ele><time>2026-04-11T13:00:21.999Z</time></trkpt><trkpt lat="41.74226119538" lon="13.338997090851011"><ele>391.0</ele><time>2026-04-11T13:00:22.999Z</time></trkpt><trkpt lat="41.74235533146351" lon="13.338763248709752"><ele>389.6666666666667</ele><time>2026-04-11T13:00:23.999Z</time></trkpt><trkpt lat="41.74245675970667" lon="13.33855067009385"><ele>388.33333333333337</ele><time>2026-04-11T13:00:24.999Z</time></trkpt><trkpt lat="41.742582902381045" lon="13.338362290297749"><ele>387.0</ele><time>2026-04-11T13:00:25.999Z</time></trkpt><trkpt lat="41.74273565750848" lon="13.338216358065251"><ele>387.0</ele><time>2026-04-11T13:00:26.999Z</time></trkpt><trkpt lat="41.7429049996164" lon="13.338129567772178"><ele>387.0</ele><time>2026-04-11T13:00:27.999Z</time></trkpt><trkpt lat="41.74310335428959" lon="13.338090651758892"><ele>387.0</ele><time>2026-04-11T13:00:28.999Z</time></trkpt><trkpt lat="41.74333989707984" lon="13.338112551793822"><ele>385.0</ele><time>2026-04-11T13:00:29.999Z</time></trkpt><trkpt lat="41.74358976204073" lon="13.33816669675849"><ele>383.0</ele><time>2026-04-11T13:00:30.999Z</time></trkpt><trkpt lat="41.74385446571538" lon="13.338241634401127"><ele>383.0</ele><time>2026-04-11T13:00:31.999Z</time></trkpt><trkpt lat="41.744100788252126" lon="13.338300090049366"><ele>383.0</ele><time>2026-04-11T13:00:32.999Z</time></trkpt><trkpt lat="41.74433185013444" lon="13.33836466323155"><ele>381.6666666666667</ele><time>2026-04-11T13:00:33.999Z</time></trkpt><trkpt lat="41.7445527952871" lon="13.338428146002988"><ele>380.3333333333333</ele><time>2026-04-11T13:00:34.999Z</time></trkpt><trkpt lat="41.744764085289304" lon="13.338483629290712"><ele>379.0</ele><time>2026-04-11T13:00:35.999Z</time></trkpt><trkpt lat="41.7449655676934" lon="13.33853779744623"><ele>379.0</ele><time>2026-04-11T13:00:36.999Z</time></trkpt><trkpt lat="41.74515980204062" lon="13.338589537529918"><ele>379.0</ele><time>2026-04-11T13:00:37.999Z</time></trkpt><trkpt lat="41.74534844896489" lon="13.33861225994434"><ele>379.0</ele><time>2026-04-11T13:00:38.999Z</time></trkpt><trkpt lat="41.74552940511498" lon="13.338599024677043"><ele>377.0</ele><time>2026-04-11T13:00:39.999Z</time></trkpt><trkpt lat="41.74569861501322" lon="13.338552507462827"><ele>375.0</ele><time>2026-04-11T13:00:40.999Z</time></trkpt><trkpt lat="41.74584501320747" lon="13.338482573830861"><ele>373.0</ele><time>2026-04-11T13:00:41.999Z</time></trkpt><trkpt lat="41.745974708091936" lon="13.338401557022449"><ele>373.5</ele><time>2026-04-11T13:00:42.999Z</time></trkpt><trkpt lat="41.7460946899015" lon="13.338324752632799"><ele>374.0</ele><time>2026-04-11T13:00:43.999Z</time></trkpt><trkpt lat="41.746226342986226" lon="13.338241421984579"><ele>374.5</ele><time>2026-04-11T13:00:44.999Z</time></trkpt><trkpt lat="41.74637222855406" lon="13.338126737960184"><ele>375.0</ele><time>2026-04-11T13:00:45.999Z</time></trkpt><trkpt lat="41.7465184583622" lon="13.337968366051403"><ele>375.0</ele><time>2026-04-11T13:00:46.999Z</time></trkpt><trkpt lat="41.74665973977515" lon="13.33778673742625"><ele>375.0</ele><time>2026-04-11T13:00:47.999Z</time></trkpt><trkpt lat="41.74679513271374" lon="13.337592517809917"><ele>375.0</ele><time>2026-04-11T13:00:48.999Z</time></trkpt><trkpt lat="41.746922264125175" lon="13.337398580449628"><ele>377.0</ele><time>2026-04-11T13:00:49.999Z</time></trkpt><trkpt lat="41.74705617200821" lon="13.337208083604633"><ele>379.0</ele><time>2026-04-11T13:00:50.999Z</time></trkpt><trkpt lat="41.747191612257" lon="13.337016229390901"><ele>381.0</ele><time>2026-04-11T13:00:51.999Z</time></trkpt><trkpt lat="41.74732981486978" lon="13.336819374245634"><ele>381.0</ele><time>2026-04-11T13:00:52.999Z</time></trkpt><trkpt lat="41.74746821325995" lon="13.336617821562438"><ele>381.0</ele><time>2026-04-11T13:00:53.999Z</time></trkpt><trkpt lat="41.74760664514069" lon="13.33641695012651"><ele>381.0</ele><time>2026-04-11T13:00:54.999Z</time></trkpt><trkpt lat="41.747744338509065" lon="13.336218927705408"><ele>382.0</ele><time>2026-04-11T13:00:55.999Z</time></trkpt><trkpt lat="41.74788055078674" lon="13.336021348529572"><ele>383.0</ele><time>2026-04-11T13:00:56.999Z</time></trkpt><trkpt lat="41.74801605763906" lon="13.3358259396029"><ele>384.0</ele><time>2026-04-11T13:00:57.999Z</time></trkpt><trkpt lat="41.748147750079006" lon="13.335628453591198"><ele>384.33333333333337</ele><time>2026-04-11T13:00:58.999Z</time></trkpt><trkpt lat="41.7482801580857" lon="13.335432222340192"><ele>384.6666666666667</ele><time>2026-04-11T13:00:59.999Z</time></trkpt><trkpt lat="41.74840940004408" lon="13.33523388249515"><ele>385.0</ele><time>2026-04-11T13:01:00.999Z</time></trkpt><trkpt lat="41.74853200058086" lon="13.335028650349413"><ele>386.0</ele><time>2026-04-11T13:01:01.999Z</time></trkpt><trkpt lat="41.74864894003147" lon="13.334821469152404"><ele>387.0</ele><time>2026-04-11T13:01:02.999Z</time></trkpt><trkpt lat="41.74875823890347" lon="13.334607810292885"><ele>388.0</ele><time>2026-04-11T13:01:03.999Z</time></trkpt><trkpt lat="41.74885637040539" lon="13.33438536826872"><ele>389.0</ele><time>2026-04-11T13:01:04.999Z</time></trkpt><trkpt lat="41.748948738268226" lon="13.33415658037064"><ele>390.0</ele><time>2026-04-11T13:01:05.999Z</time></trkpt><trkpt lat="41.74903485490101" lon="13.333921237303212"><ele>391.0</ele><time>2026-04-11T13:01:06.999Z</time></trkpt><trkpt lat="41.74911859658828" lon="13.333672030650286"><ele>391.33333333333337</ele><time>2026-04-11T13:01:07.999Z</time></trkpt><trkpt lat="41.74919319970479" lon="13.333405992672484"><ele>391.66666666666663</ele><time>2026-04-11T13:01:08.999Z</time></trkpt><trkpt lat="41.74926155168711" lon="13.33312322519104"><ele>392.0</ele><time>2026-04-11T13:01:09.999Z</time></trkpt><trkpt lat="41.749337227808184" lon="13.332820784981788"><ele>391.66666666666663</ele><time>2026-04-11T13:01:10.999Z</time></trkpt><trkpt lat="41.74941182259594" lon="13.332529250479267"><ele>391.33333333333337</ele><time>2026-04-11T13:01:11.999Z</time></trkpt><trkpt lat="41.74947795430848" lon="13.332276435790279"><ele>391.0</ele><time>2026-04-11T13:01:12.999Z</time></trkpt><trkpt lat="41.749539468513404" lon="13.332038161356117"><ele>394.33333333333337</ele><time>2026-04-11T13:01:13.999Z</time></trkpt><trkpt lat="41.74959581102436" lon="13.331825680735678"><ele>397.66666666666663</ele><time>2026-04-11T13:01:14.999Z</time></trkpt><trkpt lat="41.74966908468058" lon="13.331643752948725"><ele>401.0</ele><time>2026-04-11T13:01:15.999Z</time></trkpt><trkpt lat="41.7497827492068" lon="13.331491547165475"><ele>406.66666666666663</ele><time>2026-04-11T13:01:16.999Z</time></trkpt><trkpt lat="41.74993083462564" lon="13.331372472709635"><ele>412.33333333333337</ele><time>2026-04-11T13:01:17.999Z</time></trkpt><trkpt lat="41.7501108879377" lon="13.331299050659677"><ele>418.0</ele><time>2026-04-11T13:01:18.999Z</time></trkpt><trkpt lat="41.75031040494255" lon="13.331260960516557"><ele>418.0</ele><time>2026-04-11T13:01:19.999Z</time></trkpt><trkpt lat="41.75051245102536" lon="13.331219770024491"><ele>418.0</ele><time>2026-04-11T13:01:20.999Z</time></trkpt><trkpt lat="41.750709595012594" lon="13.331149180840194"><ele>418.0</ele><time>2026-04-11T13:01:21.999Z</time></trkpt><trkpt lat="41.7508994652435" lon="13.331029223343789"><ele>411.0</ele><time>2026-04-11T13:01:22.999Z</time></trkpt><trkpt lat="41.751095914311485" lon="13.33088546373681"><ele>404.0</ele><time>2026-04-11T13:01:23.999Z</time></trkpt><trkpt lat="41.75129848078273" lon="13.330742154684161"><ele>404.0</ele><time>2026-04-11T13:01:24.999Z</time></trkpt><trkpt lat="41.75150207631116" lon="13.330605474306976"><ele>404.0</ele><time>2026-04-11T13:01:25.999Z</time></trkpt><trkpt lat="41.751705024537586" lon="13.330470336292441"><ele>407.3333333333333</ele><time>2026-04-11T13:01:26.999Z</time></trkpt><trkpt lat="41.75190491187529" lon="13.330346462503892"><ele>410.66666666666663</ele><time>2026-04-11T13:01:27.999Z</time></trkpt><trkpt lat="41.75209171337043" lon="13.33024815826213"><ele>414.0</ele><time>2026-04-11T13:01:28.999Z</time></trkpt><trkpt lat="41.752282922304445" lon="13.330173014359994"><ele>414.0</ele><time>2026-04-11T13:01:29.999Z</time></trkpt><trkpt lat="41.752478877167974" lon="13.33012282726541"><ele>414.0</ele><time>2026-04-11T13:01:30.999Z</time></trkpt><trkpt lat="41.75267820466582" lon="13.330118634260181"><ele>414.0</ele><time>2026-04-11T13:01:31.999Z</time></trkpt><trkpt lat="41.752876694962886" lon="13.330148713385382"><ele>416.33333333333337</ele><time>2026-04-11T13:01:32.999Z</time></trkpt><trkpt lat="41.75306231628227" lon="13.330190599697433"><ele>418.6666666666667</ele><time>2026-04-11T13:01:33.999Z</time></trkpt><trkpt lat="41.75322810047513" lon="13.330219643139317"><ele>421.0</ele><time>2026-04-11T13:01:34.999Z</time></trkpt><trkpt lat="41.753380011402264" lon="13.330215200751702"><ele>421.0</ele><time>2026-04-11T13:01:35.999Z</time></trkpt><trkpt lat="41.753536686064884" lon="13.33014977127435"><ele>421.0</ele><time>2026-04-11T13:01:36.999Z</time></trkpt><trkpt lat="41.753678387326495" lon="13.330018156606798"><ele>421.0</ele><time>2026-04-11T13:01:37.999Z</time></trkpt><trkpt lat="41.753813496644526" lon="13.329839625293717"><ele>422.33333333333337</ele><time>2026-04-11T13:01:38.999Z</time></trkpt><trkpt lat="41.75394592914912" lon="13.329643035318236"><ele>423.66666666666663</ele><time>2026-04-11T13:01:39.999Z</time></trkpt><trkpt lat="41.75407398814822" lon="13.329444999926904"><ele>425.0</ele><time>2026-04-11T13:01:40.999Z</time></trkpt><trkpt lat="41.754187522616874" lon="13.329251607752136"><ele>425.0</ele><time>2026-04-11T13:01:41.999Z</time></trkpt><trkpt lat="41.754293396747705" lon="13.329056850353552"><ele>425.0</ele><time>2026-04-11T13:01:42.999Z</time></trkpt><trkpt lat="41.754397573041246" lon="13.328870658534806"><ele>425.0</ele><time>2026-04-11T13:01:43.999Z</time></trkpt><trkpt lat="41.75449953339439" lon="13.328685050448945"><ele>422.3333333333333</ele><time>2026-04-11T13:01:44.999Z</time></trkpt><trkpt lat="41.754601546757705" lon="13.328496073826159"><ele>419.66666666666663</ele><time>2026-04-11T13:01:45.999Z</time></trkpt><trkpt lat="41.754707902358675" lon="13.328297973539614"><ele>417.0</ele><time>2026-04-11T13:01:46.999Z</time></trkpt><trkpt lat="41.75481915761482" lon="13.328088983710897"><ele>420.33333333333337</ele><time>2026-04-11T13:01:48Z</time></trkpt><trkpt lat="41.75493560486908" lon="13.327873704186155"><ele>423.6666666666667</ele><time>2026-04-11T13:01:49Z</time></trkpt><trkpt lat="41.755056614954725" lon="13.32765374725719"><ele>427.0</ele><time>2026-04-11T13:01:50Z</time></trkpt><trkpt lat="41.75517536333935" lon="13.32743140560984"><ele>424.33333333333337</ele><time>2026-04-11T13:01:51Z</time></trkpt><trkpt lat="41.75529294172535" lon="13.327212439572783"><ele>421.66666666666663</ele><time>2026-04-11T13:01:52Z</time></trkpt><trkpt lat="41.75541136607378" lon="13.326996263235447"><ele>419.0</ele><time>2026-04-11T13:01:53Z</time></trkpt><trkpt lat="41.75552916870226" lon="13.326781977298428"><ele>419.0</ele><time>2026-04-11T13:01:54Z</time></trkpt><trkpt lat="41.75564784350664" lon="13.32657051834137"><ele>419.0</ele><time>2026-04-11T13:01:55Z</time></trkpt><trkpt lat="41.755764776440756" lon="13.326359416630332"><ele>419.0</ele><time>2026-04-11T13:01:56Z</time></trkpt><trkpt lat="41.75587907938978" lon="13.326149158970871"><ele>419.0</ele><time>2026-04-11T13:01:57Z</time></trkpt><trkpt lat="41.755991830563104" lon="13.32594024762902"><ele>419.0</ele><time>2026-04-11T13:01:58Z</time></trkpt><trkpt lat="41.75610381701213" lon="13.325735188912303"><ele>419.0</ele><time>2026-04-11T13:01:59Z</time></trkpt><trkpt lat="41.75621705398549" lon="13.325533762273958"><ele>420.3333333333333</ele><time>2026-04-11T13:02:00Z</time></trkpt><trkpt lat="41.756329250062166" lon="13.325331279856453"><ele>421.66666666666663</ele><time>2026-04-11T13:02:01Z</time></trkpt><trkpt lat="41.756441048279726" lon="13.325126203059515"><ele>423.0</ele><time>2026-04-11T13:02:02Z</time></trkpt><trkpt lat="41.75655186095857" lon="13.324921096531927"><ele>424.33333333333337</ele><time>2026-04-11T13:02:03Z</time></trkpt><trkpt lat="41.75666376656795" lon="13.324717742861173"><ele>425.6666666666667</ele><time>2026-04-11T13:02:04Z</time></trkpt><trkpt lat="41.756773560482465" lon="13.32451242448225"><ele>427.0</ele><time>2026-04-11T13:02:05Z</time></trkpt><trkpt lat="41.7568768917535" lon="13.324295383218537"><ele>426.0</ele><time>2026-04-11T13:02:06Z</time></trkpt><trkpt lat="41.75699320980766" lon="13.324083225926893"><ele>425.0</ele><time>2026-04-11T13:02:07Z</time></trkpt><trkpt lat="41.75710298504256" lon="13.323870154226679"><ele>424.0</ele><time>2026-04-11T13:02:08Z</time></trkpt><trkpt lat="41.757207646535846" lon="13.323653417092665"><ele>424.0</ele><time>2026-04-11T13:02:09Z</time></trkpt><trkpt lat="41.75732612669058" lon="13.323443942921172"><ele>424.0</ele><time>2026-04-11T13:02:10Z</time></trkpt><trkpt lat="41.75745211738844" lon="13.323238233233543"><ele>424.0</ele><time>2026-04-11T13:02:11Z</time></trkpt><trkpt lat="41.757600280269195" lon="13.323041114541692"><ele>424.6666666666667</ele><time>2026-04-11T13:02:12Z</time></trkpt><trkpt lat="41.757774849596736" lon="13.32286743119782"><ele>425.33333333333337</ele><time>2026-04-11T13:02:13Z</time></trkpt><trkpt lat="41.75795981275057" lon="13.32272635011529"><ele>426.0</ele><time>2026-04-11T13:02:14Z</time></trkpt><trkpt lat="41.758151254942945" lon="13.322615950196363"><ele>426.0</ele><time>2026-04-11T13:02:15Z</time></trkpt><trkpt lat="41.7583464165219" lon="13.322524932235577"><ele>426.0</ele><time>2026-04-11T13:02:16Z</time></trkpt><trkpt lat="41.758536694677275" lon="13.322467482314703"><ele>426.0</ele><time>2026-04-11T13:02:17Z</time></trkpt><trkpt lat="41.758713688476206" lon="13.322393063828537"><ele>426.33333333333337</ele><time>2026-04-11T13:02:18Z</time></trkpt><trkpt lat="41.75889143122618" lon="13.32229495590102"><ele>426.6666666666667</ele><time>2026-04-11T13:02:19Z</time></trkpt><trkpt lat="41.759076113062186" lon="13.322222246928412"><ele>427.0</ele><time>2026-04-11T13:02:20Z</time></trkpt><trkpt lat="41.759259483041426" lon="13.322146268196958"><ele>429.0</ele><time>2026-04-11T13:02:20.999Z</time></trkpt><trkpt lat="41.75944438783818" lon="13.32206699188229"><ele>431.0</ele><time>2026-04-11T13:02:21.999Z</time></trkpt><trkpt lat="41.75963477772472" lon="13.321990605823691"><ele>433.0</ele><time>2026-04-11T13:02:22.999Z</time></trkpt><trkpt lat="41.75982906402321" lon="13.321933845477021"><ele>433.0</ele><time>2026-04-11T13:02:23.999Z</time></trkpt><trkpt lat="41.760028828168" lon="13.321868282310167"><ele>433.0</ele><time>2026-04-11T13:02:24.999Z</time></trkpt><trkpt lat="41.76022623133187" lon="13.321801334039257"><ele>433.0</ele><time>2026-04-11T13:02:25.999Z</time></trkpt><trkpt lat="41.760407045850265" lon="13.321740283814082"><ele>431.6666666666667</ele><time>2026-04-11T13:02:26.999Z</time></trkpt><trkpt lat="41.760578568149214" lon="13.321682622423424"><ele>430.33333333333337</ele><time>2026-04-11T13:02:27.999Z</time></trkpt><trkpt lat="41.76076181283565" lon="13.321619531417236"><ele>429.0</ele><time>2026-04-11T13:02:28.999Z</time></trkpt><trkpt lat="41.760951754043205" lon="13.321557550767613"><ele>428.66666666666663</ele><time>2026-04-11T13:02:29.999Z</time></trkpt><trkpt lat="41.76114640960053" lon="13.321495208132516"><ele>428.3333333333333</ele><time>2026-04-11T13:02:30.999Z</time></trkpt><trkpt lat="41.761345258278446" lon="13.321428534814453"><ele>428.0</ele><time>2026-04-11T13:02:31.999Z</time></trkpt><trkpt lat="41.76154733158506" lon="13.321360044882761"><ele>429.3333333333333</ele><time>2026-04-11T13:02:32.999Z</time></trkpt><trkpt lat="41.761753002246344" lon="13.321289453119503"><ele>430.66666666666663</ele><time>2026-04-11T13:02:33.999Z</time></trkpt><trkpt lat="41.761967913611116" lon="13.32121694110486"><ele>432.0</ele><time>2026-04-11T13:02:34.999Z</time></trkpt><trkpt lat="41.76218499015818" lon="13.321143515073295"><ele>433.0</ele><time>2026-04-11T13:02:35.999Z</time></trkpt><trkpt lat="41.76238094446001" lon="13.321060434696333"><ele>434.0</ele><time>2026-04-11T13:02:36.999Z</time></trkpt><trkpt lat="41.762572199855846" lon="13.320965881809377"><ele>435.0</ele><time>2026-04-11T13:02:37.999Z</time></trkpt><trkpt lat="41.76275843229222" lon="13.320861810297261"><ele>435.33333333333337</ele><time>2026-04-11T13:02:38.999Z</time></trkpt><trkpt lat="41.76294181664486" lon="13.320752076673127"><ele>435.6666666666667</ele><time>2026-04-11T13:02:39.999Z</time></trkpt><trkpt lat="41.763121339661346" lon="13.320643751164708"><ele>436.0</ele><time>2026-04-11T13:02:40.999Z</time></trkpt><trkpt lat="41.76329700932525" lon="13.320539468930422"><ele>437.33333333333337</ele><time>2026-04-11T13:02:41.999Z</time></trkpt><trkpt lat="41.76347435885299" lon="13.320430549824822"><ele>438.66666666666663</ele><time>2026-04-11T13:02:42.999Z</time></trkpt><trkpt lat="41.76365690766532" lon="13.32032884984"><ele>440.0</ele><time>2026-04-11T13:02:43.999Z</time></trkpt><trkpt lat="41.763837975470786" lon="13.320225992774857"><ele>440.0</ele><time>2026-04-11T13:02:44.999Z</time></trkpt><trkpt lat="41.76401853934837" lon="13.320128230194065"><ele>440.0</ele><time>2026-04-11T13:02:45.999Z</time></trkpt><trkpt lat="41.76419912045714" lon="13.320046113613376"><ele>440.0</ele><time>2026-04-11T13:02:46.999Z</time></trkpt><trkpt lat="41.76438417494191" lon="13.319964270650567"><ele>441.3333333333333</ele><time>2026-04-11T13:02:47.999Z</time></trkpt><trkpt lat="41.76457822980337" lon="13.319891192773548"><ele>442.66666666666663</ele><time>2026-04-11T13:02:48.999Z</time></trkpt><trkpt lat="41.76478607702448" lon="13.31983844122471"><ele>444.0</ele><time>2026-04-11T13:02:49.999Z</time></trkpt><trkpt lat="41.76499149655919" lon="13.3197710670958"><ele>445.66666666666663</ele><time>2026-04-11T13:02:50.999Z</time></trkpt><trkpt lat="41.76520216465014" lon="13.319772844693038"><ele>447.3333333333333</ele><time>2026-04-11T13:02:51.999Z</time></trkpt><trkpt lat="41.765398027944514" lon="13.319771609696279"><ele>449.0</ele><time>2026-04-11T13:02:52.999Z</time></trkpt><trkpt lat="41.76558987295832" lon="13.319763564222834"><ele>449.0</ele><time>2026-04-11T13:02:53.999Z</time></trkpt><trkpt lat="41.76578398028015" lon="13.319783938921823"><ele>449.0</ele><time>2026-04-11T13:02:54.999Z</time></trkpt><trkpt lat="41.76597844525657" lon="13.319813483105172"><ele>449.0</ele><time>2026-04-11T13:02:55.999Z</time></trkpt><trkpt lat="41.766174569140794" lon="13.319853928790696"><ele>450.0</ele><time>2026-04-11T13:02:56.999Z</time></trkpt><trkpt lat="41.766359275951366" lon="13.319939075968987"><ele>451.0</ele><time>2026-04-11T13:02:57.999Z</time></trkpt><trkpt lat="41.766537661829176" lon="13.32000927039903"><ele>452.0</ele><time>2026-04-11T13:02:58.999Z</time></trkpt><trkpt lat="41.766715678405724" lon="13.32006998359025"><ele>453.66666666666663</ele><time>2026-04-11T13:02:59.999Z</time></trkpt><trkpt lat="41.766887529559824" lon="13.320141457963485"><ele>455.33333333333337</ele><time>2026-04-11T13:03:00.999Z</time></trkpt><trkpt lat="41.767059548031746" lon="13.320200512950633"><ele>457.0</ele><time>2026-04-11T13:03:01.999Z</time></trkpt><trkpt lat="41.76722411403597" lon="13.320229999096505"><ele>457.0</ele><time>2026-04-11T13:03:02.999Z</time></trkpt><trkpt lat="41.7673601627082" lon="13.32024034238438"><ele>457.00000000000006</ele><time>2026-04-11T13:03:03.999Z</time></trkpt><trkpt lat="41.76747444934479" lon="13.320239977686485"><ele>457.00000000000006</ele><time>2026-04-11T13:03:04.999Z</time></trkpt><trkpt lat="41.767563897647214" lon="13.320230114186227"><ele>457.0</ele><time>2026-04-11T13:03:05.999Z</time></trkpt><trkpt lat="41.76766693801647" lon="13.320214427424625"><ele>457.0</ele><time>2026-04-11T13:03:07.999Z</time></trkpt><trkpt lat="41.76780131323909" lon="13.32016614613025"><ele>457.25</ele><time>2026-04-11T13:03:09.999Z</time></trkpt><trkpt lat="41.76790446559737" lon="13.320118438852537"><ele>457.5</ele><time>2026-04-11T13:03:10.999Z</time></trkpt><trkpt lat="41.768030235311684" lon="13.320047139993337"><ele>457.75</ele><time>2026-04-11T13:03:11.999Z</time></trkpt><trkpt lat="41.76819903803731" lon="13.319947649654358"><ele>458.0</ele><time>2026-04-11T13:03:12.999Z</time></trkpt><trkpt lat="41.76836817837326" lon="13.31985024913441"><ele>458.66666666666663</ele><time>2026-04-11T13:03:13.999Z</time></trkpt><trkpt lat="41.76854964062043" lon="13.319744485959166"><ele>459.33333333333337</ele><time>2026-04-11T13:03:14.999Z</time></trkpt><trkpt lat="41.7687368530467" lon="13.319633966105851"><ele>460.0</ele><time>2026-04-11T13:03:15.999Z</time></trkpt><trkpt lat="41.768931170198634" lon="13.319522612055033"><ele>461.33333333333337</ele><time>2026-04-11T13:03:16.999Z</time></trkpt><trkpt lat="41.7691230183324" lon="13.31941498249639"><ele>462.66666666666663</ele><time>2026-04-11T13:03:17.999Z</time></trkpt><trkpt lat="41.769318500544905" lon="13.319299888913495"><ele>464.0</ele><time>2026-04-11T13:03:18.999Z</time></trkpt><trkpt lat="41.76951769643615" lon="13.319182319014605"><ele>464.0</ele><time>2026-04-11T13:03:19.999Z</time></trkpt><trkpt lat="41.76972549005508" lon="13.319056226593206"><ele>464.0</ele><time>2026-04-11T13:03:20.999Z</time></trkpt><trkpt lat="41.769944398778314" lon="13.318921762025049"><ele>465.66666666666663</ele><time>2026-04-11T13:03:21.999Z</time></trkpt><trkpt lat="41.77015672996107" lon="13.31879042015399"><ele>467.33333333333337</ele><time>2026-04-11T13:03:22.999Z</time></trkpt><trkpt lat="41.77034642124448" lon="13.318673669521312"><ele>469.0</ele><time>2026-04-11T13:03:23.999Z</time></trkpt><trkpt lat="41.77052626478534" lon="13.318563984356405"><ele>469.33333333333337</ele><time>2026-04-11T13:03:24.999Z</time></trkpt><trkpt lat="41.770698572790735" lon="13.318460337227972"><ele>469.66666666666663</ele><time>2026-04-11T13:03:25.999Z</time></trkpt><trkpt lat="41.77086115328559" lon="13.318371482265068"><ele>470.0</ele><time>2026-04-11T13:03:26.999Z</time></trkpt><trkpt lat="41.7710180326001" lon="13.318304520166627"><ele>471.0</ele><time>2026-04-11T13:03:27.999Z</time></trkpt><trkpt lat="41.77116655606537" lon="13.318264065035859"><ele>472.0</ele><time>2026-04-11T13:03:28.999Z</time></trkpt><trkpt lat="41.77131000201796" lon="13.318245824817227"><ele>473.0</ele><time>2026-04-11T13:03:29.999Z</time></trkpt><trkpt lat="41.771456457444366" lon="13.318245597033558"><ele>474.0</ele><time>2026-04-11T13:03:30.999Z</time></trkpt><trkpt lat="41.771596956160316" lon="13.318262238795624"><ele>474.0</ele><time>2026-04-11T13:03:31.999Z</time></trkpt><trkpt lat="41.77172093799557" lon="13.318290084378166"><ele>474.0</ele><time>2026-04-11T13:03:32.999Z</time></trkpt><trkpt lat="41.77183274878156" lon="13.318325924238495"><ele>474.0</ele><time>2026-04-11T13:03:33.999Z</time></trkpt><trkpt lat="41.771937764596764" lon="13.31837164274192"><ele>474.0</ele><time>2026-04-11T13:03:34.999Z</time></trkpt><trkpt lat="41.772038884929806" lon="13.318427884629882"><ele>475.0</ele><time>2026-04-11T13:03:35.999Z</time></trkpt><trkpt lat="41.77213825526135" lon="13.318503909121603"><ele>476.0</ele><time>2026-04-11T13:03:36.999Z</time></trkpt><trkpt lat="41.7722371105331" lon="13.318598060681573"><ele>477.0</ele><time>2026-04-11T13:03:37.999Z</time></trkpt><trkpt lat="41.772331694349475" lon="13.318713111459473"><ele>478.0</ele><time>2026-04-11T13:03:38.999Z</time></trkpt><trkpt lat="41.772428301180504" lon="13.318832821761625"><ele>477.25</ele><time>2026-04-11T13:03:39.999Z</time></trkpt><trkpt lat="41.77252861365845" lon="13.318953857079347"><ele>476.5</ele><time>2026-04-11T13:03:40.999Z</time></trkpt><trkpt lat="41.77262699659313" lon="13.319084459107781"><ele>475.75</ele><time>2026-04-11T13:03:41.999Z</time></trkpt><trkpt lat="41.77271977061395" lon="13.319197426285797"><ele>475.0</ele><time>2026-04-11T13:03:42.999Z</time></trkpt><trkpt lat="41.77280597864378" lon="13.319301785391845"><ele>476.0</ele><time>2026-04-11T13:03:43.999Z</time></trkpt><trkpt lat="41.772893276015424" lon="13.319409628889217"><ele>477.0</ele><time>2026-04-11T13:03:44.999Z</time></trkpt><trkpt lat="41.77298254379883" lon="13.319520395653253"><ele>478.0</ele><time>2026-04-11T13:03:45.999Z</time></trkpt><trkpt lat="41.77307137601881" lon="13.319637047535334"><ele>479.0</ele><time>2026-04-11T13:03:46.999Z</time></trkpt><trkpt lat="41.773164042830935" lon="13.319752435475793"><ele>479.0</ele><time>2026-04-11T13:03:47.999Z</time></trkpt><trkpt lat="41.773259529003546" lon="13.31987126125957"><ele>479.0</ele><time>2026-04-11T13:03:48.999Z</time></trkpt><trkpt lat="41.77335864846594" lon="13.319993246358498"><ele>479.0</ele><time>2026-04-11T13:03:49.999Z</time></trkpt><trkpt lat="41.77345866088782" lon="13.320119497543567"><ele>479.0</ele><time>2026-04-11T13:03:50.999Z</time></trkpt><trkpt lat="41.773560897902655" lon="13.320247113164678"><ele>478.75</ele><time>2026-04-11T13:03:51.999Z</time></trkpt><trkpt lat="41.773666240728126" lon="13.320372036169157"><ele>478.5</ele><time>2026-04-11T13:03:52.999Z</time></trkpt><trkpt lat="41.773776891077915" lon="13.320479030511464"><ele>478.25</ele><time>2026-04-11T13:03:54Z</time></trkpt><trkpt lat="41.77387666026043" lon="13.320574762210425"><ele>478.0</ele><time>2026-04-11T13:03:55Z</time></trkpt><trkpt lat="41.773995590104114" lon="13.320594837503963"><ele>478.0</ele><time>2026-04-11T13:03:56Z</time></trkpt><trkpt lat="41.77411434311604" lon="13.320609831822512"><ele>478.0</ele><time>2026-04-11T13:03:57Z</time></trkpt><trkpt lat="41.774243242956885" lon="13.320603244041227"><ele>478.0</ele><time>2026-04-11T13:03:58Z</time></trkpt><trkpt lat="41.77438801783865" lon="13.320571151732262"><ele>478.0</ele><time>2026-04-11T13:03:59Z</time></trkpt><trkpt lat="41.774544263451745" lon="13.320516520437423"><ele>479.6666666666667</ele><time>2026-04-11T13:04:00Z</time></trkpt><trkpt lat="41.77471835949771" lon="13.320442948475792"><ele>481.33333333333337</ele><time>2026-04-11T13:04:01Z</time></trkpt><trkpt lat="41.774908797089864" lon="13.320350909702936"><ele>483.0</ele><time>2026-04-11T13:04:02Z</time></trkpt><trkpt lat="41.775111311410505" lon="13.320252746144458"><ele>483.33333333333337</ele><time>2026-04-11T13:04:03Z</time></trkpt><trkpt lat="41.77530588906822" lon="13.320158850754984"><ele>483.6666666666667</ele><time>2026-04-11T13:04:04Z</time></trkpt><trkpt lat="41.7754811183975" lon="13.320073780839081"><ele>484.0</ele><time>2026-04-11T13:04:05Z</time></trkpt><trkpt lat="41.77564255757512" lon="13.319999923233965"><ele>484.0</ele><time>2026-04-11T13:04:06Z</time></trkpt><trkpt lat="41.775802007989874" lon="13.319923713229857"><ele>484.0</ele><time>2026-04-11T13:04:07Z</time></trkpt><trkpt lat="41.775958254749106" lon="13.319854168533396"><ele>484.0</ele><time>2026-04-11T13:04:08Z</time></trkpt><trkpt lat="41.77611010187178" lon="13.31978262151402"><ele>486.33333333333337</ele><time>2026-04-11T13:04:09Z</time></trkpt><trkpt lat="41.776259309934424" lon="13.31971136885099"><ele>488.66666666666663</ele><time>2026-04-11T13:04:10Z</time></trkpt><trkpt lat="41.776408353534485" lon="13.31964420720174"><ele>491.0</ele><time>2026-04-11T13:04:11Z</time></trkpt><trkpt lat="41.776557609117205" lon="13.319573631258072"><ele>491.0</ele><time>2026-04-11T13:04:12Z</time></trkpt><trkpt lat="41.77671068023549" lon="13.319498613905543"><ele>491.0</ele><time>2026-04-11T13:04:13Z</time></trkpt><trkpt lat="41.77686516741964" lon="13.319424738483265"><ele>491.0</ele><time>2026-04-11T13:04:14Z</time></trkpt><trkpt lat="41.777017958580494" lon="13.319357738235896"><ele>490.75</ele><time>2026-04-11T13:04:15Z</time></trkpt><trkpt lat="41.77716655664191" lon="13.319291241663082"><ele>490.5</ele><time>2026-04-11T13:04:16Z</time></trkpt><trkpt lat="41.7773022787428" lon="13.319229634189501"><ele>490.25</ele><time>2026-04-11T13:04:17Z</time></trkpt><trkpt lat="41.777427352009404" lon="13.319171774583195"><ele>490.0</ele><time>2026-04-11T13:04:18Z</time></trkpt><trkpt lat="41.77755173889562" lon="13.319111753171741"><ele>490.0</ele><time>2026-04-11T13:04:18.999Z</time></trkpt><trkpt lat="41.77767718266565" lon="13.319053689022509"><ele>490.0</ele><time>2026-04-11T13:04:19.999Z</time></trkpt><trkpt lat="41.777813359626116" lon="13.31899187161985"><ele>490.0</ele><time>2026-04-11T13:04:20.999Z</time></trkpt><trkpt lat="41.777949101085554" lon="13.318929282893546"><ele>490.0</ele><time>2026-04-11T13:04:21.999Z</time></trkpt><trkpt lat="41.77808567403051" lon="13.318864240144435"><ele>491.0</ele><time>2026-04-11T13:04:22.999Z</time></trkpt><trkpt lat="41.77822382503922" lon="13.318801164713522"><ele>492.0</ele><time>2026-04-11T13:04:23.999Z</time></trkpt><trkpt lat="41.77836374755442" lon="13.318737086072362"><ele>493.0</ele><time>2026-04-11T13:04:24.999Z</time></trkpt><trkpt lat="41.778494868676994" lon="13.318675918710158"><ele>494.0</ele><time>2026-04-11T13:04:25.999Z</time></trkpt><trkpt lat="41.77861170440538" lon="13.31861903579828"><ele>494.0</ele><time>2026-04-11T13:04:26.999Z</time></trkpt><trkpt lat="41.7787312190414" lon="13.318550092859777"><ele>494.0</ele><time>2026-04-11T13:04:27.999Z</time></trkpt><trkpt lat="41.778848537376795" lon="13.318458389933113"><ele>494.0</ele><time>2026-04-11T13:04:28.999Z</time></trkpt><trkpt lat="41.77896027434909" lon="13.318347017370531"><ele>494.0</ele><time>2026-04-11T13:04:29.999Z</time></trkpt><trkpt lat="41.77905837874335" lon="13.31823840520423"><ele>494.0</ele><time>2026-04-11T13:04:30.999Z</time></trkpt><trkpt lat="41.779163843368835" lon="13.318112062185293"><ele>494.0</ele><time>2026-04-11T13:04:31.999Z</time></trkpt><trkpt lat="41.77927463017676" lon="13.317937408075421"><ele>494.0</ele><time>2026-04-11T13:04:32.999Z</time></trkpt><trkpt lat="41.77942208525722" lon="13.317723220579346"><ele>493.5</ele><time>2026-04-11T13:04:33.999Z</time></trkpt><trkpt lat="41.77956917680572" lon="13.317465073584785"><ele>493.0</ele><time>2026-04-11T13:04:34.999Z</time></trkpt><trkpt lat="41.77974693343501" lon="13.317209434919016"><ele>495.5</ele><time>2026-04-11T13:04:35.999Z</time></trkpt><trkpt lat="41.77993489847349" lon="13.316918841923014"><ele>498.0</ele><time>2026-04-11T13:04:36.999Z</time></trkpt><trkpt lat="41.78011842926978" lon="13.316617547673683"><ele>495.5</ele><time>2026-04-11T13:04:37.999Z</time></trkpt><trkpt lat="41.780309910860844" lon="13.316299806644546"><ele>493.0</ele><time>2026-04-11T13:04:38.999Z</time></trkpt><trkpt lat="41.780496522083745" lon="13.315996047878995"><ele>493.0</ele><time>2026-04-11T13:04:39.999Z</time></trkpt><trkpt lat="41.780666247932416" lon="13.31572549921091"><ele>493.0</ele><time>2026-04-11T13:04:40.999Z</time></trkpt><trkpt lat="41.78083563800384" lon="13.315487224314559"><ele>496.0</ele><time>2026-04-11T13:04:41.999Z</time></trkpt><trkpt lat="41.78101727942316" lon="13.315296007628776"><ele>499.0</ele><time>2026-04-11T13:04:42.999Z</time></trkpt><trkpt lat="41.781227550958306" lon="13.315144717961658"><ele>499.0</ele><time>2026-04-11T13:04:43.999Z</time></trkpt><trkpt lat="41.78146140003505" lon="13.31503641138052"><ele>499.0</ele><time>2026-04-11T13:04:44.999Z</time></trkpt><trkpt lat="41.78172034407101" lon="13.314994666186172"><ele>498.5</ele><time>2026-04-11T13:04:45.999Z</time></trkpt><trkpt lat="41.78200081237974" lon="13.314992494229477"><ele>498.0</ele><time>2026-04-11T13:04:46.999Z</time></trkpt><trkpt lat="41.78230173601628" lon="13.314995666243414"><ele>498.0</ele><time>2026-04-11T13:04:47.999Z</time></trkpt><trkpt lat="41.78261134867413" lon="13.314993862198829"><ele>498.0</ele><time>2026-04-11T13:04:48.999Z</time></trkpt><trkpt lat="41.78292535505879" lon="13.314989258564685"><ele>499.5</ele><time>2026-04-11T13:04:49.999Z</time></trkpt><trkpt lat="41.78323750831912" lon="13.314986232677585"><ele>501.0</ele><time>2026-04-11T13:04:50.999Z</time></trkpt><trkpt lat="41.78356040589445" lon="13.314982139390832"><ele>502.0</ele><time>2026-04-11T13:04:51.999Z</time></trkpt><trkpt lat="41.783876234432114" lon="13.314982453789643"><ele>503.0</ele><time>2026-04-11T13:04:52.999Z</time></trkpt><trkpt lat="41.784159678308285" lon="13.314983611314835"><ele>505.5</ele><time>2026-04-11T13:04:53.999Z</time></trkpt><trkpt lat="41.7844225163277" lon="13.314982595087537"><ele>508.0</ele><time>2026-04-11T13:04:54.999Z</time></trkpt><trkpt lat="41.784673445517406" lon="13.314981790993212"><ele>508.0</ele><time>2026-04-11T13:04:55.999Z</time></trkpt><trkpt lat="41.78490485096439" lon="13.314978376761195"><ele>508.0</ele><time>2026-04-11T13:04:56.999Z</time></trkpt><trkpt lat="41.785140056925144" lon="13.314955083804772"><ele>510.0</ele><time>2026-04-11T13:04:57.999Z</time></trkpt><trkpt lat="41.78538352311482" lon="13.314890917474493"><ele>512.0</ele><time>2026-04-11T13:04:58.999Z</time></trkpt><trkpt lat="41.78561868462652" lon="13.314770389076008"><ele>513.0</ele><time>2026-04-11T13:04:59.999Z</time></trkpt><trkpt lat="41.78584645311615" lon="13.314600530641478"><ele>514.0</ele><time>2026-04-11T13:05:00.999Z</time></trkpt><trkpt lat="41.78608382913504" lon="13.314363905764017"><ele>514.0</ele><time>2026-04-11T13:05:01.999Z</time></trkpt><trkpt lat="41.78633721111591" lon="13.314105346989022"><ele>514.0</ele><time>2026-04-11T13:05:02.999Z</time></trkpt><trkpt lat="41.786597114406604" lon="13.313842163675167"><ele>517.5</ele><time>2026-04-11T13:05:03.999Z</time></trkpt><trkpt lat="41.78686489439699" lon="13.313575718446163"><ele>521.0</ele><time>2026-04-11T13:05:04.999Z</time></trkpt><trkpt lat="41.787106756355335" lon="13.313341241102453"><ele>521.0</ele><time>2026-04-11T13:05:05.999Z</time></trkpt><trkpt lat="41.78733888528151" lon="13.313114437280117"><ele>521.0</ele><time>2026-04-11T13:05:06.999Z</time></trkpt><trkpt lat="41.7875464361711" lon="13.312908009168083"><ele>523.0</ele><time>2026-04-11T13:05:07.999Z</time></trkpt><trkpt lat="41.78774028702857" lon="13.312713947520818"><ele>525.0</ele><time>2026-04-11T13:05:08.999Z</time></trkpt><trkpt lat="41.787923192099235" lon="13.312530748332899"><ele>525.0</ele><time>2026-04-11T13:05:09.999Z</time></trkpt><trkpt lat="41.78810821679772" lon="13.31234904579793"><ele>525.0</ele><time>2026-04-11T13:05:10.999Z</time></trkpt><trkpt lat="41.78828092622698" lon="13.31218720230715"><ele>525.0</ele><time>2026-04-11T13:05:11.999Z</time></trkpt><trkpt lat="41.78844782711997" lon="13.312054615424922"><ele>527.3333333333334</ele><time>2026-04-11T13:05:12.999Z</time></trkpt><trkpt lat="41.78862078773018" lon="13.311969933323462"><ele>529.6666666666667</ele><time>2026-04-11T13:05:13.999Z</time></trkpt><trkpt lat="41.78880460113285" lon="13.311926654043582"><ele>532.0</ele><time>2026-04-11T13:05:14.999Z</time></trkpt><trkpt lat="41.78898756856823" lon="13.311937471971953"><ele>532.0</ele><time>2026-04-11T13:05:15.999Z</time></trkpt><trkpt lat="41.789166613510496" lon="13.311994828786602"><ele>532.0</ele><time>2026-04-11T13:05:16.999Z</time></trkpt><trkpt lat="41.789334826357724" lon="13.312092798341078"><ele>532.0</ele><time>2026-04-11T13:05:17.999Z</time></trkpt><trkpt lat="41.78948709393784" lon="13.3122411204927"><ele>535.0</ele><time>2026-04-11T13:05:18.999Z</time></trkpt><trkpt lat="41.78961509902597" lon="13.312424647930213"><ele>538.0</ele><time>2026-04-11T13:05:19.999Z</time></trkpt><trkpt lat="41.78971081263832" lon="13.312643128729668"><ele>541.0</ele><time>2026-04-11T13:05:20.999Z</time></trkpt><trkpt lat="41.78977309709324" lon="13.312885732173456"><ele>541.0</ele><time>2026-04-11T13:05:21.999Z</time></trkpt><trkpt lat="41.78981183168122" lon="13.313158919137726"><ele>541.0</ele><time>2026-04-11T13:05:22.999Z</time></trkpt><trkpt lat="41.78984436094267" lon="13.313446345664216"><ele>541.0</ele><time>2026-04-11T13:05:23.999Z</time></trkpt><trkpt lat="41.78987874822504" lon="13.313747831132396"><ele>540.5</ele><time>2026-04-11T13:05:24.999Z</time></trkpt><trkpt lat="41.78991629922421" lon="13.314052421450265"><ele>540.0</ele><time>2026-04-11T13:05:25.999Z</time></trkpt><trkpt lat="41.78997992229177" lon="13.314359716367724"><ele>540.0</ele><time>2026-04-11T13:05:26.999Z</time></trkpt><trkpt lat="41.790073862764594" lon="13.314664406162134"><ele>540.0</ele><time>2026-04-11T13:05:27.999Z</time></trkpt><trkpt lat="41.79018837325849" lon="13.314980046548314"><ele>550.0</ele><time>2026-04-11T13:05:28.999Z</time></trkpt><trkpt lat="41.79030400675529" lon="13.315284220343308"><ele>560.0</ele><time>2026-04-11T13:05:29.999Z</time></trkpt><trkpt lat="41.79040550670346" lon="13.315550617475514"><ele>557.3333333333333</ele><time>2026-04-11T13:05:30.999Z</time></trkpt><trkpt lat="41.79050146510073" lon="13.315795029733918"><ele>554.6666666666666</ele><time>2026-04-11T13:05:31.999Z</time></trkpt><trkpt lat="41.790610438259094" lon="13.316000681299961"><ele>552.0</ele><time>2026-04-11T13:05:32.999Z</time></trkpt><trkpt lat="41.79075525592865" lon="13.316180485357906"><ele>552.0</ele><time>2026-04-11T13:05:33.999Z</time></trkpt><trkpt lat="41.790925784504836" lon="13.316320923146842"><ele>552.0</ele><time>2026-04-11T13:05:34.999Z</time></trkpt><trkpt lat="41.79111791241558" lon="13.316437892707583"><ele>552.0</ele><time>2026-04-11T13:05:35.999Z</time></trkpt><trkpt lat="41.79132396817078" lon="13.316546528507804"><ele>551.3333333333334</ele><time>2026-04-11T13:05:36.999Z</time></trkpt><trkpt lat="41.79153855118839" lon="13.316618439138507"><ele>550.6666666666667</ele><time>2026-04-11T13:05:37.999Z</time></trkpt><trkpt lat="41.791757066753" lon="13.316650154577394"><ele>550.0</ele><time>2026-04-11T13:05:38.999Z</time></trkpt><trkpt lat="41.79198406570186" lon="13.316634628656956"><ele>552.0</ele><time>2026-04-11T13:05:39.999Z</time></trkpt><trkpt lat="41.79221433113865" lon="13.316561631965763"><ele>554.0</ele><time>2026-04-11T13:05:40.999Z</time></trkpt><trkpt lat="41.79246028116767" lon="13.31644118877528"><ele>563.0</ele><time>2026-04-11T13:05:41.999Z</time></trkpt><trkpt lat="41.79272574738577" lon="13.316302088774497"><ele>572.0</ele><time>2026-04-11T13:05:42.999Z</time></trkpt><trkpt lat="41.79300581974097" lon="13.316148560620437"><ele>572.0</ele><time>2026-04-11T13:05:43.999Z</time></trkpt><trkpt lat="41.79329254008499" lon="13.315986210211365"><ele>572.0</ele><time>2026-04-11T13:05:44.999Z</time></trkpt><trkpt lat="41.793568709594325" lon="13.31581212847782"><ele>566.5</ele><time>2026-04-11T13:05:45.999Z</time></trkpt><trkpt lat="41.7938032397284" lon="13.315655136756446"><ele>561.0</ele><time>2026-04-11T13:05:46.999Z</time></trkpt><trkpt lat="41.79401393934686" lon="13.315505345994659"><ele>565.3333333333334</ele><time>2026-04-11T13:05:47.999Z</time></trkpt><trkpt lat="41.79421201624601" lon="13.315364925885257"><ele>569.6666666666667</ele><time>2026-04-11T13:05:48.999Z</time></trkpt><trkpt lat="41.79438828019929" lon="13.315226550028694"><ele>574.0</ele><time>2026-04-11T13:05:49.999Z</time></trkpt><trkpt lat="41.79455882714898" lon="13.315081451058212"><ele>574.0</ele><time>2026-04-11T13:05:50.999Z</time></trkpt><trkpt lat="41.79471395614216" lon="13.314946601114887"><ele>574.0</ele><time>2026-04-11T13:05:51.999Z</time></trkpt><trkpt lat="41.79484779055496" lon="13.314828392105449"><ele>574.0</ele><time>2026-04-11T13:05:52.999Z</time></trkpt><trkpt lat="41.79496567574963" lon="13.314727798522714"><ele>574.8</ele><time>2026-04-11T13:05:53.999Z</time></trkpt><trkpt lat="41.7950646158991" lon="13.314645696962415"><ele>575.5999999999999</ele><time>2026-04-11T13:05:54.999Z</time></trkpt><trkpt lat="41.7951484986789" lon="13.314577752159517"><ele>576.4</ele><time>2026-04-11T13:05:55.999Z</time></trkpt><trkpt lat="41.79521698200993" lon="13.31452297989979"><ele>577.1999999999999</ele><time>2026-04-11T13:05:56.999Z</time></trkpt><trkpt lat="41.79530089722987" lon="13.314489288519914"><ele>578.0</ele><time>2026-04-11T13:05:58.999Z</time></trkpt><trkpt lat="41.79535655473874" lon="13.314544764251282"><ele>578.0</ele><time>2026-04-11T13:06:02Z</time></trkpt><trkpt lat="41.79536295788315" lon="13.314630131088089"><ele>578.0</ele><time>2026-04-11T13:06:06Z</time></trkpt><trkpt lat="41.79529241878394" lon="13.314661399919954"><ele>578.0</ele><time>2026-04-11T13:06:10Z</time></trkpt><trkpt lat="41.795383682578006" lon="13.31465736673166"><ele>578.0</ele><time>2026-04-11T13:15:19Z</time></trkpt><trkpt lat="41.795380598204055" lon="13.31456434382854"><ele>578.0</ele><time>2026-04-11T13:15:23Z</time></trkpt><trkpt lat="41.79536057557671" lon="13.314470015642975"><ele>578.0</ele><time>2026-04-11T13:15:28Z</time></trkpt><trkpt lat="41.7953975981075" lon="13.31435594471354"><ele>578.0</ele><time>2026-04-11T13:15:42Z</time></trkpt><trkpt lat="41.795455295030266" lon="13.314322014902153"><ele>578.0</ele><time>2026-04-11T13:15:43Z</time></trkpt><trkpt lat="41.79551482207233" lon="13.314279727169616"><ele>578.0</ele><time>2026-04-11T13:15:44Z</time></trkpt><trkpt lat="41.79557512035743" lon="13.314225283074656"><ele>578.0</ele><time>2026-04-11T13:15:45Z</time></trkpt><trkpt lat="41.79563771700788" lon="13.314178836335568"><ele>578.0</ele><time>2026-04-11T13:15:46Z</time></trkpt><trkpt lat="41.79570586009196" lon="13.31413831080941"><ele>578.0</ele><time>2026-04-11T13:15:47Z</time></trkpt><trkpt lat="41.79578500176003" lon="13.31410899786265"><ele>578.0</ele><time>2026-04-11T13:15:48Z</time></trkpt><trkpt lat="41.79586745293316" lon="13.314112217700414"><ele>578.0</ele><time>2026-04-11T13:15:49Z</time></trkpt><trkpt lat="41.795939351262774" lon="13.314156503319097"><ele>578.0</ele><time>2026-04-11T13:15:50Z</time></trkpt><trkpt lat="41.79598956567183" lon="13.31422039707715"><ele>578.0</ele><time>2026-04-11T13:15:51Z</time></trkpt><trkpt lat="41.79601505533388" lon="13.31432464248817"><ele>578.0</ele><time>2026-04-11T13:15:52Z</time></trkpt><trkpt lat="41.79605157165429" lon="13.314416709982329"><ele>578.0</ele><time>2026-04-11T13:15:53Z</time></trkpt><trkpt lat="41.79609353524128" lon="13.314524589905728"><ele>578.0</ele><time>2026-04-11T13:15:54Z</time></trkpt><trkpt lat="41.79613302701877" lon="13.314630242829816"><ele>578.4</ele><time>2026-04-11T13:15:55Z</time></trkpt><trkpt lat="41.7961766861079" lon="13.314746816612796"><ele>578.8</ele><time>2026-04-11T13:15:56Z</time></trkpt><trkpt lat="41.79621988920847" lon="13.314862172931708"><ele>579.2</ele><time>2026-04-11T13:15:57Z</time></trkpt><trkpt lat="41.79626291741768" lon="13.314975472188781"><ele>579.6</ele><time>2026-04-11T13:15:58Z</time></trkpt><trkpt lat="41.79630589417654" lon="13.31508799695231"><ele>580.0</ele><time>2026-04-11T13:15:59Z</time></trkpt><trkpt lat="41.796350943231246" lon="13.315205947512652"><ele>580.0</ele><time>2026-04-11T13:16:00Z</time></trkpt><trkpt lat="41.79640226866128" lon="13.315340331297918"><ele>580.0</ele><time>2026-04-11T13:16:01Z</time></trkpt><trkpt lat="41.796450627306534" lon="13.315466005774113"><ele>580.0</ele><time>2026-04-11T13:16:02Z</time></trkpt><trkpt lat="41.79649617625154" lon="13.315575853795925"><ele>580.0</ele><time>2026-04-11T13:16:03Z</time></trkpt><trkpt lat="41.796550269157144" lon="13.31566736717787"><ele>580.0</ele><time>2026-04-11T13:16:04Z</time></trkpt><trkpt lat="41.79662440468179" lon="13.31573634931458"><ele>579.5</ele><time>2026-04-11T13:16:05Z</time></trkpt><trkpt lat="41.796736390770285" lon="13.315760482938273"><ele>579.0</ele><time>2026-04-11T13:16:06Z</time></trkpt><trkpt lat="41.79683688280848" lon="13.315733130866143"><ele>578.5</ele><time>2026-04-11T13:16:07Z</time></trkpt><trkpt lat="41.796950412778216" lon="13.315728013426348"><ele>578.0</ele><time>2026-04-11T13:16:08Z</time></trkpt><trkpt lat="41.79708421813192" lon="13.315674565908601"><ele>579.0</ele><time>2026-04-11T13:16:09Z</time></trkpt><trkpt lat="41.79720053445793" lon="13.315604463811988"><ele>580.0</ele><time>2026-04-11T13:16:10Z</time></trkpt><trkpt lat="41.797311013035056" lon="13.315529568602527"><ele>581.0</ele><time>2026-04-11T13:16:11Z</time></trkpt><trkpt lat="41.7974205978172" lon="13.315451638968336"><ele>582.0</ele><time>2026-04-11T13:16:12Z</time></trkpt><trkpt lat="41.797528098925945" lon="13.315373741837496"><ele>583.6</ele><time>2026-04-11T13:16:13Z</time></trkpt><trkpt lat="41.79762888369654" lon="13.315300460840696"><ele>585.2</ele><time>2026-04-11T13:16:14Z</time></trkpt><trkpt lat="41.79771429331898" lon="13.31524092498349"><ele>586.8</ele><time>2026-04-11T13:16:15Z</time></trkpt><trkpt lat="41.797800354590215" lon="13.315244456135188"><ele>588.4</ele><time>2026-04-11T13:16:16Z</time></trkpt><trkpt lat="41.79789112314016" lon="13.315294381883097"><ele>590.0</ele><time>2026-04-11T13:16:17Z</time></trkpt><trkpt lat="41.79794856998073" lon="13.315436556652212"><ele>590.5</ele><time>2026-04-11T13:16:18Z</time></trkpt><trkpt lat="41.79803336592841" lon="13.315552537175265"><ele>591.0</ele><time>2026-04-11T13:16:19Z</time></trkpt><trkpt lat="41.79809722522776" lon="13.31568434605662"><ele>591.5</ele><time>2026-04-11T13:16:20Z</time></trkpt><trkpt lat="41.79816294880488" lon="13.315811682357714"><ele>592.0</ele><time>2026-04-11T13:16:21Z</time></trkpt><trkpt lat="41.79823631629588" lon="13.315934895321703"><ele>592.0</ele><time>2026-04-11T13:16:22Z</time></trkpt><trkpt lat="41.79830735956901" lon="13.316047536561683"><ele>592.0</ele><time>2026-04-11T13:16:23Z</time></trkpt><trkpt lat="41.79836011623072" lon="13.31615255775472"><ele>592.0</ele><time>2026-04-11T13:16:24Z</time></trkpt><trkpt lat="41.79841675871964" lon="13.316264122765205"><ele>592.0</ele><time>2026-04-11T13:16:25Z</time></trkpt><trkpt lat="41.79848382794067" lon="13.31634759618583"><ele>592.0</ele><time>2026-04-11T13:16:26Z</time></trkpt><trkpt lat="41.798549142888504" lon="13.316428670555911"><ele>592.8333333333334</ele><time>2026-04-11T13:16:27Z</time></trkpt><trkpt lat="41.79861728580728" lon="13.316470728281004"><ele>593.6666666666667</ele><time>2026-04-11T13:16:28Z</time></trkpt><trkpt lat="41.798697795032325" lon="13.31649496806298"><ele>594.5</ele><time>2026-04-11T13:16:29Z</time></trkpt><trkpt lat="41.79877845770168" lon="13.316447290076349"><ele>595.3333333333334</ele><time>2026-04-11T13:16:30Z</time></trkpt><trkpt lat="41.798838908666006" lon="13.316377122255412"><ele>596.1666666666666</ele><time>2026-04-11T13:16:31Z</time></trkpt><trkpt lat="41.79887578156806" lon="13.316278548446165"><ele>597.0</ele><time>2026-04-11T13:16:32Z</time></trkpt><trkpt lat="41.79888362878175" lon="13.316167894342628"><ele>598.6</ele><time>2026-04-11T13:16:33Z</time></trkpt><trkpt lat="41.7988625878412" lon="13.316053119943465"><ele>600.2</ele><time>2026-04-11T13:16:34Z</time></trkpt><trkpt lat="41.79881883854852" lon="13.315934866904689"><ele>601.8</ele><time>2026-04-11T13:16:35Z</time></trkpt><trkpt lat="41.7987785466158" lon="13.315826871360997"><ele>603.4</ele><time>2026-04-11T13:16:36Z</time></trkpt><trkpt lat="41.79873968701055" lon="13.31572145696565"><ele>605.0</ele><time>2026-04-11T13:16:37Z</time></trkpt><trkpt lat="41.79870180562844" lon="13.315610279118403"><ele>607.8</ele><time>2026-04-11T13:16:38Z</time></trkpt><trkpt lat="41.79866355786258" lon="13.315495095455754"><ele>610.6</ele><time>2026-04-11T13:16:39Z</time></trkpt><trkpt lat="41.79862009257996" lon="13.315376500006854"><ele>613.4</ele><time>2026-04-11T13:16:40Z</time></trkpt><trkpt lat="41.79858534098662" lon="13.315258542736974"><ele>616.2</ele><time>2026-04-11T13:16:41Z</time></trkpt><trkpt lat="41.79854092160702" lon="13.315137691111742"><ele>619.0</ele><time>2026-04-11T13:16:42Z</time></trkpt><trkpt lat="41.798508094692124" lon="13.315029478137024"><ele>619.0</ele><time>2026-04-11T13:16:43Z</time></trkpt><trkpt lat="41.79847769287741" lon="13.314930835071973"><ele>619.0</ele><time>2026-04-11T13:16:44Z</time></trkpt><trkpt lat="41.79844832315949" lon="13.314844829377229"><ele>619.0</ele><time>2026-04-11T13:16:45Z</time></trkpt><trkpt lat="41.798416744379445" lon="13.314710824607078"><ele>619.0</ele><time>2026-04-11T13:16:47Z</time></trkpt><trkpt lat="41.79851268912395" lon="13.314627786292792"><ele>619.0</ele><time>2026-04-11T13:16:49Z</time></trkpt><trkpt lat="41.79860500095909" lon="13.31474479532949"><ele>619.0</ele><time>2026-04-11T13:16:51Z</time></trkpt><trkpt lat="41.798705563513785" lon="13.314868255621493"><ele>619.0</ele><time>2026-04-11T13:16:53Z</time></trkpt><trkpt lat="41.79874198482476" lon="13.314947910125019"><ele>619.0</ele><time>2026-04-11T13:16:54Z</time></trkpt><trkpt lat="41.798786982403804" lon="13.315044229118575"><ele>619.0</ele><time>2026-04-11T13:16:55Z</time></trkpt><trkpt lat="41.79883603695662" lon="13.315128268676707"><ele>619.0</ele><time>2026-04-11T13:16:56Z</time></trkpt><trkpt lat="41.798896976204624" lon="13.315222033354232"><ele>619.0</ele><time>2026-04-11T13:16:57Z</time></trkpt><trkpt lat="41.798952047010914" lon="13.31531691047611"><ele>619.0</ele><time>2026-04-11T13:16:58Z</time></trkpt><trkpt lat="41.79901100078132" lon="13.315411506942121"><ele>619.0</ele><time>2026-04-11T13:16:59Z</time></trkpt><trkpt lat="41.79908208549382" lon="13.31549914020532"><ele>619.0</ele><time>2026-04-11T13:17:00Z</time></trkpt><trkpt lat="41.79916387356363" lon="13.315575157451788"><ele>619.0</ele><time>2026-04-11T13:17:01Z</time></trkpt><trkpt lat="41.799259338079395" lon="13.315636268113106"><ele>621.75</ele><time>2026-04-11T13:17:02Z</time></trkpt><trkpt lat="41.799355731103034" lon="13.315692734036572"><ele>624.5</ele><time>2026-04-11T13:17:03Z</time></trkpt><trkpt lat="41.79946478208963" lon="13.315748605415918"><ele>627.25</ele><time>2026-04-11T13:17:04Z</time></trkpt><trkpt lat="41.79957172006473" lon="13.315810239240262"><ele>630.0</ele><time>2026-04-11T13:17:05Z</time></trkpt><trkpt lat="41.79967105323753" lon="13.315891999099906"><ele>630.0</ele><time>2026-04-11T13:17:06Z</time></trkpt><trkpt lat="41.799777317882054" lon="13.31598039745411"><ele>630.0</ele><time>2026-04-11T13:17:07Z</time></trkpt><trkpt lat="41.799865594222865" lon="13.316107528298136"><ele>630.0</ele><time>2026-04-11T13:17:08Z</time></trkpt><trkpt lat="41.79999288590501" lon="13.31625580980898"><ele>630.0</ele><time>2026-04-11T13:17:09Z</time></trkpt><trkpt lat="41.800090519386025" lon="13.31645185451484"><ele>632.6</ele><time>2026-04-11T13:17:10Z</time></trkpt><trkpt lat="41.80016006187045" lon="13.316600147796272"><ele>635.2</ele><time>2026-04-11T13:17:11Z</time></trkpt><trkpt lat="41.80022247137138" lon="13.3167223789425"><ele>637.8</ele><time>2026-04-11T13:17:12Z</time></trkpt><trkpt lat="41.80027641385281" lon="13.316835835214391"><ele>640.4</ele><time>2026-04-11T13:17:13Z</time></trkpt><trkpt lat="41.80032570371859" lon="13.31693541921111"><ele>643.0</ele><time>2026-04-11T13:17:14Z</time></trkpt><trkpt lat="41.8003632958361" lon="13.317017446654875"><ele>643.0</ele><time>2026-04-11T13:17:15Z</time></trkpt><trkpt lat="41.800438879594935" lon="13.317134678570067"><ele>643.0</ele><time>2026-04-11T13:17:17Z</time></trkpt><trkpt lat="41.80055805892444" lon="13.317112797867251"><ele>643.0</ele><time>2026-04-11T13:17:19Z</time></trkpt><trkpt lat="41.800580455820096" lon="13.316926885471156"><ele>643.0</ele><time>2026-04-11T13:17:21Z</time></trkpt><trkpt lat="41.80054753400704" lon="13.3168227729901"><ele>643.0</ele><time>2026-04-11T13:17:22Z</time></trkpt><trkpt lat="41.800515298761084" lon="13.316727158725353"><ele>643.0</ele><time>2026-04-11T13:17:23Z</time></trkpt><trkpt lat="41.80045910930639" lon="13.316625011215779"><ele>643.0</ele><time>2026-04-11T13:17:24Z</time></trkpt><trkpt lat="41.80040978903568" lon="13.316517250515389"><ele>643.0</ele><time>2026-04-11T13:17:25Z</time></trkpt><trkpt lat="41.80035587180555" lon="13.316399052470242"><ele>643.0</ele><time>2026-04-11T13:17:26Z</time></trkpt><trkpt lat="41.80029899758103" lon="13.316290476230362"><ele>640.4</ele><time>2026-04-11T13:17:27Z</time></trkpt><trkpt lat="41.80024024851711" lon="13.316182194448587"><ele>637.8</ele><time>2026-04-11T13:17:28Z</time></trkpt><trkpt lat="41.800176235879235" lon="13.316064386139725"><ele>635.2</ele><time>2026-04-11T13:17:29Z</time></trkpt><trkpt lat="41.80011295756047" lon="13.315925260516378"><ele>632.6</ele><time>2026-04-11T13:17:30Z</time></trkpt><trkpt lat="41.8000481486417" lon="13.315795895573304"><ele>630.0</ele><time>2026-04-11T13:17:31Z</time></trkpt><trkpt lat="41.79998476022589" lon="13.31567234292056"><ele>632.8</ele><time>2026-04-11T13:17:32Z</time></trkpt><trkpt lat="41.7999197298336" lon="13.315549693757454"><ele>635.6</ele><time>2026-04-11T13:17:33Z</time></trkpt><trkpt lat="41.799860094623774" lon="13.31542779860066"><ele>638.4000000000001</ele><time>2026-04-11T13:17:34Z</time></trkpt><trkpt lat="41.79980428945354" lon="13.315316831768765"><ele>641.2</ele><time>2026-04-11T13:17:35Z</time></trkpt><trkpt lat="41.79974352008893" lon="13.315210481372576"><ele>644.0</ele><time>2026-04-11T13:17:36Z</time></trkpt><trkpt lat="41.79969134802636" lon="13.315098228051827"><ele>644.0</ele><time>2026-04-11T13:17:37Z</time></trkpt><trkpt lat="41.79963865077523" lon="13.315009321921767"><ele>644.0</ele><time>2026-04-11T13:17:38Z</time></trkpt><trkpt lat="41.79959660217222" lon="13.314930725380604"><ele>644.0</ele><time>2026-04-11T13:17:39Z</time></trkpt><trkpt lat="41.799635820140814" lon="13.314831443346629"><ele>644.0</ele><time>2026-04-11T13:17:40Z</time></trkpt><trkpt lat="41.79961499419522" lon="13.31473640922949"><ele>644.0</ele><time>2026-04-11T13:17:41Z</time></trkpt><trkpt lat="41.799624402053404" lon="13.314632396587172"><ele>644.0</ele><time>2026-04-11T13:17:42Z</time></trkpt><trkpt lat="41.799610637434505" lon="13.314509980877279"><ele>644.8333333333333</ele><time>2026-04-11T13:17:43Z</time></trkpt><trkpt lat="41.799602360914754" lon="13.314376563940385"><ele>645.6666666666666</ele><time>2026-04-11T13:17:44Z</time></trkpt><trkpt lat="41.79960056780425" lon="13.31425404219223"><ele>646.5</ele><time>2026-04-11T13:17:45Z</time></trkpt><trkpt lat="41.799583436710606" lon="13.314152526600026"><ele>647.3333333333334</ele><time>2026-04-11T13:17:46Z</time></trkpt><trkpt lat="41.79957766114233" lon="13.314059795956672"><ele>648.1666666666667</ele><time>2026-04-11T13:17:47Z</time></trkpt><trkpt lat="41.79957102132389" lon="13.313959062999693"><ele>649.0</ele><time>2026-04-11T13:17:48Z</time></trkpt><trkpt lat="41.79956515383857" lon="13.313843543782205"><ele>649.1666666666667</ele><time>2026-04-11T13:17:49Z</time></trkpt><trkpt lat="41.79955957044199" lon="13.313724490336975"><ele>649.3333333333334</ele><time>2026-04-11T13:17:50Z</time></trkpt><trkpt lat="41.799552807495836" lon="13.313609132109557"><ele>649.5</ele><time>2026-04-11T13:17:51Z</time></trkpt><trkpt lat="41.7995543577243" lon="13.313506165795339"><ele>649.6666666666666</ele><time>2026-04-11T13:17:52Z</time></trkpt><trkpt lat="41.79956293203058" lon="13.313421107784695"><ele>649.8333333333333</ele><time>2026-04-11T13:17:53Z</time></trkpt><trkpt lat="41.7996254835397" lon="13.313378241322145"><ele>650.0</ele><time>2026-04-11T13:17:54Z</time></trkpt><trkpt lat="41.79975107596159" lon="13.313492870377269"><ele>650.0</ele><time>2026-04-11T13:17:56Z</time></trkpt><trkpt lat="41.79974207626204" lon="13.313635572501296"><ele>650.0</ele><time>2026-04-11T13:17:57Z</time></trkpt><trkpt lat="41.799763796703445" lon="13.313808512922558"><ele>650.0</ele><time>2026-04-11T13:17:58Z</time></trkpt><trkpt lat="41.799802028162254" lon="13.313952240503351"><ele>650.0</ele><time>2026-04-11T13:17:59Z</time></trkpt><trkpt lat="41.799820401835646" lon="13.31403926870337"><ele>650.0</ele><time>2026-04-11T13:18:00Z</time></trkpt><trkpt lat="41.79983467048482" lon="13.314151124417494"><ele>650.0</ele><time>2026-04-11T13:18:02Z</time></trkpt><trkpt lat="41.79990547328779" lon="13.314174818445956"><ele>650.0</ele><time>2026-04-11T13:18:04Z</time></trkpt><trkpt lat="41.799985988657674" lon="13.314075390643902"><ele>650.0</ele><time>2026-04-11T13:18:06Z</time></trkpt><trkpt lat="41.79998860121421" lon="13.313942439375865"><ele>650.0</ele><time>2026-04-11T13:18:07Z</time></trkpt><trkpt lat="41.7999515461042" lon="13.313814894902455"><ele>650.0</ele><time>2026-04-11T13:18:08Z</time></trkpt><trkpt lat="41.7999204585827" lon="13.31367699630431"><ele>650.0</ele><time>2026-04-11T13:18:09Z</time></trkpt><trkpt lat="41.79986526447008" lon="13.313549724504616"><ele>650.0</ele><time>2026-04-11T13:18:10Z</time></trkpt><trkpt lat="41.79983313444243" lon="13.313427626889881"><ele>650.0</ele><time>2026-04-11T13:18:11Z</time></trkpt><trkpt lat="41.799789937141966" lon="13.313313724950834"><ele>650.0</ele><time>2026-04-11T13:18:12Z</time></trkpt><trkpt lat="41.799739525214285" lon="13.31321371192087"><ele>650.0</ele><time>2026-04-11T13:18:13Z</time></trkpt><trkpt lat="41.79970510451436" lon="13.313113147840546"><ele>651.5</ele><time>2026-04-11T13:18:14Z</time></trkpt><trkpt lat="41.79965447467965" lon="13.313029368195753"><ele>653.0</ele><time>2026-04-11T13:18:15Z</time></trkpt><trkpt lat="41.7995777125977" lon="13.312968747206323"><ele>654.5</ele><time>2026-04-11T13:18:16Z</time></trkpt><trkpt lat="41.79950544662543" lon="13.312903547537159"><ele>656.0</ele><time>2026-04-11T13:18:17Z</time></trkpt><trkpt lat="41.79944699006565" lon="13.312850637434556"><ele>657.5</ele><time>2026-04-11T13:18:18Z</time></trkpt><trkpt lat="41.79938979386839" lon="13.312744463618706"><ele>659.0</ele><time>2026-04-11T13:18:20Z</time></trkpt><trkpt lat="41.799403845580336" lon="13.312607336491888"><ele>659.0</ele><time>2026-04-11T13:18:22Z</time></trkpt><trkpt lat="41.79944653998646" lon="13.312521301949523"><ele>659.0</ele><time>2026-04-11T13:18:24Z</time></trkpt><trkpt lat="41.79951681696038" lon="13.312546018307058"><ele>659.0</ele><time>2026-04-11T13:18:28Z</time></trkpt><trkpt lat="41.79961742497615" lon="13.312584224839288"><ele>659.0</ele><time>2026-04-11T13:18:30Z</time></trkpt><trkpt lat="41.7997356434436" lon="13.312689317560311"><ele>659.0</ele><time>2026-04-11T13:18:32Z</time></trkpt><trkpt lat="41.799836513892735" lon="13.312773165944336"><ele>659.0</ele><time>2026-04-11T13:18:33Z</time></trkpt><trkpt lat="41.79994739339073" lon="13.3128834083069"><ele>659.0</ele><time>2026-04-11T13:18:34Z</time></trkpt><trkpt lat="41.80000842049051" lon="13.312968421148707"><ele>659.0</ele><time>2026-04-11T13:18:35Z</time></trkpt><trkpt lat="41.80005480778264" lon="13.313063796985624"><ele>659.0</ele><time>2026-04-11T13:18:36Z</time></trkpt><trkpt lat="41.80010256958899" lon="13.313177990025045"><ele>659.0</ele><time>2026-04-11T13:18:37Z</time></trkpt><trkpt lat="41.80015200642283" lon="13.313304605803577"><ele>663.0</ele><time>2026-04-11T13:18:38Z</time></trkpt><trkpt lat="41.800201025225256" lon="13.313435337855042"><ele>667.0</ele><time>2026-04-11T13:18:39Z</time></trkpt><trkpt lat="41.80025356241247" lon="13.313583526647973"><ele>671.0</ele><time>2026-04-11T13:18:40Z</time></trkpt><trkpt lat="41.800304986441745" lon="13.313757335707901"><ele>675.0</ele><time>2026-04-11T13:18:41Z</time></trkpt><trkpt lat="41.80034450028818" lon="13.313950542104239"><ele>675.0</ele><time>2026-04-11T13:18:42Z</time></trkpt><trkpt lat="41.80039707459391" lon="13.31415994211084"><ele>675.0</ele><time>2026-04-11T13:18:43Z</time></trkpt><trkpt lat="41.80047435552458" lon="13.314345832581237"><ele>675.0</ele><time>2026-04-11T13:18:44Z</time></trkpt><trkpt lat="41.80053031560899" lon="13.314492753560636"><ele>675.0</ele><time>2026-04-11T13:18:45Z</time></trkpt><trkpt lat="41.80058595372447" lon="13.314594926094902"><ele>675.0</ele><time>2026-04-11T13:18:46Z</time></trkpt><trkpt lat="41.80066217553208" lon="13.314643198961937"><ele>675.0</ele><time>2026-04-11T13:18:47Z</time></trkpt><trkpt lat="41.800753877536266" lon="13.314626575299746"><ele>675.0</ele><time>2026-04-11T13:18:48Z</time></trkpt><trkpt lat="41.800844653392794" lon="13.314527431953492"><ele>675.0</ele><time>2026-04-11T13:18:49Z</time></trkpt><trkpt lat="41.800915117433924" lon="13.314415063390468"><ele>675.0</ele><time>2026-04-11T13:18:50Z</time></trkpt><trkpt lat="41.80095770675696" lon="13.314272377929145"><ele>675.0</ele><time>2026-04-11T13:18:51Z</time></trkpt><trkpt lat="41.80098456098901" lon="13.314134626749976"><ele>675.0</ele><time>2026-04-11T13:18:52Z</time></trkpt><trkpt lat="41.80097626640415" lon="13.314018546442353"><ele>675.0</ele><time>2026-04-11T13:18:53Z</time></trkpt><trkpt lat="41.800900640431905" lon="13.31390504882606"><ele>675.0</ele><time>2026-04-11T13:18:54Z</time></trkpt><trkpt lat="41.80086176593766" lon="13.313731384684882"><ele>675.0</ele><time>2026-04-11T13:18:55Z</time></trkpt><trkpt lat="41.8007557576676" lon="13.313545032380029"><ele>676.25</ele><time>2026-04-11T13:18:56Z</time></trkpt><trkpt lat="41.80071241832041" lon="13.313389721125056"><ele>677.5</ele><time>2026-04-11T13:18:57Z</time></trkpt><trkpt lat="41.80069705767989" lon="13.313219659419412"><ele>678.75</ele><time>2026-04-11T13:18:58Z</time></trkpt><trkpt lat="41.80070923319132" lon="13.313050599659526"><ele>680.0</ele><time>2026-04-11T13:18:59Z</time></trkpt><trkpt lat="41.800740777654596" lon="13.312874060891538"><ele>680.25</ele><time>2026-04-11T13:19:00Z</time></trkpt><trkpt lat="41.800767540238965" lon="13.312688200400045"><ele>680.5</ele><time>2026-04-11T13:19:01Z</time></trkpt><trkpt lat="41.80077542184559" lon="13.312488077107467"><ele>680.75</ele><time>2026-04-11T13:19:02Z</time></trkpt><trkpt lat="41.800768636670874" lon="13.31229211021389"><ele>681.0</ele><time>2026-04-11T13:19:03Z</time></trkpt><trkpt lat="41.80075768437133" lon="13.312099437012101"><ele>681.0</ele><time>2026-04-11T13:19:04Z</time></trkpt><trkpt lat="41.800765666889816" lon="13.31194443691544"><ele>681.0</ele><time>2026-04-11T13:19:05Z</time></trkpt><trkpt lat="41.8007941867964" lon="13.311815178888272"><ele>681.0</ele><time>2026-04-11T13:19:06Z</time></trkpt><trkpt lat="41.800875651970934" lon="13.311737410991249"><ele>681.0</ele><time>2026-04-11T13:19:07Z</time></trkpt><trkpt lat="41.800934348434474" lon="13.311643448409818"><ele>681.0</ele><time>2026-04-11T13:19:08Z</time></trkpt><trkpt lat="41.80100755929094" lon="13.311551769118502"><ele>684.1666666666666</ele><time>2026-04-11T13:19:09Z</time></trkpt><trkpt lat="41.80108955890275" lon="13.31145569652489"><ele>687.3333333333334</ele><time>2026-04-11T13:19:10Z</time></trkpt><trkpt lat="41.80116276712847" lon="13.31135563752293"><ele>690.5</ele><time>2026-04-11T13:19:11Z</time></trkpt><trkpt lat="41.80121859015523" lon="13.311282839471295"><ele>693.6666666666667</ele><time>2026-04-11T13:19:12Z</time></trkpt><trkpt lat="41.801263292044155" lon="13.311220047634126"><ele>696.8333333333334</ele><time>2026-04-11T13:19:13Z</time></trkpt><trkpt lat="41.80131288275118" lon="13.31115236076728"><ele>700.0</ele><time>2026-04-11T13:19:14Z</time></trkpt><trkpt lat="41.80137057499565" lon="13.31107527577711"><ele>700.0</ele><time>2026-04-11T13:19:15Z</time></trkpt><trkpt lat="41.801449352001995" lon="13.310956407868225"><ele>700.0</ele><time>2026-04-11T13:19:16Z</time></trkpt><trkpt lat="41.80152402185368" lon="13.310806949817016"><ele>700.0</ele><time>2026-04-11T13:19:17Z</time></trkpt><trkpt lat="41.80161797138899" lon="13.310626550465857"><ele>700.0</ele><time>2026-04-11T13:19:18Z</time></trkpt><trkpt lat="41.80169708016728" lon="13.310459890608874"><ele>692.6666666666667</ele><time>2026-04-11T13:19:19Z</time></trkpt><trkpt lat="41.80178083873152" lon="13.310288086321595"><ele>685.3333333333334</ele><time>2026-04-11T13:19:20Z</time></trkpt><trkpt lat="41.801872020012226" lon="13.310109839909229"><ele>678.0</ele><time>2026-04-11T13:19:21Z</time></trkpt><trkpt lat="41.80197145107738" lon="13.30992673673959"><ele>688.6666666666666</ele><time>2026-04-11T13:19:22Z</time></trkpt><trkpt lat="41.802074157626336" lon="13.309740270955004"><ele>699.3333333333333</ele><time>2026-04-11T13:19:23Z</time></trkpt><trkpt lat="41.80217222980284" lon="13.309534558213777"><ele>710.0</ele><time>2026-04-11T13:19:24Z</time></trkpt><trkpt lat="41.80226861409461" lon="13.309311319739976"><ele>710.0</ele><time>2026-04-11T13:19:25Z</time></trkpt><trkpt lat="41.80238725065063" lon="13.309100418314431"><ele>710.0</ele><time>2026-04-11T13:19:26Z</time></trkpt><trkpt lat="41.80253818599741" lon="13.308890532916081"><ele>710.0</ele><time>2026-04-11T13:19:27Z</time></trkpt><trkpt lat="41.802685851884256" lon="13.308716944735512"><ele>720.0</ele><time>2026-04-11T13:19:28Z</time></trkpt><trkpt lat="41.80280253776311" lon="13.308526716983753"><ele>730.0</ele><time>2026-04-11T13:19:29Z</time></trkpt><trkpt lat="41.802892931113185" lon="13.308298487851129"><ele>740.0</ele><time>2026-04-11T13:19:30Z</time></trkpt><trkpt lat="41.80294009869747" lon="13.308027691389912"><ele>740.0</ele><time>2026-04-11T13:19:31Z</time></trkpt><trkpt lat="41.802979231361036" lon="13.307734886420134"><ele>740.0</ele><time>2026-04-11T13:19:32Z</time></trkpt><trkpt lat="41.803038829483654" lon="13.307492773699511"><ele>740.0</ele><time>2026-04-11T13:19:33Z</time></trkpt><trkpt lat="41.80314254877867" lon="13.307264838497018"><ele>733.6666666666666</ele><time>2026-04-11T13:19:34Z</time></trkpt><trkpt lat="41.80326775513841" lon="13.307046772205878"><ele>727.3333333333334</ele><time>2026-04-11T13:19:35Z</time></trkpt><trkpt lat="41.803401518177935" lon="13.306836209007722"><ele>721.0</ele><time>2026-04-11T13:19:36Z</time></trkpt><trkpt lat="41.80351611897182" lon="13.306598349640923"><ele>731.0</ele><time>2026-04-11T13:19:37Z</time></trkpt><trkpt lat="41.80359169387789" lon="13.306338624282663"><ele>741.0</ele><time>2026-04-11T13:19:38Z</time></trkpt><trkpt lat="41.80366773426224" lon="13.306109343576704"><ele>751.0</ele><time>2026-04-11T13:19:39Z</time></trkpt><trkpt lat="41.8037533981374" lon="13.305920937897312"><ele>751.0</ele><time>2026-04-11T13:19:40Z</time></trkpt><trkpt lat="41.80389358229978" lon="13.305794001937324"><ele>751.0</ele><time>2026-04-11T13:19:41Z</time></trkpt><trkpt lat="41.80402858316539" lon="13.305642921302168"><ele>751.0</ele><time>2026-04-11T13:19:42Z</time></trkpt><trkpt lat="41.80411994085153" lon="13.305510303989289"><ele>745.0</ele><time>2026-04-11T13:19:43Z</time></trkpt><trkpt lat="41.80416240371509" lon="13.30534122819607"><ele>739.0</ele><time>2026-04-11T13:19:44Z</time></trkpt><trkpt lat="41.804166225793054" lon="13.30511189231486"><ele>733.0</ele><time>2026-04-11T13:19:45Z</time></trkpt><trkpt lat="41.804214199888854" lon="13.304914495344361"><ele>737.6666666666667</ele><time>2026-04-11T13:19:46Z</time></trkpt><trkpt lat="41.804352172038634" lon="13.304745517379484"><ele>742.3333333333334</ele><time>2026-04-11T13:19:47Z</time></trkpt><trkpt lat="41.804503997661406" lon="13.304563801461672"><ele>747.0</ele><time>2026-04-11T13:19:48Z</time></trkpt><trkpt lat="41.80466664262823" lon="13.304404657189785"><ele>747.0</ele><time>2026-04-11T13:19:49Z</time></trkpt><trkpt lat="41.804803016303346" lon="13.3042712263113"><ele>747.0</ele><time>2026-04-11T13:19:50Z</time></trkpt><trkpt lat="41.80494165074491" lon="13.304200859179721"><ele>747.0</ele><time>2026-04-11T13:19:51Z</time></trkpt><trkpt lat="41.80508993461403" lon="13.304160454327743"><ele>754.0</ele><time>2026-04-11T13:19:52Z</time></trkpt><trkpt lat="41.80522951127879" lon="13.304141160347339"><ele>761.0</ele><time>2026-04-11T13:19:53Z</time></trkpt><trkpt lat="41.8053655416585" lon="13.304133474242915"><ele>768.0</ele><time>2026-04-11T13:19:54Z</time></trkpt><trkpt lat="41.80544620722588" lon="13.304123391206222"><ele>775.0</ele><time>2026-04-11T13:19:55Z</time></trkpt><trkpt lat="41.80551264787113" lon="13.304101003272393"><ele>782.0</ele><time>2026-04-11T13:19:56Z</time></trkpt><trkpt lat="41.80558263709296" lon="13.303968108408329"><ele>780.6666666666667</ele><time>2026-04-11T13:19:57Z</time></trkpt><trkpt lat="41.80563110610778" lon="13.303848861999588"><ele>779.3333333333333</ele><time>2026-04-11T13:19:58Z</time></trkpt><trkpt lat="41.80570842635008" lon="13.303586614215567"><ele>778.0</ele><time>2026-04-11T13:19:59Z</time></trkpt><trkpt lat="41.805670647608125" lon="13.303358930751484"><ele>778.0</ele><time>2026-04-11T13:20:00Z</time></trkpt><trkpt lat="41.80563896503272" lon="13.30311559274166"><ele>778.0</ele><time>2026-04-11T13:20:01Z</time></trkpt><trkpt lat="41.8055956159678" lon="13.302737676979973"><ele>778.6666666666666</ele><time>2026-04-11T13:20:02Z</time></trkpt><trkpt lat="41.80555229151611" lon="13.302429453549733"><ele>779.3333333333333</ele><time>2026-04-11T13:20:03Z</time></trkpt><trkpt lat="41.805523392847505" lon="13.302215102489452"><ele>780.0</ele><time>2026-04-11T13:20:04Z</time></trkpt><trkpt lat="41.80550735687676" lon="13.301992645939125"><ele>780.0</ele><time>2026-04-11T13:20:05Z</time></trkpt><trkpt lat="41.80550325409391" lon="13.301836017982506"><ele>780.0</ele><time>2026-04-11T13:20:06Z</time></trkpt><trkpt lat="41.80551859279158" lon="13.301729766941468"><ele>780.0</ele><time>2026-04-11T13:20:07Z</time></trkpt><trkpt lat="41.80560672340601" lon="13.301752737527332"><ele>780.0</ele><time>2026-04-11T13:20:09Z</time></trkpt><trkpt lat="41.80565829393334" lon="13.301840530588182"><ele>780.0</ele><time>2026-04-11T13:20:10Z</time></trkpt><trkpt lat="41.80566762325111" lon="13.301942541597233"><ele>780.0</ele><time>2026-04-11T13:20:11Z</time></trkpt><trkpt lat="41.80565302994162" lon="13.302043632042917"><ele>780.0</ele><time>2026-04-11T13:20:12Z</time></trkpt><trkpt lat="41.80563525970557" lon="13.302199315219278"><ele>780.0</ele><time>2026-04-11T13:20:13Z</time></trkpt><trkpt lat="41.805656741798366" lon="13.302376107148813"><ele>780.0</ele><time>2026-04-11T13:20:14Z</time></trkpt><trkpt lat="41.80568500424191" lon="13.302541564867573"><ele>780.0</ele><time>2026-04-11T13:20:15Z</time></trkpt><trkpt lat="41.805718880149115" lon="13.302707609520915"><ele>779.3333333333333</ele><time>2026-04-11T13:20:16Z</time></trkpt><trkpt lat="41.80575329141897" lon="13.3028818988275"><ele>778.6666666666666</ele><time>2026-04-11T13:20:17Z</time></trkpt><trkpt lat="41.80580788154598" lon="13.303074833403318"><ele>778.0</ele><time>2026-04-11T13:20:18Z</time></trkpt><trkpt lat="41.80586758536742" lon="13.303289043986705"><ele>778.0</ele><time>2026-04-11T13:20:19Z</time></trkpt><trkpt lat="41.80591672890848" lon="13.303497201004069"><ele>778.0</ele><time>2026-04-11T13:20:20Z</time></trkpt><trkpt lat="41.8059569529693" lon="13.303713438938347"><ele>778.0</ele><time>2026-04-11T13:20:21Z</time></trkpt><trkpt lat="41.80602213936854" lon="13.303931997083486"><ele>779.0</ele><time>2026-04-11T13:20:22Z</time></trkpt><trkpt lat="41.80604223621788" lon="13.304112667444885"><ele>780.0</ele><time>2026-04-11T13:20:23Z</time></trkpt><trkpt lat="41.80606251191056" lon="13.304269056838839"><ele>781.0</ele><time>2026-04-11T13:20:24Z</time></trkpt><trkpt lat="41.80604257769675" lon="13.304409577688261"><ele>782.0</ele><time>2026-04-11T13:20:25Z</time></trkpt><trkpt lat="41.805963662106514" lon="13.304543827449358"><ele>782.0</ele><time>2026-04-11T13:20:26Z</time></trkpt><trkpt lat="41.80583564857748" lon="13.304644738846003"><ele>782.0</ele><time>2026-04-11T13:20:27Z</time></trkpt><trkpt lat="41.80566778080258" lon="13.304698330144754"><ele>782.0</ele><time>2026-04-11T13:20:28Z</time></trkpt><trkpt lat="41.805483579141686" lon="13.30475748404742"><ele>781.0</ele><time>2026-04-11T13:20:29Z</time></trkpt><trkpt lat="41.80535038076237" lon="13.304809780666474"><ele>780.0</ele><time>2026-04-11T13:20:30Z</time></trkpt><trkpt lat="41.805254108542" lon="13.304889794448925"><ele>779.0</ele><time>2026-04-11T13:20:31Z</time></trkpt><trkpt lat="41.80517836050654" lon="13.305030867289343"><ele>778.0</ele><time>2026-04-11T13:20:32Z</time></trkpt><trkpt lat="41.80513220699131" lon="13.305250573515643"><ele>778.0</ele><time>2026-04-11T13:20:33Z</time></trkpt><trkpt lat="41.8051022154212" lon="13.305501989093539"><ele>778.0</ele><time>2026-04-11T13:20:34Z</time></trkpt><trkpt lat="41.805052498418206" lon="13.305767669938048"><ele>778.0</ele><time>2026-04-11T13:20:35Z</time></trkpt><trkpt lat="41.80497955951702" lon="13.30603660015847"><ele>783.0</ele><time>2026-04-11T13:20:36Z</time></trkpt><trkpt lat="41.804883700066476" lon="13.30627095614198"><ele>788.0</ele><time>2026-04-11T13:20:37Z</time></trkpt><trkpt lat="41.80476611703015" lon="13.306499038802572"><ele>793.0</ele><time>2026-04-11T13:20:38Z</time></trkpt><trkpt lat="41.80462978113974" lon="13.306682978428947"><ele>798.3333333333333</ele><time>2026-04-11T13:20:39Z</time></trkpt><trkpt lat="41.80451706689545" lon="13.306877470689304"><ele>803.6666666666667</ele><time>2026-04-11T13:20:40Z</time></trkpt><trkpt lat="41.80444909240656" lon="13.307106019950186"><ele>809.0</ele><time>2026-04-11T13:20:41Z</time></trkpt><trkpt lat="41.804376270444074" lon="13.307495680233487"><ele>804.0</ele><time>2026-04-11T13:20:42Z</time></trkpt><trkpt lat="41.80431866991537" lon="13.307815450449704"><ele>799.0</ele><time>2026-04-11T13:20:43Z</time></trkpt><trkpt lat="41.80429272185552" lon="13.308181105216072"><ele>799.0</ele><time>2026-04-11T13:20:44Z</time></trkpt><trkpt lat="41.80428855463316" lon="13.308516640895984"><ele>799.0</ele><time>2026-04-11T13:20:45Z</time></trkpt><trkpt lat="41.80421162128154" lon="13.308808344164186"><ele>803.6666666666666</ele><time>2026-04-11T13:20:46Z</time></trkpt><trkpt lat="41.80414317106758" lon="13.30904676284575"><ele>808.3333333333333</ele><time>2026-04-11T13:20:47Z</time></trkpt><trkpt lat="41.80405260665802" lon="13.309297834137059"><ele>813.0</ele><time>2026-04-11T13:20:48Z</time></trkpt><trkpt lat="41.80394999559634" lon="13.309546075167091"><ele>819.5</ele><time>2026-04-11T13:20:49Z</time></trkpt><trkpt lat="41.80383728849713" lon="13.309825818805082"><ele>826.0</ele><time>2026-04-11T13:20:50Z</time></trkpt><trkpt lat="41.80371554588723" lon="13.310091751934753"><ele>826.0</ele><time>2026-04-11T13:20:51Z</time></trkpt><trkpt lat="41.80361981620785" lon="13.310314269534652"><ele>826.0</ele><time>2026-04-11T13:20:52Z</time></trkpt><trkpt lat="41.8035526393772" lon="13.31048676722568"><ele>826.0</ele><time>2026-04-11T13:20:53Z</time></trkpt><trkpt lat="41.80351039179126" lon="13.31063176363372"><ele>827.75</ele><time>2026-04-11T13:20:54Z</time></trkpt><trkpt lat="41.80345903838483" lon="13.310736695511304"><ele>829.5</ele><time>2026-04-11T13:20:55Z</time></trkpt><trkpt lat="41.8034847226241" lon="13.31088334792299"><ele>831.25</ele><time>2026-04-11T13:20:56Z</time></trkpt><trkpt lat="41.803566843889186" lon="13.311013631504506"><ele>833.0</ele><time>2026-04-11T13:20:57Z</time></trkpt><trkpt lat="41.80367888622441" lon="13.311093050284576"><ele>833.0</ele><time>2026-04-11T13:20:58Z</time></trkpt><trkpt lat="41.80380540324338" lon="13.31110731649947"><ele>833.0</ele><time>2026-04-11T13:20:59Z</time></trkpt><trkpt lat="41.803930736238726" lon="13.311020751564493"><ele>833.0</ele><time>2026-04-11T13:21:00Z</time></trkpt><trkpt lat="41.8040019100209" lon="13.310909467646432"><ele>833.0</ele><time>2026-04-11T13:21:01Z</time></trkpt><trkpt lat="41.80405227224093" lon="13.310729887917574"><ele>830.6666666666667</ele><time>2026-04-11T13:21:02Z</time></trkpt><trkpt lat="41.80406057286659" lon="13.310537866130101"><ele>828.3333333333333</ele><time>2026-04-11T13:21:03Z</time></trkpt><trkpt lat="41.80406244126556" lon="13.310297031243133"><ele>826.0</ele><time>2026-04-11T13:21:04Z</time></trkpt><trkpt lat="41.804088379859756" lon="13.310019711266289"><ele>826.0</ele><time>2026-04-11T13:21:05Z</time></trkpt><trkpt lat="41.80419285768011" lon="13.30979636072893"><ele>826.0</ele><time>2026-04-11T13:21:06Z</time></trkpt><trkpt lat="41.80431781977219" lon="13.309588589171824"><ele>826.0</ele><time>2026-04-11T13:21:07Z</time></trkpt><trkpt lat="41.804445795814416" lon="13.309369166549699"><ele>830.0</ele><time>2026-04-11T13:21:08Z</time></trkpt><trkpt lat="41.80457882542377" lon="13.309111778661194"><ele>834.0</ele><time>2026-04-11T13:21:09Z</time></trkpt><trkpt lat="41.80472611148682" lon="13.308888632082672"><ele>834.0</ele><time>2026-04-11T13:21:10Z</time></trkpt><trkpt lat="41.804859896652204" lon="13.308656999103633"><ele>834.0</ele><time>2026-04-11T13:21:11Z</time></trkpt><trkpt lat="41.804981517622515" lon="13.30841632593905"><ele>834.0</ele><time>2026-04-11T13:21:12Z</time></trkpt><trkpt lat="41.805116298857925" lon="13.308188879767512"><ele>840.0</ele><time>2026-04-11T13:21:13Z</time></trkpt><trkpt lat="41.8052524983652" lon="13.307957992381706"><ele>846.0</ele><time>2026-04-11T13:21:14Z</time></trkpt><trkpt lat="41.805379725149855" lon="13.307717094216962"><ele>852.0</ele><time>2026-04-11T13:21:15Z</time></trkpt><trkpt lat="41.80549651523196" lon="13.307467881062662"><ele>849.0</ele><time>2026-04-11T13:21:16Z</time></trkpt><trkpt lat="41.805598228284566" lon="13.307206539024515"><ele>846.0</ele><time>2026-04-11T13:21:17Z</time></trkpt><trkpt lat="41.805711859842845" lon="13.306953062317035"><ele>843.0</ele><time>2026-04-11T13:21:18Z</time></trkpt><trkpt lat="41.80581841973894" lon="13.306695498498058"><ele>843.0</ele><time>2026-04-11T13:21:19Z</time></trkpt><trkpt lat="41.80591037122673" lon="13.30643650553721"><ele>843.0</ele><time>2026-04-11T13:21:20Z</time></trkpt><trkpt lat="41.80600984806538" lon="13.306212140404847"><ele>843.0</ele><time>2026-04-11T13:21:21Z</time></trkpt><trkpt lat="41.80610839847084" lon="13.3059890863735"><ele>850.3333333333333</ele><time>2026-04-11T13:21:22Z</time></trkpt><trkpt lat="41.80622664442562" lon="13.305836590030658"><ele>857.6666666666666</ele><time>2026-04-11T13:21:23Z</time></trkpt><trkpt lat="41.806373293314344" lon="13.3057225047714"><ele>865.0</ele><time>2026-04-11T13:21:24Z</time></trkpt><trkpt lat="41.80654305259958" lon="13.305632497637049"><ele>870.3333333333333</ele><time>2026-04-11T13:21:25Z</time></trkpt><trkpt lat="41.80674440165552" lon="13.305521413206291"><ele>875.6666666666667</ele><time>2026-04-11T13:21:26Z</time></trkpt><trkpt lat="41.80693319525482" lon="13.305373857421849"><ele>881.0</ele><time>2026-04-11T13:21:27Z</time></trkpt><trkpt lat="41.807104353486096" lon="13.305265850305226"><ele>881.0</ele><time>2026-04-11T13:21:28Z</time></trkpt><trkpt lat="41.80721333911571" lon="13.305145008439764"><ele>881.0</ele><time>2026-04-11T13:21:29Z</time></trkpt><trkpt lat="41.807301633693704" lon="13.305017888186704"><ele>881.0</ele><time>2026-04-11T13:21:30Z</time></trkpt><trkpt lat="41.807357799993405" lon="13.304850309738837"><ele>881.0</ele><time>2026-04-11T13:21:31Z</time></trkpt><trkpt lat="41.80735747931231" lon="13.30462314163736"><ele>880.3333333333334</ele><time>2026-04-11T13:21:32Z</time></trkpt><trkpt lat="41.80735634136616" lon="13.304369700993472"><ele>879.6666666666667</ele><time>2026-04-11T13:21:33Z</time></trkpt><trkpt lat="41.80731434150466" lon="13.304106967773427"><ele>879.0</ele><time>2026-04-11T13:21:34Z</time></trkpt><trkpt lat="41.807269522581976" lon="13.303825660855612"><ele>882.0</ele><time>2026-04-11T13:21:35Z</time></trkpt><trkpt lat="41.807231679101385" lon="13.303563748328909"><ele>885.0</ele><time>2026-04-11T13:21:36Z</time></trkpt><trkpt lat="41.80719868710353" lon="13.303301879973594"><ele>888.0</ele><time>2026-04-11T13:21:37Z</time></trkpt><trkpt lat="41.807165075409564" lon="13.303045856856894"><ele>890.3333333333333</ele><time>2026-04-11T13:21:38Z</time></trkpt><trkpt lat="41.80712168850499" lon="13.302784031085945"><ele>892.6666666666666</ele><time>2026-04-11T13:21:39Z</time></trkpt><trkpt lat="41.807087937632055" lon="13.302529121317644"><ele>895.0</ele><time>2026-04-11T13:21:40Z</time></trkpt><trkpt lat="41.80705672484971" lon="13.302271098429639"><ele>895.3333333333333</ele><time>2026-04-11T13:21:41Z</time></trkpt><trkpt lat="41.807064818938684" lon="13.302014716127225"><ele>895.6666666666667</ele><time>2026-04-11T13:21:42Z</time></trkpt><trkpt lat="41.80708197671624" lon="13.301755062848624"><ele>896.0</ele><time>2026-04-11T13:21:43Z</time></trkpt><trkpt lat="41.80711972494914" lon="13.301507534554284"><ele>891.6666666666667</ele><time>2026-04-11T13:21:44Z</time></trkpt><trkpt lat="41.80718757550371" lon="13.30131860077484"><ele>887.3333333333333</ele><time>2026-04-11T13:21:45Z</time></trkpt><trkpt lat="41.807281753923185" lon="13.301161131273755"><ele>883.0</ele><time>2026-04-11T13:21:46Z</time></trkpt><trkpt lat="41.80740345941109" lon="13.300968725986097"><ele>883.0</ele><time>2026-04-11T13:21:47Z</time></trkpt><trkpt lat="41.80750383305486" lon="13.300772567995802"><ele>883.0</ele><time>2026-04-11T13:21:48Z</time></trkpt><trkpt lat="41.80754125360931" lon="13.300568581627404"><ele>883.0</ele><time>2026-04-11T13:21:49Z</time></trkpt><trkpt lat="41.80757457374978" lon="13.30031708117572"><ele>878.0</ele><time>2026-04-11T13:21:50Z</time></trkpt><trkpt lat="41.80760991634532" lon="13.300071775570505"><ele>873.0</ele><time>2026-04-11T13:21:51Z</time></trkpt><trkpt lat="41.80769009893239" lon="13.299898095296781"><ele>868.0</ele><time>2026-04-11T13:21:52Z</time></trkpt><trkpt lat="41.80779122584567" lon="13.299765681058386"><ele>872.25</ele><time>2026-04-11T13:21:53Z</time></trkpt><trkpt lat="41.80790619387281" lon="13.29973711382664"><ele>876.5</ele><time>2026-04-11T13:21:54Z</time></trkpt><trkpt lat="41.808020631724375" lon="13.29971555118992"><ele>880.75</ele><time>2026-04-11T13:21:55Z</time></trkpt><trkpt lat="41.8081575557034" lon="13.299778449744188"><ele>885.0</ele><time>2026-04-11T13:21:56Z</time></trkpt><trkpt lat="41.80830300977687" lon="13.299845247287214"><ele>888.5</ele><time>2026-04-11T13:21:57Z</time></trkpt><trkpt lat="41.80840261504097" lon="13.299897962644236"><ele>892.0</ele><time>2026-04-11T13:21:58Z</time></trkpt><trkpt lat="41.80851183888676" lon="13.29987105904849"><ele>895.5</ele><time>2026-04-11T13:21:59Z</time></trkpt><trkpt lat="41.80861658868914" lon="13.299778119054528"><ele>899.0</ele><time>2026-04-11T13:22:00Z</time></trkpt><trkpt lat="41.80869544538288" lon="13.299614588246314"><ele>905.0</ele><time>2026-04-11T13:22:01Z</time></trkpt><trkpt lat="41.8087357453192" lon="13.299407960740997"><ele>911.0</ele><time>2026-04-11T13:22:02Z</time></trkpt><trkpt lat="41.808746708594235" lon="13.299164676420343"><ele>917.0</ele><time>2026-04-11T13:22:03Z</time></trkpt><trkpt lat="41.80875248337633" lon="13.29892635935101"><ele>913.5</ele><time>2026-04-11T13:22:04Z</time></trkpt><trkpt lat="41.80877045595974" lon="13.298745490990338"><ele>910.0</ele><time>2026-04-11T13:22:05Z</time></trkpt><trkpt lat="41.8088275161821" lon="13.298585397921519"><ele>906.5</ele><time>2026-04-11T13:22:06Z</time></trkpt><trkpt lat="41.80895669262994" lon="13.29846206287217"><ele>903.0</ele><time>2026-04-11T13:22:07Z</time></trkpt><trkpt lat="41.80910336555302" lon="13.2983286135644"><ele>903.0</ele><time>2026-04-11T13:22:08Z</time></trkpt><trkpt lat="41.809256763262084" lon="13.298174893832096"><ele>903.0</ele><time>2026-04-11T13:22:09Z</time></trkpt><trkpt lat="41.809400510776456" lon="13.298061449027752"><ele>903.0</ele><time>2026-04-11T13:22:10Z</time></trkpt><trkpt lat="41.80953085613887" lon="13.297968076885821"><ele>902.5</ele><time>2026-04-11T13:22:11Z</time></trkpt><trkpt lat="41.809681778710065" lon="13.297942344473583"><ele>902.0</ele><time>2026-04-11T13:22:12Z</time></trkpt><trkpt lat="41.80983717157686" lon="13.297941326584652"><ele>901.5</ele><time>2026-04-11T13:22:13Z</time></trkpt><trkpt lat="41.80996647560211" lon="13.297912402993637"><ele>901.0</ele><time>2026-04-11T13:22:14Z</time></trkpt><trkpt lat="41.81008897634238" lon="13.29785106189481"><ele>907.0</ele><time>2026-04-11T13:22:15Z</time></trkpt><trkpt lat="41.81018657877844" lon="13.297682612410078"><ele>913.0</ele><time>2026-04-11T13:22:16Z</time></trkpt><trkpt lat="41.8102462557153" lon="13.297467142452508"><ele>919.0</ele><time>2026-04-11T13:22:17Z</time></trkpt><trkpt lat="41.810305065234935" lon="13.297256486435309"><ele>917.3333333333333</ele><time>2026-04-11T13:22:18Z</time></trkpt><trkpt lat="41.81039306688586" lon="13.2971122319936"><ele>915.6666666666667</ele><time>2026-04-11T13:22:19Z</time></trkpt><trkpt lat="41.81052569333006" lon="13.297043076135894"><ele>914.0</ele><time>2026-04-11T13:22:20Z</time></trkpt><trkpt lat="41.81070184412489" lon="13.297004409329007"><ele>914.0</ele><time>2026-04-11T13:22:21Z</time></trkpt><trkpt lat="41.81090506676282" lon="13.297006644597372"><ele>914.0</ele><time>2026-04-11T13:22:22Z</time></trkpt><trkpt lat="41.81112707979619" lon="13.296989106724688"><ele>914.0</ele><time>2026-04-11T13:22:23Z</time></trkpt><trkpt lat="41.81130472098564" lon="13.297026701487122"><ele>913.0</ele><time>2026-04-11T13:22:24Z</time></trkpt><trkpt lat="41.811426060432744" lon="13.2970505404397"><ele>912.0</ele><time>2026-04-11T13:22:25Z</time></trkpt><trkpt lat="41.81153058981096" lon="13.297146478170028"><ele>911.0</ele><time>2026-04-11T13:22:26Z</time></trkpt><trkpt lat="41.811617916546716" lon="13.297298661965632"><ele>910.0</ele><time>2026-04-11T13:22:27Z</time></trkpt><trkpt lat="41.811657341076334" lon="13.29749012690387"><ele>914.0</ele><time>2026-04-11T13:22:28Z</time></trkpt><trkpt lat="41.8117246028644" lon="13.297688757559108"><ele>918.0</ele><time>2026-04-11T13:22:29Z</time></trkpt><trkpt lat="41.811827227562276" lon="13.29786994288462"><ele>922.0</ele><time>2026-04-11T13:22:30Z</time></trkpt><trkpt lat="41.81194678370294" lon="13.298003471480024"><ele>922.25</ele><time>2026-04-11T13:22:31Z</time></trkpt><trkpt lat="41.812087031187396" lon="13.298077732665545"><ele>922.5</ele><time>2026-04-11T13:22:32Z</time></trkpt><trkpt lat="41.81218250240932" lon="13.298207656124323"><ele>922.75</ele><time>2026-04-11T13:22:33Z</time></trkpt><trkpt lat="41.812242736161686" lon="13.298367943469827"><ele>923.0</ele><time>2026-04-11T13:22:34Z</time></trkpt><trkpt lat="41.81228101478861" lon="13.2985925677792"><ele>926.0</ele><time>2026-04-11T13:22:35Z</time></trkpt><trkpt lat="41.81232461526445" lon="13.29884830212302"><ele>929.0</ele><time>2026-04-11T13:22:36Z</time></trkpt><trkpt lat="41.812376061591074" lon="13.299098783119565"><ele>932.0</ele><time>2026-04-11T13:22:37Z</time></trkpt><trkpt lat="41.812448385384464" lon="13.299295697211369"><ele>936.0</ele><time>2026-04-11T13:22:38Z</time></trkpt><trkpt lat="41.812530920147715" lon="13.299481320852436"><ele>940.0</ele><time>2026-04-11T13:22:39Z</time></trkpt><trkpt lat="41.81263005299922" lon="13.299660304306707"><ele>944.0</ele><time>2026-04-11T13:22:40Z</time></trkpt><trkpt lat="41.812736693694006" lon="13.299810340491112"><ele>946.4000000000001</ele><time>2026-04-11T13:22:41Z</time></trkpt><trkpt lat="41.812816678876445" lon="13.299948104527894"><ele>948.8000000000001</ele><time>2026-04-11T13:22:42Z</time></trkpt><trkpt lat="41.812908556748944" lon="13.300019318835748"><ele>951.1999999999999</ele><time>2026-04-11T13:22:43Z</time></trkpt><trkpt lat="41.81300378329304" lon="13.300060186196879"><ele>953.5999999999999</ele><time>2026-04-11T13:22:44Z</time></trkpt><trkpt lat="41.81309983682697" lon="13.300076388504563"><ele>956.0</ele><time>2026-04-11T13:22:45Z</time></trkpt><trkpt lat="41.8132018974072" lon="13.300018650749175"><ele>956.0</ele><time>2026-04-11T13:22:46Z</time></trkpt><trkpt lat="41.813351453270904" lon="13.299886293778929"><ele>956.0</ele><time>2026-04-11T13:22:47Z</time></trkpt><trkpt lat="41.81340984174122" lon="13.299706404051573"><ele>956.0</ele><time>2026-04-11T13:22:48Z</time></trkpt><trkpt lat="41.81343546462663" lon="13.299527305973228"><ele>954.5</ele><time>2026-04-11T13:22:49Z</time></trkpt><trkpt lat="41.81342471317686" lon="13.299317210529686"><ele>953.0</ele><time>2026-04-11T13:22:50Z</time></trkpt><trkpt lat="41.81338785454882" lon="13.299122424831015"><ele>951.5</ele><time>2026-04-11T13:22:51Z</time></trkpt><trkpt lat="41.81338000250999" lon="13.298959800018451"><ele>950.0</ele><time>2026-04-11T13:22:52Z</time></trkpt><trkpt lat="41.813432791978215" lon="13.298856560359457"><ele>950.75</ele><time>2026-04-11T13:22:53Z</time></trkpt><trkpt lat="41.81351081220038" lon="13.29878076805718"><ele>951.5</ele><time>2026-04-11T13:22:54Z</time></trkpt><trkpt lat="41.81363287649112" lon="13.298801736894553"><ele>952.25</ele><time>2026-04-11T13:22:55Z</time></trkpt><trkpt lat="41.81375943702762" lon="13.298914258185048"><ele>953.0</ele><time>2026-04-11T13:22:56Z</time></trkpt><trkpt lat="41.813864240444914" lon="13.299029896603464"><ele>953.0</ele><time>2026-04-11T13:22:57Z</time></trkpt><trkpt lat="41.81395031777578" lon="13.299260877893392"><ele>953.0</ele><time>2026-04-11T13:22:58Z</time></trkpt><trkpt lat="41.814038972435206" lon="13.299510018657784"><ele>953.0</ele><time>2026-04-11T13:22:59Z</time></trkpt><trkpt lat="41.81413935049734" lon="13.299764123935146"><ele>956.3333333333334</ele><time>2026-04-11T13:23:00Z</time></trkpt><trkpt lat="41.814261927958455" lon="13.299998530269937"><ele>959.6666666666667</ele><time>2026-04-11T13:23:01Z</time></trkpt><trkpt lat="41.81437737904471" lon="13.300219051431391"><ele>963.0</ele><time>2026-04-11T13:23:02Z</time></trkpt><trkpt lat="41.81446827056857" lon="13.300394809581713"><ele>965.75</ele><time>2026-04-11T13:23:03Z</time></trkpt><trkpt lat="41.81450029963458" lon="13.300556425042522"><ele>968.5</ele><time>2026-04-11T13:23:04Z</time></trkpt><trkpt lat="41.81446882137434" lon="13.300705032241279"><ele>971.25</ele><time>2026-04-11T13:23:05Z</time></trkpt><trkpt lat="41.81444366539864" lon="13.300892375537805"><ele>974.0</ele><time>2026-04-11T13:23:06Z</time></trkpt><trkpt lat="41.81440185484909" lon="13.30106648798895"><ele>973.5</ele><time>2026-04-11T13:23:07Z</time></trkpt><trkpt lat="41.81432170571761" lon="13.301209675654333"><ele>973.0</ele><time>2026-04-11T13:23:08Z</time></trkpt><trkpt lat="41.81422510533696" lon="13.301311804413704"><ele>972.5</ele><time>2026-04-11T13:23:09Z</time></trkpt><trkpt lat="41.81410753413463" lon="13.301366997099665"><ele>972.0</ele><time>2026-04-11T13:23:10Z</time></trkpt><trkpt lat="41.8139789237233" lon="13.301414198829512"><ele>972.0</ele><time>2026-04-11T13:23:11Z</time></trkpt><trkpt lat="41.8138704401202" lon="13.301452733392932"><ele>972.0</ele><time>2026-04-11T13:23:12Z</time></trkpt><trkpt lat="41.81374380756719" lon="13.301379412687881"><ele>972.0</ele><time>2026-04-11T13:23:13Z</time></trkpt><trkpt lat="41.813608368245674" lon="13.3013061757586"><ele>972.0</ele><time>2026-04-11T13:23:14Z</time></trkpt><trkpt lat="41.813449216366614" lon="13.301389294414237"><ele>975.6666666666667</ele><time>2026-04-11T13:23:15Z</time></trkpt><trkpt lat="41.81334292462603" lon="13.301547956807111"><ele>979.3333333333334</ele><time>2026-04-11T13:23:16Z</time></trkpt><trkpt lat="41.81324298022589" lon="13.301687104204012"><ele>983.0</ele><time>2026-04-11T13:23:17Z</time></trkpt><trkpt lat="41.81312740525021" lon="13.301817463849986"><ele>983.0</ele><time>2026-04-11T13:23:18Z</time></trkpt><trkpt lat="41.812989106710006" lon="13.30184314933326"><ele>983.0</ele><time>2026-04-11T13:23:19Z</time></trkpt><trkpt lat="41.81282969448845" lon="13.301909897104569"><ele>983.0</ele><time>2026-04-11T13:23:20Z</time></trkpt><trkpt lat="41.81269026319745" lon="13.302010283668606"><ele>983.0</ele><time>2026-04-11T13:23:21Z</time></trkpt><trkpt lat="41.81258344766979" lon="13.30215810845429"><ele>983.0</ele><time>2026-04-11T13:23:22Z</time></trkpt><trkpt lat="41.812555339475416" lon="13.302379883436355"><ele>983.0</ele><time>2026-04-11T13:23:23Z</time></trkpt><trkpt lat="41.812522657866836" lon="13.302571470791936"><ele>985.4</ele><time>2026-04-11T13:23:24Z</time></trkpt><trkpt lat="41.81253798647244" lon="13.30271218366391"><ele>987.8</ele><time>2026-04-11T13:23:25Z</time></trkpt><trkpt lat="41.81253056601342" lon="13.302850980124823"><ele>990.2</ele><time>2026-04-11T13:23:26Z</time></trkpt><trkpt lat="41.812460462237205" lon="13.30292597814002"><ele>992.6</ele><time>2026-04-11T13:23:27Z</time></trkpt><trkpt lat="41.81237596125742" lon="13.302911538255803"><ele>995.0</ele><time>2026-04-11T13:23:28Z</time></trkpt><trkpt lat="41.81229185932077" lon="13.302908177962143"><ele>995.0</ele><time>2026-04-11T13:23:29Z</time></trkpt><trkpt lat="41.81215459764068" lon="13.302891217576917"><ele>995.0</ele><time>2026-04-11T13:23:30Z</time></trkpt><trkpt lat="41.81202055079807" lon="13.30275581590142"><ele>995.0</ele><time>2026-04-11T13:23:31Z</time></trkpt><trkpt lat="41.811945923198834" lon="13.302558469342259"><ele>995.0</ele><time>2026-04-11T13:23:32Z</time></trkpt><trkpt lat="41.81187659847322" lon="13.302349099346879"><ele>995.0</ele><time>2026-04-11T13:23:33Z</time></trkpt><trkpt lat="41.81177529565253" lon="13.302203057832044"><ele>995.0</ele><time>2026-04-11T13:23:34Z</time></trkpt><trkpt lat="41.811676464867325" lon="13.30210424770557"><ele>995.0</ele><time>2026-04-11T13:23:35Z</time></trkpt><trkpt lat="41.81152147762546" lon="13.302070198813881"><ele>995.3333333333334</ele><time>2026-04-11T13:23:36Z</time></trkpt><trkpt lat="41.81134862173824" lon="13.302078916867924"><ele>995.6666666666667</ele><time>2026-04-11T13:23:37Z</time></trkpt><trkpt lat="41.811181580293024" lon="13.302155841536837"><ele>996.0</ele><time>2026-04-11T13:23:38Z</time></trkpt><trkpt lat="41.81103440493657" lon="13.302277433701354"><ele>997.8</ele><time>2026-04-11T13:23:39Z</time></trkpt><trkpt lat="41.81092764048112" lon="13.302379611739013"><ele>999.5999999999999</ele><time>2026-04-11T13:23:40Z</time></trkpt><trkpt lat="41.8108664471495" lon="13.302468707890476"><ele>1001.4</ele><time>2026-04-11T13:23:41Z</time></trkpt><trkpt lat="41.810834236232786" lon="13.302563014668674"><ele>1003.2</ele><time>2026-04-11T13:23:43Z</time></trkpt><trkpt lat="41.81080641204067" lon="13.302657631837906"><ele>1005.0</ele><time>2026-04-11T13:23:46Z</time></trkpt><trkpt lat="41.810815528065625" lon="13.302763297580668"><ele>1005.0</ele><time>2026-04-11T13:23:47Z</time></trkpt><trkpt lat="41.81082910148202" lon="13.30288308216681"><ele>1005.0</ele><time>2026-04-11T13:23:48Z</time></trkpt><trkpt lat="41.810825704474354" lon="13.303006428500726"><ele>1005.0</ele><time>2026-04-11T13:23:49Z</time></trkpt><trkpt lat="41.8108355563016" lon="13.303143105078375"><ele>1005.0</ele><time>2026-04-11T13:23:50Z</time></trkpt><trkpt lat="41.810834327675934" lon="13.303271614112896"><ele>1005.0</ele><time>2026-04-11T13:23:51Z</time></trkpt><trkpt lat="41.81083360131146" lon="13.303412096601381"><ele>1007.5</ele><time>2026-04-11T13:23:52Z</time></trkpt><trkpt lat="41.810832548369596" lon="13.303559744863767"><ele>1010.0</ele><time>2026-04-11T13:23:53Z</time></trkpt><trkpt lat="41.81081892829551" lon="13.30371177897041"><ele>1012.5</ele><time>2026-04-11T13:23:54Z</time></trkpt><trkpt lat="41.81074070531349" lon="13.303825047381546"><ele>1015.0</ele><time>2026-04-11T13:23:55Z</time></trkpt><trkpt lat="41.81062419507916" lon="13.303922793338593"><ele>1014.0</ele><time>2026-04-11T13:23:56Z</time></trkpt><trkpt lat="41.810455027414186" lon="13.304026985611594"><ele>1013.0</ele><time>2026-04-11T13:23:57Z</time></trkpt><trkpt lat="41.81025950040556" lon="13.30414292206208"><ele>1012.0</ele><time>2026-04-11T13:23:58Z</time></trkpt><trkpt lat="41.8101297520047" lon="13.304240786484323"><ele>1012.0</ele><time>2026-04-11T13:23:59Z</time></trkpt><trkpt lat="41.81002950592587" lon="13.30433768959884"><ele>1012.0</ele><time>2026-04-11T13:24:00Z</time></trkpt><trkpt lat="41.80995759053557" lon="13.304534810618248"><ele>1012.0</ele><time>2026-04-11T13:24:01Z</time></trkpt><trkpt lat="41.809922769368775" lon="13.30472059326465"><ele>1012.0</ele><time>2026-04-11T13:24:02Z</time></trkpt><trkpt lat="41.80989627792077" lon="13.304939761919046"><ele>1017.5</ele><time>2026-04-11T13:24:03Z</time></trkpt><trkpt lat="41.809862916077755" lon="13.305222975658316"><ele>1023.0</ele><time>2026-04-11T13:24:04Z</time></trkpt><trkpt lat="41.809822895288285" lon="13.305538483694152"><ele>1027.0</ele><time>2026-04-11T13:24:05Z</time></trkpt><trkpt lat="41.809820550300934" lon="13.305799574595795"><ele>1031.0</ele><time>2026-04-11T13:24:06Z</time></trkpt><trkpt lat="41.80986949360729" lon="13.306139926407395"><ele>1031.0</ele><time>2026-04-11T13:24:07Z</time></trkpt><trkpt lat="41.8098581688094" lon="13.306306282385783"><ele>1031.0</ele><time>2026-04-11T13:24:08Z</time></trkpt><trkpt lat="41.80985014018891" lon="13.306501557319752"><ele>1031.0</ele><time>2026-04-11T13:24:09Z</time></trkpt><trkpt lat="41.809750038132584" lon="13.30667511099775"><ele>1031.0</ele><time>2026-04-11T13:24:10Z</time></trkpt><trkpt lat="41.809637639429155" lon="13.306929659937975"><ele>1034.3333333333335</ele><time>2026-04-11T13:24:11Z</time></trkpt><trkpt lat="41.809557109815195" lon="13.307191863756248"><ele>1037.6666666666667</ele><time>2026-04-11T13:24:12Z</time></trkpt><trkpt lat="41.80947430699048" lon="13.307460201510255"><ele>1041.0</ele><time>2026-04-11T13:24:13Z</time></trkpt><trkpt lat="41.809442752104985" lon="13.3077133230665"><ele>1039.25</ele><time>2026-04-11T13:24:14Z</time></trkpt><trkpt lat="41.80937517063387" lon="13.307857652628766"><ele>1037.5</ele><time>2026-04-11T13:24:15Z</time></trkpt><trkpt lat="41.80924816772352" lon="13.307992798716372"><ele>1035.75</ele><time>2026-04-11T13:24:16Z</time></trkpt><trkpt lat="41.809116031052405" lon="13.30809585722681"><ele>1034.0</ele><time>2026-04-11T13:24:17Z</time></trkpt><trkpt lat="41.80896881074465" lon="13.308234036283773"><ele>1039.3333333333335</ele><time>2026-04-11T13:24:18Z</time></trkpt><trkpt lat="41.808880144204075" lon="13.30844204369595"><ele>1044.6666666666667</ele><time>2026-04-11T13:24:19Z</time></trkpt><trkpt lat="41.80878561650748" lon="13.308637650737763"><ele>1050.0</ele><time>2026-04-11T13:24:20Z</time></trkpt><trkpt lat="41.80872818523375" lon="13.308847692502468"><ele>1048.25</ele><time>2026-04-11T13:24:21Z</time></trkpt><trkpt lat="41.808659557383" lon="13.309003017642892"><ele>1046.5</ele><time>2026-04-11T13:24:22Z</time></trkpt><trkpt lat="41.808544402385394" lon="13.309038080351629"><ele>1044.75</ele><time>2026-04-11T13:24:23Z</time></trkpt><trkpt lat="41.80842805366947" lon="13.309113166585233"><ele>1043.0</ele><time>2026-04-11T13:24:24Z</time></trkpt><trkpt lat="41.8083169893347" lon="13.309232727620172"><ele>1043.0</ele><time>2026-04-11T13:24:25Z</time></trkpt><trkpt lat="41.80819403354702" lon="13.309333078724611"><ele>1043.0</ele><time>2026-04-11T13:24:26Z</time></trkpt><trkpt lat="41.808163040630724" lon="13.309525623551686"><ele>1043.0</ele><time>2026-04-11T13:24:27Z</time></trkpt><trkpt lat="41.80817719055048" lon="13.309749854621895"><ele>1047.5</ele><time>2026-04-11T13:24:28Z</time></trkpt><trkpt lat="41.80821942626744" lon="13.310024443877456"><ele>1052.0</ele><time>2026-04-11T13:24:29Z</time></trkpt><trkpt lat="41.80825805435223" lon="13.310385579579256"><ele>1052.3333333333335</ele><time>2026-04-11T13:24:30Z</time></trkpt><trkpt lat="41.80830061674142" lon="13.310696718352382"><ele>1052.6666666666667</ele><time>2026-04-11T13:24:31Z</time></trkpt><trkpt lat="41.80835588544932" lon="13.310967470243208"><ele>1053.0</ele><time>2026-04-11T13:24:32Z</time></trkpt><trkpt lat="41.80842711472491" lon="13.3111877173625"><ele>1053.0</ele><time>2026-04-11T13:24:33Z</time></trkpt><trkpt lat="41.80848370673368" lon="13.311362706870955"><ele>1053.0</ele><time>2026-04-11T13:24:34Z</time></trkpt><trkpt lat="41.80853576450319" lon="13.311467891782112"><ele>1053.0</ele><time>2026-04-11T13:24:35Z</time></trkpt><trkpt lat="41.80865096471663" lon="13.311559562202405"><ele>1053.0</ele><time>2026-04-11T13:24:36Z</time></trkpt><trkpt lat="41.808763108647064" lon="13.311582081235303"><ele>1059.25</ele><time>2026-04-11T13:24:37Z</time></trkpt><trkpt lat="41.80887712152145" lon="13.311535321077015"><ele>1065.5</ele><time>2026-04-11T13:24:38Z</time></trkpt><trkpt lat="41.80897395844568" lon="13.311427402629278"><ele>1071.75</ele><time>2026-04-11T13:24:39Z</time></trkpt><trkpt lat="41.80904422645423" lon="13.311251608817733"><ele>1078.0</ele><time>2026-04-11T13:24:40Z</time></trkpt><trkpt lat="41.80909903709552" lon="13.311092183814086"><ele>1078.3333333333333</ele><time>2026-04-11T13:24:41Z</time></trkpt><trkpt lat="41.80908919081454" lon="13.31091939989898"><ele>1078.6666666666667</ele><time>2026-04-11T13:24:42Z</time></trkpt><trkpt lat="41.80906329431953" lon="13.31068261354961"><ele>1079.0</ele><time>2026-04-11T13:24:43Z</time></trkpt><trkpt lat="41.809035136299414" lon="13.310439920546331"><ele>1077.6666666666667</ele><time>2026-04-11T13:24:44Z</time></trkpt><trkpt lat="41.80910979599723" lon="13.310225043753576"><ele>1076.3333333333333</ele><time>2026-04-11T13:24:45Z</time></trkpt><trkpt lat="41.80917892019091" lon="13.310026892760249"><ele>1075.0</ele><time>2026-04-11T13:24:46Z</time></trkpt><trkpt lat="41.80927196884343" lon="13.309905806817046"><ele>1075.6666666666665</ele><time>2026-04-11T13:24:47Z</time></trkpt><trkpt lat="41.809402602096526" lon="13.309808547863152"><ele>1076.3333333333333</ele><time>2026-04-11T13:24:48Z</time></trkpt><trkpt lat="41.80954681015268" lon="13.309735656259434"><ele>1077.0</ele><time>2026-04-11T13:24:49Z</time></trkpt><trkpt lat="41.809704637141174" lon="13.309660745090422"><ele>1077.0</ele><time>2026-04-11T13:24:50Z</time></trkpt><trkpt lat="41.80986281540954" lon="13.309590702311343"><ele>1077.0</ele><time>2026-04-11T13:24:51Z</time></trkpt><trkpt lat="41.81001143705193" lon="13.309551539010897"><ele>1077.0</ele><time>2026-04-11T13:24:52Z</time></trkpt><trkpt lat="41.810159523637786" lon="13.309521730988203"><ele>1082.0</ele><time>2026-04-11T13:24:53Z</time></trkpt><trkpt lat="41.8102450059594" lon="13.30941020435816"><ele>1087.0</ele><time>2026-04-11T13:24:54Z</time></trkpt><trkpt lat="41.81036054916195" lon="13.309315277617264"><ele>1092.0</ele><time>2026-04-11T13:24:55Z</time></trkpt><trkpt lat="41.81045268662874" lon="13.309070645651802"><ele>1089.25</ele><time>2026-04-11T13:24:56Z</time></trkpt><trkpt lat="41.810545307421" lon="13.308898494376258"><ele>1086.5</ele><time>2026-04-11T13:24:57Z</time></trkpt><trkpt lat="41.81066396932838" lon="13.30873303199203"><ele>1083.75</ele><time>2026-04-11T13:24:58Z</time></trkpt><trkpt lat="41.81076075357386" lon="13.308655535715092"><ele>1081.0</ele><time>2026-04-11T13:24:59Z</time></trkpt><trkpt lat="41.810887906872225" lon="13.308631375898988"><ele>1081.0</ele><time>2026-04-11T13:25:00Z</time></trkpt><trkpt lat="41.81098745909927" lon="13.30861654010448"><ele>1081.0</ele><time>2026-04-11T13:25:01Z</time></trkpt><trkpt lat="41.81109104395806" lon="13.308663887826194"><ele>1081.0</ele><time>2026-04-11T13:25:02Z</time></trkpt><trkpt lat="41.811192145354696" lon="13.308760825238853"><ele>1081.0</ele><time>2026-04-11T13:25:03Z</time></trkpt><trkpt lat="41.81129313088777" lon="13.308881137425193"><ele>1084.6666666666665</ele><time>2026-04-11T13:25:04Z</time></trkpt><trkpt lat="41.81133333295506" lon="13.309110485835093"><ele>1088.3333333333333</ele><time>2026-04-11T13:25:05Z</time></trkpt><trkpt lat="41.81136218616699" lon="13.309401310998538"><ele>1092.0</ele><time>2026-04-11T13:25:06Z</time></trkpt><trkpt lat="41.811387737354416" lon="13.309679369001891"><ele>1094.3333333333333</ele><time>2026-04-11T13:25:07Z</time></trkpt><trkpt lat="41.81138139534553" lon="13.309930964203918"><ele>1096.6666666666665</ele><time>2026-04-11T13:25:08Z</time></trkpt><trkpt lat="41.81141572153332" lon="13.310183042541189"><ele>1099.0</ele><time>2026-04-11T13:25:09Z</time></trkpt><trkpt lat="41.81144442356744" lon="13.31043035526167"><ele>1099.3333333333333</ele><time>2026-04-11T13:25:10Z</time></trkpt><trkpt lat="41.81146902625915" lon="13.310650444354186"><ele>1099.6666666666667</ele><time>2026-04-11T13:25:11Z</time></trkpt><trkpt lat="41.81149441888118" lon="13.310865670109502"><ele>1100.0</ele><time>2026-04-11T13:25:12Z</time></trkpt><trkpt lat="41.811526165997336" lon="13.311078343199197"><ele>1100.0</ele><time>2026-04-11T13:25:13Z</time></trkpt><trkpt lat="41.81154403422442" lon="13.311295042187348"><ele>1100.0</ele><time>2026-04-11T13:25:14Z</time></trkpt><trkpt lat="41.811530746653766" lon="13.31149732534836"><ele>1100.0</ele><time>2026-04-11T13:25:15Z</time></trkpt><trkpt lat="41.81150391367005" lon="13.311645916054706"><ele>1100.0</ele><time>2026-04-11T13:25:16Z</time></trkpt><trkpt lat="41.811481517027445" lon="13.311792891018632"><ele>1101.25</ele><time>2026-04-11T13:25:17Z</time></trkpt><trkpt lat="41.811422408891204" lon="13.311932903002827"><ele>1102.5</ele><time>2026-04-11T13:25:18Z</time></trkpt><trkpt lat="41.81133549848675" lon="13.312065619768525"><ele>1103.75</ele><time>2026-04-11T13:25:19Z</time></trkpt><trkpt lat="41.811223515250774" lon="13.31215136300479"><ele>1105.0</ele><time>2026-04-11T13:25:20Z</time></trkpt><trkpt lat="41.811181327663526" lon="13.312291107022219"><ele>1106.0</ele><time>2026-04-11T13:25:21Z</time></trkpt><trkpt lat="41.81121667781542" lon="13.312451869533051"><ele>1107.0</ele><time>2026-04-11T13:25:22Z</time></trkpt><trkpt lat="41.81122588632029" lon="13.31261242601607"><ele>1108.0</ele><time>2026-04-11T13:25:23Z</time></trkpt><trkpt lat="41.81135527930615" lon="13.31282123827431"><ele>1109.0</ele><time>2026-04-11T13:25:24Z</time></trkpt><trkpt lat="41.811408405009715" lon="13.313036880699725"><ele>1110.25</ele><time>2026-04-11T13:25:25Z</time></trkpt><trkpt lat="41.81139674669956" lon="13.313229464750819"><ele>1111.5</ele><time>2026-04-11T13:25:26Z</time></trkpt><trkpt lat="41.8113349658589" lon="13.31337076591934"><ele>1112.75</ele><time>2026-04-11T13:25:27Z</time></trkpt><trkpt lat="41.81126402320228" lon="13.313522389414793"><ele>1114.0</ele><time>2026-04-11T13:25:28Z</time></trkpt><trkpt lat="41.811173297748645" lon="13.31365623867961"><ele>1114.0</ele><time>2026-04-11T13:25:29Z</time></trkpt><trkpt lat="41.81104946316024" lon="13.313833113607915"><ele>1114.0</ele><time>2026-04-11T13:25:30Z</time></trkpt><trkpt lat="41.81097957886881" lon="13.313989551730272"><ele>1114.0</ele><time>2026-04-11T13:25:31Z</time></trkpt><trkpt lat="41.81093073080142" lon="13.314132510186043"><ele>1114.0</ele><time>2026-04-11T13:25:32Z</time></trkpt><trkpt lat="41.8109412284704" lon="13.314287820536745"><ele>1116.25</ele><time>2026-04-11T13:25:33Z</time></trkpt><trkpt lat="41.811006078216955" lon="13.314449546354439"><ele>1118.5</ele><time>2026-04-11T13:25:34Z</time></trkpt><trkpt lat="41.81111003310435" lon="13.314599726333645"><ele>1120.75</ele><time>2026-04-11T13:25:35Z</time></trkpt><trkpt lat="41.81123459275431" lon="13.314708494759136"><ele>1123.0</ele><time>2026-04-11T13:25:36Z</time></trkpt><trkpt lat="41.81135428963883" lon="13.31474251807959"><ele>1123.0</ele><time>2026-04-11T13:25:37Z</time></trkpt><trkpt lat="41.811472370971856" lon="13.314709792193442"><ele>1123.0</ele><time>2026-04-11T13:25:38Z</time></trkpt><trkpt lat="41.811605625298625" lon="13.314605684382087"><ele>1123.0</ele><time>2026-04-11T13:25:39Z</time></trkpt><trkpt lat="41.81173411426164" lon="13.314423397604408"><ele>1127.6666666666665</ele><time>2026-04-11T13:25:40Z</time></trkpt><trkpt lat="41.811859393908826" lon="13.314273304562404"><ele>1132.3333333333333</ele><time>2026-04-11T13:25:41Z</time></trkpt><trkpt lat="41.81200100297832" lon="13.314030053024632"><ele>1137.0</ele><time>2026-04-11T13:25:42Z</time></trkpt><trkpt lat="41.81218069403831" lon="13.313770106567429"><ele>1137.0</ele><time>2026-04-11T13:25:43Z</time></trkpt><trkpt lat="41.81238265425077" lon="13.313619502785667"><ele>1137.0</ele><time>2026-04-11T13:25:44Z</time></trkpt><trkpt lat="41.81254318303878" lon="13.313463225357383"><ele>1137.0</ele><time>2026-04-11T13:25:45Z</time></trkpt><trkpt lat="41.81267187694097" lon="13.313348289277872"><ele>1144.3333333333333</ele><time>2026-04-11T13:25:46Z</time></trkpt><trkpt lat="41.812742835973886" lon="13.313098342011457"><ele>1151.6666666666665</ele><time>2026-04-11T13:25:47Z</time></trkpt><trkpt lat="41.812839866426906" lon="13.312865786478483"><ele>1159.0</ele><time>2026-04-11T13:25:48Z</time></trkpt><trkpt lat="41.812938454618255" lon="13.312621704477856"><ele>1159.0</ele><time>2026-04-11T13:25:49Z</time></trkpt><trkpt lat="41.81305062164315" lon="13.312396987929688"><ele>1159.0</ele><time>2026-04-11T13:25:50Z</time></trkpt><trkpt lat="41.81315723743674" lon="13.312178549950264"><ele>1159.0</ele><time>2026-04-11T13:25:51Z</time></trkpt><trkpt lat="41.8132441247508" lon="13.311977044335633"><ele>1160.0</ele><time>2026-04-11T13:25:52Z</time></trkpt><trkpt lat="41.81330592719256" lon="13.311868038877504"><ele>1161.0</ele><time>2026-04-11T13:25:53Z</time></trkpt><trkpt lat="41.813434883976505" lon="13.311794948325932"><ele>1162.0</ele><time>2026-04-11T13:25:54Z</time></trkpt><trkpt lat="41.81355592383089" lon="13.311670328477161"><ele>1163.0</ele><time>2026-04-11T13:25:55Z</time></trkpt><trkpt lat="41.81364503270324" lon="13.311505995154198"><ele>1162.0</ele><time>2026-04-11T13:25:56Z</time></trkpt><trkpt lat="41.81372111334942" lon="13.311304925894907"><ele>1161.0</ele><time>2026-04-11T13:25:57Z</time></trkpt><trkpt lat="41.813780880812736" lon="13.311109911331094"><ele>1160.0</ele><time>2026-04-11T13:25:58Z</time></trkpt><trkpt lat="41.81383930105695" lon="13.310904673753454"><ele>1160.0</ele><time>2026-04-11T13:25:59Z</time></trkpt><trkpt lat="41.813826674335374" lon="13.310660584152812"><ele>1160.0</ele><time>2026-04-11T13:26:00Z</time></trkpt><trkpt lat="41.81378240628753" lon="13.310490819015612"><ele>1160.0</ele><time>2026-04-11T13:26:01Z</time></trkpt><trkpt lat="41.81374551120557" lon="13.310322842593719"><ele>1160.0</ele><time>2026-04-11T13:26:02Z</time></trkpt><trkpt lat="41.813772127540346" lon="13.310237304960738"><ele>1157.5</ele><time>2026-04-11T13:26:03Z</time></trkpt><trkpt lat="41.81384368989786" lon="13.310115125086924"><ele>1155.0</ele><time>2026-04-11T13:26:04Z</time></trkpt><trkpt lat="41.81393529736586" lon="13.310018262917977"><ele>1152.5</ele><time>2026-04-11T13:26:05Z</time></trkpt><trkpt lat="41.814040714266056" lon="13.309954124442593"><ele>1150.0</ele><time>2026-04-11T13:26:06Z</time></trkpt><trkpt lat="41.81416624488551" lon="13.309984088138519"><ele>1150.0</ele><time>2026-04-11T13:26:07Z</time></trkpt><trkpt lat="41.81426628387048" lon="13.310071147570444"><ele>1150.0</ele><time>2026-04-11T13:26:08Z</time></trkpt><trkpt lat="41.81439781999072" lon="13.310231238437227"><ele>1150.0</ele><time>2026-04-11T13:26:09Z</time></trkpt><trkpt lat="41.81449959300741" lon="13.31040823713829"><ele>1150.5</ele><time>2026-04-11T13:26:10Z</time></trkpt><trkpt lat="41.814563745397706" lon="13.310586749361804"><ele>1151.0</ele><time>2026-04-11T13:26:11Z</time></trkpt><trkpt lat="41.81462752260351" lon="13.310708745767817"><ele>1151.5</ele><time>2026-04-11T13:26:12Z</time></trkpt><trkpt lat="41.814620354585465" lon="13.310874633881106"><ele>1152.0</ele><time>2026-04-11T13:26:13Z</time></trkpt><trkpt lat="41.81456454074741" lon="13.311048608790461"><ele>1152.0</ele><time>2026-04-11T13:26:14Z</time></trkpt><trkpt lat="41.81450857322853" lon="13.31119738588703"><ele>1152.0</ele><time>2026-04-11T13:26:15Z</time></trkpt><trkpt lat="41.814424945663816" lon="13.31132321032108"><ele>1152.0</ele><time>2026-04-11T13:26:16Z</time></trkpt><trkpt lat="41.8143112640059" lon="13.311439884504008"><ele>1152.0</ele><time>2026-04-11T13:26:17Z</time></trkpt><trkpt lat="41.81418672932155" lon="13.311577545058572"><ele>1155.6666666666667</ele><time>2026-04-11T13:26:18Z</time></trkpt><trkpt lat="41.814060980707644" lon="13.31172963375622"><ele>1159.3333333333335</ele><time>2026-04-11T13:26:19Z</time></trkpt><trkpt lat="41.813950736495634" lon="13.311936967815312"><ele>1163.0</ele><time>2026-04-11T13:26:20Z</time></trkpt><trkpt lat="41.81382350023281" lon="13.312158137235967"><ele>1161.6666666666667</ele><time>2026-04-11T13:26:21Z</time></trkpt><trkpt lat="41.8136925581012" lon="13.312296798497039"><ele>1160.3333333333333</ele><time>2026-04-11T13:26:22Z</time></trkpt><trkpt lat="41.81355414499967" lon="13.312426456600445"><ele>1159.0</ele><time>2026-04-11T13:26:23Z</time></trkpt><trkpt lat="41.813416568457164" lon="13.312674111292193"><ele>1159.0</ele><time>2026-04-11T13:26:24Z</time></trkpt><trkpt lat="41.81330500934647" lon="13.312898185362961"><ele>1159.0</ele><time>2026-04-11T13:26:25Z</time></trkpt><trkpt lat="41.813216366676855" lon="13.313118324521753"><ele>1159.0</ele><time>2026-04-11T13:26:26Z</time></trkpt><trkpt lat="41.8131842993236" lon="13.313338097280266"><ele>1164.6666666666665</ele><time>2026-04-11T13:26:27Z</time></trkpt><trkpt lat="41.81317312889745" lon="13.313607473056168"><ele>1170.3333333333333</ele><time>2026-04-11T13:26:28Z</time></trkpt><trkpt lat="41.81317529242382" lon="13.313881971857263"><ele>1176.0</ele><time>2026-04-11T13:26:29Z</time></trkpt><trkpt lat="41.81316115523582" lon="13.314105818833282"><ele>1179.0</ele><time>2026-04-11T13:26:30Z</time></trkpt><trkpt lat="41.81310302307218" lon="13.314280807021772"><ele>1182.0</ele><time>2026-04-11T13:26:31Z</time></trkpt><trkpt lat="41.813014994578126" lon="13.314390039857058"><ele>1185.0</ele><time>2026-04-11T13:26:32Z</time></trkpt><trkpt lat="41.812887996174474" lon="13.314560266114498"><ele>1188.0</ele><time>2026-04-11T13:26:33Z</time></trkpt><trkpt lat="41.81277388181409" lon="13.314783831195212"><ele>1184.0</ele><time>2026-04-11T13:26:34Z</time></trkpt><trkpt lat="41.81269974702886" lon="13.315075597342185"><ele>1180.0</ele><time>2026-04-11T13:26:35Z</time></trkpt><trkpt lat="41.81265310126391" lon="13.315345918776497"><ele>1176.0</ele><time>2026-04-11T13:26:36Z</time></trkpt><trkpt lat="41.812647914891535" lon="13.315586175188297"><ele>1186.3333333333333</ele><time>2026-04-11T13:26:37Z</time></trkpt><trkpt lat="41.8126785014291" lon="13.315877364044546"><ele>1196.6666666666665</ele><time>2026-04-11T13:26:38Z</time></trkpt><trkpt lat="41.81267933651665" lon="13.316137481972532"><ele>1207.0</ele><time>2026-04-11T13:26:39Z</time></trkpt><trkpt lat="41.81269775448214" lon="13.316386034439903"><ele>1204.6666666666665</ele><time>2026-04-11T13:26:40Z</time></trkpt><trkpt lat="41.81274652182817" lon="13.316591106421265"><ele>1202.3333333333333</ele><time>2026-04-11T13:26:41Z</time></trkpt><trkpt lat="41.812837582527614" lon="13.316761998843678"><ele>1200.0</ele><time>2026-04-11T13:26:42Z</time></trkpt><trkpt lat="41.81295656742501" lon="13.316894471970494"><ele>1200.0</ele><time>2026-04-11T13:26:43Z</time></trkpt><trkpt lat="41.81306118107092" lon="13.317028253766225"><ele>1200.0</ele><time>2026-04-11T13:26:44Z</time></trkpt><trkpt lat="41.81319638976226" lon="13.317070354476218"><ele>1200.0</ele><time>2026-04-11T13:26:45Z</time></trkpt><trkpt lat="41.813298856427416" lon="13.317077574900221"><ele>1200.0</ele><time>2026-04-11T13:26:46Z</time></trkpt><trkpt lat="41.81337216469386" lon="13.317051167617473"><ele>1200.0</ele><time>2026-04-11T13:26:47Z</time></trkpt><trkpt lat="41.81341647190613" lon="13.316966122034872"><ele>1200.0</ele><time>2026-04-11T13:26:48Z</time></trkpt><trkpt lat="41.8134207651872" lon="13.316824665070083"><ele>1200.0</ele><time>2026-04-11T13:26:49Z</time></trkpt><trkpt lat="41.81332165800011" lon="13.316652810543752"><ele>1200.0</ele><time>2026-04-11T13:26:51Z</time></trkpt><trkpt lat="41.813221928482285" lon="13.316458445176028"><ele>1202.3333333333333</ele><time>2026-04-11T13:26:52Z</time></trkpt><trkpt lat="41.813136795750225" lon="13.316188855552157"><ele>1204.6666666666665</ele><time>2026-04-11T13:26:53Z</time></trkpt><trkpt lat="41.81312990040068" lon="13.31596228767806"><ele>1207.0</ele><time>2026-04-11T13:26:54Z</time></trkpt><trkpt lat="41.813153497053214" lon="13.315775381863295"><ele>1207.0</ele><time>2026-04-11T13:26:55Z</time></trkpt><trkpt lat="41.81319657789023" lon="13.315619016985865"><ele>1207.0</ele><time>2026-04-11T13:26:56Z</time></trkpt><trkpt lat="41.81326238080049" lon="13.315483164698195"><ele>1207.0</ele><time>2026-04-11T13:26:57Z</time></trkpt><trkpt lat="41.813331748506464" lon="13.315388079166919"><ele>1207.0</ele><time>2026-04-11T13:26:58Z</time></trkpt><trkpt lat="41.813415900583664" lon="13.315321755030885"><ele>1207.0</ele><time>2026-04-11T13:26:59Z</time></trkpt><trkpt lat="41.813443460195266" lon="13.315169312461855"><ele>1208.0</ele><time>2026-04-11T13:27:00Z</time></trkpt><trkpt lat="41.81353771737478" lon="13.31512378120997"><ele>1209.0</ele><time>2026-04-11T13:27:01Z</time></trkpt><trkpt lat="41.81362344127789" lon="13.315147154762585"><ele>1210.0</ele><time>2026-04-11T13:27:02Z</time></trkpt><trkpt lat="41.813734643125294" lon="13.315213568518717"><ele>1211.0</ele><time>2026-04-11T13:27:03Z</time></trkpt><trkpt lat="41.813821568871" lon="13.315334151274016"><ele>1212.0</ele><time>2026-04-11T13:27:04Z</time></trkpt><trkpt lat="41.81390244140866" lon="13.31545661025277"><ele>1212.0</ele><time>2026-04-11T13:27:05Z</time></trkpt><trkpt lat="41.8139523267092" lon="13.31559360640723"><ele>1212.0</ele><time>2026-04-11T13:27:06Z</time></trkpt><trkpt lat="41.81396061541146" lon="13.315722001623122"><ele>1212.0</ele><time>2026-04-11T13:27:07Z</time></trkpt><trkpt lat="41.81397167540706" lon="13.315857448843289"><ele>1212.0</ele><time>2026-04-11T13:27:08Z</time></trkpt><trkpt lat="41.81384143356728" lon="13.316089013494597"><ele>1212.0</ele><time>2026-04-11T13:27:09Z</time></trkpt><trkpt lat="41.81378787738383" lon="13.316174367538226"><ele>1212.0</ele><time>2026-04-11T13:27:10Z</time></trkpt><trkpt lat="41.81380105388128" lon="13.316353506319048"><ele>1212.0</ele><time>2026-04-11T13:27:11Z</time></trkpt><trkpt lat="41.81385429775539" lon="13.316496766517918"><ele>1212.0</ele><time>2026-04-11T13:27:12Z</time></trkpt><trkpt lat="41.813937517964014" lon="13.31662016262467"><ele>1213.25</ele><time>2026-04-11T13:27:13Z</time></trkpt><trkpt lat="41.81403014490086" lon="13.316735364571965"><ele>1214.5</ele><time>2026-04-11T13:27:14Z</time></trkpt><trkpt lat="41.81413334346964" lon="13.316848905638645"><ele>1215.75</ele><time>2026-04-11T13:27:15Z</time></trkpt><trkpt lat="41.81422815840479" lon="13.316958279252258"><ele>1217.0</ele><time>2026-04-11T13:27:16Z</time></trkpt><trkpt lat="41.814341368872306" lon="13.317080146989007"><ele>1220.3333333333335</ele><time>2026-04-11T13:27:17Z</time></trkpt><trkpt lat="41.814471045798065" lon="13.31718449690409"><ele>1223.6666666666667</ele><time>2026-04-11T13:27:18Z</time></trkpt><trkpt lat="41.81460775144809" lon="13.317287198669737"><ele>1227.0</ele><time>2026-04-11T13:27:19Z</time></trkpt><trkpt lat="41.814738564193675" lon="13.317405554335084"><ele>1227.6666666666667</ele><time>2026-04-11T13:27:20Z</time></trkpt><trkpt lat="41.81488059661707" lon="13.317535709570166"><ele>1228.3333333333335</ele><time>2026-04-11T13:27:21Z</time></trkpt><trkpt lat="41.81503000467275" lon="13.317669603324177"><ele>1229.0</ele><time>2026-04-11T13:27:22Z</time></trkpt><trkpt lat="41.81518636747064" lon="13.317805568000665"><ele>1228.6666666666667</ele><time>2026-04-11T13:27:23Z</time></trkpt><trkpt lat="41.81535445728917" lon="13.31791369791461"><ele>1228.3333333333333</ele><time>2026-04-11T13:27:24Z</time></trkpt><trkpt lat="41.81553841109881" lon="13.317991185964706"><ele>1228.0</ele><time>2026-04-11T13:27:25Z</time></trkpt><trkpt lat="41.81572316816787" lon="13.318075218368019"><ele>1228.0</ele><time>2026-04-11T13:27:26Z</time></trkpt><trkpt lat="41.81591715591389" lon="13.318147043805345"><ele>1228.0</ele><time>2026-04-11T13:27:27Z</time></trkpt><trkpt lat="41.81612529331519" lon="13.318198082031845"><ele>1228.0</ele><time>2026-04-11T13:27:28Z</time></trkpt><trkpt lat="41.816337527368304" lon="13.318235099099464"><ele>1233.6666666666665</ele><time>2026-04-11T13:27:29Z</time></trkpt><trkpt lat="41.81654095627991" lon="13.318298772945019"><ele>1239.3333333333333</ele><time>2026-04-11T13:27:30Z</time></trkpt><trkpt lat="41.81674555907003" lon="13.318356659502895"><ele>1245.0</ele><time>2026-04-11T13:27:31Z</time></trkpt><trkpt lat="41.81695072655455" lon="13.318413473537447"><ele>1249.3333333333333</ele><time>2026-04-11T13:27:32Z</time></trkpt><trkpt lat="41.81715791225853" lon="13.318476811068727"><ele>1253.6666666666665</ele><time>2026-04-11T13:27:33Z</time></trkpt><trkpt lat="41.817357758151196" lon="13.31853914381741"><ele>1258.0</ele><time>2026-04-11T13:27:34Z</time></trkpt><trkpt lat="41.817532952248385" lon="13.318583562877759"><ele>1263.0</ele><time>2026-04-11T13:27:35Z</time></trkpt><trkpt lat="41.817679876530285" lon="13.318617486123271"><ele>1268.0</ele><time>2026-04-11T13:27:36Z</time></trkpt><trkpt lat="41.81779388343768" lon="13.31865946936717"><ele>1273.0</ele><time>2026-04-11T13:27:37Z</time></trkpt><trkpt lat="41.8178779009928" lon="13.318727008935682"><ele>1278.0</ele><time>2026-04-11T13:27:38Z</time></trkpt><trkpt lat="41.81792000096938" lon="13.318856437926998"><ele>1278.5</ele><time>2026-04-11T13:27:39Z</time></trkpt><trkpt lat="41.81791664516984" lon="13.319028055138578"><ele>1279.0</ele><time>2026-04-11T13:27:40Z</time></trkpt><trkpt lat="41.81788151406038" lon="13.319216604817303"><ele>1279.5</ele><time>2026-04-11T13:27:41Z</time></trkpt><trkpt lat="41.817792524610944" lon="13.319401360173684"><ele>1280.0</ele><time>2026-04-11T13:27:42Z</time></trkpt><trkpt lat="41.81766943812517" lon="13.319605051035738"><ele>1275.5</ele><time>2026-04-11T13:27:43Z</time></trkpt><trkpt lat="41.8175932525036" lon="13.319800535135943"><ele>1271.0</ele><time>2026-04-11T13:27:44Z</time></trkpt><trkpt lat="41.817533043293984" lon="13.319933406785227"><ele>1266.5</ele><time>2026-04-11T13:27:45Z</time></trkpt><trkpt lat="41.817502146806916" lon="13.32004864418658"><ele>1262.0</ele><time>2026-04-11T13:27:46Z</time></trkpt><trkpt lat="41.81746628633537" lon="13.3202903531862"><ele>1262.0</ele><time>2026-04-11T13:27:48Z</time></trkpt><trkpt lat="41.817589609342306" lon="13.320396462754879"><ele>1262.0</ele><time>2026-04-11T13:27:49Z</time></trkpt><trkpt lat="41.81771343313482" lon="13.320487000011573"><ele>1262.0</ele><time>2026-04-11T13:27:50Z</time></trkpt><trkpt lat="41.81782069018387" lon="13.32062584909084"><ele>1262.0</ele><time>2026-04-11T13:27:51Z</time></trkpt><trkpt lat="41.81787953311192" lon="13.32079591387719"><ele>1266.5</ele><time>2026-04-11T13:27:52Z</time></trkpt><trkpt lat="41.81789058188" lon="13.320981783612549"><ele>1271.0</ele><time>2026-04-11T13:27:53Z</time></trkpt><trkpt lat="41.81790257003477" lon="13.321173127334937"><ele>1275.5</ele><time>2026-04-11T13:27:54Z</time></trkpt><trkpt lat="41.81794025256585" lon="13.321357892175792"><ele>1280.0</ele><time>2026-04-11T13:27:55Z</time></trkpt><trkpt lat="41.81805359283411" lon="13.321474428511008"><ele>1280.0</ele><time>2026-04-11T13:27:56Z</time></trkpt><trkpt lat="41.81818712743868" lon="13.321589551078857"><ele>1280.0</ele><time>2026-04-11T13:27:57Z</time></trkpt><trkpt lat="41.818294285973096" lon="13.321701022408408"><ele>1280.0</ele><time>2026-04-11T13:27:58Z</time></trkpt><trkpt lat="41.818402562200426" lon="13.32181965577283"><ele>1280.0</ele><time>2026-04-11T13:27:59Z</time></trkpt><trkpt lat="41.81850273072728" lon="13.321925552080668"><ele>1285.2</ele><time>2026-04-11T13:28:00Z</time></trkpt><trkpt lat="41.81858987773388" lon="13.322021487531833"><ele>1290.4</ele><time>2026-04-11T13:28:01Z</time></trkpt><trkpt lat="41.81868283248353" lon="13.32210335217436"><ele>1295.6</ele><time>2026-04-11T13:28:02Z</time></trkpt><trkpt lat="41.81876566346367" lon="13.322195501110723"><ele>1300.8</ele><time>2026-04-11T13:28:03Z</time></trkpt><trkpt lat="41.81884271735013" lon="13.322281047785502"><ele>1306.0</ele><time>2026-04-11T13:28:04Z</time></trkpt><trkpt lat="41.81890278360649" lon="13.32237466829655"><ele>1306.0</ele><time>2026-04-11T13:28:05Z</time></trkpt><trkpt lat="41.81896713853903" lon="13.322466005579697"><ele>1306.0</ele><time>2026-04-11T13:28:06Z</time></trkpt><trkpt lat="41.81902761065116" lon="13.322570872419195"><ele>1306.0</ele><time>2026-04-11T13:28:07Z</time></trkpt><trkpt lat="41.81906960189144" lon="13.322691166929062"><ele>1306.0</ele><time>2026-04-11T13:28:08Z</time></trkpt><trkpt lat="41.819096816823595" lon="13.322806237032376"><ele>1306.0</ele><time>2026-04-11T13:28:09Z</time></trkpt><trkpt lat="41.81910570004728" lon="13.322928517954866"><ele>1306.0</ele><time>2026-04-11T13:28:10Z</time></trkpt><trkpt lat="41.819044257552186" lon="13.323016945223145"><ele>1306.0</ele><time>2026-04-11T13:28:11Z</time></trkpt><trkpt lat="41.81898699647935" lon="13.323083511846562"><ele>1306.0</ele><time>2026-04-11T13:28:12Z</time></trkpt><trkpt lat="41.818866580309816" lon="13.32320414453603"><ele>1306.0</ele><time>2026-04-11T13:28:13Z</time></trkpt><trkpt lat="41.818722990355724" lon="13.323316132086335"><ele>1310.0</ele><time>2026-04-11T13:28:14Z</time></trkpt><trkpt lat="41.81858485244563" lon="13.323457768602907"><ele>1314.0</ele><time>2026-04-11T13:28:15Z</time></trkpt><trkpt lat="41.81845253436079" lon="13.323585245719299"><ele>1318.0</ele><time>2026-04-11T13:28:16Z</time></trkpt><trkpt lat="41.81831044673732" lon="13.32372456681778"><ele>1313.75</ele><time>2026-04-11T13:28:17Z</time></trkpt><trkpt lat="41.8181994006418" lon="13.323849742374748"><ele>1309.5</ele><time>2026-04-11T13:28:18Z</time></trkpt><trkpt lat="41.81811273502051" lon="13.323950065642274"><ele>1305.25</ele><time>2026-04-11T13:28:19Z</time></trkpt><trkpt lat="41.81809992280097" lon="13.324079497235358"><ele>1301.0</ele><time>2026-04-11T13:28:20Z</time></trkpt><trkpt lat="41.818106770743825" lon="13.324213261403955"><ele>1301.0</ele><time>2026-04-11T13:28:21Z</time></trkpt><trkpt lat="41.818151275234555" lon="13.324404859069721"><ele>1301.0</ele><time>2026-04-11T13:28:22Z</time></trkpt><trkpt lat="41.818243115863645" lon="13.324572659959388"><ele>1301.0</ele><time>2026-04-11T13:28:23Z</time></trkpt><trkpt lat="41.8183417968697" lon="13.324754761825101"><ele>1299.0</ele><time>2026-04-11T13:28:24Z</time></trkpt><trkpt lat="41.81846558835965" lon="13.324916045717499"><ele>1297.0</ele><time>2026-04-11T13:28:25Z</time></trkpt><trkpt lat="41.81858542069577" lon="13.32506819814953"><ele>1295.0</ele><time>2026-04-11T13:28:26Z</time></trkpt><trkpt lat="41.81868133879605" lon="13.325236506173459"><ele>1307.0</ele><time>2026-04-11T13:28:27Z</time></trkpt><trkpt lat="41.81876205807353" lon="13.325396494159529"><ele>1319.0</ele><time>2026-04-11T13:28:28Z</time></trkpt><trkpt lat="41.818806241236416" lon="13.325531836007475"><ele>1331.0</ele><time>2026-04-11T13:28:29Z</time></trkpt><trkpt lat="41.818810520203186" lon="13.325664998241958"><ele>1343.0</ele><time>2026-04-11T13:28:30Z</time></trkpt><trkpt lat="41.818763421772644" lon="13.325827049839015"><ele>1343.5</ele><time>2026-04-11T13:28:31Z</time></trkpt><trkpt lat="41.81870501016979" lon="13.325976802301826"><ele>1344.0</ele><time>2026-04-11T13:28:32Z</time></trkpt><trkpt lat="41.81862714608206" lon="13.3261337808571"><ele>1344.5</ele><time>2026-04-11T13:28:33Z</time></trkpt><trkpt lat="41.81851787674001" lon="13.32628886968853"><ele>1345.0</ele><time>2026-04-11T13:28:34Z</time></trkpt><trkpt lat="41.81838074077574" lon="13.326424008169477"><ele>1337.3333333333333</ele><time>2026-04-11T13:28:35Z</time></trkpt><trkpt lat="41.81826644345213" lon="13.326625934270256"><ele>1329.6666666666667</ele><time>2026-04-11T13:28:36Z</time></trkpt><trkpt lat="41.81819373772897" lon="13.32684197507568"><ele>1322.0</ele><time>2026-04-11T13:28:37Z</time></trkpt><trkpt lat="41.81813014848515" lon="13.327046941681408"><ele>1322.0</ele><time>2026-04-11T13:28:38Z</time></trkpt><trkpt lat="41.81805353842023" lon="13.327227392724978"><ele>1322.0</ele><time>2026-04-11T13:28:39Z</time></trkpt><trkpt lat="41.81797373956315" lon="13.32737936124122"><ele>1322.0</ele><time>2026-04-11T13:28:40Z</time></trkpt><trkpt lat="41.81786309902123" lon="13.32746264998993"><ele>1322.0</ele><time>2026-04-11T13:28:41Z</time></trkpt><trkpt lat="41.81772460375436" lon="13.32757615919151"><ele>1318.0</ele><time>2026-04-11T13:28:42Z</time></trkpt><trkpt lat="41.81758822381911" lon="13.32769487954058"><ele>1314.0</ele><time>2026-04-11T13:28:43Z</time></trkpt><trkpt lat="41.81745858249943" lon="13.327832920592693"><ele>1310.0</ele><time>2026-04-11T13:28:44Z</time></trkpt><trkpt lat="41.81736185724896" lon="13.328029924006946"><ele>1317.3333333333335</ele><time>2026-04-11T13:28:45Z</time></trkpt><trkpt lat="41.81728877599989" lon="13.328245876862509"><ele>1324.6666666666667</ele><time>2026-04-11T13:28:46Z</time></trkpt><trkpt lat="41.81725391928961" lon="13.328537754594775"><ele>1332.0</ele><time>2026-04-11T13:28:47Z</time></trkpt><trkpt lat="41.81722701439959" lon="13.32884747352391"><ele>1335.3333333333333</ele><time>2026-04-11T13:28:48Z</time></trkpt><trkpt lat="41.81718848618088" lon="13.32912279656107"><ele>1338.6666666666665</ele><time>2026-04-11T13:28:49Z</time></trkpt><trkpt lat="41.81720007843162" lon="13.329350359602016"><ele>1342.0</ele><time>2026-04-11T13:28:50Z</time></trkpt><trkpt lat="41.81724151805983" lon="13.329619863292251"><ele>1341.0</ele><time>2026-04-11T13:28:51Z</time></trkpt><trkpt lat="41.81730491144217" lon="13.329877227630776"><ele>1340.0</ele><time>2026-04-11T13:28:52Z</time></trkpt><trkpt lat="41.817374202994706" lon="13.330125562932416"><ele>1339.0</ele><time>2026-04-11T13:28:53Z</time></trkpt><trkpt lat="41.81745639918578" lon="13.330362519076205"><ele>1336.0</ele><time>2026-04-11T13:28:54Z</time></trkpt><trkpt lat="41.8175544998072" lon="13.330572675058875"><ele>1333.0</ele><time>2026-04-11T13:28:55Z</time></trkpt><trkpt lat="41.81767237926241" lon="13.330770652078014"><ele>1330.0</ele><time>2026-04-11T13:28:56Z</time></trkpt><trkpt lat="41.817800744867434" lon="13.3309590766321"><ele>1339.6666666666665</ele><time>2026-04-11T13:28:57Z</time></trkpt><trkpt lat="41.81787944532558" lon="13.331178456726075"><ele>1349.3333333333333</ele><time>2026-04-11T13:28:58Z</time></trkpt><trkpt lat="41.81794037124661" lon="13.33137169591184"><ele>1359.0</ele><time>2026-04-11T13:28:59Z</time></trkpt><trkpt lat="41.817979685832704" lon="13.331553382295743"><ele>1359.0</ele><time>2026-04-11T13:29:00Z</time></trkpt><trkpt lat="41.81800561515932" lon="13.331726279557124"><ele>1359.0</ele><time>2026-04-11T13:29:01Z</time></trkpt><trkpt lat="41.81797531796098" lon="13.331902893513545"><ele>1359.0</ele><time>2026-04-11T13:29:02Z</time></trkpt><trkpt lat="41.8179310818037" lon="13.332064404054922"><ele>1359.0</ele><time>2026-04-11T13:29:03Z</time></trkpt><trkpt lat="41.817913471840384" lon="13.332197770314172"><ele>1357.6</ele><time>2026-04-11T13:29:04Z</time></trkpt><trkpt lat="41.81791942888631" lon="13.332315142288737"><ele>1356.2</ele><time>2026-04-11T13:29:05Z</time></trkpt><trkpt lat="41.817977015705154" lon="13.332418416143309"><ele>1354.8</ele><time>2026-04-11T13:29:06Z</time></trkpt><trkpt lat="41.81806217546445" lon="13.332467945481767"><ele>1353.3999999999999</ele><time>2026-04-11T13:29:07Z</time></trkpt><trkpt lat="41.818159695538306" lon="13.33246335662502"><ele>1352.0</ele><time>2026-04-11T13:29:08Z</time></trkpt><trkpt lat="41.81825127503238" lon="13.332391508955393"><ele>1352.0</ele><time>2026-04-11T13:29:09Z</time></trkpt><trkpt lat="41.81830818140164" lon="13.332262663185228"><ele>1352.0</ele><time>2026-04-11T13:29:10Z</time></trkpt><trkpt lat="41.81832933567021" lon="13.332082126778014"><ele>1352.0</ele><time>2026-04-11T13:29:11Z</time></trkpt><trkpt lat="41.81830990019279" lon="13.331848439651374"><ele>1352.0</ele><time>2026-04-11T13:29:12Z</time></trkpt><trkpt lat="41.818288485042565" lon="13.331557060591326"><ele>1357.6666666666667</ele><time>2026-04-11T13:29:13Z</time></trkpt><trkpt lat="41.8182522399968" lon="13.331262034914351"><ele>1363.3333333333333</ele><time>2026-04-11T13:29:14Z</time></trkpt><trkpt lat="41.818227717669615" lon="13.331009454041613"><ele>1369.0</ele><time>2026-04-11T13:29:15Z</time></trkpt><trkpt lat="41.81819044647194" lon="13.330793766164858"><ele>1369.0</ele><time>2026-04-11T13:29:16Z</time></trkpt><trkpt lat="41.81811520846811" lon="13.330586932499871"><ele>1369.0</ele><time>2026-04-11T13:29:17Z</time></trkpt><trkpt lat="41.818018682145095" lon="13.33040289213496"><ele>1369.0</ele><time>2026-04-11T13:29:18Z</time></trkpt><trkpt lat="41.81793762166701" lon="13.330213616148248"><ele>1373.0</ele><time>2026-04-11T13:29:19Z</time></trkpt><trkpt lat="41.81791240729917" lon="13.330009118800243"><ele>1377.0</ele><time>2026-04-11T13:29:20Z</time></trkpt><trkpt lat="41.81790900528589" lon="13.329761751460962"><ele>1381.0</ele><time>2026-04-11T13:29:21Z</time></trkpt><trkpt lat="41.81791014378142" lon="13.329468739342053"><ele>1380.6666666666665</ele><time>2026-04-11T13:29:22Z</time></trkpt><trkpt lat="41.81792577268476" lon="13.329178101942187"><ele>1380.3333333333333</ele><time>2026-04-11T13:29:23Z</time></trkpt><trkpt lat="41.81795975945838" lon="13.328935623022671"><ele>1380.0</ele><time>2026-04-11T13:29:24Z</time></trkpt><trkpt lat="41.81797548112253" lon="13.32871086657377"><ele>1380.0</ele><time>2026-04-11T13:29:25Z</time></trkpt><trkpt lat="41.818044923911756" lon="13.328501876012833"><ele>1380.0</ele><time>2026-04-11T13:29:26Z</time></trkpt><trkpt lat="41.818116738473755" lon="13.328313368795085"><ele>1380.0</ele><time>2026-04-11T13:29:27Z</time></trkpt><trkpt lat="41.81818312376013" lon="13.328138088113825"><ele>1385.3333333333333</ele><time>2026-04-11T13:29:28Z</time></trkpt><trkpt lat="41.81827449972613" lon="13.328011054716189"><ele>1390.6666666666665</ele><time>2026-04-11T13:29:29Z</time></trkpt><trkpt lat="41.81840186362695" lon="13.32788615384818"><ele>1396.0</ele><time>2026-04-11T13:29:30Z</time></trkpt><trkpt lat="41.81855689497343" lon="13.327714607631325"><ele>1396.0</ele><time>2026-04-11T13:29:31Z</time></trkpt><trkpt lat="41.81870804382873" lon="13.327523107600594"><ele>1396.0</ele><time>2026-04-11T13:29:32Z</time></trkpt><trkpt lat="41.81884849428277" lon="13.327336128059192"><ele>1396.0</ele><time>2026-04-11T13:29:33Z</time></trkpt><trkpt lat="41.819012351679014" lon="13.327186139493945"><ele>1397.0</ele><time>2026-04-11T13:29:34Z</time></trkpt><trkpt lat="41.81917404021787" lon="13.327034835696017"><ele>1398.0</ele><time>2026-04-11T13:29:35Z</time></trkpt><trkpt lat="41.81934409659955" lon="13.326933196319235"><ele>1399.0</ele><time>2026-04-11T13:29:36Z</time></trkpt><trkpt lat="41.81949969721648" lon="13.32687759254618"><ele>1399.0</ele><time>2026-04-11T13:29:37Z</time></trkpt><trkpt lat="41.81963683452316" lon="13.32690753776595"><ele>1399.0</ele><time>2026-04-11T13:29:38Z</time></trkpt><trkpt lat="41.819750557180434" lon="13.326899098860771"><ele>1399.0</ele><time>2026-04-11T13:29:39Z</time></trkpt><trkpt lat="41.81982977159714" lon="13.32688978257202"><ele>1399.0</ele><time>2026-04-11T13:29:40Z</time></trkpt><trkpt lat="41.81989712788583" lon="13.326823309849676"><ele>1399.0</ele><time>2026-04-11T13:29:41Z</time></trkpt><trkpt lat="41.81994773329903" lon="13.326681052047208"><ele>1399.0</ele><time>2026-04-11T13:29:42Z</time></trkpt><trkpt lat="41.81997668467286" lon="13.326556834531612"><ele>1399.0</ele><time>2026-04-11T13:29:43Z</time></trkpt><trkpt lat="41.819968020392885" lon="13.326364054115887"><ele>1399.0</ele><time>2026-04-11T13:29:44Z</time></trkpt><trkpt lat="41.819929489164714" lon="13.326171482084508"><ele>1399.0</ele><time>2026-04-11T13:29:45Z</time></trkpt><trkpt lat="41.81991972931139" lon="13.325959424629824"><ele>1396.3333333333333</ele><time>2026-04-11T13:29:46Z</time></trkpt><trkpt lat="41.81989821543282" lon="13.325706504630997"><ele>1393.6666666666667</ele><time>2026-04-11T13:29:47Z</time></trkpt><trkpt lat="41.81988579004833" lon="13.325472287826463"><ele>1391.0</ele><time>2026-04-11T13:29:48Z</time></trkpt><trkpt lat="41.81989394472472" lon="13.325268730208302"><ele>1390.75</ele><time>2026-04-11T13:29:49Z</time></trkpt><trkpt lat="41.819898337639465" lon="13.325124551580805"><ele>1390.5</ele><time>2026-04-11T13:29:50Z</time></trkpt><trkpt lat="41.819937641201435" lon="13.32498810887328"><ele>1390.25</ele><time>2026-04-11T13:29:51Z</time></trkpt><trkpt lat="41.82002131683772" lon="13.324878697049853"><ele>1390.0</ele><time>2026-04-11T13:29:52Z</time></trkpt><trkpt lat="41.8201501878562" lon="13.324821761376578"><ele>1392.0</ele><time>2026-04-11T13:29:53Z</time></trkpt><trkpt lat="41.82027534013849" lon="13.324775733069666"><ele>1394.0</ele><time>2026-04-11T13:29:54Z</time></trkpt><trkpt lat="41.820418897136925" lon="13.32471594681579"><ele>1396.0</ele><time>2026-04-11T13:29:55Z</time></trkpt><trkpt lat="41.82057981741091" lon="13.324687289393944"><ele>1398.0</ele><time>2026-04-11T13:29:56Z</time></trkpt><trkpt lat="41.820722836531615" lon="13.324651171090665"><ele>1398.0</ele><time>2026-04-11T13:29:57Z</time></trkpt><trkpt lat="41.820879838855305" lon="13.324607336715683"><ele>1398.0</ele><time>2026-04-11T13:29:58Z</time></trkpt><trkpt lat="41.821049096438976" lon="13.324560949379656"><ele>1398.0</ele><time>2026-04-11T13:29:59Z</time></trkpt><trkpt lat="41.821205504392346" lon="13.324486016814296"><ele>1405.25</ele><time>2026-04-11T13:30:00Z</time></trkpt><trkpt lat="41.82133608267863" lon="13.324380315027136"><ele>1412.5</ele><time>2026-04-11T13:30:01Z</time></trkpt><trkpt lat="41.821435503983444" lon="13.32428061702699"><ele>1419.75</ele><time>2026-04-11T13:30:02Z</time></trkpt><trkpt lat="41.821507761426446" lon="13.32421259348943"><ele>1427.0</ele><time>2026-04-11T13:30:03Z</time></trkpt><trkpt lat="41.82156875055137" lon="13.324104738237018"><ele>1427.0</ele><time>2026-04-11T13:30:04Z</time></trkpt><trkpt lat="41.82161710578918" lon="13.323990378040296"><ele>1427.0</ele><time>2026-04-11T13:30:05Z</time></trkpt><trkpt lat="41.82157211402446" lon="13.323843296006"><ele>1427.0</ele><time>2026-04-11T13:30:06Z</time></trkpt><trkpt lat="41.821548657536404" lon="13.323659073394255"><ele>1427.0</ele><time>2026-04-11T13:30:07Z</time></trkpt><trkpt lat="41.82153162059349" lon="13.323418965246228"><ele>1425.3333333333335</ele><time>2026-04-11T13:30:08Z</time></trkpt><trkpt lat="41.82149458919393" lon="13.323188980094738"><ele>1423.6666666666667</ele><time>2026-04-11T13:30:09Z</time></trkpt><trkpt lat="41.82149755143034" lon="13.322965805281278"><ele>1422.0</ele><time>2026-04-11T13:30:10Z</time></trkpt><trkpt lat="41.82151518296516" lon="13.322740322670917"><ele>1422.0</ele><time>2026-04-11T13:30:11Z</time></trkpt><trkpt lat="41.82151325464342" lon="13.322505115050232"><ele>1422.0</ele><time>2026-04-11T13:30:12Z</time></trkpt><trkpt lat="41.82146561101451" lon="13.322273946783934"><ele>1422.0</ele><time>2026-04-11T13:30:13Z</time></trkpt><trkpt lat="41.82138351971586" lon="13.322050140320925"><ele>1424.0</ele><time>2026-04-11T13:30:14Z</time></trkpt><trkpt lat="41.821292112986924" lon="13.321842350227387"><ele>1426.0</ele><time>2026-04-11T13:30:15Z</time></trkpt><trkpt lat="41.82120611541679" lon="13.32166830159016"><ele>1428.0</ele><time>2026-04-11T13:30:16Z</time></trkpt><trkpt lat="41.82113988426132" lon="13.321518712933427"><ele>1428.0</ele><time>2026-04-11T13:30:17Z</time></trkpt><trkpt lat="41.82108441579549" lon="13.32140105758266"><ele>1428.0</ele><time>2026-04-11T13:30:18Z</time></trkpt><trkpt lat="41.821055950221826" lon="13.321309877947069"><ele>1428.0</ele><time>2026-04-11T13:30:19Z</time></trkpt><trkpt lat="41.821037379237815" lon="13.321224991862362"><ele>1428.0</ele><time>2026-04-11T13:30:20Z</time></trkpt><trkpt lat="41.82106590285261" lon="13.321136373538799"><ele>1428.0</ele><time>2026-04-11T13:30:21Z</time></trkpt><trkpt lat="41.821123547910766" lon="13.32109062581444"><ele>1428.0</ele><time>2026-04-11T13:30:22Z</time></trkpt><trkpt lat="41.82118943504633" lon="13.32111091411409"><ele>1428.0</ele><time>2026-04-11T13:30:23Z</time></trkpt><trkpt lat="41.82125437869267" lon="13.32119975688535"><ele>1428.0</ele><time>2026-04-11T13:30:24Z</time></trkpt><trkpt lat="41.82131756169413" lon="13.321341753872783"><ele>1428.0</ele><time>2026-04-11T13:30:25Z</time></trkpt><trkpt lat="41.821360871140165" lon="13.321438345363163"><ele>1428.0</ele><time>2026-04-11T13:30:26Z</time></trkpt><trkpt lat="41.8214546529752" lon="13.321610048967166"><ele>1428.0</ele><time>2026-04-11T13:30:27Z</time></trkpt><trkpt lat="41.82155136937754" lon="13.321779175429864"><ele>1428.0</ele><time>2026-04-11T13:30:28Z</time></trkpt><trkpt lat="41.82167208185891" lon="13.32196868041355"><ele>1428.0</ele><time>2026-04-11T13:30:29Z</time></trkpt><trkpt lat="41.82174445401459" lon="13.322121265167173"><ele>1426.0</ele><time>2026-04-11T13:30:30Z</time></trkpt><trkpt lat="41.82179158613689" lon="13.322299429589503"><ele>1424.0</ele><time>2026-04-11T13:30:31Z</time></trkpt><trkpt lat="41.82182749066142" lon="13.322517337447366"><ele>1422.0</ele><time>2026-04-11T13:30:32Z</time></trkpt><trkpt lat="41.82184293397512" lon="13.322722523253463"><ele>1436.0</ele><time>2026-04-11T13:30:33Z</time></trkpt><trkpt lat="41.8218589856211" lon="13.322935483738588"><ele>1450.0</ele><time>2026-04-11T13:30:34Z</time></trkpt><trkpt lat="41.8218512783406" lon="13.32314511011658"><ele>1464.0</ele><time>2026-04-11T13:30:35Z</time></trkpt><trkpt lat="41.821860020839" lon="13.323348682870655"><ele>1464.0</ele><time>2026-04-11T13:30:36Z</time></trkpt><trkpt lat="41.821916835032866" lon="13.323572676628682"><ele>1464.0</ele><time>2026-04-11T13:30:37Z</time></trkpt><trkpt lat="41.82202085004714" lon="13.323806562463325"><ele>1464.0</ele><time>2026-04-11T13:30:38Z</time></trkpt><trkpt lat="41.822103919228205" lon="13.323998442253027"><ele>1464.0</ele><time>2026-04-11T13:30:39Z</time></trkpt><trkpt lat="41.82216389024186" lon="13.324157776271699"><ele>1464.0</ele><time>2026-04-11T13:30:40Z</time></trkpt><trkpt lat="41.82217743495919" lon="13.324302560309164"><ele>1464.0</ele><time>2026-04-11T13:30:41Z</time></trkpt><trkpt lat="41.82210960126236" lon="13.324448022219697"><ele>1464.0</ele><time>2026-04-11T13:30:42Z</time></trkpt><trkpt lat="41.82204474148028" lon="13.324619579887639"><ele>1459.0</ele><time>2026-04-11T13:30:43Z</time></trkpt><trkpt lat="41.821925827761724" lon="13.324768085728154"><ele>1454.0</ele><time>2026-04-11T13:30:44Z</time></trkpt><trkpt lat="41.82180155560098" lon="13.324919562792592"><ele>1449.0</ele><time>2026-04-11T13:30:45Z</time></trkpt><trkpt lat="41.821671533405535" lon="13.325084321855922"><ele>1449.0</ele><time>2026-04-11T13:30:46Z</time></trkpt><trkpt lat="41.82153556010025" lon="13.325238356269221"><ele>1449.0</ele><time>2026-04-11T13:30:47Z</time></trkpt><trkpt lat="41.82140073033739" lon="13.325357890765767"><ele>1449.0</ele><time>2026-04-11T13:30:48Z</time></trkpt><trkpt lat="41.82129552404743" lon="13.325475914327264"><ele>1452.6</ele><time>2026-04-11T13:30:49Z</time></trkpt><trkpt lat="41.82120862843037" lon="13.32560842999954"><ele>1456.2</ele><time>2026-04-11T13:30:50Z</time></trkpt><trkpt lat="41.821136703629705" lon="13.325731089560396"><ele>1459.8</ele><time>2026-04-11T13:30:51Z</time></trkpt><trkpt lat="41.8211241458833" lon="13.325849299536213"><ele>1463.3999999999999</ele><time>2026-04-11T13:30:52Z</time></trkpt><trkpt lat="41.821119054548525" lon="13.32598940131982"><ele>1467.0</ele><time>2026-04-11T13:30:53Z</time></trkpt><trkpt lat="41.82113739332452" lon="13.326141845429095"><ele>1467.0</ele><time>2026-04-11T13:30:54Z</time></trkpt><trkpt lat="41.82115449620523" lon="13.32631715109529"><ele>1467.0</ele><time>2026-04-11T13:30:55Z</time></trkpt><trkpt lat="41.82122720940092" lon="13.326595771349767"><ele>1467.0</ele><time>2026-04-11T13:30:56Z</time></trkpt><trkpt lat="41.821304617552705" lon="13.326855313184046"><ele>1468.6666666666667</ele><time>2026-04-11T13:30:57Z</time></trkpt><trkpt lat="41.82138759671754" lon="13.327126578012821"><ele>1470.3333333333335</ele><time>2026-04-11T13:30:58Z</time></trkpt><trkpt lat="41.821469312273415" lon="13.32738022831593"><ele>1472.0</ele><time>2026-04-11T13:30:59Z</time></trkpt><trkpt lat="41.82155170241411" lon="13.327606061224966"><ele>1472.0</ele><time>2026-04-11T13:31:00Z</time></trkpt><trkpt lat="41.82160111941428" lon="13.327814132559839"><ele>1472.0</ele><time>2026-04-11T13:31:01Z</time></trkpt><trkpt lat="41.82164980041716" lon="13.32803619405887"><ele>1472.0</ele><time>2026-04-11T13:31:02Z</time></trkpt><trkpt lat="41.821663534599516" lon="13.328212357173987"><ele>1473.0</ele><time>2026-04-11T13:31:03Z</time></trkpt><trkpt lat="41.82161663903258" lon="13.328376753998091"><ele>1474.0</ele><time>2026-04-11T13:31:04Z</time></trkpt><trkpt lat="41.82152632029315" lon="13.328529544899155"><ele>1475.0</ele><time>2026-04-11T13:31:05Z</time></trkpt><trkpt lat="41.82141715196385" lon="13.328710396112065"><ele>1475.0</ele><time>2026-04-11T13:31:06Z</time></trkpt><trkpt lat="41.82130019588539" lon="13.328876454094035"><ele>1475.0</ele><time>2026-04-11T13:31:07Z</time></trkpt><trkpt lat="41.82116185206775" lon="13.3289609929361"><ele>1475.0</ele><time>2026-04-11T13:31:08Z</time></trkpt><trkpt lat="41.82101755882338" lon="13.329033609532651"><ele>1474.0</ele><time>2026-04-11T13:31:09Z</time></trkpt><trkpt lat="41.82089470994845" lon="13.32910556067441"><ele>1473.0</ele><time>2026-04-11T13:31:10Z</time></trkpt><trkpt lat="41.82078533463363" lon="13.329164173981239"><ele>1472.0</ele><time>2026-04-11T13:31:11Z</time></trkpt><trkpt lat="41.82069409604323" lon="13.329214081810246"><ele>1471.0</ele><time>2026-04-11T13:31:12Z</time></trkpt><trkpt lat="41.82068238738525" lon="13.32934128296393"><ele>1470.0</ele><time>2026-04-11T13:31:13Z</time></trkpt><trkpt lat="41.82068521569573" lon="13.32948085430945"><ele>1470.0</ele><time>2026-04-11T13:31:14Z</time></trkpt><trkpt lat="41.82076035062377" lon="13.329614486279473"><ele>1470.0</ele><time>2026-04-11T13:31:15Z</time></trkpt><trkpt lat="41.82087841228145" lon="13.329692688723389"><ele>1470.0</ele><time>2026-04-11T13:31:16Z</time></trkpt><trkpt lat="41.821021656069085" lon="13.32971935117267"><ele>1470.0</ele><time>2026-04-11T13:31:17Z</time></trkpt><trkpt lat="41.82117927641857" lon="13.32968095605435"><ele>1472.6666666666667</ele><time>2026-04-11T13:31:18Z</time></trkpt><trkpt lat="41.82135076219507" lon="13.329602871894428"><ele>1475.3333333333335</ele><time>2026-04-11T13:31:19Z</time></trkpt><trkpt lat="41.8215342269421" lon="13.329533508326676"><ele>1478.0</ele><time>2026-04-11T13:31:20Z</time></trkpt><trkpt lat="41.82170119042975" lon="13.329454083458563"><ele>1484.6666666666667</ele><time>2026-04-11T13:31:21Z</time></trkpt><trkpt lat="41.821842199187174" lon="13.329296835709043"><ele>1491.3333333333333</ele><time>2026-04-11T13:31:22Z</time></trkpt><trkpt lat="41.821940342740376" lon="13.329104549992437"><ele>1498.0</ele><time>2026-04-11T13:31:23Z</time></trkpt><trkpt lat="41.82202669736551" lon="13.328883321237502"><ele>1500.0</ele><time>2026-04-11T13:31:24Z</time></trkpt><trkpt lat="41.82210566315439" lon="13.328669306580233"><ele>1502.0</ele><time>2026-04-11T13:31:25Z</time></trkpt><trkpt lat="41.82217849551283" lon="13.328438848194168"><ele>1504.0</ele><time>2026-04-11T13:31:26Z</time></trkpt><trkpt lat="41.822258319187945" lon="13.328219384166319"><ele>1506.0</ele><time>2026-04-11T13:31:27Z</time></trkpt><trkpt lat="41.822303513090645" lon="13.327995149386485"><ele>1508.0</ele><time>2026-04-11T13:31:28Z</time></trkpt><trkpt lat="41.82231598225272" lon="13.327760437214845"><ele>1510.0</ele><time>2026-04-11T13:31:29Z</time></trkpt><trkpt lat="41.822312536762695" lon="13.327502018706642"><ele>1511.0</ele><time>2026-04-11T13:31:30Z</time></trkpt><trkpt lat="41.82230494100621" lon="13.327226926194964"><ele>1512.0</ele><time>2026-04-11T13:31:31Z</time></trkpt><trkpt lat="41.82227873596327" lon="13.326998262227034"><ele>1513.0</ele><time>2026-04-11T13:31:32Z</time></trkpt><trkpt lat="41.822253813341206" lon="13.326807509630774"><ele>1513.0</ele><time>2026-04-11T13:31:33Z</time></trkpt><trkpt lat="41.82224935708454" lon="13.326599487511169"><ele>1513.0</ele><time>2026-04-11T13:31:34Z</time></trkpt><trkpt lat="41.82224143194501" lon="13.32639976770661"><ele>1513.0</ele><time>2026-04-11T13:31:35Z</time></trkpt><trkpt lat="41.82232455382525" lon="13.326249466865365"><ele>1513.0</ele><time>2026-04-11T13:31:36Z</time></trkpt><trkpt lat="41.82241618599201" lon="13.326127826547678"><ele>1510.5</ele><time>2026-04-11T13:31:37Z</time></trkpt><trkpt lat="41.82252175932234" lon="13.326026290890889"><ele>1508.0</ele><time>2026-04-11T13:31:38Z</time></trkpt><trkpt lat="41.82264003834318" lon="13.32590381041437"><ele>1505.5</ele><time>2026-04-11T13:31:39Z</time></trkpt><trkpt lat="41.822768657336034" lon="13.325765197625941"><ele>1503.0</ele><time>2026-04-11T13:31:40Z</time></trkpt><trkpt lat="41.822957186569134" lon="13.325590024784235"><ele>1509.6666666666667</ele><time>2026-04-11T13:31:41Z</time></trkpt><trkpt lat="41.82308986664311" lon="13.325452947546248"><ele>1516.3333333333335</ele><time>2026-04-11T13:31:42Z</time></trkpt><trkpt lat="41.823196696769955" lon="13.325333750757071"><ele>1523.0</ele><time>2026-04-11T13:31:43Z</time></trkpt><trkpt lat="41.82328051871562" lon="13.325173214937257"><ele>1523.0</ele><time>2026-04-11T13:31:44Z</time></trkpt><trkpt lat="41.823349130321816" lon="13.324985228575667"><ele>1523.0</ele><time>2026-04-11T13:31:45Z</time></trkpt><trkpt lat="41.82337900168522" lon="13.324783121936829"><ele>1523.0</ele><time>2026-04-11T13:31:46Z</time></trkpt><trkpt lat="41.823383478361116" lon="13.324599557493698"><ele>1523.0</ele><time>2026-04-11T13:31:47Z</time></trkpt><trkpt lat="41.8233823034594" lon="13.32439315834343"><ele>1520.3333333333335</ele><time>2026-04-11T13:31:48Z</time></trkpt><trkpt lat="41.823361942105784" lon="13.324167578641374"><ele>1517.6666666666667</ele><time>2026-04-11T13:31:49Z</time></trkpt><trkpt lat="41.823359181227936" lon="13.323955760524822"><ele>1515.0</ele><time>2026-04-11T13:31:50Z</time></trkpt><trkpt lat="41.82334514879225" lon="13.323740682153515"><ele>1513.6666666666667</ele><time>2026-04-11T13:31:51Z</time></trkpt><trkpt lat="41.82337227201476" lon="13.323538029324135"><ele>1512.3333333333335</ele><time>2026-04-11T13:31:52Z</time></trkpt><trkpt lat="41.823440163912025" lon="13.323338160395325"><ele>1511.0</ele><time>2026-04-11T13:31:53Z</time></trkpt><trkpt lat="41.823534737545835" lon="13.323146001183945"><ele>1516.6666666666667</ele><time>2026-04-11T13:31:54Z</time></trkpt><trkpt lat="41.82362255298221" lon="13.322971785507965"><ele>1522.3333333333333</ele><time>2026-04-11T13:31:55Z</time></trkpt><trkpt lat="41.823742180971024" lon="13.322823926347873"><ele>1528.0</ele><time>2026-04-11T13:31:56Z</time></trkpt><trkpt lat="41.82388786002795" lon="13.322701761679536"><ele>1528.0</ele><time>2026-04-11T13:31:57Z</time></trkpt><trkpt lat="41.82403580828904" lon="13.322559964942487"><ele>1528.0</ele><time>2026-04-11T13:31:58Z</time></trkpt><trkpt lat="41.824177094886956" lon="13.322429211927332"><ele>1528.0</ele><time>2026-04-11T13:31:59Z</time></trkpt><trkpt lat="41.824340031984676" lon="13.322339285854445"><ele>1525.0</ele><time>2026-04-11T13:32:00Z</time></trkpt><trkpt lat="41.82448226436064" lon="13.322228441956526"><ele>1522.0</ele><time>2026-04-11T13:32:01Z</time></trkpt><trkpt lat="41.8246450141464" lon="13.322176086432052"><ele>1519.0</ele><time>2026-04-11T13:32:02Z</time></trkpt><trkpt lat="41.82482501569418" lon="13.32211384548674"><ele>1519.0</ele><time>2026-04-11T13:32:03Z</time></trkpt><trkpt lat="41.82501735038932" lon="13.322049500966731"><ele>1519.0</ele><time>2026-04-11T13:32:04Z</time></trkpt><trkpt lat="41.825203680262575" lon="13.32197904788835"><ele>1519.0</ele><time>2026-04-11T13:32:05Z</time></trkpt><trkpt lat="41.82537674061942" lon="13.321898043511872"><ele>1526.6666666666665</ele><time>2026-04-11T13:32:06Z</time></trkpt><trkpt lat="41.82555261043973" lon="13.321813708535373"><ele>1534.3333333333333</ele><time>2026-04-11T13:32:07Z</time></trkpt><trkpt lat="41.82573053984865" lon="13.321733880789777"><ele>1542.0</ele><time>2026-04-11T13:32:08Z</time></trkpt><trkpt lat="41.825914055984164" lon="13.32165688535761"><ele>1548.0</ele><time>2026-04-11T13:32:09Z</time></trkpt><trkpt lat="41.82609376758548" lon="13.321610297324744"><ele>1554.0</ele><time>2026-04-11T13:32:10Z</time></trkpt><trkpt lat="41.8262905468396" lon="13.321563076074957"><ele>1560.0</ele><time>2026-04-11T13:32:11Z</time></trkpt><trkpt lat="41.826489961676714" lon="13.32148783078536"><ele>1560.0</ele><time>2026-04-11T13:32:12Z</time></trkpt><trkpt lat="41.82666768810341" lon="13.32140175442894"><ele>1560.0</ele><time>2026-04-11T13:32:13Z</time></trkpt><trkpt lat="41.82685019101266" lon="13.32129653542816"><ele>1560.0</ele><time>2026-04-11T13:32:14Z</time></trkpt><trkpt lat="41.827045383067095" lon="13.321190098008953"><ele>1558.0</ele><time>2026-04-11T13:32:15Z</time></trkpt><trkpt lat="41.82722245789454" lon="13.321091290420858"><ele>1556.0</ele><time>2026-04-11T13:32:16Z</time></trkpt><trkpt lat="41.82740061327362" lon="13.320984181174286"><ele>1554.0</ele><time>2026-04-11T13:32:17Z</time></trkpt><trkpt lat="41.827575495498166" lon="13.320879684815136"><ele>1553.0</ele><time>2026-04-11T13:32:18Z</time></trkpt><trkpt lat="41.82773413786105" lon="13.32074522136927"><ele>1552.0</ele><time>2026-04-11T13:32:19Z</time></trkpt><trkpt lat="41.82789694972254" lon="13.320607619046912"><ele>1551.0</ele><time>2026-04-11T13:32:20Z</time></trkpt><trkpt lat="41.828056557153666" lon="13.320476511390911"><ele>1551.0</ele><time>2026-04-11T13:32:21Z</time></trkpt><trkpt lat="41.82821277834776" lon="13.320343020439788"><ele>1551.0</ele><time>2026-04-11T13:32:22Z</time></trkpt><trkpt lat="41.82837028795781" lon="13.320218946574997"><ele>1551.0</ele><time>2026-04-11T13:32:23Z</time></trkpt><trkpt lat="41.82852149382269" lon="13.320104102097712"><ele>1557.3333333333335</ele><time>2026-04-11T13:32:24Z</time></trkpt><trkpt lat="41.828672637227015" lon="13.320033059296344"><ele>1563.6666666666667</ele><time>2026-04-11T13:32:25Z</time></trkpt><trkpt lat="41.8288041216736" lon="13.31994731841331"><ele>1570.0</ele><time>2026-04-11T13:32:26Z</time></trkpt><trkpt lat="41.82895201801526" lon="13.31990835798077"><ele>1570.0</ele><time>2026-04-11T13:32:27Z</time></trkpt><trkpt lat="41.829093498361416" lon="13.319871948871102"><ele>1570.0</ele><time>2026-04-11T13:32:28Z</time></trkpt><trkpt lat="41.829235605384625" lon="13.319842866842604"><ele>1570.0</ele><time>2026-04-11T13:32:29Z</time></trkpt><trkpt lat="41.829381098230655" lon="13.319815322701919"><ele>1570.0</ele><time>2026-04-11T13:32:30Z</time></trkpt><trkpt lat="41.8295055935642" lon="13.319782183632809"><ele>1571.0</ele><time>2026-04-11T13:32:31Z</time></trkpt><trkpt lat="41.82968635654996" lon="13.319852421049065"><ele>1572.0</ele><time>2026-04-11T13:32:32Z</time></trkpt><trkpt lat="41.829892802691944" lon="13.319894367356023"><ele>1573.0</ele><time>2026-04-11T13:32:33Z</time></trkpt><trkpt lat="41.8300193394806" lon="13.319835120506411"><ele>1567.3333333333335</ele><time>2026-04-11T13:32:34Z</time></trkpt><trkpt lat="41.830235189809514" lon="13.319944187443383"><ele>1561.6666666666665</ele><time>2026-04-11T13:32:35Z</time></trkpt><trkpt lat="41.8304272975534" lon="13.320034275999827"><ele>1556.0</ele><time>2026-04-11T13:32:36Z</time></trkpt><trkpt lat="41.83058511082703" lon="13.320124592961253"><ele>1556.0</ele><time>2026-04-11T13:32:37Z</time></trkpt><trkpt lat="41.830711193991185" lon="13.320214137386898"><ele>1556.0</ele><time>2026-04-11T13:32:38Z</time></trkpt><trkpt lat="41.83082919990547" lon="13.320311393007204"><ele>1556.0</ele><time>2026-04-11T13:32:39Z</time></trkpt><trkpt lat="41.830933832280984" lon="13.320442860414698"><ele>1556.0</ele><time>2026-04-11T13:32:40Z</time></trkpt><trkpt lat="41.83104306228619" lon="13.320815780446228"><ele>1556.5</ele><time>2026-04-11T13:32:41Z</time></trkpt><trkpt lat="41.831073349118476" lon="13.320978901320823"><ele>1557.0</ele><time>2026-04-11T13:32:42Z</time></trkpt><trkpt lat="41.83106258234665" lon="13.32115257153477"><ele>1557.5</ele><time>2026-04-11T13:32:43Z</time></trkpt><trkpt lat="41.83107498439808" lon="13.321349603313248"><ele>1558.0</ele><time>2026-04-11T13:32:44Z</time></trkpt><trkpt lat="41.83108088197781" lon="13.321555500025987"><ele>1560.3333333333335</ele><time>2026-04-11T13:32:45Z</time></trkpt><trkpt lat="41.83105607495391" lon="13.321789646849489"><ele>1562.6666666666665</ele><time>2026-04-11T13:32:46Z</time></trkpt><trkpt lat="41.83103087769299" lon="13.32199965185332"><ele>1565.0</ele><time>2026-04-11T13:32:47Z</time></trkpt><trkpt lat="41.83100748637484" lon="13.322204137261474"><ele>1575.5</ele><time>2026-04-11T13:32:48Z</time></trkpt><trkpt lat="41.830973055028046" lon="13.322398015541948"><ele>1586.0</ele><time>2026-04-11T13:32:49Z</time></trkpt><trkpt lat="41.830937573423114" lon="13.322598790164134"><ele>1596.5</ele><time>2026-04-11T13:32:50Z</time></trkpt><trkpt lat="41.830913003585984" lon="13.322749556614975"><ele>1607.0</ele><time>2026-04-11T13:32:51Z</time></trkpt><trkpt lat="41.83089723479325" lon="13.322896903597595"><ele>1607.0</ele><time>2026-04-11T13:32:52Z</time></trkpt><trkpt lat="41.83087930377445" lon="13.323010347940277"><ele>1607.0</ele><time>2026-04-11T13:32:53Z</time></trkpt><trkpt lat="41.83087483701705" lon="13.323126909140983"><ele>1607.0</ele><time>2026-04-11T13:32:54Z</time></trkpt><trkpt lat="41.83094881265026" lon="13.323236108632914"><ele>1607.0</ele><time>2026-04-11T13:32:55Z</time></trkpt><trkpt lat="41.83103797561668" lon="13.323315068630402"><ele>1607.0</ele><time>2026-04-11T13:32:56Z</time></trkpt><trkpt lat="41.831145514216345" lon="13.323343865133102"><ele>1608.25</ele><time>2026-04-11T13:32:57Z</time></trkpt><trkpt lat="41.83127349513866" lon="13.323357990415792"><ele>1609.5</ele><time>2026-04-11T13:32:58Z</time></trkpt><trkpt lat="41.83140046258448" lon="13.323349984209736"><ele>1610.75</ele><time>2026-04-11T13:32:59Z</time></trkpt><trkpt lat="41.83156728092338" lon="13.323317300165023"><ele>1612.0</ele><time>2026-04-11T13:33:00Z</time></trkpt><trkpt lat="41.831712371798574" lon="13.323321743388881"><ele>1616.6666666666667</ele><time>2026-04-11T13:33:01Z</time></trkpt><trkpt lat="41.831843585245615" lon="13.32332637479804"><ele>1621.3333333333335</ele><time>2026-04-11T13:33:02Z</time></trkpt><trkpt lat="41.83200548123676" lon="13.323221085463278"><ele>1626.0</ele><time>2026-04-11T13:33:03Z</time></trkpt><trkpt lat="41.83218021346237" lon="13.323111831766521"><ele>1618.5</ele><time>2026-04-11T13:33:04Z</time></trkpt><trkpt lat="41.83230366898446" lon="13.323018172633128"><ele>1611.0</ele><time>2026-04-11T13:33:05Z</time></trkpt><trkpt lat="41.83242690592505" lon="13.322960585027607"><ele>1603.5</ele><time>2026-04-11T13:33:06Z</time></trkpt><trkpt lat="41.8325475719504" lon="13.322944492007455"><ele>1596.0</ele><time>2026-04-11T13:33:07Z</time></trkpt><trkpt lat="41.832675580036124" lon="13.322981280634886"><ele>1593.0</ele><time>2026-04-11T13:33:08Z</time></trkpt><trkpt lat="41.83278118538085" lon="13.323023957759641"><ele>1590.0</ele><time>2026-04-11T13:33:09Z</time></trkpt><trkpt lat="41.83288018553795" lon="13.323098102345353"><ele>1587.0</ele><time>2026-04-11T13:33:10Z</time></trkpt><trkpt lat="41.83299486522417" lon="13.323139883497152"><ele>1584.0</ele><time>2026-04-11T13:33:11Z</time></trkpt><trkpt lat="41.833031914742605" lon="13.323513088815652"><ele>1591.0</ele><time>2026-04-11T13:33:12Z</time></trkpt><trkpt lat="41.83311666951138" lon="13.323655907890117"><ele>1598.0</ele><time>2026-04-11T13:33:13Z</time></trkpt><trkpt lat="41.833214784488156" lon="13.323771912025258"><ele>1605.0</ele><time>2026-04-11T13:33:14Z</time></trkpt><trkpt lat="41.83333554592586" lon="13.32384002577921"><ele>1612.0</ele><time>2026-04-11T13:33:15Z</time></trkpt><trkpt lat="41.83348013482431" lon="13.323903983689952"><ele>1618.75</ele><time>2026-04-11T13:33:16Z</time></trkpt><trkpt lat="41.83361279172897" lon="13.323957416173945"><ele>1625.5</ele><time>2026-04-11T13:33:17Z</time></trkpt><trkpt lat="41.83372642564382" lon="13.324007249562014"><ele>1632.25</ele><time>2026-04-11T13:33:18Z</time></trkpt><trkpt lat="41.83384953935676" lon="13.324016324137776"><ele>1639.0</ele><time>2026-04-11T13:33:19Z</time></trkpt><trkpt lat="41.833947254511365" lon="13.32401409449451"><ele>1639.0</ele><time>2026-04-11T13:33:20Z</time></trkpt><trkpt lat="41.83408142698013" lon="13.32399687272903"><ele>1639.0</ele><time>2026-04-11T13:33:21Z</time></trkpt><trkpt lat="41.83421250646486" lon="13.323968913288239"><ele>1639.0</ele><time>2026-04-11T13:33:22Z</time></trkpt><trkpt lat="41.83438877129703" lon="13.323855690901416"><ele>1634.0</ele><time>2026-04-11T13:33:23Z</time></trkpt><trkpt lat="41.83451319418864" lon="13.323835368723955"><ele>1629.0</ele><time>2026-04-11T13:33:24Z</time></trkpt><trkpt lat="41.83461338727554" lon="13.323838111994416"><ele>1624.0</ele><time>2026-04-11T13:33:25Z</time></trkpt><trkpt lat="41.83472214969503" lon="13.32382533875829"><ele>1619.0</ele><time>2026-04-11T13:33:26Z</time></trkpt><trkpt lat="41.834864723945" lon="13.323837794562563"><ele>1619.0</ele><time>2026-04-11T13:33:27Z</time></trkpt><trkpt lat="41.83498790186188" lon="13.323840471023333"><ele>1619.0</ele><time>2026-04-11T13:33:28Z</time></trkpt><trkpt lat="41.83513333063529" lon="13.323831315521149"><ele>1619.0</ele><time>2026-04-11T13:33:29Z</time></trkpt><trkpt lat="41.83525072015383" lon="13.323785863623026"><ele>1619.0</ele><time>2026-04-11T13:33:30Z</time></trkpt><trkpt lat="41.835347765093175" lon="13.323761511790096"><ele>1618.8000000000002</ele><time>2026-04-11T13:33:31Z</time></trkpt><trkpt lat="41.83541350003929" lon="13.323852034513196"><ele>1618.6000000000001</ele><time>2026-04-11T13:33:34Z</time></trkpt><trkpt lat="41.835436304386015" lon="13.32393515317112"><ele>1618.4</ele><time>2026-04-11T13:33:36Z</time></trkpt><trkpt lat="41.83537951330377" lon="13.32399063958319"><ele>1618.2</ele><time>2026-04-11T13:33:37Z</time></trkpt><trkpt lat="41.835263749735375" lon="13.32400962830233"><ele>1618.0</ele><time>2026-04-11T13:33:38Z</time></trkpt><trkpt lat="41.835145633686345" lon="13.324029190904144"><ele>1625.0</ele><time>2026-04-11T13:33:39Z</time></trkpt><trkpt lat="41.834954249461155" lon="13.324069325015355"><ele>1632.0</ele><time>2026-04-11T13:33:40Z</time></trkpt><trkpt lat="41.834795605094946" lon="13.324112090214202"><ele>1639.0</ele><time>2026-04-11T13:33:41Z</time></trkpt><trkpt lat="41.83464667008963" lon="13.324153111092782"><ele>1639.0</ele><time>2026-04-11T13:33:42Z</time></trkpt><trkpt lat="41.83449073940669" lon="13.324189224403987"><ele>1639.0</ele><time>2026-04-11T13:33:43Z</time></trkpt><trkpt lat="41.834325418914446" lon="13.324235774544634"><ele>1639.0</ele><time>2026-04-11T13:33:44Z</time></trkpt><trkpt lat="41.83416916269594" lon="13.324302673035456"><ele>1639.0</ele><time>2026-04-11T13:33:45Z</time></trkpt><trkpt lat="41.83400878060798" lon="13.324370078805138"><ele>1639.0</ele><time>2026-04-11T13:33:46Z</time></trkpt><trkpt lat="41.83386156973628" lon="13.324417212062977"><ele>1639.0</ele><time>2026-04-11T13:33:47Z</time></trkpt><trkpt lat="41.83373235958445" lon="13.324472181947721"><ele>1639.0</ele><time>2026-04-11T13:33:48Z</time></trkpt><trkpt lat="41.833615407605805" lon="13.324502092335456"><ele>1639.0</ele><time>2026-04-11T13:33:49Z</time></trkpt><trkpt lat="41.833469069466176" lon="13.32449288281818"><ele>1639.0</ele><time>2026-04-11T13:33:50Z</time></trkpt><trkpt lat="41.83332917160161" lon="13.32441951688384"><ele>1639.0</ele><time>2026-04-11T13:33:51Z</time></trkpt><trkpt lat="41.83318812694766" lon="13.32436590552454"><ele>1640.3333333333335</ele><time>2026-04-11T13:33:52Z</time></trkpt><trkpt lat="41.833032013328605" lon="13.324384804529569"><ele>1641.6666666666665</ele><time>2026-04-11T13:33:53Z</time></trkpt><trkpt lat="41.83287370845663" lon="13.324365505566897"><ele>1643.0</ele><time>2026-04-11T13:33:54Z</time></trkpt><trkpt lat="41.832771767517684" lon="13.324229092201353"><ele>1643.0</ele><time>2026-04-11T13:33:55Z</time></trkpt><trkpt lat="41.83267374885085" lon="13.324095514177387"><ele>1643.0</ele><time>2026-04-11T13:33:56Z</time></trkpt><trkpt lat="41.832568978867315" lon="13.323985425767383"><ele>1643.0</ele><time>2026-04-11T13:33:57Z</time></trkpt><trkpt lat="41.83247093168889" lon="13.323957211892793"><ele>1643.0</ele><time>2026-04-11T13:33:58Z</time></trkpt><trkpt lat="41.832375899260256" lon="13.323945221262964"><ele>1646.25</ele><time>2026-04-11T13:33:59Z</time></trkpt><trkpt lat="41.832253167651956" lon="13.323974453481474"><ele>1649.5</ele><time>2026-04-11T13:34:00Z</time></trkpt><trkpt lat="41.8321459802282" lon="13.324045605475893"><ele>1652.75</ele><time>2026-04-11T13:34:01Z</time></trkpt><trkpt lat="41.8319966021208" lon="13.324149305302942"><ele>1656.0</ele><time>2026-04-11T13:34:02Z</time></trkpt><trkpt lat="41.83185049858971" lon="13.324242375158576"><ele>1655.0</ele><time>2026-04-11T13:34:03Z</time></trkpt><trkpt lat="41.83169160786195" lon="13.32434959874028"><ele>1654.0</ele><time>2026-04-11T13:34:04Z</time></trkpt><trkpt lat="41.83152854195538" lon="13.324479082650914"><ele>1653.0</ele><time>2026-04-11T13:34:05Z</time></trkpt><trkpt lat="41.831362854543805" lon="13.324596164391304"><ele>1653.0</ele><time>2026-04-11T13:34:06Z</time></trkpt><trkpt lat="41.83119666318805" lon="13.3246701562088"><ele>1653.0</ele><time>2026-04-11T13:34:07Z</time></trkpt><trkpt lat="41.83102425381705" lon="13.324719648543713"><ele>1653.0</ele><time>2026-04-11T13:34:08Z</time></trkpt><trkpt lat="41.83086768391569" lon="13.324774981504643"><ele>1659.6666666666665</ele><time>2026-04-11T13:34:09Z</time></trkpt><trkpt lat="41.83072002238082" lon="13.324820901315821"><ele>1666.3333333333333</ele><time>2026-04-11T13:34:10Z</time></trkpt><trkpt lat="41.8305804300794" lon="13.324906199156416"><ele>1673.0</ele><time>2026-04-11T13:34:11Z</time></trkpt><trkpt lat="41.83045241295243" lon="13.32500754522669"><ele>1673.0</ele><time>2026-04-11T13:34:12Z</time></trkpt><trkpt lat="41.83032595440022" lon="13.32508573128849"><ele>1673.0</ele><time>2026-04-11T13:34:13Z</time></trkpt><trkpt lat="41.83021692409838" lon="13.325127318645002"><ele>1673.0</ele><time>2026-04-11T13:34:14Z</time></trkpt><trkpt lat="41.83012455086038" lon="13.32514433771655"><ele>1673.0</ele><time>2026-04-11T13:34:15Z</time></trkpt><trkpt lat="41.83004189446005" lon="13.32515718974669"><ele>1673.0</ele><time>2026-04-11T13:34:16Z</time></trkpt><trkpt lat="41.82996471999347" lon="13.325165967430664"><ele>1673.1666666666665</ele><time>2026-04-11T13:34:17Z</time></trkpt><trkpt lat="41.82989834957892" lon="13.325134802516608"><ele>1673.3333333333333</ele><time>2026-04-11T13:34:18Z</time></trkpt><trkpt lat="41.82981716968016" lon="13.325110585255633"><ele>1673.5</ele><time>2026-04-11T13:34:19Z</time></trkpt><trkpt lat="41.8297469848794" lon="13.32507009861064"><ele>1673.6666666666665</ele><time>2026-04-11T13:34:20Z</time></trkpt><trkpt lat="41.82969244806974" lon="13.32500565509575"><ele>1673.8333333333333</ele><time>2026-04-11T13:34:21Z</time></trkpt><trkpt lat="41.82964847722372" lon="13.324875123657698"><ele>1674.0</ele><time>2026-04-11T13:34:22Z</time></trkpt><trkpt lat="41.82962970392592" lon="13.324734561749718"><ele>1670.75</ele><time>2026-04-11T13:34:23Z</time></trkpt><trkpt lat="41.82960008065466" lon="13.32457856168521"><ele>1667.5</ele><time>2026-04-11T13:34:24Z</time></trkpt><trkpt lat="41.82958039466366" lon="13.324424052965997"><ele>1664.25</ele><time>2026-04-11T13:34:25Z</time></trkpt><trkpt lat="41.829551904876595" lon="13.324260971932464"><ele>1661.0</ele><time>2026-04-11T13:34:26Z</time></trkpt><trkpt lat="41.829534758737296" lon="13.324087791430637"><ele>1661.0</ele><time>2026-04-11T13:34:27Z</time></trkpt><trkpt lat="41.82951850420945" lon="13.32391075277278"><ele>1661.0</ele><time>2026-04-11T13:34:28Z</time></trkpt><trkpt lat="41.82949777293462" lon="13.323736331872748"><ele>1661.0</ele><time>2026-04-11T13:34:29Z</time></trkpt><trkpt lat="41.829473259335586" lon="13.323556256799991"><ele>1661.0</ele><time>2026-04-11T13:34:30Z</time></trkpt><trkpt lat="41.82943469231549" lon="13.323391139344357"><ele>1660.1999999999998</ele><time>2026-04-11T13:34:31Z</time></trkpt><trkpt lat="41.82938917626079" lon="13.323241453823126"><ele>1659.3999999999999</ele><time>2026-04-11T13:34:32Z</time></trkpt><trkpt lat="41.829346683740646" lon="13.323121473105612"><ele>1658.6</ele><time>2026-04-11T13:34:33Z</time></trkpt><trkpt lat="41.82928722515937" lon="13.323031620289019"><ele>1657.8</ele><time>2026-04-11T13:34:34Z</time></trkpt><trkpt lat="41.8292179428471" lon="13.322964119806661"><ele>1657.0</ele><time>2026-04-11T13:34:35Z</time></trkpt><trkpt lat="41.82912719750028" lon="13.322913838510335"><ele>1660.0</ele><time>2026-04-11T13:34:36Z</time></trkpt><trkpt lat="41.82902448283364" lon="13.322907047910766"><ele>1663.0</ele><time>2026-04-11T13:34:37Z</time></trkpt><trkpt lat="41.82892424675964" lon="13.322951274203138"><ele>1666.0</ele><time>2026-04-11T13:34:38Z</time></trkpt><trkpt lat="41.828815266500186" lon="13.322998295108292"><ele>1669.0</ele><time>2026-04-11T13:34:39Z</time></trkpt><trkpt lat="41.82873004255348" lon="13.323047577095156"><ele>1672.0</ele><time>2026-04-11T13:34:40Z</time></trkpt><trkpt lat="41.82864283736077" lon="13.323133661027327"><ele>1675.25</ele><time>2026-04-11T13:34:41Z</time></trkpt><trkpt lat="41.828553185968836" lon="13.323240704542707"><ele>1678.5</ele><time>2026-04-11T13:34:42Z</time></trkpt><trkpt lat="41.828501649448334" lon="13.323340520929628"><ele>1681.75</ele><time>2026-04-11T13:34:43Z</time></trkpt><trkpt lat="41.828423834743745" lon="13.323466808922884"><ele>1685.0</ele><time>2026-04-11T13:34:44Z</time></trkpt><trkpt lat="41.82827191732271" lon="13.323543907571384"><ele>1685.0</ele><time>2026-04-11T13:34:45Z</time></trkpt><trkpt lat="41.8281694058904" lon="13.323556243206788"><ele>1685.0</ele><time>2026-04-11T13:34:46Z</time></trkpt><trkpt lat="41.82809230580883" lon="13.323541601221079"><ele>1685.0</ele><time>2026-04-11T13:34:47Z</time></trkpt><trkpt lat="41.82799232391476" lon="13.323550586805224"><ele>1685.0</ele><time>2026-04-11T13:34:48Z</time></trkpt><trkpt lat="41.8279198998044" lon="13.32362677663683"><ele>1685.0</ele><time>2026-04-11T13:34:49Z</time></trkpt><trkpt lat="41.82765543858463" lon="13.323825768793455"><ele>1690.0</ele><time>2026-04-11T13:34:50Z</time></trkpt><trkpt lat="41.82755998993128" lon="13.323962981411807"><ele>1695.0</ele><time>2026-04-11T13:34:51Z</time></trkpt><trkpt lat="41.82747011700856" lon="13.324072809676471"><ele>1700.0</ele><time>2026-04-11T13:34:52Z</time></trkpt><trkpt lat="41.82736146289288" lon="13.324175665343036"><ele>1705.0</ele><time>2026-04-11T13:34:53Z</time></trkpt><trkpt lat="41.82726209640607" lon="13.324263658884046"><ele>1705.0</ele><time>2026-04-11T13:34:54Z</time></trkpt><trkpt lat="41.827124365476315" lon="13.324369104177908"><ele>1705.0</ele><time>2026-04-11T13:34:55Z</time></trkpt><trkpt lat="41.82699450602482" lon="13.324458735912202"><ele>1705.0</ele><time>2026-04-11T13:34:56Z</time></trkpt><trkpt lat="41.826851909378696" lon="13.324528199380808"><ele>1710.6666666666667</ele><time>2026-04-11T13:34:57Z</time></trkpt><trkpt lat="41.826683495025605" lon="13.324599134978572"><ele>1716.3333333333335</ele><time>2026-04-11T13:34:58Z</time></trkpt><trkpt lat="41.82650985567775" lon="13.324671691378187"><ele>1722.0</ele><time>2026-04-11T13:34:59Z</time></trkpt><trkpt lat="41.826295554773736" lon="13.324775292821332"><ele>1722.0</ele><time>2026-04-11T13:35:00Z</time></trkpt><trkpt lat="41.82611759806555" lon="13.324863900393694"><ele>1722.0</ele><time>2026-04-11T13:35:01Z</time></trkpt><trkpt lat="41.825974106155996" lon="13.32496521492174"><ele>1722.0</ele><time>2026-04-11T13:35:02Z</time></trkpt><trkpt lat="41.82587259439682" lon="13.32509803489255"><ele>1719.5</ele><time>2026-04-11T13:35:03Z</time></trkpt><trkpt lat="41.82580780419137" lon="13.325258858727642"><ele>1717.0</ele><time>2026-04-11T13:35:04Z</time></trkpt><trkpt lat="41.825772343677095" lon="13.325427877121658"><ele>1714.5</ele><time>2026-04-11T13:35:05Z</time></trkpt><trkpt lat="41.82574243404519" lon="13.325627519115836"><ele>1712.0</ele><time>2026-04-11T13:35:06Z</time></trkpt><trkpt lat="41.825753247034406" lon="13.325835347123473"><ele>1712.0</ele><time>2026-04-11T13:35:07Z</time></trkpt><trkpt lat="41.825753366408705" lon="13.3260549199975"><ele>1712.0</ele><time>2026-04-11T13:35:08Z</time></trkpt><trkpt lat="41.825752865280094" lon="13.32626777062952"><ele>1712.0</ele><time>2026-04-11T13:35:09Z</time></trkpt><trkpt lat="41.82579692113292" lon="13.326484280661806"><ele>1712.6666666666665</ele><time>2026-04-11T13:35:10Z</time></trkpt><trkpt lat="41.825889220588564" lon="13.32668007492928"><ele>1713.3333333333335</ele><time>2026-04-11T13:35:11Z</time></trkpt><trkpt lat="41.82596961313365" lon="13.326892089286472"><ele>1714.0</ele><time>2026-04-11T13:35:12Z</time></trkpt><trkpt lat="41.826072688502705" lon="13.327075363072804"><ele>1722.3333333333335</ele><time>2026-04-11T13:35:13Z</time></trkpt><trkpt lat="41.82616709268415" lon="13.327244512635867"><ele>1730.6666666666665</ele><time>2026-04-11T13:35:14Z</time></trkpt><trkpt lat="41.82628173791057" lon="13.327413155004383"><ele>1739.0</ele><time>2026-04-11T13:35:15Z</time></trkpt><trkpt lat="41.82642052344243" lon="13.327574724092882"><ele>1739.0</ele><time>2026-04-11T13:35:16Z</time></trkpt><trkpt lat="41.82654504934454" lon="13.327743835883346"><ele>1739.0</ele><time>2026-04-11T13:35:17Z</time></trkpt><trkpt lat="41.82667166768153" lon="13.32791861055328"><ele>1739.0</ele><time>2026-04-11T13:35:18Z</time></trkpt><trkpt lat="41.826814588205174" lon="13.328068967916266"><ele>1745.0</ele><time>2026-04-11T13:35:19Z</time></trkpt><trkpt lat="41.82695355828827" lon="13.328224598387312"><ele>1751.0</ele><time>2026-04-11T13:35:20Z</time></trkpt><trkpt lat="41.82708250675192" lon="13.328392302812459"><ele>1757.0</ele><time>2026-04-11T13:35:21Z</time></trkpt><trkpt lat="41.827170036851484" lon="13.328595448324274"><ele>1757.0</ele><time>2026-04-11T13:35:22Z</time></trkpt><trkpt lat="41.82725100789919" lon="13.328812118261368"><ele>1757.0</ele><time>2026-04-11T13:35:23Z</time></trkpt><trkpt lat="41.82734003957804" lon="13.329047532816206"><ele>1757.0</ele><time>2026-04-11T13:35:24Z</time></trkpt><trkpt lat="41.82741230363417" lon="13.3292841276499"><ele>1757.0</ele><time>2026-04-11T13:35:25Z</time></trkpt><trkpt lat="41.82752497372464" lon="13.329494561091773"><ele>1757.0</ele><time>2026-04-11T13:35:26Z</time></trkpt><trkpt lat="41.827654335715245" lon="13.329679543720045"><ele>1757.0</ele><time>2026-04-11T13:35:27Z</time></trkpt><trkpt lat="41.82776567051827" lon="13.32987819955489"><ele>1757.0</ele><time>2026-04-11T13:35:28Z</time></trkpt><trkpt lat="41.82786872299806" lon="13.330076948335448"><ele>1757.0</ele><time>2026-04-11T13:35:29Z</time></trkpt><trkpt lat="41.8279618805316" lon="13.330260478456694"><ele>1757.0</ele><time>2026-04-11T13:35:30Z</time></trkpt><trkpt lat="41.828051372612975" lon="13.330424123194124"><ele>1750.6666666666665</ele><time>2026-04-11T13:35:31Z</time></trkpt><trkpt lat="41.8281658000257" lon="13.330571182059328"><ele>1744.3333333333335</ele><time>2026-04-11T13:35:32Z</time></trkpt><trkpt lat="41.82830580835914" lon="13.330656807123228"><ele>1738.0</ele><time>2026-04-11T13:35:33Z</time></trkpt><trkpt lat="41.828469349812025" lon="13.330721512222777"><ele>1744.6666666666667</ele><time>2026-04-11T13:35:34Z</time></trkpt><trkpt lat="41.828622236617264" lon="13.330828612880767"><ele>1751.3333333333335</ele><time>2026-04-11T13:35:35Z</time></trkpt><trkpt lat="41.82876767002734" lon="13.330929941007998"><ele>1758.0</ele><time>2026-04-11T13:35:36Z</time></trkpt><trkpt lat="41.82889471136056" lon="13.331001155044188"><ele>1758.0</ele><time>2026-04-11T13:35:37Z</time></trkpt><trkpt lat="41.82905957491556" lon="13.331014210278447"><ele>1758.0</ele><time>2026-04-11T13:35:38Z</time></trkpt><trkpt lat="41.82922428314856" lon="13.33100146184256"><ele>1758.0</ele><time>2026-04-11T13:35:39Z</time></trkpt><trkpt lat="41.829384022390755" lon="13.331090402982195"><ele>1756.3333333333335</ele><time>2026-04-11T13:35:40Z</time></trkpt><trkpt lat="41.829538441587154" lon="13.331196672149284"><ele>1754.6666666666667</ele><time>2026-04-11T13:35:41Z</time></trkpt><trkpt lat="41.829682901541325" lon="13.33131451628977"><ele>1753.0</ele><time>2026-04-11T13:35:42Z</time></trkpt><trkpt lat="41.829832370191795" lon="13.331454507739704"><ele>1753.0</ele><time>2026-04-11T13:35:43Z</time></trkpt><trkpt lat="41.82997605399941" lon="13.331597582645804"><ele>1753.0</ele><time>2026-04-11T13:35:44Z</time></trkpt><trkpt lat="41.83012096395837" lon="13.331742310544586"><ele>1753.0</ele><time>2026-04-11T13:35:45Z</time></trkpt><trkpt lat="41.830274666775914" lon="13.331894557808326"><ele>1758.3333333333335</ele><time>2026-04-11T13:35:46Z</time></trkpt><trkpt lat="41.830414466100265" lon="13.332045729169096"><ele>1763.6666666666665</ele><time>2026-04-11T13:35:47Z</time></trkpt><trkpt lat="41.83053891224918" lon="13.332209213492169"><ele>1769.0</ele><time>2026-04-11T13:35:48Z</time></trkpt><trkpt lat="41.830630162115895" lon="13.332428393751698"><ele>1769.0</ele><time>2026-04-11T13:35:49Z</time></trkpt><trkpt lat="41.83069718338057" lon="13.332653265437662"><ele>1769.0</ele><time>2026-04-11T13:35:50Z</time></trkpt><trkpt lat="41.8307368525988" lon="13.33289298132238"><ele>1769.0</ele><time>2026-04-11T13:35:51Z</time></trkpt><trkpt lat="41.83074740072051" lon="13.333135307914787"><ele>1768.5</ele><time>2026-04-11T13:35:52Z</time></trkpt><trkpt lat="41.83076706513267" lon="13.333349934303238"><ele>1768.0</ele><time>2026-04-11T13:35:53Z</time></trkpt><trkpt lat="41.830805409715225" lon="13.333535535487599"><ele>1767.5</ele><time>2026-04-11T13:35:54Z</time></trkpt><trkpt lat="41.83087207113603" lon="13.333703310708197"><ele>1767.0</ele><time>2026-04-11T13:35:55Z</time></trkpt><trkpt lat="41.830990387685965" lon="13.333833943257131"><ele>1769.0</ele><time>2026-04-11T13:35:56Z</time></trkpt><trkpt lat="41.83111825325168" lon="13.333952259470792"><ele>1771.0</ele><time>2026-04-11T13:35:57Z</time></trkpt><trkpt lat="41.83121629547209" lon="13.334092312318475"><ele>1773.0</ele><time>2026-04-11T13:35:58Z</time></trkpt><trkpt lat="41.83128144596316" lon="13.334276361549023"><ele>1773.0</ele><time>2026-04-11T13:35:59Z</time></trkpt><trkpt lat="41.831302409794205" lon="13.334495684394414"><ele>1773.0</ele><time>2026-04-11T13:36:00Z</time></trkpt><trkpt lat="41.83131605188995" lon="13.33472280546721"><ele>1773.0</ele><time>2026-04-11T13:36:01Z</time></trkpt><trkpt lat="41.83135622129229" lon="13.334951603126228"><ele>1772.6666666666665</ele><time>2026-04-11T13:36:02Z</time></trkpt><trkpt lat="41.83142425770013" lon="13.335172648778368"><ele>1772.3333333333333</ele><time>2026-04-11T13:36:03Z</time></trkpt><trkpt lat="41.83150912003515" lon="13.335380398790553"><ele>1772.0</ele><time>2026-04-11T13:36:04Z</time></trkpt><trkpt lat="41.831602608854574" lon="13.33557726970533"><ele>1772.0</ele><time>2026-04-11T13:36:05Z</time></trkpt><trkpt lat="41.83170728985773" lon="13.335775525915258"><ele>1772.0</ele><time>2026-04-11T13:36:06Z</time></trkpt><trkpt lat="41.83182296571862" lon="13.335984925847278"><ele>1772.0</ele><time>2026-04-11T13:36:07Z</time></trkpt><trkpt lat="41.831965698372464" lon="13.336202582613055"><ele>1774.6666666666665</ele><time>2026-04-11T13:36:08Z</time></trkpt><trkpt lat="41.83212406341339" lon="13.336395405819221"><ele>1777.3333333333335</ele><time>2026-04-11T13:36:09Z</time></trkpt><trkpt lat="41.83228763972356" lon="13.33653955269162"><ele>1780.0</ele><time>2026-04-11T13:36:10Z</time></trkpt><trkpt lat="41.83246550191011" lon="13.336663379320546"><ele>1780.0</ele><time>2026-04-11T13:36:11Z</time></trkpt><trkpt lat="41.83262536380765" lon="13.336759392173299"><ele>1780.0</ele><time>2026-04-11T13:36:12Z</time></trkpt><trkpt lat="41.832760747498675" lon="13.336822527336658"><ele>1780.0</ele><time>2026-04-11T13:36:13Z</time></trkpt><trkpt lat="41.83288288946399" lon="13.33686056491113"><ele>1780.0</ele><time>2026-04-11T13:36:14Z</time></trkpt><trkpt lat="41.83298387641629" lon="13.336859922539983"><ele>1781.6666666666667</ele><time>2026-04-11T13:36:15Z</time></trkpt><trkpt lat="41.83306528281639" lon="13.33684463485433"><ele>1783.3333333333335</ele><time>2026-04-11T13:36:16Z</time></trkpt><trkpt lat="41.8331307306699" lon="13.336815219478067"><ele>1785.0</ele><time>2026-04-11T13:36:17Z</time></trkpt><trkpt lat="41.83319202131348" lon="13.336785594100085"><ele>1786.6666666666665</ele><time>2026-04-11T13:36:18Z</time></trkpt><trkpt lat="41.83328250194527" lon="13.336724015351857"><ele>1788.3333333333333</ele><time>2026-04-11T13:36:20Z</time></trkpt><trkpt lat="41.833365338864375" lon="13.336726474803237"><ele>1790.0</ele><time>2026-04-11T13:36:22Z</time></trkpt><trkpt lat="41.83343520183558" lon="13.336765453965286"><ele>1791.2</ele><time>2026-04-11T13:36:23Z</time></trkpt><trkpt lat="41.83350132254816" lon="13.33678670834063"><ele>1792.4</ele><time>2026-04-11T13:36:24Z</time></trkpt><trkpt lat="41.83361135327846" lon="13.336786342647374"><ele>1793.6</ele><time>2026-04-11T13:36:26Z</time></trkpt><trkpt lat="41.83370914788059" lon="13.336769213383171"><ele>1794.8</ele><time>2026-04-11T13:36:27Z</time></trkpt><trkpt lat="41.83379133672894" lon="13.336849141993458"><ele>1796.0</ele><time>2026-04-11T13:36:29Z</time></trkpt><trkpt lat="41.83389530899623" lon="13.336921007318445"><ele>1795.9999999999998</ele><time>2026-04-11T13:36:31Z</time></trkpt><trkpt lat="41.83395772232267" lon="13.336942573344404"><ele>1796.0</ele><time>2026-04-11T13:36:32Z</time></trkpt><trkpt lat="41.8340248415907" lon="13.33695341110232"><ele>1796.0</ele><time>2026-04-11T13:36:33Z</time></trkpt><trkpt lat="41.83409508635621" lon="13.336944413123037"><ele>1796.0</ele><time>2026-04-11T13:36:34Z</time></trkpt><trkpt lat="41.83420800689049" lon="13.336934952072264"><ele>1795.9999999999998</ele><time>2026-04-11T13:36:36Z</time></trkpt><trkpt lat="41.834304884571345" lon="13.336939306158081"><ele>1796.0</ele><time>2026-04-11T13:36:38Z</time></trkpt><trkpt lat="41.83440353965971" lon="13.336950778524288"><ele>1796.7142857142856</ele><time>2026-04-11T13:36:40Z</time></trkpt><trkpt lat="41.83449033909119" lon="13.336985636796404"><ele>1797.428571428571</ele><time>2026-04-11T13:36:42Z</time></trkpt><trkpt lat="41.8345530263815" lon="13.337015887289352"><ele>1798.142857142857</ele><time>2026-04-11T13:36:44Z</time></trkpt><trkpt lat="41.83462974574388" lon="13.337041159258433"><ele>1798.8571428571427</ele><time>2026-04-11T13:36:47Z</time></trkpt><trkpt lat="41.83469131632847" lon="13.337065919939807"><ele>1799.5714285714284</ele><time>2026-04-11T13:36:49Z</time></trkpt><trkpt lat="41.8347607324713" lon="13.337064887957917"><ele>1800.2857142857142</ele><time>2026-04-11T13:36:51Z</time></trkpt><trkpt lat="41.83482851625332" lon="13.337056709423043"><ele>1801.0</ele><time>2026-04-11T13:36:53Z</time></trkpt><trkpt lat="41.834891059497885" lon="13.337009382813703"><ele>1801.0</ele><time>2026-04-11T13:36:56Z</time></trkpt><trkpt lat="41.83494358521656" lon="13.33695659911073"><ele>1801.0</ele><time>2026-04-11T13:37:00Z</time></trkpt><trkpt lat="41.83493279554486" lon="13.336867397164717"><ele>1801.0</ele><time>2026-04-11T13:40:48Z</time></trkpt><trkpt lat="41.834865906133906" lon="13.336857287845591"><ele>1801.0</ele><time>2026-04-11T13:41:01Z</time></trkpt><trkpt lat="41.834800263010784" lon="13.33682594690549"><ele>1801.0</ele><time>2026-04-11T13:42:06Z</time></trkpt><trkpt lat="41.83479419694351" lon="13.33667997294544"><ele>1801.0</ele><time>2026-04-11T13:42:53Z</time></trkpt><trkpt lat="41.83481348977424" lon="13.336765679714793"><ele>1801.0</ele><time>2026-04-11T13:43:04Z</time></trkpt><trkpt lat="41.83482943820663" lon="13.336850515878115"><ele>1801.0</ele><time>2026-04-11T13:43:07Z</time></trkpt><trkpt lat="41.834850575095295" lon="13.336940415822934"><ele>1801.0</ele><time>2026-04-11T13:59:35Z</time></trkpt><trkpt lat="41.834898540261584" lon="13.337002828949888"><ele>1801.0</ele><time>2026-04-11T13:59:42Z</time></trkpt><trkpt lat="41.83496235230287" lon="13.337020522765917"><ele>1801.0</ele><time>2026-04-11T13:59:49Z</time></trkpt><trkpt lat="41.83503301869839" lon="13.33702637551043"><ele>1801.0</ele><time>2026-04-11T13:59:58Z</time></trkpt><trkpt lat="41.83507754330246" lon="13.3369584636437"><ele>1801.0</ele><time>2026-04-11T14:00:07Z</time></trkpt><trkpt lat="41.8351322656517" lon="13.337002858127189"><ele>1801.0</ele><time>2026-04-11T14:01:21Z</time></trkpt><trkpt lat="41.83516342605645" lon="13.337082008224867"><ele>1800.5714285714287</ele><time>2026-04-11T14:01:27Z</time></trkpt><trkpt lat="41.8352005154652" lon="13.33716441970743"><ele>1800.1428571428569</ele><time>2026-04-11T14:01:34Z</time></trkpt><trkpt lat="41.83525399682397" lon="13.337228398157768"><ele>1799.7142857142856</ele><time>2026-04-11T14:01:41Z</time></trkpt><trkpt lat="41.835300779169145" lon="13.337293129104728"><ele>1799.2857142857142</ele><time>2026-04-11T14:01:48Z</time></trkpt><trkpt lat="41.835338679029306" lon="13.33737529720056"><ele>1798.8571428571427</ele><time>2026-04-11T14:01:55Z</time></trkpt><trkpt lat="41.83537498410813" lon="13.337449024459655"><ele>1798.428571428571</ele><time>2026-04-11T14:02:02Z</time></trkpt><trkpt lat="41.83541171782421" lon="13.337524616456951"><ele>1797.9999999999998</ele><time>2026-04-11T14:02:11Z</time></trkpt><trkpt lat="41.83543697768199" lon="13.337443621895895"><ele>1797.9999999999998</ele><time>2026-04-11T14:04:02Z</time></trkpt><trkpt lat="41.83539880561556" lon="13.337373106806107"><ele>1798.0</ele><time>2026-04-11T14:04:09Z</time></trkpt><trkpt lat="41.83535825683294" lon="13.337302067274017"><ele>1797.9999999999998</ele><time>2026-04-11T14:04:16Z</time></trkpt><trkpt lat="41.83531390854927" lon="13.337228975191898"><ele>1797.9999999999998</ele><time>2026-04-11T14:04:24Z</time></trkpt><trkpt lat="41.835263656713" lon="13.337177149600606"><ele>1798.0</ele><time>2026-04-11T14:04:32Z</time></trkpt><trkpt lat="41.835215058496466" lon="13.337109161789325"><ele>1797.9999999999998</ele><time>2026-04-11T14:04:49Z</time></trkpt><trkpt lat="41.835160015855266" lon="13.337051285873953"><ele>1797.9999999999998</ele><time>2026-04-11T14:04:57Z</time></trkpt><trkpt lat="41.835096255087464" lon="13.337008850958089"><ele>1798.5000000000002</ele><time>2026-04-11T14:05:05Z</time></trkpt><trkpt lat="41.83504304593255" lon="13.336958000099933"><ele>1799.0</ele><time>2026-04-11T14:05:15Z</time></trkpt><trkpt lat="41.83497960460097" lon="13.33696111163167"><ele>1799.5</ele><time>2026-04-11T14:05:22Z</time></trkpt><trkpt lat="41.8349605796055" lon="13.336859608820378"><ele>1800.0</ele><time>2026-04-11T14:14:32Z</time></trkpt><trkpt lat="41.83489775098829" lon="13.33694190474515"><ele>1800.5000000000002</ele><time>2026-04-11T14:15:39Z</time></trkpt><trkpt lat="41.834820232067884" lon="13.3369794454523"><ele>1801.0</ele><time>2026-04-11T14:15:41Z</time></trkpt><trkpt lat="41.834742911606334" lon="13.336980252197051"><ele>1801.0</ele><time>2026-04-11T14:15:43Z</time></trkpt><trkpt lat="41.83466774060455" lon="13.33696593100341"><ele>1801.0</ele><time>2026-04-11T14:15:45Z</time></trkpt><trkpt lat="41.83458346491306" lon="13.336955949881986"><ele>1801.0</ele><time>2026-04-11T14:15:48Z</time></trkpt><trkpt lat="41.834508295914944" lon="13.336905706971887"><ele>1801.0</ele><time>2026-04-11T14:15:51Z</time></trkpt><trkpt lat="41.83443105923263" lon="13.336880490839407"><ele>1801.0</ele><time>2026-04-11T14:15:53Z</time></trkpt><trkpt lat="41.834292278948865" lon="13.336849046279909"><ele>1800.0</ele><time>2026-04-11T14:15:55Z</time></trkpt><trkpt lat="41.8341892666976" lon="13.336843036512311"><ele>1799.0</ele><time>2026-04-11T14:15:56Z</time></trkpt><trkpt lat="41.83410924499085" lon="13.336828755311718"><ele>1798.0</ele><time>2026-04-11T14:15:57Z</time></trkpt><trkpt lat="41.83401924842559" lon="13.336803350958759"><ele>1797.0</ele><time>2026-04-11T14:15:59Z</time></trkpt><trkpt lat="41.83394727827179" lon="13.33674305508034"><ele>1796.0</ele><time>2026-04-11T14:16:01Z</time></trkpt><trkpt lat="41.83385390607965" lon="13.336690372600952"><ele>1795.9999999999998</ele><time>2026-04-11T14:16:03Z</time></trkpt><trkpt lat="41.83374261958423" lon="13.336652894998059"><ele>1796.0</ele><time>2026-04-11T14:16:05Z</time></trkpt><trkpt lat="41.833662599561926" lon="13.33664219377235"><ele>1796.0</ele><time>2026-04-11T14:16:07Z</time></trkpt><trkpt lat="41.83359840301619" lon="13.336632595056317"><ele>1796.0</ele><time>2026-04-11T14:16:09Z</time></trkpt><trkpt lat="41.83353316241297" lon="13.336633424912801"><ele>1795.9999999999998</ele><time>2026-04-11T14:16:11Z</time></trkpt><trkpt lat="41.83346927701126" lon="13.336631617676838"><ele>1796.0</ele><time>2026-04-11T14:16:13Z</time></trkpt><trkpt lat="41.83340660636575" lon="13.33659678678393"><ele>1794.9999999999998</ele><time>2026-04-11T14:16:15Z</time></trkpt><trkpt lat="41.833330922165175" lon="13.336540745341045"><ele>1794.0</ele><time>2026-04-11T14:16:17Z</time></trkpt><trkpt lat="41.83327720134463" lon="13.336437069134885"><ele>1793.0</ele><time>2026-04-11T14:16:19Z</time></trkpt><trkpt lat="41.833226779192074" lon="13.336294495207087"><ele>1792.0</ele><time>2026-04-11T14:16:21Z</time></trkpt><trkpt lat="41.83317933120292" lon="13.336235413058317"><ele>1790.9999999999998</ele><time>2026-04-11T14:16:22Z</time></trkpt><trkpt lat="41.833125737624144" lon="13.336179218994474"><ele>1790.0</ele><time>2026-04-11T14:16:23Z</time></trkpt><trkpt lat="41.833025104258326" lon="13.336115883973362"><ele>1788.8</ele><time>2026-04-11T14:16:25Z</time></trkpt><trkpt lat="41.83293266928986" lon="13.336110843364832"><ele>1787.6</ele><time>2026-04-11T14:16:27Z</time></trkpt><trkpt lat="41.83283948904978" lon="13.336143526461646"><ele>1786.4</ele><time>2026-04-11T14:16:29Z</time></trkpt><trkpt lat="41.83272062953249" lon="13.336218697437785"><ele>1785.2</ele><time>2026-04-11T14:16:31Z</time></trkpt><trkpt lat="41.83264908235125" lon="13.336258499139467"><ele>1784.0</ele><time>2026-04-11T14:16:32Z</time></trkpt><trkpt lat="41.83256709109052" lon="13.336298960931563"><ele>1783.9999999999998</ele><time>2026-04-11T14:16:33Z</time></trkpt><trkpt lat="41.832484894768946" lon="13.336320202763542"><ele>1784.0</ele><time>2026-04-11T14:16:34Z</time></trkpt><trkpt lat="41.832411829540575" lon="13.336326691829656"><ele>1784.0</ele><time>2026-04-11T14:16:35Z</time></trkpt><trkpt lat="41.832342806230244" lon="13.33632482436001"><ele>1784.0</ele><time>2026-04-11T14:16:36Z</time></trkpt><trkpt lat="41.83227131317417" lon="13.33630064772174"><ele>1783.9999999999998</ele><time>2026-04-11T14:16:37Z</time></trkpt><trkpt lat="41.832197346549165" lon="13.336246805824981"><ele>1784.0</ele><time>2026-04-11T14:16:38Z</time></trkpt><trkpt lat="41.832124612819406" lon="13.336163750547007"><ele>1784.0</ele><time>2026-04-11T14:16:39Z</time></trkpt><trkpt lat="41.8320568317216" lon="13.336060852520971"><ele>1784.0</ele><time>2026-04-11T14:16:40Z</time></trkpt><trkpt lat="41.83198365212948" lon="13.335941303436366"><ele>1784.0</ele><time>2026-04-11T14:16:41Z</time></trkpt><trkpt lat="41.83190581659522" lon="13.335828356405619"><ele>1784.0</ele><time>2026-04-11T14:16:42Z</time></trkpt><trkpt lat="41.83181442387007" lon="13.335706627799036"><ele>1781.6666666666665</ele><time>2026-04-11T14:16:43Z</time></trkpt><trkpt lat="41.83172191446477" lon="13.33556228716906"><ele>1779.3333333333335</ele><time>2026-04-11T14:16:44Z</time></trkpt><trkpt lat="41.83162574202713" lon="13.335396376052687"><ele>1777.0</ele><time>2026-04-11T14:16:45Z</time></trkpt><trkpt lat="41.831527032232906" lon="13.335203230119705"><ele>1777.0</ele><time>2026-04-11T14:16:46Z</time></trkpt><trkpt lat="41.831465236038596" lon="13.335017834427042"><ele>1777.0</ele><time>2026-04-11T14:16:47Z</time></trkpt><trkpt lat="41.83141849527049" lon="13.334827401257485"><ele>1777.0</ele><time>2026-04-11T14:16:48Z</time></trkpt><trkpt lat="41.831381889623216" lon="13.3346522902443"><ele>1777.0</ele><time>2026-04-11T14:16:49Z</time></trkpt><trkpt lat="41.831348005966404" lon="13.33448535033358"><ele>1776.1999999999998</ele><time>2026-04-11T14:16:50Z</time></trkpt><trkpt lat="41.83131479116258" lon="13.334335518724645"><ele>1775.3999999999999</ele><time>2026-04-11T14:16:51Z</time></trkpt><trkpt lat="41.83128802592982" lon="13.334191355937827"><ele>1774.6000000000001</ele><time>2026-04-11T14:16:52Z</time></trkpt><trkpt lat="41.83124504393691" lon="13.334062645042742"><ele>1773.8000000000002</ele><time>2026-04-11T14:16:53Z</time></trkpt><trkpt lat="41.83118294976482" lon="13.333954945666749"><ele>1773.0</ele><time>2026-04-11T14:16:54Z</time></trkpt><trkpt lat="41.831105928874024" lon="13.333852896282364"><ele>1771.5</ele><time>2026-04-11T14:16:55Z</time></trkpt><trkpt lat="41.83101724837534" lon="13.333759038466237"><ele>1770.0</ele><time>2026-04-11T14:16:56Z</time></trkpt><trkpt lat="41.8309325699768" lon="13.333654230152495"><ele>1768.5</ele><time>2026-04-11T14:16:57Z</time></trkpt><trkpt lat="41.830866668559636" lon="13.33352972593239"><ele>1767.0</ele><time>2026-04-11T14:16:58Z</time></trkpt><trkpt lat="41.83082336730658" lon="13.333393111789238"><ele>1767.5</ele><time>2026-04-11T14:16:59Z</time></trkpt><trkpt lat="41.83079311261075" lon="13.333252572858699"><ele>1768.0</ele><time>2026-04-11T14:17:00Z</time></trkpt><trkpt lat="41.83076593099785" lon="13.333105170491592"><ele>1768.5</ele><time>2026-04-11T14:17:01Z</time></trkpt><trkpt lat="41.830744060328264" lon="13.332953465377424"><ele>1769.0</ele><time>2026-04-11T14:17:02Z</time></trkpt><trkpt lat="41.83073056294828" lon="13.332798613562819"><ele>1769.0</ele><time>2026-04-11T14:17:03Z</time></trkpt><trkpt lat="41.83071259379305" lon="13.33265804934714"><ele>1769.0</ele><time>2026-04-11T14:17:04Z</time></trkpt><trkpt lat="41.830692832496176" lon="13.332557984323419"><ele>1769.0</ele><time>2026-04-11T14:17:05Z</time></trkpt><trkpt lat="41.830673136335164" lon="13.332471239601444"><ele>1769.0</ele><time>2026-04-11T14:17:06Z</time></trkpt><trkpt lat="41.83064315623338" lon="13.332362981369455"><ele>1769.0</ele><time>2026-04-11T14:17:07Z</time></trkpt><trkpt lat="41.83057720126127" lon="13.332222619604373"><ele>1771.5</ele><time>2026-04-11T14:17:08Z</time></trkpt><trkpt lat="41.830485855291585" lon="13.332084679636417"><ele>1774.0</ele><time>2026-04-11T14:17:09Z</time></trkpt><trkpt lat="41.830379017112435" lon="13.33195107313364"><ele>1776.5</ele><time>2026-04-11T14:17:10Z</time></trkpt><trkpt lat="41.830263244482616" lon="13.331816233563586"><ele>1779.0</ele><time>2026-04-11T14:17:11Z</time></trkpt><trkpt lat="41.830139818350126" lon="13.331665638653222"><ele>1777.3333333333335</ele><time>2026-04-11T14:17:12Z</time></trkpt><trkpt lat="41.82999957252856" lon="13.331528474511092"><ele>1775.6666666666667</ele><time>2026-04-11T14:17:13Z</time></trkpt><trkpt lat="41.82987088271901" lon="13.33140311710996"><ele>1774.0</ele><time>2026-04-11T14:17:14Z</time></trkpt><trkpt lat="41.82974435288455" lon="13.331293524088244"><ele>1774.0</ele><time>2026-04-11T14:17:15Z</time></trkpt><trkpt lat="41.829620276056765" lon="13.331190867612225"><ele>1774.0</ele><time>2026-04-11T14:17:16Z</time></trkpt><trkpt lat="41.829490102184735" lon="13.331101733738983"><ele>1774.0</ele><time>2026-04-11T14:17:17Z</time></trkpt><trkpt lat="41.82935769749782" lon="13.331026891707532"><ele>1774.0</ele><time>2026-04-11T14:17:18Z</time></trkpt><trkpt lat="41.82921855930021" lon="13.330968765590084"><ele>1770.0</ele><time>2026-04-11T14:17:19Z</time></trkpt><trkpt lat="41.82908541433592" lon="13.330927848258646"><ele>1766.0</ele><time>2026-04-11T14:17:20Z</time></trkpt><trkpt lat="41.82896300272127" lon="13.330928410583118"><ele>1762.0</ele><time>2026-04-11T14:17:21Z</time></trkpt><trkpt lat="41.828840144837876" lon="13.330897161739923"><ele>1758.0</ele><time>2026-04-11T14:17:22Z</time></trkpt><trkpt lat="41.82872083780511" lon="13.33082086731026"><ele>1758.0</ele><time>2026-04-11T14:17:23Z</time></trkpt><trkpt lat="41.82859364310317" lon="13.330721651648604"><ele>1758.0</ele><time>2026-04-11T14:17:24Z</time></trkpt><trkpt lat="41.82844925319472" lon="13.330632086268169"><ele>1758.0</ele><time>2026-04-11T14:17:25Z</time></trkpt><trkpt lat="41.828344294713084" lon="13.330583024736615"><ele>1758.0</ele><time>2026-04-11T14:17:26Z</time></trkpt><trkpt lat="41.828239598596" lon="13.330511373721414"><ele>1757.75</ele><time>2026-04-11T14:17:27Z</time></trkpt><trkpt lat="41.828137914354706" lon="13.330414983507463"><ele>1757.5</ele><time>2026-04-11T14:17:28Z</time></trkpt><trkpt lat="41.82804561401712" lon="13.330283799334225"><ele>1757.25</ele><time>2026-04-11T14:17:29Z</time></trkpt><trkpt lat="41.827957180836464" lon="13.330127880970846"><ele>1757.0</ele><time>2026-04-11T14:17:30Z</time></trkpt><trkpt lat="41.82787134311781" lon="13.329958991169631"><ele>1757.0</ele><time>2026-04-11T14:17:31Z</time></trkpt><trkpt lat="41.82778724972292" lon="13.329785147754341"><ele>1757.0</ele><time>2026-04-11T14:17:32Z</time></trkpt><trkpt lat="41.82770636116978" lon="13.329625229119696"><ele>1757.0</ele><time>2026-04-11T14:17:33Z</time></trkpt><trkpt lat="41.82763001085495" lon="13.329481675931836"><ele>1757.0</ele><time>2026-04-11T14:17:34Z</time></trkpt><trkpt lat="41.82755618768889" lon="13.329352107813001"><ele>1757.0</ele><time>2026-04-11T14:17:35Z</time></trkpt><trkpt lat="41.82749323663796" lon="13.329223626574853"><ele>1757.0</ele><time>2026-04-11T14:17:36Z</time></trkpt><trkpt lat="41.82743803038182" lon="13.329094546126607"><ele>1757.0</ele><time>2026-04-11T14:17:37Z</time></trkpt><trkpt lat="41.82738328853226" lon="13.328954632806234"><ele>1757.0</ele><time>2026-04-11T14:17:38Z</time></trkpt><trkpt lat="41.82732841846993" lon="13.328808921916746"><ele>1757.0</ele><time>2026-04-11T14:17:39Z</time></trkpt><trkpt lat="41.827268154609754" lon="13.328666249435907"><ele>1757.0</ele><time>2026-04-11T14:17:40Z</time></trkpt><trkpt lat="41.82720579917233" lon="13.328512005170339"><ele>1757.0</ele><time>2026-04-11T14:17:41Z</time></trkpt><trkpt lat="41.82713002041022" lon="13.328367312119395"><ele>1757.0</ele><time>2026-04-11T14:17:42Z</time></trkpt><trkpt lat="41.82703859026296" lon="13.328230858527121"><ele>1757.0</ele><time>2026-04-11T14:17:43Z</time></trkpt><trkpt lat="41.8269364276072" lon="13.328105180215083"><ele>1757.0</ele><time>2026-04-11T14:17:44Z</time></trkpt><trkpt lat="41.82683507067266" lon="13.32797981388719"><ele>1757.0</ele><time>2026-04-11T14:17:45Z</time></trkpt><trkpt lat="41.82672675554612" lon="13.32786119285166"><ele>1757.0</ele><time>2026-04-11T14:17:46Z</time></trkpt><trkpt lat="41.826626340397674" lon="13.327739672827018"><ele>1752.5</ele><time>2026-04-11T14:17:47Z</time></trkpt><trkpt lat="41.82653882230768" lon="13.327617233228557"><ele>1748.0</ele><time>2026-04-11T14:17:48Z</time></trkpt><trkpt lat="41.8264507399853" lon="13.32748742126554"><ele>1743.5</ele><time>2026-04-11T14:17:49Z</time></trkpt><trkpt lat="41.826362221106024" lon="13.327360234366166"><ele>1739.0</ele><time>2026-04-11T14:17:50Z</time></trkpt><trkpt lat="41.826276093926786" lon="13.327245119837313"><ele>1743.0</ele><time>2026-04-11T14:17:51Z</time></trkpt><trkpt lat="41.82619436559787" lon="13.327131490150654"><ele>1747.0</ele><time>2026-04-11T14:17:52Z</time></trkpt><trkpt lat="41.826117921731786" lon="13.327007382568956"><ele>1751.0</ele><time>2026-04-11T14:17:53Z</time></trkpt><trkpt lat="41.82604953073444" lon="13.3268577422187"><ele>1755.0</ele><time>2026-04-11T14:17:54Z</time></trkpt><trkpt lat="41.82598937830594" lon="13.32669795547496"><ele>1744.75</ele><time>2026-04-11T14:17:55Z</time></trkpt><trkpt lat="41.82593724976581" lon="13.326548475137704"><ele>1734.5</ele><time>2026-04-11T14:17:56Z</time></trkpt><trkpt lat="41.82588809163516" lon="13.326408696072674"><ele>1724.25</ele><time>2026-04-11T14:17:57Z</time></trkpt><trkpt lat="41.825844691638636" lon="13.326264215681196"><ele>1714.0</ele><time>2026-04-11T14:17:58Z</time></trkpt><trkpt lat="41.82582398858434" lon="13.326104020216054"><ele>1713.5</ele><time>2026-04-11T14:17:59Z</time></trkpt><trkpt lat="41.8258287937651" lon="13.325942952293483"><ele>1713.0</ele><time>2026-04-11T14:18:00Z</time></trkpt><trkpt lat="41.82575245609064" lon="13.325820934767245"><ele>1712.5</ele><time>2026-04-11T14:18:01Z</time></trkpt><trkpt lat="41.82576702077679" lon="13.32565203792246"><ele>1712.0</ele><time>2026-04-11T14:18:02Z</time></trkpt><trkpt lat="41.82578500832862" lon="13.325473244977289"><ele>1714.5</ele><time>2026-04-11T14:18:03Z</time></trkpt><trkpt lat="41.82582758558712" lon="13.325313888298073"><ele>1717.0</ele><time>2026-04-11T14:18:04Z</time></trkpt><trkpt lat="41.82585791669864" lon="13.32515859253997"><ele>1719.5</ele><time>2026-04-11T14:18:05Z</time></trkpt><trkpt lat="41.82592868630708" lon="13.325043803906611"><ele>1722.0</ele><time>2026-04-11T14:18:06Z</time></trkpt><trkpt lat="41.82600844087833" lon="13.324944018308672"><ele>1722.0</ele><time>2026-04-11T14:18:07Z</time></trkpt><trkpt lat="41.82607707106314" lon="13.324834241904744"><ele>1721.9999999999998</ele><time>2026-04-11T14:18:08Z</time></trkpt><trkpt lat="41.8261611823433" lon="13.3247390310697"><ele>1721.9999999999998</ele><time>2026-04-11T14:18:09Z</time></trkpt><trkpt lat="41.82625504697601" lon="13.324667798446262"><ele>1722.0</ele><time>2026-04-11T14:18:10Z</time></trkpt><trkpt lat="41.8263536999354" lon="13.324587349611647"><ele>1722.0</ele><time>2026-04-11T14:18:11Z</time></trkpt><trkpt lat="41.826469197040545" lon="13.3245193128455"><ele>1716.3333333333335</ele><time>2026-04-11T14:18:12Z</time></trkpt><trkpt lat="41.826614878157294" lon="13.32446811400252"><ele>1710.6666666666667</ele><time>2026-04-11T14:18:13Z</time></trkpt><trkpt lat="41.826773047340474" lon="13.324391587019358"><ele>1705.0</ele><time>2026-04-11T14:18:14Z</time></trkpt><trkpt lat="41.82691618211184" lon="13.324332467149963"><ele>1705.0</ele><time>2026-04-11T14:18:15Z</time></trkpt><trkpt lat="41.82705900112211" lon="13.324267759238852"><ele>1705.0</ele><time>2026-04-11T14:18:16Z</time></trkpt><trkpt lat="41.82720214353496" lon="13.324195217114548"><ele>1705.0</ele><time>2026-04-11T14:18:17Z</time></trkpt><trkpt lat="41.827342162632114" lon="13.324111559124177"><ele>1705.0</ele><time>2026-04-11T14:18:18Z</time></trkpt><trkpt lat="41.82747108672072" lon="13.324032522087187"><ele>1705.0</ele><time>2026-04-11T14:18:19Z</time></trkpt><trkpt lat="41.82760568034703" lon="13.323956932969992"><ele>1705.0</ele><time>2026-04-11T14:18:20Z</time></trkpt><trkpt lat="41.82767074438343" lon="13.323824728276858"><ele>1705.0</ele><time>2026-04-11T14:18:21Z</time></trkpt><trkpt lat="41.82773267775322" lon="13.32373453404097"><ele>1701.0</ele><time>2026-04-11T14:18:22Z</time></trkpt><trkpt lat="41.82780542599833" lon="13.323663894866218"><ele>1697.0</ele><time>2026-04-11T14:18:23Z</time></trkpt><trkpt lat="41.8278824873961" lon="13.323601408552008"><ele>1693.0</ele><time>2026-04-11T14:18:24Z</time></trkpt><trkpt lat="41.82798266639114" lon="13.32355960835975"><ele>1689.0</ele><time>2026-04-11T14:18:25Z</time></trkpt><trkpt lat="41.82808018921229" lon="13.323554613836444"><ele>1685.0</ele><time>2026-04-11T14:18:26Z</time></trkpt><trkpt lat="41.82818314839617" lon="13.323570807926744"><ele>1685.0</ele><time>2026-04-11T14:18:27Z</time></trkpt><trkpt lat="41.82828455330699" lon="13.323579099699419"><ele>1685.0</ele><time>2026-04-11T14:18:28Z</time></trkpt><trkpt lat="41.82838779297343" lon="13.32356005217324"><ele>1685.0</ele><time>2026-04-11T14:18:29Z</time></trkpt><trkpt lat="41.82848699022001" lon="13.323492784172977"><ele>1685.0</ele><time>2026-04-11T14:18:30Z</time></trkpt><trkpt lat="41.82856571676606" lon="13.32339593296192"><ele>1685.0</ele><time>2026-04-11T14:18:31Z</time></trkpt><trkpt lat="41.828624161011724" lon="13.3232770436275"><ele>1685.4</ele><time>2026-04-11T14:18:32Z</time></trkpt><trkpt lat="41.82867836089359" lon="13.323193182067575"><ele>1685.8</ele><time>2026-04-11T14:18:33Z</time></trkpt><trkpt lat="41.82873053558601" lon="13.323116245953806"><ele>1686.1999999999998</ele><time>2026-04-11T14:18:34Z</time></trkpt><trkpt lat="41.82879345597773" lon="13.323050328489437"><ele>1686.6</ele><time>2026-04-11T14:18:35Z</time></trkpt><trkpt lat="41.82887907924293" lon="13.322991718808955"><ele>1687.0</ele><time>2026-04-11T14:18:36Z</time></trkpt><trkpt lat="41.82898932452486" lon="13.322942605419787"><ele>1684.0</ele><time>2026-04-11T14:18:37Z</time></trkpt><trkpt lat="41.829095384002656" lon="13.322916544085691"><ele>1681.0</ele><time>2026-04-11T14:18:38Z</time></trkpt><trkpt lat="41.8291757691288" lon="13.322920969584043"><ele>1678.0</ele><time>2026-04-11T14:18:39Z</time></trkpt><trkpt lat="41.829269182075315" lon="13.322973370339897"><ele>1675.0</ele><time>2026-04-11T14:18:40Z</time></trkpt><trkpt lat="41.82935188014292" lon="13.323062445868842"><ele>1672.0</ele><time>2026-04-11T14:18:41Z</time></trkpt><trkpt lat="41.82940341044997" lon="13.323161603870458"><ele>1669.5000000000002</ele><time>2026-04-11T14:18:42Z</time></trkpt><trkpt lat="41.829450199362405" lon="13.32325257804231"><ele>1667.0</ele><time>2026-04-11T14:18:43Z</time></trkpt><trkpt lat="41.82949231487199" lon="13.323334931466649"><ele>1664.5</ele><time>2026-04-11T14:18:44Z</time></trkpt><trkpt lat="41.829522988359386" lon="13.323439918239888"><ele>1662.0</ele><time>2026-04-11T14:18:45Z</time></trkpt><trkpt lat="41.82954414512004" lon="13.323555752313537"><ele>1659.5000000000002</ele><time>2026-04-11T14:18:46Z</time></trkpt><trkpt lat="41.8295541912898" lon="13.323669720961494"><ele>1657.0</ele><time>2026-04-11T14:18:47Z</time></trkpt><trkpt lat="41.82956066479888" lon="13.323797838955286"><ele>1657.8</ele><time>2026-04-11T14:18:48Z</time></trkpt><trkpt lat="41.829571173133594" lon="13.32393400326496"><ele>1658.6</ele><time>2026-04-11T14:18:49Z</time></trkpt><trkpt lat="41.82958242325688" lon="13.324080681185958"><ele>1659.3999999999999</ele><time>2026-04-11T14:18:50Z</time></trkpt><trkpt lat="41.82959791974595" lon="13.324220536171287"><ele>1660.1999999999998</ele><time>2026-04-11T14:18:51Z</time></trkpt><trkpt lat="41.829612342325504" lon="13.324352885093894"><ele>1661.0</ele><time>2026-04-11T14:18:52Z</time></trkpt><trkpt lat="41.82963029661818" lon="13.324489917142502"><ele>1661.0</ele><time>2026-04-11T14:18:53Z</time></trkpt><trkpt lat="41.82964636170056" lon="13.324633138842279"><ele>1661.0</ele><time>2026-04-11T14:18:54Z</time></trkpt><trkpt lat="41.82967595278635" lon="13.324762886273417"><ele>1661.0</ele><time>2026-04-11T14:18:55Z</time></trkpt><trkpt lat="41.82970397503259" lon="13.324885102570583"><ele>1661.0</ele><time>2026-04-11T14:18:56Z</time></trkpt><trkpt lat="41.82975224374814" lon="13.324990436230703"><ele>1661.0</ele><time>2026-04-11T14:18:57Z</time></trkpt><trkpt lat="41.829820839816755" lon="13.325067779542582"><ele>1663.4</ele><time>2026-04-11T14:18:58Z</time></trkpt><trkpt lat="41.829909283411766" lon="13.325125575947588"><ele>1665.8</ele><time>2026-04-11T14:18:59Z</time></trkpt><trkpt lat="41.83001339208224" lon="13.325157644456668"><ele>1668.2</ele><time>2026-04-11T14:19:00Z</time></trkpt><trkpt lat="41.83011611661213" lon="13.32515845931043"><ele>1670.6000000000001</ele><time>2026-04-11T14:19:01Z</time></trkpt><trkpt lat="41.83023395293966" lon="13.325137907466546"><ele>1673.0</ele><time>2026-04-11T14:19:02Z</time></trkpt><trkpt lat="41.83033809475653" lon="13.325105941596602"><ele>1673.0</ele><time>2026-04-11T14:19:03Z</time></trkpt><trkpt lat="41.83043107882067" lon="13.325078626503508"><ele>1673.0</ele><time>2026-04-11T14:19:04Z</time></trkpt><trkpt lat="41.83054096465308" lon="13.32504429618637"><ele>1673.0</ele><time>2026-04-11T14:19:05Z</time></trkpt><trkpt lat="41.83064067348678" lon="13.324997063522336"><ele>1673.0</ele><time>2026-04-11T14:19:06Z</time></trkpt><trkpt lat="41.83074521716225" lon="13.324934761361899"><ele>1673.0</ele><time>2026-04-11T14:19:07Z</time></trkpt><trkpt lat="41.83085626149102" lon="13.324866130701018"><ele>1673.0</ele><time>2026-04-11T14:19:08Z</time></trkpt><trkpt lat="41.830973420584726" lon="13.324809053006994"><ele>1673.0</ele><time>2026-04-11T14:19:09Z</time></trkpt><trkpt lat="41.831099698863376" lon="13.324758809685077"><ele>1673.0</ele><time>2026-04-11T14:19:10Z</time></trkpt><trkpt lat="41.83121107684835" lon="13.324700408837826"><ele>1673.0</ele><time>2026-04-11T14:19:11Z</time></trkpt><trkpt lat="41.83133127419826" lon="13.324654150960749"><ele>1666.3333333333333</ele><time>2026-04-11T14:19:12Z</time></trkpt><trkpt lat="41.83145943191566" lon="13.324606815366128"><ele>1659.6666666666665</ele><time>2026-04-11T14:19:13Z</time></trkpt><trkpt lat="41.83161051839149" lon="13.324539832106414"><ele>1653.0</ele><time>2026-04-11T14:19:14Z</time></trkpt><trkpt lat="41.831752230437594" lon="13.324432830267877"><ele>1653.75</ele><time>2026-04-11T14:19:15Z</time></trkpt><trkpt lat="41.8318933089356" lon="13.324338961777862"><ele>1654.5</ele><time>2026-04-11T14:19:15.999Z</time></trkpt><trkpt lat="41.83202863735819" lon="13.324252565068383"><ele>1655.25</ele><time>2026-04-11T14:19:16.999Z</time></trkpt><trkpt lat="41.832155032670165" lon="13.324176045018875"><ele>1656.0</ele><time>2026-04-11T14:19:17.999Z</time></trkpt><trkpt lat="41.83227708803295" lon="13.324110783754803"><ele>1656.0</ele><time>2026-04-11T14:19:18.999Z</time></trkpt><trkpt lat="41.83237835051748" lon="13.324065839424748"><ele>1656.0</ele><time>2026-04-11T14:19:19.999Z</time></trkpt><trkpt lat="41.83248698519257" lon="13.324039919493634"><ele>1656.0</ele><time>2026-04-11T14:19:20.999Z</time></trkpt><trkpt lat="41.832593414500586" lon="13.324037358379167"><ele>1656.0</ele><time>2026-04-11T14:19:21.999Z</time></trkpt><trkpt lat="41.832697372154335" lon="13.324012691926852"><ele>1656.0</ele><time>2026-04-11T14:19:22.999Z</time></trkpt><trkpt lat="41.832794704423215" lon="13.324095502598839"><ele>1652.75</ele><time>2026-04-11T14:19:23.999Z</time></trkpt><trkpt lat="41.832891686069566" lon="13.324165214843692"><ele>1649.5</ele><time>2026-04-11T14:19:24.999Z</time></trkpt><trkpt lat="41.83298683540953" lon="13.324243395511685"><ele>1646.25</ele><time>2026-04-11T14:19:26Z</time></trkpt><trkpt lat="41.83308560723358" lon="13.324336137100632"><ele>1643.0</ele><time>2026-04-11T14:19:27Z</time></trkpt><trkpt lat="41.833184407191744" lon="13.324407591972381"><ele>1643.0</ele><time>2026-04-11T14:19:28Z</time></trkpt><trkpt lat="41.833282397233205" lon="13.32444243544103"><ele>1643.0</ele><time>2026-04-11T14:19:29Z</time></trkpt><trkpt lat="41.83338357494351" lon="13.324454681285854"><ele>1643.0</ele><time>2026-04-11T14:19:30Z</time></trkpt><trkpt lat="41.8334844505216" lon="13.324466519896077"><ele>1643.0</ele><time>2026-04-11T14:19:31Z</time></trkpt><trkpt lat="41.83360330564283" lon="13.324500935089354"><ele>1643.0</ele><time>2026-04-11T14:19:32Z</time></trkpt><trkpt lat="41.833719463811526" lon="13.324537260569075"><ele>1642.0</ele><time>2026-04-11T14:19:33Z</time></trkpt><trkpt lat="41.83386034163636" lon="13.324540011109116"><ele>1641.0</ele><time>2026-04-11T14:19:34Z</time></trkpt><trkpt lat="41.83399602869677" lon="13.324504711866267"><ele>1640.0</ele><time>2026-04-11T14:19:35Z</time></trkpt><trkpt lat="41.83413875957356" lon="13.324424212888172"><ele>1639.0</ele><time>2026-04-11T14:19:36Z</time></trkpt><trkpt lat="41.83434361816015" lon="13.3243183066541"><ele>1639.0</ele><time>2026-04-11T14:19:37Z</time></trkpt><trkpt lat="41.83454438210368" lon="13.324248483495424"><ele>1639.0</ele><time>2026-04-11T14:19:38Z</time></trkpt><trkpt lat="41.83474251389815" lon="13.324174309150479"><ele>1639.0</ele><time>2026-04-11T14:19:39Z</time></trkpt><trkpt lat="41.834919741885614" lon="13.324122740051926"><ele>1639.0</ele><time>2026-04-11T14:19:40Z</time></trkpt><trkpt lat="41.83506180587806" lon="13.324080364412195"><ele>1639.0</ele><time>2026-04-11T14:19:41Z</time></trkpt><trkpt lat="41.83519495290877" lon="13.324044559144173"><ele>1639.0</ele><time>2026-04-11T14:19:42Z</time></trkpt><trkpt lat="41.83530826380824" lon="13.32400886587659"><ele>1639.0</ele><time>2026-04-11T14:19:43Z</time></trkpt><trkpt lat="41.83541739317422" lon="13.323970844132571"><ele>1635.5000000000002</ele><time>2026-04-11T14:19:44Z</time></trkpt><trkpt lat="41.835488515470075" lon="13.32391371029174"><ele>1632.0</ele><time>2026-04-11T14:19:45Z</time></trkpt><trkpt lat="41.8355245325546" lon="13.32382638325058"><ele>1628.5</ele><time>2026-04-11T14:19:46Z</time></trkpt><trkpt lat="41.83552901488309" lon="13.323708538278057"><ele>1625.0</ele><time>2026-04-11T14:19:47Z</time></trkpt><trkpt lat="41.83548329004858" lon="13.323598392950803"><ele>1621.5000000000002</ele><time>2026-04-11T14:19:48Z</time></trkpt><trkpt lat="41.83540373563566" lon="13.323508967894965"><ele>1618.0</ele><time>2026-04-11T14:19:49Z</time></trkpt><trkpt lat="41.835302539499416" lon="13.323472351966075"><ele>1618.25</ele><time>2026-04-11T14:19:50Z</time></trkpt><trkpt lat="41.83518369775199" lon="13.323494672854332"><ele>1618.5</ele><time>2026-04-11T14:19:51Z</time></trkpt><trkpt lat="41.83507924543517" lon="13.32357241285556"><ele>1618.75</ele><time>2026-04-11T14:19:52Z</time></trkpt><trkpt lat="41.834942900926215" lon="13.32363656636602"><ele>1619.0</ele><time>2026-04-11T14:19:53Z</time></trkpt><trkpt lat="41.83480964207746" lon="13.323678981181306"><ele>1619.0</ele><time>2026-04-11T14:19:54Z</time></trkpt><trkpt lat="41.83468077468065" lon="13.323699924405696"><ele>1619.0</ele><time>2026-04-11T14:19:55Z</time></trkpt><trkpt lat="41.834535735953686" lon="13.323707322592396"><ele>1619.0</ele><time>2026-04-11T14:19:56Z</time></trkpt><trkpt lat="41.83437584712487" lon="13.32372049820408"><ele>1619.0</ele><time>2026-04-11T14:19:57Z</time></trkpt><trkpt lat="41.83421404312888" lon="13.323754709526531"><ele>1616.0</ele><time>2026-04-11T14:19:58Z</time></trkpt><trkpt lat="41.83406761422434" lon="13.323797910399966"><ele>1613.0</ele><time>2026-04-11T14:19:59Z</time></trkpt><trkpt lat="41.833917743861605" lon="13.323835264341438"><ele>1610.0</ele><time>2026-04-11T14:20:00Z</time></trkpt><trkpt lat="41.83377078375681" lon="13.323867641106867"><ele>1610.0</ele><time>2026-04-11T14:20:01Z</time></trkpt><trkpt lat="41.8336063873522" lon="13.323878325998109"><ele>1610.0</ele><time>2026-04-11T14:20:02Z</time></trkpt><trkpt lat="41.83345568643834" lon="13.323834563836039"><ele>1610.0</ele><time>2026-04-11T14:20:03Z</time></trkpt><trkpt lat="41.83331386203785" lon="13.323762945106122"><ele>1610.5</ele><time>2026-04-11T14:20:04Z</time></trkpt><trkpt lat="41.833193844416755" lon="13.323696010350698"><ele>1611.0</ele><time>2026-04-11T14:20:05Z</time></trkpt><trkpt lat="41.83306589385921" lon="13.323620362005554"><ele>1611.5</ele><time>2026-04-11T14:20:06Z</time></trkpt><trkpt lat="41.832956620220166" lon="13.323503905319134"><ele>1612.0</ele><time>2026-04-11T14:20:07Z</time></trkpt><trkpt lat="41.83287983396443" lon="13.323338372910078"><ele>1612.0</ele><time>2026-04-11T14:20:08Z</time></trkpt><trkpt lat="41.8327903963398" lon="13.32318252835505"><ele>1612.0</ele><time>2026-04-11T14:20:09Z</time></trkpt><trkpt lat="41.832695007722215" lon="13.323026271442892"><ele>1612.0</ele><time>2026-04-11T14:20:10Z</time></trkpt><trkpt lat="41.832626155950805" lon="13.322897365313773"><ele>1612.0</ele><time>2026-04-11T14:20:11Z</time></trkpt><trkpt lat="41.832558934638456" lon="13.322784213945324"><ele>1608.0</ele><time>2026-04-11T14:20:12Z</time></trkpt><trkpt lat="41.83242846651429" lon="13.322770544978592"><ele>1604.0</ele><time>2026-04-11T14:20:14Z</time></trkpt><trkpt lat="41.832345826599834" lon="13.322834979623373"><ele>1600.0</ele><time>2026-04-11T14:20:15Z</time></trkpt><trkpt lat="41.83223075559595" lon="13.32291792755271"><ele>1596.0</ele><time>2026-04-11T14:20:16Z</time></trkpt><trkpt lat="41.832088012875936" lon="13.322993089219604"><ele>1601.3333333333335</ele><time>2026-04-11T14:20:17Z</time></trkpt><trkpt lat="41.83192281356785" lon="13.323074010876553"><ele>1606.6666666666667</ele><time>2026-04-11T14:20:18Z</time></trkpt><trkpt lat="41.8317753078704" lon="13.323132680265784"><ele>1612.0</ele><time>2026-04-11T14:20:19Z</time></trkpt><trkpt lat="41.83161997928087" lon="13.32318719802565"><ele>1612.0</ele><time>2026-04-11T14:20:20Z</time></trkpt><trkpt lat="41.8314641637008" lon="13.323232083057393"><ele>1612.0</ele><time>2026-04-11T14:20:21Z</time></trkpt><trkpt lat="41.831324937678254" lon="13.323211869096456"><ele>1612.0</ele><time>2026-04-11T14:20:22Z</time></trkpt><trkpt lat="41.83119659224755" lon="13.323235058362943"><ele>1612.0</ele><time>2026-04-11T14:20:23Z</time></trkpt><trkpt lat="41.83108186161401" lon="13.323241031121698"><ele>1612.0</ele><time>2026-04-11T14:20:24Z</time></trkpt><trkpt lat="41.830988710602526" lon="13.323156465530754"><ele>1612.0</ele><time>2026-04-11T14:20:25Z</time></trkpt><trkpt lat="41.830903580005305" lon="13.32307652250617"><ele>1612.0</ele><time>2026-04-11T14:20:26Z</time></trkpt><trkpt lat="41.830859879414604" lon="13.322958028514318"><ele>1612.0</ele><time>2026-04-11T14:20:27Z</time></trkpt><trkpt lat="41.830836876927" lon="13.322793611279717"><ele>1612.0</ele><time>2026-04-11T14:20:28Z</time></trkpt><trkpt lat="41.83084498809647" lon="13.32257930376065"><ele>1610.3333333333335</ele><time>2026-04-11T14:20:29Z</time></trkpt><trkpt lat="41.83086283854817" lon="13.322369031694295"><ele>1608.6666666666665</ele><time>2026-04-11T14:20:30Z</time></trkpt><trkpt lat="41.83089234762144" lon="13.322157341708271"><ele>1607.0</ele><time>2026-04-11T14:20:31Z</time></trkpt><trkpt lat="41.83096045065109" lon="13.321930990187157"><ele>1593.0</ele><time>2026-04-11T14:20:32Z</time></trkpt><trkpt lat="41.83100752084639" lon="13.321681247582793"><ele>1579.0</ele><time>2026-04-11T14:20:33Z</time></trkpt><trkpt lat="41.831033470375814" lon="13.321450591812825"><ele>1565.0</ele><time>2026-04-11T14:20:34Z</time></trkpt><trkpt lat="41.83103143842438" lon="13.321239354088227"><ele>1563.25</ele><time>2026-04-11T14:20:35Z</time></trkpt><trkpt lat="41.83103838268571" lon="13.321044008400815"><ele>1561.5</ele><time>2026-04-11T14:20:36Z</time></trkpt><trkpt lat="41.83102154786802" lon="13.320872515451365"><ele>1559.75</ele><time>2026-04-11T14:20:37Z</time></trkpt><trkpt lat="41.83102020909989" lon="13.320762279542722"><ele>1558.0</ele><time>2026-04-11T14:20:38Z</time></trkpt><trkpt lat="41.83100096827558" lon="13.320625557530908"><ele>1557.5</ele><time>2026-04-11T14:20:39Z</time></trkpt><trkpt lat="41.83092875269195" lon="13.32054331722842"><ele>1557.0</ele><time>2026-04-11T14:20:40Z</time></trkpt><trkpt lat="41.83082009013923" lon="13.320474180374442"><ele>1556.5</ele><time>2026-04-11T14:20:41Z</time></trkpt><trkpt lat="41.83067947869098" lon="13.320400272316277"><ele>1556.0</ele><time>2026-04-11T14:20:42Z</time></trkpt><trkpt lat="41.83051607725903" lon="13.320296711486076"><ele>1556.0</ele><time>2026-04-11T14:20:43Z</time></trkpt><trkpt lat="41.83034501804023" lon="13.320218025671567"><ele>1556.0</ele><time>2026-04-11T14:20:44Z</time></trkpt><trkpt lat="41.83017870816497" lon="13.32014808795796"><ele>1556.0</ele><time>2026-04-11T14:20:45Z</time></trkpt><trkpt lat="41.8300007667422" lon="13.320085211081452"><ele>1561.6666666666665</ele><time>2026-04-11T14:20:46Z</time></trkpt><trkpt lat="41.82981408304195" lon="13.32004529054818"><ele>1567.3333333333335</ele><time>2026-04-11T14:20:47Z</time></trkpt><trkpt lat="41.82962375673638" lon="13.320004273285612"><ele>1573.0</ele><time>2026-04-11T14:20:48Z</time></trkpt><trkpt lat="41.82943267556214" lon="13.319960287672556"><ele>1572.0</ele><time>2026-04-11T14:20:49Z</time></trkpt><trkpt lat="41.82923469160354" lon="13.319910993540173"><ele>1571.0</ele><time>2026-04-11T14:20:50Z</time></trkpt><trkpt lat="41.82904656307864" lon="13.319876257785586"><ele>1570.0</ele><time>2026-04-11T14:20:51Z</time></trkpt><trkpt lat="41.828868698024195" lon="13.319870341666025"><ele>1570.0</ele><time>2026-04-11T14:20:52Z</time></trkpt><trkpt lat="41.82871057785335" lon="13.319863086133832"><ele>1570.0</ele><time>2026-04-11T14:20:53Z</time></trkpt><trkpt lat="41.82853171024285" lon="13.319942339088014"><ele>1570.0</ele><time>2026-04-11T14:20:54Z</time></trkpt><trkpt lat="41.828353725670254" lon="13.320050673881287"><ele>1563.6666666666667</ele><time>2026-04-11T14:20:55Z</time></trkpt><trkpt lat="41.828181307428196" lon="13.320194199587243"><ele>1557.3333333333335</ele><time>2026-04-11T14:20:56Z</time></trkpt><trkpt lat="41.82801298023218" lon="13.320342304753424"><ele>1551.0</ele><time>2026-04-11T14:20:57Z</time></trkpt><trkpt lat="41.827836758730506" lon="13.320503037597636"><ele>1552.0</ele><time>2026-04-11T14:20:58Z</time></trkpt><trkpt lat="41.82764875522203" lon="13.320662096022671"><ele>1553.0</ele><time>2026-04-11T14:20:59Z</time></trkpt><trkpt lat="41.82745774299407" lon="13.32081227710638"><ele>1554.0</ele><time>2026-04-11T14:21:00Z</time></trkpt><trkpt lat="41.82725333939693" lon="13.320946641524817"><ele>1554.0</ele><time>2026-04-11T14:21:01Z</time></trkpt><trkpt lat="41.82705149251622" lon="13.321083191782453"><ele>1554.0</ele><time>2026-04-11T14:21:02Z</time></trkpt><trkpt lat="41.826773356231605" lon="13.321164863002227"><ele>1557.0</ele><time>2026-04-11T14:21:03Z</time></trkpt><trkpt lat="41.826511348189634" lon="13.321294722832711"><ele>1560.0</ele><time>2026-04-11T14:21:04Z</time></trkpt><trkpt lat="41.826247771183894" lon="13.321417411080182"><ele>1551.0</ele><time>2026-04-11T14:21:05Z</time></trkpt><trkpt lat="41.82595889553681" lon="13.3215131031149"><ele>1542.0</ele><time>2026-04-11T14:21:06Z</time></trkpt><trkpt lat="41.8256368748351" lon="13.321611171399585"><ele>1542.0</ele><time>2026-04-11T14:21:07Z</time></trkpt><trkpt lat="41.82532552301953" lon="13.321721854869011"><ele>1542.0</ele><time>2026-04-11T14:21:08Z</time></trkpt><trkpt lat="41.825054947565285" lon="13.321808558025014"><ele>1530.5</ele><time>2026-04-11T14:21:09Z</time></trkpt><trkpt lat="41.82481281450921" lon="13.321888041951466"><ele>1519.0</ele><time>2026-04-11T14:21:10Z</time></trkpt><trkpt lat="41.82460110797076" lon="13.321949238049246"><ele>1519.0</ele><time>2026-04-11T14:21:11Z</time></trkpt><trkpt lat="41.82439834068443" lon="13.322023013969693"><ele>1519.0</ele><time>2026-04-11T14:21:12Z</time></trkpt><trkpt lat="41.82431654810794" lon="13.322193660048034"><ele>1519.0</ele><time>2026-04-11T14:21:12.999Z</time></trkpt><trkpt lat="41.82411657115245" lon="13.322332912444917"><ele>1522.0</ele><time>2026-04-11T14:21:13.999Z</time></trkpt><trkpt lat="41.82393337368765" lon="13.322475785784551"><ele>1525.0</ele><time>2026-04-11T14:21:14.999Z</time></trkpt><trkpt lat="41.82377245743456" lon="13.322611745948379"><ele>1528.0</ele><time>2026-04-11T14:21:15.999Z</time></trkpt><trkpt lat="41.82364558750196" lon="13.322778445611064"><ele>1528.0</ele><time>2026-04-11T14:21:16.999Z</time></trkpt><trkpt lat="41.82351946307775" lon="13.322914149060383"><ele>1528.0</ele><time>2026-04-11T14:21:17.999Z</time></trkpt><trkpt lat="41.82343039541547" lon="13.323080628364533"><ele>1528.0</ele><time>2026-04-11T14:21:18.999Z</time></trkpt><trkpt lat="41.82335099378662" lon="13.32325617419774"><ele>1524.75</ele><time>2026-04-11T14:21:19.999Z</time></trkpt><trkpt lat="41.823278374077574" lon="13.323428202419098"><ele>1521.5</ele><time>2026-04-11T14:21:20.999Z</time></trkpt><trkpt lat="41.8232521826927" lon="13.32361969874394"><ele>1518.25</ele><time>2026-04-11T14:21:21.999Z</time></trkpt><trkpt lat="41.82326422998879" lon="13.323825470285657"><ele>1515.0</ele><time>2026-04-11T14:21:22.999Z</time></trkpt><trkpt lat="41.82330298672669" lon="13.324050125198882"><ele>1515.0</ele><time>2026-04-11T14:21:23.999Z</time></trkpt><trkpt lat="41.82332194857101" lon="13.32428535930816"><ele>1515.0</ele><time>2026-04-11T14:21:24.999Z</time></trkpt><trkpt lat="41.823313302230986" lon="13.324511378153757"><ele>1515.0</ele><time>2026-04-11T14:21:25.999Z</time></trkpt><trkpt lat="41.8232906730507" lon="13.324720229769595"><ele>1517.6666666666667</ele><time>2026-04-11T14:21:26.999Z</time></trkpt><trkpt lat="41.82326085384997" lon="13.324919048505377"><ele>1520.3333333333335</ele><time>2026-04-11T14:21:27.999Z</time></trkpt><trkpt lat="41.823197790698494" lon="13.32512167984927"><ele>1523.0</ele><time>2026-04-11T14:21:28.999Z</time></trkpt><trkpt lat="41.823113129693056" lon="13.325288201789487"><ele>1523.0</ele><time>2026-04-11T14:21:29.999Z</time></trkpt><trkpt lat="41.82297519321875" lon="13.325430467412533"><ele>1523.0</ele><time>2026-04-11T14:21:30.999Z</time></trkpt><trkpt lat="41.82283090641818" lon="13.325576653071309"><ele>1523.0</ele><time>2026-04-11T14:21:32Z</time></trkpt><trkpt lat="41.822738303944824" lon="13.325730372241878"><ele>1516.3333333333335</ele><time>2026-04-11T14:21:33Z</time></trkpt><trkpt lat="41.822595072133055" lon="13.32585414259424"><ele>1509.6666666666667</ele><time>2026-04-11T14:21:34Z</time></trkpt><trkpt lat="41.822471760201715" lon="13.32598093890686"><ele>1503.0</ele><time>2026-04-11T14:21:35Z</time></trkpt><trkpt lat="41.82236456572641" lon="13.326099594459407"><ele>1503.0</ele><time>2026-04-11T14:21:36Z</time></trkpt><trkpt lat="41.822257640918764" lon="13.326224729315937"><ele>1503.0</ele><time>2026-04-11T14:21:37Z</time></trkpt><trkpt lat="41.822179391408426" lon="13.326372218595141"><ele>1503.0</ele><time>2026-04-11T14:21:38Z</time></trkpt><trkpt lat="41.82213804246577" lon="13.32661785164923"><ele>1508.0</ele><time>2026-04-11T14:21:39Z</time></trkpt><trkpt lat="41.82213275523714" lon="13.326800966105564"><ele>1513.0</ele><time>2026-04-11T14:21:40Z</time></trkpt><trkpt lat="41.81315723743674" lon="13.312178549950264"><ele>1425.5</ele><time>2026-04-11T13:25:51Z</time></trkpt><trkpt lat="41.8132441247508" lon="13.311977044335633"><ele>1338.0</ele><time>2026-04-11T13:25:52Z</time></trkpt><trkpt lat="41.81330592719256" lon="13.311868038877504"><ele>1250.5</ele><time>2026-04-11T13:25:53Z</time></trkpt><trkpt lat="41.813434883976505" lon="13.311794948325932"><ele>1163.0</ele><time>2026-04-11T13:25:54Z</time></trkpt><trkpt lat="41.81355592383089" lon="13.311670328477161"><ele>1163.0</ele><time>2026-04-11T13:25:55Z</time></trkpt><trkpt lat="41.81364503270324" lon="13.311505995154198"><ele>1163.0</ele><time>2026-04-11T13:25:56Z</time></trkpt><trkpt lat="41.81372111334942" lon="13.311304925894907"><ele>1163.0</ele><time>2026-04-11T13:25:57Z</time></trkpt><trkpt lat="41.813780880812736" lon="13.311109911331094"><ele>1162.0</ele><time>2026-04-11T13:25:58Z</time></trkpt><trkpt lat="41.81383930105695" lon="13.310904673753454"><ele>1161.0</ele><time>2026-04-11T13:25:59Z</time></trkpt><trkpt lat="41.813826674335374" lon="13.310660584152812"><ele>1160.0</ele><time>2026-04-11T13:26:00Z</time></trkpt><trkpt lat="41.81378240628753" lon="13.310490819015612"><ele>1158.0</ele><time>2026-04-11T13:26:01Z</time></trkpt><trkpt lat="41.81374551120557" lon="13.310322842593719"><ele>1156.0</ele><time>2026-04-11T13:26:02Z</time></trkpt><trkpt lat="41.813772127540346" lon="13.310237304960738"><ele>1154.0</ele><time>2026-04-11T13:26:03Z</time></trkpt><trkpt lat="41.81384368989786" lon="13.310115125086924"><ele>1152.0</ele><time>2026-04-11T13:26:04Z</time></trkpt><trkpt lat="41.81393529736586" lon="13.310018262917977"><ele>1150.0</ele><time>2026-04-11T13:26:05Z</time></trkpt><trkpt lat="41.814040714266056" lon="13.309954124442593"><ele>1150.0</ele><time>2026-04-11T13:26:06Z</time></trkpt><trkpt lat="41.81416624488551" lon="13.309984088138519"><ele>1150.0</ele><time>2026-04-11T13:26:07Z</time></trkpt><trkpt lat="41.81426628387048" lon="13.310071147570444"><ele>1150.0</ele><time>2026-04-11T13:26:08Z</time></trkpt><trkpt lat="41.81439781999072" lon="13.310231238437227"><ele>1150.0</ele><time>2026-04-11T13:26:09Z</time></trkpt><trkpt lat="41.81449959300741" lon="13.31040823713829"><ele>1150.5</ele><time>2026-04-11T13:26:10Z</time></trkpt><trkpt lat="41.814563745397706" lon="13.310586749361804"><ele>1151.0</ele><time>2026-04-11T13:26:11Z</time></trkpt><trkpt lat="41.81462752260351" lon="13.310708745767817"><ele>1151.5</ele><time>2026-04-11T13:26:12Z</time></trkpt><trkpt lat="41.814620354585465" lon="13.310874633881106"><ele>1152.0</ele><time>2026-04-11T13:26:13Z</time></trkpt><trkpt lat="41.81456454074741" lon="13.311048608790461"><ele>1152.0</ele><time>2026-04-11T13:26:14Z</time></trkpt><trkpt lat="41.81450857322853" lon="13.31119738588703"><ele>1152.0</ele><time>2026-04-11T13:26:15Z</time></trkpt><trkpt lat="41.814424945663816" lon="13.31132321032108"><ele>1152.0</ele><time>2026-04-11T13:26:16Z</time></trkpt><trkpt lat="41.8143112640059" lon="13.311439884504008"><ele>1152.0</ele><time>2026-04-11T13:26:17Z</time></trkpt><trkpt lat="41.81418672932155" lon="13.311577545058572"><ele>1155.6666666666667</ele><time>2026-04-11T13:26:18Z</time></trkpt><trkpt lat="41.814060980707644" lon="13.31172963375622"><ele>1159.3333333333335</ele><time>2026-04-11T13:26:19Z</time></trkpt><trkpt lat="41.813950736495634" lon="13.311936967815312"><ele>1163.0</ele><time>2026-04-11T13:26:20Z</time></trkpt><trkpt lat="41.81382350023281" lon="13.312158137235967"><ele>1161.6666666666667</ele><time>2026-04-11T13:26:21Z</time></trkpt><trkpt lat="41.8136925581012" lon="13.312296798497039"><ele>1160.3333333333333</ele><time>2026-04-11T13:26:22Z</time></trkpt><trkpt lat="41.81355414499967" lon="13.312426456600445"><ele>1159.0</ele><time>2026-04-11T13:26:23Z</time></trkpt><trkpt lat="41.813416568457164" lon="13.312674111292193"><ele>1159.0</ele><time>2026-04-11T13:26:24Z</time></trkpt><trkpt lat="41.81330500934647" lon="13.312898185362961"><ele>1159.0</ele><time>2026-04-11T13:26:25Z</time></trkpt><trkpt lat="41.813216366676855" lon="13.313118324521753"><ele>1159.0</ele><time>2026-04-11T13:26:26Z</time></trkpt><trkpt lat="41.8131842993236" lon="13.313338097280266"><ele>1164.6666666666665</ele><time>2026-04-11T13:26:27Z</time></trkpt><trkpt lat="41.81317312889745" lon="13.313607473056168"><ele>1170.3333333333333</ele><time>2026-04-11T13:26:28Z</time></trkpt><trkpt lat="41.81317529242382" lon="13.313881971857263"><ele>1176.0</ele><time>2026-04-11T13:26:29Z</time></trkpt><trkpt lat="41.81316115523582" lon="13.314105818833282"><ele>1179.0</ele><time>2026-04-11T13:26:30Z</time></trkpt><trkpt lat="41.81310302307218" lon="13.314280807021772"><ele>1182.0</ele><time>2026-04-11T13:26:31Z</time></trkpt><trkpt lat="41.813014994578126" lon="13.314390039857058"><ele>1185.0</ele><time>2026-04-11T13:26:32Z</time></trkpt><trkpt lat="41.812887996174474" lon="13.314560266114498"><ele>1188.0</ele><time>2026-04-11T13:26:33Z</time></trkpt><trkpt lat="41.81277388181409" lon="13.314783831195212"><ele>1184.0</ele><time>2026-04-11T13:26:34Z</time></trkpt><trkpt lat="41.81269974702886" lon="13.315075597342185"><ele>1180.0</ele><time>2026-04-11T13:26:35Z</time></trkpt><trkpt lat="41.81265310126391" lon="13.315345918776497"><ele>1176.0</ele><time>2026-04-11T13:26:36Z</time></trkpt><trkpt lat="41.812647914891535" lon="13.315586175188297"><ele>1186.3333333333333</ele><time>2026-04-11T13:26:37Z</time></trkpt><trkpt lat="41.8126785014291" lon="13.315877364044546"><ele>1196.6666666666665</ele><time>2026-04-11T13:26:38Z</time></trkpt><trkpt lat="41.81267933651665" lon="13.316137481972532"><ele>1207.0</ele><time>2026-04-11T13:26:39Z</time></trkpt><trkpt lat="41.81269775448214" lon="13.316386034439903"><ele>1204.6666666666665</ele><time>2026-04-11T13:26:40Z</time></trkpt><trkpt lat="41.81274652182817" lon="13.316591106421265"><ele>1202.3333333333333</ele><time>2026-04-11T13:26:41Z</time></trkpt><trkpt lat="41.812837582527614" lon="13.316761998843678"><ele>1200.0</ele><time>2026-04-11T13:26:42Z</time></trkpt><trkpt lat="41.81295656742501" lon="13.316894471970494"><ele>1200.0</ele><time>2026-04-11T13:26:43Z</time></trkpt><trkpt lat="41.81306118107092" lon="13.317028253766225"><ele>1200.0</ele><time>2026-04-11T13:26:44Z</time></trkpt><trkpt lat="41.81319638976226" lon="13.317070354476218"><ele>1200.0</ele><time>2026-04-11T13:26:45Z</time></trkpt><trkpt lat="41.813298856427416" lon="13.317077574900221"><ele>1200.0</ele><time>2026-04-11T13:26:46Z</time></trkpt><trkpt lat="41.81337216469386" lon="13.317051167617473"><ele>1200.0</ele><time>2026-04-11T13:26:47Z</time></trkpt><trkpt lat="41.81341647190613" lon="13.316966122034872"><ele>1200.0</ele><time>2026-04-11T13:26:48Z</time></trkpt><trkpt lat="41.8134207651872" lon="13.316824665070083"><ele>1200.0</ele><time>2026-04-11T13:26:49Z</time></trkpt><trkpt lat="41.81332165800011" lon="13.316652810543752"><ele>1200.0</ele><time>2026-04-11T13:26:51Z</time></trkpt><trkpt lat="41.813221928482285" lon="13.316458445176028"><ele>1202.3333333333333</ele><time>2026-04-11T13:26:52Z</time></trkpt><trkpt lat="41.813136795750225" lon="13.316188855552157"><ele>1204.6666666666665</ele><time>2026-04-11T13:26:53Z</time></trkpt><trkpt lat="41.81312990040068" lon="13.31596228767806"><ele>1207.0</ele><time>2026-04-11T13:26:54Z</time></trkpt><trkpt lat="41.813153497053214" lon="13.315775381863295"><ele>1207.0</ele><time>2026-04-11T13:26:55Z</time></trkpt><trkpt lat="41.81319657789023" lon="13.315619016985865"><ele>1207.0</ele><time>2026-04-11T13:26:56Z</time></trkpt><trkpt lat="41.81326238080049" lon="13.315483164698195"><ele>1207.0</ele><time>2026-04-11T13:26:57Z</time></trkpt><trkpt lat="41.813331748506464" lon="13.315388079166919"><ele>1207.0</ele><time>2026-04-11T13:26:58Z</time></trkpt><trkpt lat="41.813415900583664" lon="13.315321755030885"><ele>1207.0</ele><time>2026-04-11T13:26:59Z</time></trkpt><trkpt lat="41.813443460195266" lon="13.315169312461855"><ele>1208.0</ele><time>2026-04-11T13:27:00Z</time></trkpt><trkpt lat="41.81353771737478" lon="13.31512378120997"><ele>1209.0</ele><time>2026-04-11T13:27:01Z</time></trkpt><trkpt lat="41.81362344127789" lon="13.315147154762585"><ele>1210.0</ele><time>2026-04-11T13:27:02Z</time></trkpt><trkpt lat="41.813734643125294" lon="13.315213568518717"><ele>1211.0</ele><time>2026-04-11T13:27:03Z</time></trkpt><trkpt lat="41.813821568871" lon="13.315334151274016"><ele>1212.0</ele><time>2026-04-11T13:27:04Z</time></trkpt><trkpt lat="41.81390244140866" lon="13.31545661025277"><ele>1212.0</ele><time>2026-04-11T13:27:05Z</time></trkpt><trkpt lat="41.8139523267092" lon="13.31559360640723"><ele>1212.0</ele><time>2026-04-11T13:27:06Z</time></trkpt><trkpt lat="41.81396061541146" lon="13.315722001623122"><ele>1212.0</ele><time>2026-04-11T13:27:07Z</time></trkpt><trkpt lat="41.81397167540706" lon="13.315857448843289"><ele>1212.0</ele><time>2026-04-11T13:27:08Z</time></trkpt><trkpt lat="41.81384143356728" lon="13.316089013494597"><ele>1212.0</ele><time>2026-04-11T13:27:09Z</time></trkpt><trkpt lat="41.81378787738383" lon="13.316174367538226"><ele>1212.0</ele><time>2026-04-11T13:27:10Z</time></trkpt><trkpt lat="41.81380105388128" lon="13.316353506319048"><ele>1212.0</ele><time>2026-04-11T13:27:11Z</time></trkpt><trkpt lat="41.81385429775539" lon="13.316496766517918"><ele>1212.0</ele><time>2026-04-11T13:27:12Z</time></trkpt><trkpt lat="41.813937517964014" lon="13.31662016262467"><ele>1213.25</ele><time>2026-04-11T13:27:13Z</time></trkpt><trkpt lat="41.81403014490086" lon="13.316735364571965"><ele>1214.5</ele><time>2026-04-11T13:27:14Z</time></trkpt><trkpt lat="41.81413334346964" lon="13.316848905638645"><ele>1215.75</ele><time>2026-04-11T13:27:15Z</time></trkpt><trkpt lat="41.81422815840479" lon="13.316958279252258"><ele>1217.0</ele><time>2026-04-11T13:27:16Z</time></trkpt><trkpt lat="41.814341368872306" lon="13.317080146989007"><ele>1220.3333333333335</ele><time>2026-04-11T13:27:17Z</time></trkpt><trkpt lat="41.814471045798065" lon="13.31718449690409"><ele>1223.6666666666667</ele><time>2026-04-11T13:27:18Z</time></trkpt><trkpt lat="41.81460775144809" lon="13.317287198669737"><ele>1227.0</ele><time>2026-04-11T13:27:19Z</time></trkpt><trkpt lat="41.814738564193675" lon="13.317405554335084"><ele>1227.6666666666667</ele><time>2026-04-11T13:27:20Z</time></trkpt><trkpt lat="41.81488059661707" lon="13.317535709570166"><ele>1228.3333333333335</ele><time>2026-04-11T13:27:21Z</time></trkpt><trkpt lat="41.81503000467275" lon="13.317669603324177"><ele>1229.0</ele><time>2026-04-11T13:27:22Z</time></trkpt><trkpt lat="41.81518636747064" lon="13.317805568000665"><ele>1228.6666666666667</ele><time>2026-04-11T13:27:23Z</time></trkpt><trkpt lat="41.81535445728917" lon="13.31791369791461"><ele>1228.3333333333333</ele><time>2026-04-11T13:27:24Z</time></trkpt><trkpt lat="41.81553841109881" lon="13.317991185964706"><ele>1228.0</ele><time>2026-04-11T13:27:25Z</time></trkpt><trkpt lat="41.81572316816787" lon="13.318075218368019"><ele>1228.0</ele><time>2026-04-11T13:27:26Z</time></trkpt><trkpt lat="41.81591715591389" lon="13.318147043805345"><ele>1228.0</ele><time>2026-04-11T13:27:27Z</time></trkpt><trkpt lat="41.81612529331519" lon="13.318198082031845"><ele>1228.0</ele><time>2026-04-11T13:27:28Z</time></trkpt><trkpt lat="41.816337527368304" lon="13.318235099099464"><ele>1233.6666666666665</ele><time>2026-04-11T13:27:29Z</time></trkpt><trkpt lat="41.81654095627991" lon="13.318298772945019"><ele>1239.3333333333333</ele><time>2026-04-11T13:27:30Z</time></trkpt><trkpt lat="41.81674555907003" lon="13.318356659502895"><ele>1245.0</ele><time>2026-04-11T13:27:31Z</time></trkpt><trkpt lat="41.81695072655455" lon="13.318413473537447"><ele>1249.3333333333333</ele><time>2026-04-11T13:27:32Z</time></trkpt><trkpt lat="41.81715791225853" lon="13.318476811068727"><ele>1253.6666666666665</ele><time>2026-04-11T13:27:33Z</time></trkpt><trkpt lat="41.817357758151196" lon="13.31853914381741"><ele>1258.0</ele><time>2026-04-11T13:27:34Z</time></trkpt><trkpt lat="41.817532952248385" lon="13.318583562877759"><ele>1263.0</ele><time>2026-04-11T13:27:35Z</time></trkpt><trkpt lat="41.817679876530285" lon="13.318617486123271"><ele>1268.0</ele><time>2026-04-11T13:27:36Z</time></trkpt><trkpt lat="41.81779388343768" lon="13.31865946936717"><ele>1273.0</ele><time>2026-04-11T13:27:37Z</time></trkpt><trkpt lat="41.8178779009928" lon="13.318727008935682"><ele>1278.0</ele><time>2026-04-11T13:27:38Z</time></trkpt><trkpt lat="41.81792000096938" lon="13.318856437926998"><ele>1278.5</ele><time>2026-04-11T13:27:39Z</time></trkpt><trkpt lat="41.81791664516984" lon="13.319028055138578"><ele>1279.0</ele><time>2026-04-11T13:27:40Z</time></trkpt><trkpt lat="41.81788151406038" lon="13.319216604817303"><ele>1279.5</ele><time>2026-04-11T13:27:41Z</time></trkpt><trkpt lat="41.817792524610944" lon="13.319401360173684"><ele>1280.0</ele><time>2026-04-11T13:27:42Z</time></trkpt><trkpt lat="41.81766943812517" lon="13.319605051035738"><ele>1275.5</ele><time>2026-04-11T13:27:43Z</time></trkpt><trkpt lat="41.8175932525036" lon="13.319800535135943"><ele>1271.0</ele><time>2026-04-11T13:27:44Z</time></trkpt><trkpt lat="41.817533043293984" lon="13.319933406785227"><ele>1266.5</ele><time>2026-04-11T13:27:45Z</time></trkpt><trkpt lat="41.817502146806916" lon="13.32004864418658"><ele>1262.0</ele><time>2026-04-11T13:27:46Z</time></trkpt><trkpt lat="41.81746628633537" lon="13.3202903531862"><ele>1262.0</ele><time>2026-04-11T13:27:48Z</time></trkpt><trkpt lat="41.817589609342306" lon="13.320396462754879"><ele>1262.0</ele><time>2026-04-11T13:27:49Z</time></trkpt><trkpt lat="41.81771343313482" lon="13.320487000011573"><ele>1262.0</ele><time>2026-04-11T13:27:50Z</time></trkpt><trkpt lat="41.81782069018387" lon="13.32062584909084"><ele>1262.0</ele><time>2026-04-11T13:27:51Z</time></trkpt><trkpt lat="41.81787953311192" lon="13.32079591387719"><ele>1266.5</ele><time>2026-04-11T13:27:52Z</time></trkpt><trkpt lat="41.81789058188" lon="13.320981783612549"><ele>1271.0</ele><time>2026-04-11T13:27:53Z</time></trkpt><trkpt lat="41.81790257003477" lon="13.321173127334937"><ele>1275.5</ele><time>2026-04-11T13:27:54Z</time></trkpt><trkpt lat="41.81794025256585" lon="13.321357892175792"><ele>1280.0</ele><time>2026-04-11T13:27:55Z</time></trkpt><trkpt lat="41.81805359283411" lon="13.321474428511008"><ele>1280.0</ele><time>2026-04-11T13:27:56Z</time></trkpt><trkpt lat="41.81818712743868" lon="13.321589551078857"><ele>1280.0</ele><time>2026-04-11T13:27:57Z</time></trkpt><trkpt lat="41.818294285973096" lon="13.321701022408408"><ele>1280.0</ele><time>2026-04-11T13:27:58Z</time></trkpt><trkpt lat="41.818402562200426" lon="13.32181965577283"><ele>1280.0</ele><time>2026-04-11T13:27:59Z</time></trkpt><trkpt lat="41.81850273072728" lon="13.321925552080668"><ele>1285.2</ele><time>2026-04-11T13:28:00Z</time></trkpt><trkpt lat="41.81858987773388" lon="13.322021487531833"><ele>1290.4</ele><time>2026-04-11T13:28:01Z</time></trkpt><trkpt lat="41.81868283248353" lon="13.32210335217436"><ele>1295.6</ele><time>2026-04-11T13:28:02Z</time></trkpt><trkpt lat="41.81876566346367" lon="13.322195501110723"><ele>1300.8</ele><time>2026-04-11T13:28:03Z</time></trkpt><trkpt lat="41.81884271735013" lon="13.322281047785502"><ele>1306.0</ele><time>2026-04-11T13:28:04Z</time></trkpt><trkpt lat="41.81890278360649" lon="13.32237466829655"><ele>1306.0</ele><time>2026-04-11T13:28:05Z</time></trkpt><trkpt lat="41.81896713853903" lon="13.322466005579697"><ele>1306.0</ele><time>2026-04-11T13:28:06Z</time></trkpt><trkpt lat="41.81902761065116" lon="13.322570872419195"><ele>1306.0</ele><time>2026-04-11T13:28:07Z</time></trkpt><trkpt lat="41.81906960189144" lon="13.322691166929062"><ele>1306.0</ele><time>2026-04-11T13:28:08Z</time></trkpt><trkpt lat="41.819096816823595" lon="13.322806237032376"><ele>1306.0</ele><time>2026-04-11T13:28:09Z</time></trkpt><trkpt lat="41.81910570004728" lon="13.322928517954866"><ele>1306.0</ele><time>2026-04-11T13:28:10Z</time></trkpt><trkpt lat="41.819044257552186" lon="13.323016945223145"><ele>1306.0</ele><time>2026-04-11T13:28:11Z</time></trkpt><trkpt lat="41.81898699647935" lon="13.323083511846562"><ele>1306.0</ele><time>2026-04-11T13:28:12Z</time></trkpt><trkpt lat="41.818866580309816" lon="13.32320414453603"><ele>1306.0</ele><time>2026-04-11T13:28:13Z</time></trkpt><trkpt lat="41.818722990355724" lon="13.323316132086335"><ele>1310.0</ele><time>2026-04-11T13:28:14Z</time></trkpt><trkpt lat="41.81858485244563" lon="13.323457768602907"><ele>1314.0</ele><time>2026-04-11T13:28:15Z</time></trkpt><trkpt lat="41.81845253436079" lon="13.323585245719299"><ele>1318.0</ele><time>2026-04-11T13:28:16Z</time></trkpt><trkpt lat="41.81831044673732" lon="13.32372456681778"><ele>1313.75</ele><time>2026-04-11T13:28:17Z</time></trkpt><trkpt lat="41.8181994006418" lon="13.323849742374748"><ele>1309.5</ele><time>2026-04-11T13:28:18Z</time></trkpt><trkpt lat="41.81811273502051" lon="13.323950065642274"><ele>1305.25</ele><time>2026-04-11T13:28:19Z</time></trkpt><trkpt lat="41.81809992280097" lon="13.324079497235358"><ele>1301.0</ele><time>2026-04-11T13:28:20Z</time></trkpt><trkpt lat="41.818106770743825" lon="13.324213261403955"><ele>1301.0</ele><time>2026-04-11T13:28:21Z</time></trkpt><trkpt lat="41.818151275234555" lon="13.324404859069721"><ele>1301.0</ele><time>2026-04-11T13:28:22Z</time></trkpt><trkpt lat="41.818243115863645" lon="13.324572659959388"><ele>1301.0</ele><time>2026-04-11T13:28:23Z</time></trkpt><trkpt lat="41.8183417968697" lon="13.324754761825101"><ele>1299.0</ele><time>2026-04-11T13:28:24Z</time></trkpt><trkpt lat="41.81846558835965" lon="13.324916045717499"><ele>1297.0</ele><time>2026-04-11T13:28:25Z</time></trkpt><trkpt lat="41.81858542069577" lon="13.32506819814953"><ele>1295.0</ele><time>2026-04-11T13:28:26Z</time></trkpt><trkpt lat="41.81868133879605" lon="13.325236506173459"><ele>1307.0</ele><time>2026-04-11T13:28:27Z</time></trkpt><trkpt lat="41.81876205807353" lon="13.325396494159529"><ele>1319.0</ele><time>2026-04-11T13:28:28Z</time></trkpt><trkpt lat="41.818806241236416" lon="13.325531836007475"><ele>1331.0</ele><time>2026-04-11T13:28:29Z</time></trkpt><trkpt lat="41.818810520203186" lon="13.325664998241958"><ele>1343.0</ele><time>2026-04-11T13:28:30Z</time></trkpt><trkpt lat="41.818763421772644" lon="13.325827049839015"><ele>1343.5</ele><time>2026-04-11T13:28:31Z</time></trkpt><trkpt lat="41.81870501016979" lon="13.325976802301826"><ele>1344.0</ele><time>2026-04-11T13:28:32Z</time></trkpt><trkpt lat="41.81862714608206" lon="13.3261337808571"><ele>1344.5</ele><time>2026-04-11T13:28:33Z</time></trkpt><trkpt lat="41.81851787674001" lon="13.32628886968853"><ele>1345.0</ele><time>2026-04-11T13:28:34Z</time></trkpt><trkpt lat="41.81838074077574" lon="13.326424008169477"><ele>1337.3333333333333</ele><time>2026-04-11T13:28:35Z</time></trkpt><trkpt lat="41.81826644345213" lon="13.326625934270256"><ele>1329.6666666666667</ele><time>2026-04-11T13:28:36Z</time></trkpt><trkpt lat="41.81819373772897" lon="13.32684197507568"><ele>1322.0</ele><time>2026-04-11T13:28:37Z</time></trkpt><trkpt lat="41.81813014848515" lon="13.327046941681408"><ele>1322.0</ele><time>2026-04-11T13:28:38Z</time></trkpt><trkpt lat="41.81805353842023" lon="13.327227392724978"><ele>1322.0</ele><time>2026-04-11T13:28:39Z</time></trkpt><trkpt lat="41.81797373956315" lon="13.32737936124122"><ele>1322.0</ele><time>2026-04-11T13:28:40Z</time></trkpt><trkpt lat="41.81786309902123" lon="13.32746264998993"><ele>1322.0</ele><time>2026-04-11T13:28:41Z</time></trkpt><trkpt lat="41.81772460375436" lon="13.32757615919151"><ele>1318.0</ele><time>2026-04-11T13:28:42Z</time></trkpt><trkpt lat="41.81758822381911" lon="13.32769487954058"><ele>1314.0</ele><time>2026-04-11T13:28:43Z</time></trkpt><trkpt lat="41.81745858249943" lon="13.327832920592693"><ele>1310.0</ele><time>2026-04-11T13:28:44Z</time></trkpt><trkpt lat="41.81736185724896" lon="13.328029924006946"><ele>1317.3333333333335</ele><time>2026-04-11T13:28:45Z</time></trkpt><trkpt lat="41.81728877599989" lon="13.328245876862509"><ele>1324.6666666666667</ele><time>2026-04-11T13:28:46Z</time></trkpt><trkpt lat="41.81725391928961" lon="13.328537754594775"><ele>1332.0</ele><time>2026-04-11T13:28:47Z</time></trkpt><trkpt lat="41.81722701439959" lon="13.32884747352391"><ele>1335.3333333333333</ele><time>2026-04-11T13:28:48Z</time></trkpt><trkpt lat="41.81718848618088" lon="13.32912279656107"><ele>1338.6666666666665</ele><time>2026-04-11T13:28:49Z</time></trkpt><trkpt lat="41.81720007843162" lon="13.329350359602016"><ele>1342.0</ele><time>2026-04-11T13:28:50Z</time></trkpt><trkpt lat="41.81724151805983" lon="13.329619863292251"><ele>1341.0</ele><time>2026-04-11T13:28:51Z</time></trkpt><trkpt lat="41.81730491144217" lon="13.329877227630776"><ele>1340.0</ele><time>2026-04-11T13:28:52Z</time></trkpt><trkpt lat="41.817374202994706" lon="13.330125562932416"><ele>1339.0</ele><time>2026-04-11T13:28:53Z</time></trkpt><trkpt lat="41.81745639918578" lon="13.330362519076205"><ele>1336.0</ele><time>2026-04-11T13:28:54Z</time></trkpt><trkpt lat="41.8175544998072" lon="13.330572675058875"><ele>1333.0</ele><time>2026-04-11T13:28:55Z</time></trkpt><trkpt lat="41.81767237926241" lon="13.330770652078014"><ele>1330.0</ele><time>2026-04-11T13:28:56Z</time></trkpt><trkpt lat="41.817800744867434" lon="13.3309590766321"><ele>1339.6666666666665</ele><time>2026-04-11T13:28:57Z</time></trkpt><trkpt lat="41.81787944532558" lon="13.331178456726075"><ele>1349.3333333333333</ele><time>2026-04-11T13:28:58Z</time></trkpt><trkpt lat="41.81794037124661" lon="13.33137169591184"><ele>1359.0</ele><time>2026-04-11T13:28:59Z</time></trkpt><trkpt lat="41.817979685832704" lon="13.331553382295743"><ele>1359.0</ele><time>2026-04-11T13:29:00Z</time></trkpt><trkpt lat="41.81800561515932" lon="13.331726279557124"><ele>1359.0</ele><time>2026-04-11T13:29:01Z</time></trkpt><trkpt lat="41.81797531796098" lon="13.331902893513545"><ele>1359.0</ele><time>2026-04-11T13:29:02Z</time></trkpt><trkpt lat="41.8179310818037" lon="13.332064404054922"><ele>1359.0</ele><time>2026-04-11T13:29:03Z</time></trkpt><trkpt lat="41.817913471840384" lon="13.332197770314172"><ele>1357.6</ele><time>2026-04-11T13:29:04Z</time></trkpt><trkpt lat="41.81791942888631" lon="13.332315142288737"><ele>1356.2</ele><time>2026-04-11T13:29:05Z</time></trkpt><trkpt lat="41.817977015705154" lon="13.332418416143309"><ele>1354.8</ele><time>2026-04-11T13:29:06Z</time></trkpt><trkpt lat="41.81806217546445" lon="13.332467945481767"><ele>1353.3999999999999</ele><time>2026-04-11T13:29:07Z</time></trkpt><trkpt lat="41.818159695538306" lon="13.33246335662502"><ele>1352.0</ele><time>2026-04-11T13:29:08Z</time></trkpt><trkpt lat="41.81825127503238" lon="13.332391508955393"><ele>1352.0</ele><time>2026-04-11T13:29:09Z</time></trkpt><trkpt lat="41.81830818140164" lon="13.332262663185228"><ele>1352.0</ele><time>2026-04-11T13:29:10Z</time></trkpt><trkpt lat="41.81832933567021" lon="13.332082126778014"><ele>1352.0</ele><time>2026-04-11T13:29:11Z</time></trkpt><trkpt lat="41.81830990019279" lon="13.331848439651374"><ele>1352.0</ele><time>2026-04-11T13:29:12Z</time></trkpt><trkpt lat="41.818288485042565" lon="13.331557060591326"><ele>1357.6666666666667</ele><time>2026-04-11T13:29:13Z</time></trkpt><trkpt lat="41.8182522399968" lon="13.331262034914351"><ele>1363.3333333333333</ele><time>2026-04-11T13:29:14Z</time></trkpt><trkpt lat="41.818227717669615" lon="13.331009454041613"><ele>1369.0</ele><time>2026-04-11T13:29:15Z</time></trkpt><trkpt lat="41.81819044647194" lon="13.330793766164858"><ele>1369.0</ele><time>2026-04-11T13:29:16Z</time></trkpt><trkpt lat="41.81811520846811" lon="13.330586932499871"><ele>1369.0</ele><time>2026-04-11T13:29:17Z</time></trkpt><trkpt lat="41.818018682145095" lon="13.33040289213496"><ele>1369.0</ele><time>2026-04-11T13:29:18Z</time></trkpt><trkpt lat="41.81793762166701" lon="13.330213616148248"><ele>1373.0</ele><time>2026-04-11T13:29:19Z</time></trkpt><trkpt lat="41.81791240729917" lon="13.330009118800243"><ele>1377.0</ele><time>2026-04-11T13:29:20Z</time></trkpt><trkpt lat="41.81790900528589" lon="13.329761751460962"><ele>1381.0</ele><time>2026-04-11T13:29:21Z</time></trkpt><trkpt lat="41.81791014378142" lon="13.329468739342053"><ele>1380.6666666666665</ele><time>2026-04-11T13:29:22Z</time></trkpt><trkpt lat="41.81792577268476" lon="13.329178101942187"><ele>1380.3333333333333</ele><time>2026-04-11T13:29:23Z</time></trkpt><trkpt lat="41.81795975945838" lon="13.328935623022671"><ele>1380.0</ele><time>2026-04-11T13:29:24Z</time></trkpt><trkpt lat="41.81797548112253" lon="13.32871086657377"><ele>1380.0</ele><time>2026-04-11T13:29:25Z</time></trkpt><trkpt lat="41.818044923911756" lon="13.328501876012833"><ele>1380.0</ele><time>2026-04-11T13:29:26Z</time></trkpt><trkpt lat="41.818116738473755" lon="13.328313368795085"><ele>1380.0</ele><time>2026-04-11T13:29:27Z</time></trkpt><trkpt lat="41.81818312376013" lon="13.328138088113825"><ele>1385.3333333333333</ele><time>2026-04-11T13:29:28Z</time></trkpt><trkpt lat="41.81827449972613" lon="13.328011054716189"><ele>1390.6666666666665</ele><time>2026-04-11T13:29:29Z</time></trkpt><trkpt lat="41.81840186362695" lon="13.32788615384818"><ele>1396.0</ele><time>2026-04-11T13:29:30Z</time></trkpt><trkpt lat="41.81855689497343" lon="13.327714607631325"><ele>1396.0</ele><time>2026-04-11T13:29:31Z</time></trkpt><trkpt lat="41.81870804382873" lon="13.327523107600594"><ele>1396.0</ele><time>2026-04-11T13:29:32Z</time></trkpt><trkpt lat="41.81884849428277" lon="13.327336128059192"><ele>1396.0</ele><time>2026-04-11T13:29:33Z</time></trkpt><trkpt lat="41.819012351679014" lon="13.327186139493945"><ele>1397.0</ele><time>2026-04-11T13:29:34Z</time></trkpt><trkpt lat="41.81917404021787" lon="13.327034835696017"><ele>1398.0</ele><time>2026-04-11T13:29:35Z</time></trkpt><trkpt lat="41.81934409659955" lon="13.326933196319235"><ele>1399.0</ele><time>2026-04-11T13:29:36Z</time></trkpt><trkpt lat="41.81949969721648" lon="13.32687759254618"><ele>1399.0</ele><time>2026-04-11T13:29:37Z</time></trkpt><trkpt lat="41.81963683452316" lon="13.32690753776595"><ele>1399.0</ele><time>2026-04-11T13:29:38Z</time></trkpt><trkpt lat="41.819750557180434" lon="13.326899098860771"><ele>1399.0</ele><time>2026-04-11T13:29:39Z</time></trkpt><trkpt lat="41.81982977159714" lon="13.32688978257202"><ele>1399.0</ele><time>2026-04-11T13:29:40Z</time></trkpt><trkpt lat="41.81989712788583" lon="13.326823309849676"><ele>1399.0</ele><time>2026-04-11T13:29:41Z</time></trkpt><trkpt lat="41.81994773329903" lon="13.326681052047208"><ele>1399.0</ele><time>2026-04-11T13:29:42Z</time></trkpt><trkpt lat="41.81997668467286" lon="13.326556834531612"><ele>1399.0</ele><time>2026-04-11T13:29:43Z</time></trkpt><trkpt lat="41.819968020392885" lon="13.326364054115887"><ele>1399.0</ele><time>2026-04-11T13:29:44Z</time></trkpt><trkpt lat="41.819929489164714" lon="13.326171482084508"><ele>1399.0</ele><time>2026-04-11T13:29:45Z</time></trkpt><trkpt lat="41.81991972931139" lon="13.325959424629824"><ele>1396.3333333333333</ele><time>2026-04-11T13:29:46Z</time></trkpt><trkpt lat="41.81989821543282" lon="13.325706504630997"><ele>1393.6666666666667</ele><time>2026-04-11T13:29:47Z</time></trkpt><trkpt lat="41.81988579004833" lon="13.325472287826463"><ele>1391.0</ele><time>2026-04-11T13:29:48Z</time></trkpt><trkpt lat="41.81989394472472" lon="13.325268730208302"><ele>1390.75</ele><time>2026-04-11T13:29:49Z</time></trkpt><trkpt lat="41.819898337639465" lon="13.325124551580805"><ele>1390.5</ele><time>2026-04-11T13:29:50Z</time></trkpt><trkpt lat="41.819937641201435" lon="13.32498810887328"><ele>1390.25</ele><time>2026-04-11T13:29:51Z</time></trkpt><trkpt lat="41.82002131683772" lon="13.324878697049853"><ele>1390.0</ele><time>2026-04-11T13:29:52Z</time></trkpt><trkpt lat="41.8201501878562" lon="13.324821761376578"><ele>1392.0</ele><time>2026-04-11T13:29:53Z</time></trkpt><trkpt lat="41.82027534013849" lon="13.324775733069666"><ele>1394.0</ele><time>2026-04-11T13:29:54Z</time></trkpt><trkpt lat="41.820418897136925" lon="13.32471594681579"><ele>1396.0</ele><time>2026-04-11T13:29:55Z</time></trkpt><trkpt lat="41.82057981741091" lon="13.324687289393944"><ele>1398.0</ele><time>2026-04-11T13:29:56Z</time></trkpt><trkpt lat="41.820722836531615" lon="13.324651171090665"><ele>1398.0</ele><time>2026-04-11T13:29:57Z</time></trkpt><trkpt lat="41.820879838855305" lon="13.324607336715683"><ele>1398.0</ele><time>2026-04-11T13:29:58Z</time></trkpt><trkpt lat="41.821049096438976" lon="13.324560949379656"><ele>1398.0</ele><time>2026-04-11T13:29:59Z</time></trkpt><trkpt lat="41.821205504392346" lon="13.324486016814296"><ele>1405.25</ele><time>2026-04-11T13:30:00Z</time></trkpt><trkpt lat="41.82133608267863" lon="13.324380315027136"><ele>1412.5</ele><time>2026-04-11T13:30:01Z</time></trkpt><trkpt lat="41.821435503983444" lon="13.32428061702699"><ele>1419.75</ele><time>2026-04-11T13:30:02Z</time></trkpt><trkpt lat="41.821507761426446" lon="13.32421259348943"><ele>1427.0</ele><time>2026-04-11T13:30:03Z</time></trkpt><trkpt lat="41.82156875055137" lon="13.324104738237018"><ele>1427.0</ele><time>2026-04-11T13:30:04Z</time></trkpt><trkpt lat="41.82161710578918" lon="13.323990378040296"><ele>1427.0</ele><time>2026-04-11T13:30:05Z</time></trkpt><trkpt lat="41.82157211402446" lon="13.323843296006"><ele>1427.0</ele><time>2026-04-11T13:30:06Z</time></trkpt><trkpt lat="41.821548657536404" lon="13.323659073394255"><ele>1427.0</ele><time>2026-04-11T13:30:07Z</time></trkpt><trkpt lat="41.82153162059349" lon="13.323418965246228"><ele>1425.3333333333335</ele><time>2026-04-11T13:30:08Z</time></trkpt><trkpt lat="41.82149458919393" lon="13.323188980094738"><ele>1423.6666666666667</ele><time>2026-04-11T13:30:09Z</time></trkpt><trkpt lat="41.82149755143034" lon="13.322965805281278"><ele>1422.0</ele><time>2026-04-11T13:30:10Z</time></trkpt><trkpt lat="41.82151518296516" lon="13.322740322670917"><ele>1422.0</ele><time>2026-04-11T13:30:11Z</time></trkpt><trkpt lat="41.82151325464342" lon="13.322505115050232"><ele>1422.0</ele><time>2026-04-11T13:30:12Z</time></trkpt><trkpt lat="41.82146561101451" lon="13.322273946783934"><ele>1422.0</ele><time>2026-04-11T13:30:13Z</time></trkpt><trkpt lat="41.82138351971586" lon="13.322050140320925"><ele>1424.0</ele><time>2026-04-11T13:30:14Z</time></trkpt><trkpt lat="41.821292112986924" lon="13.321842350227387"><ele>1426.0</ele><time>2026-04-11T13:30:15Z</time></trkpt><trkpt lat="41.82120611541679" lon="13.32166830159016"><ele>1428.0</ele><time>2026-04-11T13:30:16Z</time></trkpt><trkpt lat="41.82113988426132" lon="13.321518712933427"><ele>1428.0</ele><time>2026-04-11T13:30:17Z</time></trkpt><trkpt lat="41.82108441579549" lon="13.32140105758266"><ele>1428.0</ele><time>2026-04-11T13:30:18Z</time></trkpt><trkpt lat="41.821055950221826" lon="13.321309877947069"><ele>1428.0</ele><time>2026-04-11T13:30:19Z</time></trkpt><trkpt lat="41.821037379237815" lon="13.321224991862362"><ele>1428.0</ele><time>2026-04-11T13:30:20Z</time></trkpt><trkpt lat="41.82106590285261" lon="13.321136373538799"><ele>1428.0</ele><time>2026-04-11T13:30:21Z</time></trkpt><trkpt lat="41.821123547910766" lon="13.32109062581444"><ele>1428.0</ele><time>2026-04-11T13:30:22Z</time></trkpt><trkpt lat="41.82118943504633" lon="13.32111091411409"><ele>1428.0</ele><time>2026-04-11T13:30:23Z</time></trkpt><trkpt lat="41.82125437869267" lon="13.32119975688535"><ele>1428.0</ele><time>2026-04-11T13:30:24Z</time></trkpt><trkpt lat="41.82131756169413" lon="13.321341753872783"><ele>1428.0</ele><time>2026-04-11T13:30:25Z</time></trkpt><trkpt lat="41.821360871140165" lon="13.321438345363163"><ele>1428.0</ele><time>2026-04-11T13:30:26Z</time></trkpt><trkpt lat="41.8214546529752" lon="13.321610048967166"><ele>1428.0</ele><time>2026-04-11T13:30:27Z</time></trkpt><trkpt lat="41.82155136937754" lon="13.321779175429864"><ele>1428.0</ele><time>2026-04-11T13:30:28Z</time></trkpt><trkpt lat="41.82167208185891" lon="13.32196868041355"><ele>1428.0</ele><time>2026-04-11T13:30:29Z</time></trkpt><trkpt lat="41.82174445401459" lon="13.322121265167173"><ele>1426.0</ele><time>2026-04-11T13:30:30Z</time></trkpt><trkpt lat="41.82179158613689" lon="13.322299429589503"><ele>1424.0</ele><time>2026-04-11T13:30:31Z</time></trkpt><trkpt lat="41.82182749066142" lon="13.322517337447366"><ele>1422.0</ele><time>2026-04-11T13:30:32Z</time></trkpt><trkpt lat="41.82184293397512" lon="13.322722523253463"><ele>1436.0</ele><time>2026-04-11T13:30:33Z</time></trkpt><trkpt lat="41.8218589856211" lon="13.322935483738588"><ele>1450.0</ele><time>2026-04-11T13:30:34Z</time></trkpt><trkpt lat="41.8218512783406" lon="13.32314511011658"><ele>1464.0</ele><time>2026-04-11T13:30:35Z</time></trkpt><trkpt lat="41.821860020839" lon="13.323348682870655"><ele>1464.0</ele><time>2026-04-11T13:30:36Z</time></trkpt><trkpt lat="41.821916835032866" lon="13.323572676628682"><ele>1464.0</ele><time>2026-04-11T13:30:37Z</time></trkpt><trkpt lat="41.82202085004714" lon="13.323806562463325"><ele>1464.0</ele><time>2026-04-11T13:30:38Z</time></trkpt><trkpt lat="41.822103919228205" lon="13.323998442253027"><ele>1464.0</ele><time>2026-04-11T13:30:39Z</time></trkpt><trkpt lat="41.82216389024186" lon="13.324157776271699"><ele>1464.0</ele><time>2026-04-11T13:30:40Z</time></trkpt><trkpt lat="41.82217743495919" lon="13.324302560309164"><ele>1464.0</ele><time>2026-04-11T13:30:41Z</time></trkpt><trkpt lat="41.82210960126236" lon="13.324448022219697"><ele>1464.0</ele><time>2026-04-11T13:30:42Z</time></trkpt><trkpt lat="41.82204474148028" lon="13.324619579887639"><ele>1459.0</ele><time>2026-04-11T13:30:43Z</time></trkpt><trkpt lat="41.821925827761724" lon="13.324768085728154"><ele>1454.0</ele><time>2026-04-11T13:30:44Z</time></trkpt><trkpt lat="41.82180155560098" lon="13.324919562792592"><ele>1449.0</ele><time>2026-04-11T13:30:45Z</time></trkpt><trkpt lat="41.821671533405535" lon="13.325084321855922"><ele>1449.0</ele><time>2026-04-11T13:30:46Z</time></trkpt><trkpt lat="41.82153556010025" lon="13.325238356269221"><ele>1449.0</ele><time>2026-04-11T13:30:47Z</time></trkpt><trkpt lat="41.82140073033739" lon="13.325357890765767"><ele>1449.0</ele><time>2026-04-11T13:30:48Z</time></trkpt><trkpt lat="41.82129552404743" lon="13.325475914327264"><ele>1452.6</ele><time>2026-04-11T13:30:49Z</time></trkpt><trkpt lat="41.82120862843037" lon="13.32560842999954"><ele>1456.2</ele><time>2026-04-11T13:30:50Z</time></trkpt><trkpt lat="41.821136703629705" lon="13.325731089560396"><ele>1459.8</ele><time>2026-04-11T13:30:51Z</time></trkpt><trkpt lat="41.8211241458833" lon="13.325849299536213"><ele>1463.3999999999999</ele><time>2026-04-11T13:30:52Z</time></trkpt><trkpt lat="41.821119054548525" lon="13.32598940131982"><ele>1467.0</ele><time>2026-04-11T13:30:53Z</time></trkpt><trkpt lat="41.82113739332452" lon="13.326141845429095"><ele>1467.0</ele><time>2026-04-11T13:30:54Z</time></trkpt><trkpt lat="41.82115449620523" lon="13.32631715109529"><ele>1467.0</ele><time>2026-04-11T13:30:55Z</time></trkpt><trkpt lat="41.82122720940092" lon="13.326595771349767"><ele>1467.0</ele><time>2026-04-11T13:30:56Z</time></trkpt><trkpt lat="41.821304617552705" lon="13.326855313184046"><ele>1468.6666666666667</ele><time>2026-04-11T13:30:57Z</time></trkpt><trkpt lat="41.82138759671754" lon="13.327126578012821"><ele>1470.3333333333335</ele><time>2026-04-11T13:30:58Z</time></trkpt><trkpt lat="41.821469312273415" lon="13.32738022831593"><ele>1472.0</ele><time>2026-04-11T13:30:59Z</time></trkpt><trkpt lat="41.82155170241411" lon="13.327606061224966"><ele>1472.0</ele><time>2026-04-11T13:31:00Z</time></trkpt><trkpt lat="41.82160111941428" lon="13.327814132559839"><ele>1472.0</ele><time>2026-04-11T13:31:01Z</time></trkpt><trkpt lat="41.82164980041716" lon="13.32803619405887"><ele>1472.0</ele><time>2026-04-11T13:31:02Z</time></trkpt><trkpt lat="41.821663534599516" lon="13.328212357173987"><ele>1473.0</ele><time>2026-04-11T13:31:03Z</time></trkpt><trkpt lat="41.82161663903258" lon="13.328376753998091"><ele>1474.0</ele><time>2026-04-11T13:31:04Z</time></trkpt><trkpt lat="41.82152632029315" lon="13.328529544899155"><ele>1475.0</ele><time>2026-04-11T13:31:05Z</time></trkpt><trkpt lat="41.82141715196385" lon="13.328710396112065"><ele>1475.0</ele><time>2026-04-11T13:31:06Z</time></trkpt><trkpt lat="41.82130019588539" lon="13.328876454094035"><ele>1475.0</ele><time>2026-04-11T13:31:07Z</time></trkpt><trkpt lat="41.82116185206775" lon="13.3289609929361"><ele>1475.0</ele><time>2026-04-11T13:31:08Z</time></trkpt><trkpt lat="41.82101755882338" lon="13.329033609532651"><ele>1474.0</ele><time>2026-04-11T13:31:09Z</time></trkpt><trkpt lat="41.82089470994845" lon="13.32910556067441"><ele>1473.0</ele><time>2026-04-11T13:31:10Z</time></trkpt><trkpt lat="41.82078533463363" lon="13.329164173981239"><ele>1472.0</ele><time>2026-04-11T13:31:11Z</time></trkpt><trkpt lat="41.82069409604323" lon="13.329214081810246"><ele>1471.0</ele><time>2026-04-11T13:31:12Z</time></trkpt><trkpt lat="41.82068238738525" lon="13.32934128296393"><ele>1470.0</ele><time>2026-04-11T13:31:13Z</time></trkpt><trkpt lat="41.82068521569573" lon="13.32948085430945"><ele>1470.0</ele><time>2026-04-11T13:31:14Z</time></trkpt><trkpt lat="41.82076035062377" lon="13.329614486279473"><ele>1470.0</ele><time>2026-04-11T13:31:15Z</time></trkpt><trkpt lat="41.82087841228145" lon="13.329692688723389"><ele>1470.0</ele><time>2026-04-11T13:31:16Z</time></trkpt><trkpt lat="41.821021656069085" lon="13.32971935117267"><ele>1470.0</ele><time>2026-04-11T13:31:17Z</time></trkpt><trkpt lat="41.82117927641857" lon="13.32968095605435"><ele>1472.6666666666667</ele><time>2026-04-11T13:31:18Z</time></trkpt><trkpt lat="41.82135076219507" lon="13.329602871894428"><ele>1475.3333333333335</ele><time>2026-04-11T13:31:19Z</time></trkpt><trkpt lat="41.8215342269421" lon="13.329533508326676"><ele>1478.0</ele><time>2026-04-11T13:31:20Z</time></trkpt><trkpt lat="41.82170119042975" lon="13.329454083458563"><ele>1484.6666666666667</ele><time>2026-04-11T13:31:21Z</time></trkpt><trkpt lat="41.821842199187174" lon="13.329296835709043"><ele>1491.3333333333333</ele><time>2026-04-11T13:31:22Z</time></trkpt><trkpt lat="41.821940342740376" lon="13.329104549992437"><ele>1498.0</ele><time>2026-04-11T13:31:23Z</time></trkpt><trkpt lat="41.82202669736551" lon="13.328883321237502"><ele>1500.0</ele><time>2026-04-11T13:31:24Z</time></trkpt><trkpt lat="41.82210566315439" lon="13.328669306580233"><ele>1502.0</ele><time>2026-04-11T13:31:25Z</time></trkpt><trkpt lat="41.82217849551283" lon="13.328438848194168"><ele>1504.0</ele><time>2026-04-11T13:31:26Z</time></trkpt><trkpt lat="41.822258319187945" lon="13.328219384166319"><ele>1506.0</ele><time>2026-04-11T13:31:27Z</time></trkpt><trkpt lat="41.822303513090645" lon="13.327995149386485"><ele>1508.0</ele><time>2026-04-11T13:31:28Z</time></trkpt><trkpt lat="41.82231598225272" lon="13.327760437214845"><ele>1510.0</ele><time>2026-04-11T13:31:29Z</time></trkpt><trkpt lat="41.822312536762695" lon="13.327502018706642"><ele>1511.0</ele><time>2026-04-11T13:31:30Z</time></trkpt><trkpt lat="41.82230494100621" lon="13.327226926194964"><ele>1512.0</ele><time>2026-04-11T13:31:31Z</time></trkpt><trkpt lat="41.82227873596327" lon="13.326998262227034"><ele>1513.0</ele><time>2026-04-11T13:31:32Z</time></trkpt><trkpt lat="41.822253813341206" lon="13.326807509630774"><ele>1513.0</ele><time>2026-04-11T13:31:33Z</time></trkpt><trkpt lat="41.82224935708454" lon="13.326599487511169"><ele>1513.0</ele><time>2026-04-11T13:31:34Z</time></trkpt><trkpt lat="41.82224143194501" lon="13.32639976770661"><ele>1513.0</ele><time>2026-04-11T13:31:35Z</time></trkpt><trkpt lat="41.82232455382525" lon="13.326249466865365"><ele>1513.0</ele><time>2026-04-11T13:31:36Z</time></trkpt><trkpt lat="41.82241618599201" lon="13.326127826547678"><ele>1510.5</ele><time>2026-04-11T13:31:37Z</time></trkpt><trkpt lat="41.82252175932234" lon="13.326026290890889"><ele>1508.0</ele><time>2026-04-11T13:31:38Z</time></trkpt><trkpt lat="41.82264003834318" lon="13.32590381041437"><ele>1505.5</ele><time>2026-04-11T13:31:39Z</time></trkpt><trkpt lat="41.822768657336034" lon="13.325765197625941"><ele>1503.0</ele><time>2026-04-11T13:31:40Z</time></trkpt><trkpt lat="41.822957186569134" lon="13.325590024784235"><ele>1509.6666666666667</ele><time>2026-04-11T13:31:41Z</time></trkpt><trkpt lat="41.82308986664311" lon="13.325452947546248"><ele>1516.3333333333335</ele><time>2026-04-11T13:31:42Z</time></trkpt><trkpt lat="41.823196696769955" lon="13.325333750757071"><ele>1523.0</ele><time>2026-04-11T13:31:43Z</time></trkpt><trkpt lat="41.82328051871562" lon="13.325173214937257"><ele>1523.0</ele><time>2026-04-11T13:31:44Z</time></trkpt><trkpt lat="41.823349130321816" lon="13.324985228575667"><ele>1523.0</ele><time>2026-04-11T13:31:45Z</time></trkpt><trkpt lat="41.82337900168522" lon="13.324783121936829"><ele>1523.0</ele><time>2026-04-11T13:31:46Z</time></trkpt><trkpt lat="41.823383478361116" lon="13.324599557493698"><ele>1523.0</ele><time>2026-04-11T13:31:47Z</time></trkpt><trkpt lat="41.8233823034594" lon="13.32439315834343"><ele>1520.3333333333335</ele><time>2026-04-11T13:31:48Z</time></trkpt><trkpt lat="41.823361942105784" lon="13.324167578641374"><ele>1517.6666666666667</ele><time>2026-04-11T13:31:49Z</time></trkpt><trkpt lat="41.823359181227936" lon="13.323955760524822"><ele>1515.0</ele><time>2026-04-11T13:31:50Z</time></trkpt><trkpt lat="41.82334514879225" lon="13.323740682153515"><ele>1513.6666666666667</ele><time>2026-04-11T13:31:51Z</time></trkpt><trkpt lat="41.82337227201476" lon="13.323538029324135"><ele>1512.3333333333335</ele><time>2026-04-11T13:31:52Z</time></trkpt><trkpt lat="41.823440163912025" lon="13.323338160395325"><ele>1511.0</ele><time>2026-04-11T13:31:53Z</time></trkpt><trkpt lat="41.823534737545835" lon="13.323146001183945"><ele>1516.6666666666667</ele><time>2026-04-11T13:31:54Z</time></trkpt><trkpt lat="41.82362255298221" lon="13.322971785507965"><ele>1522.3333333333333</ele><time>2026-04-11T13:31:55Z</time></trkpt><trkpt lat="41.823742180971024" lon="13.322823926347873"><ele>1528.0</ele><time>2026-04-11T13:31:56Z</time></trkpt><trkpt lat="41.82388786002795" lon="13.322701761679536"><ele>1528.0</ele><time>2026-04-11T13:31:57Z</time></trkpt><trkpt lat="41.82403580828904" lon="13.322559964942487"><ele>1528.0</ele><time>2026-04-11T13:31:58Z</time></trkpt><trkpt lat="41.824177094886956" lon="13.322429211927332"><ele>1528.0</ele><time>2026-04-11T13:31:59Z</time></trkpt><trkpt lat="41.824340031984676" lon="13.322339285854445"><ele>1525.0</ele><time>2026-04-11T13:32:00Z</time></trkpt><trkpt lat="41.82448226436064" lon="13.322228441956526"><ele>1522.0</ele><time>2026-04-11T13:32:01Z</time></trkpt><trkpt lat="41.8246450141464" lon="13.322176086432052"><ele>1519.0</ele><time>2026-04-11T13:32:02Z</time></trkpt><trkpt lat="41.82482501569418" lon="13.32211384548674"><ele>1519.0</ele><time>2026-04-11T13:32:03Z</time></trkpt><trkpt lat="41.82501735038932" lon="13.322049500966731"><ele>1519.0</ele><time>2026-04-11T13:32:04Z</time></trkpt><trkpt lat="41.825203680262575" lon="13.32197904788835"><ele>1519.0</ele><time>2026-04-11T13:32:05Z</time></trkpt><trkpt lat="41.82537674061942" lon="13.321898043511872"><ele>1526.6666666666665</ele><time>2026-04-11T13:32:06Z</time></trkpt><trkpt lat="41.82555261043973" lon="13.321813708535373"><ele>1534.3333333333333</ele><time>2026-04-11T13:32:07Z</time></trkpt><trkpt lat="41.82573053984865" lon="13.321733880789777"><ele>1542.0</ele><time>2026-04-11T13:32:08Z</time></trkpt><trkpt lat="41.825914055984164" lon="13.32165688535761"><ele>1548.0</ele><time>2026-04-11T13:32:09Z</time></trkpt><trkpt lat="41.82609376758548" lon="13.321610297324744"><ele>1554.0</ele><time>2026-04-11T13:32:10Z</time></trkpt><trkpt lat="41.8262905468396" lon="13.321563076074957"><ele>1560.0</ele><time>2026-04-11T13:32:11Z</time></trkpt><trkpt lat="41.826489961676714" lon="13.32148783078536"><ele>1560.0</ele><time>2026-04-11T13:32:12Z</time></trkpt><trkpt lat="41.82666768810341" lon="13.32140175442894"><ele>1560.0</ele><time>2026-04-11T13:32:13Z</time></trkpt><trkpt lat="41.82685019101266" lon="13.32129653542816"><ele>1560.0</ele><time>2026-04-11T13:32:14Z</time></trkpt><trkpt lat="41.827045383067095" lon="13.321190098008953"><ele>1558.0</ele><time>2026-04-11T13:32:15Z</time></trkpt><trkpt lat="41.82722245789454" lon="13.321091290420858"><ele>1556.0</ele><time>2026-04-11T13:32:16Z</time></trkpt><trkpt lat="41.82740061327362" lon="13.320984181174286"><ele>1554.0</ele><time>2026-04-11T13:32:17Z</time></trkpt><trkpt lat="41.827575495498166" lon="13.320879684815136"><ele>1553.0</ele><time>2026-04-11T13:32:18Z</time></trkpt><trkpt lat="41.82773413786105" lon="13.32074522136927"><ele>1552.0</ele><time>2026-04-11T13:32:19Z</time></trkpt><trkpt lat="41.82789694972254" lon="13.320607619046912"><ele>1551.0</ele><time>2026-04-11T13:32:20Z</time></trkpt><trkpt lat="41.828056557153666" lon="13.320476511390911"><ele>1551.0</ele><time>2026-04-11T13:32:21Z</time></trkpt><trkpt lat="41.82821277834776" lon="13.320343020439788"><ele>1551.0</ele><time>2026-04-11T13:32:22Z</time></trkpt><trkpt lat="41.82837028795781" lon="13.320218946574997"><ele>1551.0</ele><time>2026-04-11T13:32:23Z</time></trkpt><trkpt lat="41.82852149382269" lon="13.320104102097712"><ele>1557.3333333333335</ele><time>2026-04-11T13:32:24Z</time></trkpt><trkpt lat="41.828672637227015" lon="13.320033059296344"><ele>1563.6666666666667</ele><time>2026-04-11T13:32:25Z</time></trkpt><trkpt lat="41.8288041216736" lon="13.31994731841331"><ele>1570.0</ele><time>2026-04-11T13:32:26Z</time></trkpt><trkpt lat="41.82895201801526" lon="13.31990835798077"><ele>1570.0</ele><time>2026-04-11T13:32:27Z</time></trkpt><trkpt lat="41.829093498361416" lon="13.319871948871102"><ele>1570.0</ele><time>2026-04-11T13:32:28Z</time></trkpt><trkpt lat="41.829235605384625" lon="13.319842866842604"><ele>1570.0</ele><time>2026-04-11T13:32:29Z</time></trkpt><trkpt lat="41.829381098230655" lon="13.319815322701919"><ele>1570.0</ele><time>2026-04-11T13:32:30Z</time></trkpt><trkpt lat="41.8295055935642" lon="13.319782183632809"><ele>1571.0</ele><time>2026-04-11T13:32:31Z</time></trkpt><trkpt lat="41.82968635654996" lon="13.319852421049065"><ele>1572.0</ele><time>2026-04-11T13:32:32Z</time></trkpt><trkpt lat="41.829892802691944" lon="13.319894367356023"><ele>1573.0</ele><time>2026-04-11T13:32:33Z</time></trkpt><trkpt lat="41.8300193394806" lon="13.319835120506411"><ele>1567.3333333333335</ele><time>2026-04-11T13:32:34Z</time></trkpt><trkpt lat="41.830235189809514" lon="13.319944187443383"><ele>1561.6666666666665</ele><time>2026-04-11T13:32:35Z</time></trkpt><trkpt lat="41.8304272975534" lon="13.320034275999827"><ele>1556.0</ele><time>2026-04-11T13:32:36Z</time></trkpt><trkpt lat="41.83058511082703" lon="13.320124592961253"><ele>1556.0</ele><time>2026-04-11T13:32:37Z</time></trkpt><trkpt lat="41.830711193991185" lon="13.320214137386898"><ele>1556.0</ele><time>2026-04-11T13:32:38Z</time></trkpt><trkpt lat="41.83082919990547" lon="13.320311393007204"><ele>1556.0</ele><time>2026-04-11T13:32:39Z</time></trkpt><trkpt lat="41.830933832280984" lon="13.320442860414698"><ele>1556.0</ele><time>2026-04-11T13:32:40Z</time></trkpt><trkpt lat="41.83104306228619" lon="13.320815780446228"><ele>1556.5</ele><time>2026-04-11T13:32:41Z</time></trkpt><trkpt lat="41.831073349118476" lon="13.320978901320823"><ele>1557.0</ele><time>2026-04-11T13:32:42Z</time></trkpt><trkpt lat="41.83106258234665" lon="13.32115257153477"><ele>1557.5</ele><time>2026-04-11T13:32:43Z</time></trkpt><trkpt lat="41.83107498439808" lon="13.321349603313248"><ele>1558.0</ele><time>2026-04-11T13:32:44Z</time></trkpt><trkpt lat="41.83108088197781" lon="13.321555500025987"><ele>1560.3333333333335</ele><time>2026-04-11T13:32:45Z</time></trkpt><trkpt lat="41.83105607495391" lon="13.321789646849489"><ele>1562.6666666666665</ele><time>2026-04-11T13:32:46Z</time></trkpt><trkpt lat="41.83103087769299" lon="13.32199965185332"><ele>1565.0</ele><time>2026-04-11T13:32:47Z</time></trkpt><trkpt lat="41.83100748637484" lon="13.322204137261474"><ele>1575.5</ele><time>2026-04-11T13:32:48Z</time></trkpt><trkpt lat="41.830973055028046" lon="13.322398015541948"><ele>1586.0</ele><time>2026-04-11T13:32:49Z</time></trkpt><trkpt lat="41.830937573423114" lon="13.322598790164134"><ele>1596.5</ele><time>2026-04-11T13:32:50Z</time></trkpt><trkpt lat="41.830913003585984" lon="13.322749556614975"><ele>1607.0</ele><time>2026-04-11T13:32:51Z</time></trkpt><trkpt lat="41.83089723479325" lon="13.322896903597595"><ele>1607.0</ele><time>2026-04-11T13:32:52Z</time></trkpt><trkpt lat="41.83087930377445" lon="13.323010347940277"><ele>1607.0</ele><time>2026-04-11T13:32:53Z</time></trkpt><trkpt lat="41.83087483701705" lon="13.323126909140983"><ele>1607.0</ele><time>2026-04-11T13:32:54Z</time></trkpt><trkpt lat="41.83094881265026" lon="13.323236108632914"><ele>1607.0</ele><time>2026-04-11T13:32:55Z</time></trkpt><trkpt lat="41.83103797561668" lon="13.323315068630402"><ele>1607.0</ele><time>2026-04-11T13:32:56Z</time></trkpt><trkpt lat="41.831145514216345" lon="13.323343865133102"><ele>1608.25</ele><time>2026-04-11T13:32:57Z</time></trkpt><trkpt lat="41.83127349513866" lon="13.323357990415792"><ele>1609.5</ele><time>2026-04-11T13:32:58Z</time></trkpt><trkpt lat="41.83140046258448" lon="13.323349984209736"><ele>1610.75</ele><time>2026-04-11T13:32:59Z</time></trkpt><trkpt lat="41.83156728092338" lon="13.323317300165023"><ele>1612.0</ele><time>2026-04-11T13:33:00Z</time></trkpt><trkpt lat="41.831712371798574" lon="13.323321743388881"><ele>1616.6666666666667</ele><time>2026-04-11T13:33:01Z</time></trkpt><trkpt lat="41.831843585245615" lon="13.32332637479804"><ele>1621.3333333333335</ele><time>2026-04-11T13:33:02Z</time></trkpt><trkpt lat="41.83200548123676" lon="13.323221085463278"><ele>1626.0</ele><time>2026-04-11T13:33:03Z</time></trkpt><trkpt lat="41.83218021346237" lon="13.323111831766521"><ele>1618.5</ele><time>2026-04-11T13:33:04Z</time></trkpt><trkpt lat="41.83230366898446" lon="13.323018172633128"><ele>1611.0</ele><time>2026-04-11T13:33:05Z</time></trkpt><trkpt lat="41.83242690592505" lon="13.322960585027607"><ele>1603.5</ele><time>2026-04-11T13:33:06Z</time></trkpt><trkpt lat="41.8325475719504" lon="13.322944492007455"><ele>1596.0</ele><time>2026-04-11T13:33:07Z</time></trkpt><trkpt lat="41.832675580036124" lon="13.322981280634886"><ele>1593.0</ele><time>2026-04-11T13:33:08Z</time></trkpt><trkpt lat="41.83278118538085" lon="13.323023957759641"><ele>1590.0</ele><time>2026-04-11T13:33:09Z</time></trkpt><trkpt lat="41.83288018553795" lon="13.323098102345353"><ele>1587.0</ele><time>2026-04-11T13:33:10Z</time></trkpt><trkpt lat="41.83299486522417" lon="13.323139883497152"><ele>1584.0</ele><time>2026-04-11T13:33:11Z</time></trkpt><trkpt lat="41.833031914742605" lon="13.323513088815652"><ele>1591.0</ele><time>2026-04-11T13:33:12Z</time></trkpt><trkpt lat="41.83311666951138" lon="13.323655907890117"><ele>1598.0</ele><time>2026-04-11T13:33:13Z</time></trkpt><trkpt lat="41.833214784488156" lon="13.323771912025258"><ele>1605.0</ele><time>2026-04-11T13:33:14Z</time></trkpt><trkpt lat="41.83333554592586" lon="13.32384002577921"><ele>1612.0</ele><time>2026-04-11T13:33:15Z</time></trkpt><trkpt lat="41.83348013482431" lon="13.323903983689952"><ele>1618.75</ele><time>2026-04-11T13:33:16Z</time></trkpt><trkpt lat="41.83361279172897" lon="13.323957416173945"><ele>1625.5</ele><time>2026-04-11T13:33:17Z</time></trkpt><trkpt lat="41.83372642564382" lon="13.324007249562014"><ele>1632.25</ele><time>2026-04-11T13:33:18Z</time></trkpt><trkpt lat="41.83384953935676" lon="13.324016324137776"><ele>1639.0</ele><time>2026-04-11T13:33:19Z</time></trkpt><trkpt lat="41.833947254511365" lon="13.32401409449451"><ele>1639.0</ele><time>2026-04-11T13:33:20Z</time></trkpt><trkpt lat="41.83408142698013" lon="13.32399687272903"><ele>1639.0</ele><time>2026-04-11T13:33:21Z</time></trkpt><trkpt lat="41.83421250646486" lon="13.323968913288239"><ele>1639.0</ele><time>2026-04-11T13:33:22Z</time></trkpt><trkpt lat="41.83438877129703" lon="13.323855690901416"><ele>1634.0</ele><time>2026-04-11T13:33:23Z</time></trkpt><trkpt lat="41.83451319418864" lon="13.323835368723955"><ele>1629.0</ele><time>2026-04-11T13:33:24Z</time></trkpt><trkpt lat="41.83461338727554" lon="13.323838111994416"><ele>1624.0</ele><time>2026-04-11T13:33:25Z</time></trkpt><trkpt lat="41.83472214969503" lon="13.32382533875829"><ele>1619.0</ele><time>2026-04-11T13:33:26Z</time></trkpt><trkpt lat="41.834864723945" lon="13.323837794562563"><ele>1619.0</ele><time>2026-04-11T13:33:27Z</time></trkpt><trkpt lat="41.83498790186188" lon="13.323840471023333"><ele>1619.0</ele><time>2026-04-11T13:33:28Z</time></trkpt><trkpt lat="41.83513333063529" lon="13.323831315521149"><ele>1619.0</ele><time>2026-04-11T13:33:29Z</time></trkpt><trkpt lat="41.83525072015383" lon="13.323785863623026"><ele>1619.0</ele><time>2026-04-11T13:33:30Z</time></trkpt><trkpt lat="41.835347765093175" lon="13.323761511790096"><ele>1618.8000000000002</ele><time>2026-04-11T13:33:31Z</time></trkpt><trkpt lat="41.83541350003929" lon="13.323852034513196"><ele>1618.6000000000001</ele><time>2026-04-11T13:33:34Z</time></trkpt><trkpt lat="41.835436304386015" lon="13.32393515317112"><ele>1618.4</ele><time>2026-04-11T13:33:36Z</time></trkpt><trkpt lat="41.83537951330377" lon="13.32399063958319"><ele>1618.2</ele><time>2026-04-11T13:33:37Z</time></trkpt><trkpt lat="41.835263749735375" lon="13.32400962830233"><ele>1618.0</ele><time>2026-04-11T13:33:38Z</time></trkpt><trkpt lat="41.835145633686345" lon="13.324029190904144"><ele>1625.0</ele><time>2026-04-11T13:33:39Z</time></trkpt><trkpt lat="41.834954249461155" lon="13.324069325015355"><ele>1632.0</ele><time>2026-04-11T13:33:40Z</time></trkpt><trkpt lat="41.834795605094946" lon="13.324112090214202"><ele>1639.0</ele><time>2026-04-11T13:33:41Z</time></trkpt><trkpt lat="41.83464667008963" lon="13.324153111092782"><ele>1639.0</ele><time>2026-04-11T13:33:42Z</time></trkpt><trkpt lat="41.83449073940669" lon="13.324189224403987"><ele>1639.0</ele><time>2026-04-11T13:33:43Z</time></trkpt><trkpt lat="41.834325418914446" lon="13.324235774544634"><ele>1639.0</ele><time>2026-04-11T13:33:44Z</time></trkpt><trkpt lat="41.83416916269594" lon="13.324302673035456"><ele>1639.0</ele><time>2026-04-11T13:33:45Z</time></trkpt><trkpt lat="41.83400878060798" lon="13.324370078805138"><ele>1639.0</ele><time>2026-04-11T13:33:46Z</time></trkpt><trkpt lat="41.83386156973628" lon="13.324417212062977"><ele>1639.0</ele><time>2026-04-11T13:33:47Z</time></trkpt><trkpt lat="41.83373235958445" lon="13.324472181947721"><ele>1639.0</ele><time>2026-04-11T13:33:48Z</time></trkpt><trkpt lat="41.833615407605805" lon="13.324502092335456"><ele>1639.0</ele><time>2026-04-11T13:33:49Z</time></trkpt><trkpt lat="41.833469069466176" lon="13.32449288281818"><ele>1639.0</ele><time>2026-04-11T13:33:50Z</time></trkpt><trkpt lat="41.83332917160161" lon="13.32441951688384"><ele>1639.0</ele><time>2026-04-11T13:33:51Z</time></trkpt><trkpt lat="41.83318812694766" lon="13.32436590552454"><ele>1640.3333333333335</ele><time>2026-04-11T13:33:52Z</time></trkpt><trkpt lat="41.833032013328605" lon="13.324384804529569"><ele>1641.6666666666665</ele><time>2026-04-11T13:33:53Z</time></trkpt><trkpt lat="41.83287370845663" lon="13.324365505566897"><ele>1643.0</ele><time>2026-04-11T13:33:54Z</time></trkpt><trkpt lat="41.832771767517684" lon="13.324229092201353"><ele>1643.0</ele><time>2026-04-11T13:33:55Z</time></trkpt><trkpt lat="41.83267374885085" lon="13.324095514177387"><ele>1643.0</ele><time>2026-04-11T13:33:56Z</time></trkpt><trkpt lat="41.832568978867315" lon="13.323985425767383"><ele>1643.0</ele><time>2026-04-11T13:33:57Z</time></trkpt><trkpt lat="41.83247093168889" lon="13.323957211892793"><ele>1643.0</ele><time>2026-04-11T13:33:58Z</time></trkpt><trkpt lat="41.832375899260256" lon="13.323945221262964"><ele>1646.25</ele><time>2026-04-11T13:33:59Z</time></trkpt><trkpt lat="41.832253167651956" lon="13.323974453481474"><ele>1649.5</ele><time>2026-04-11T13:34:00Z</time></trkpt><trkpt lat="41.8321459802282" lon="13.324045605475893"><ele>1652.75</ele><time>2026-04-11T13:34:01Z</time></trkpt><trkpt lat="41.8319966021208" lon="13.324149305302942"><ele>1656.0</ele><time>2026-04-11T13:34:02Z</time></trkpt><trkpt lat="41.83185049858971" lon="13.324242375158576"><ele>1655.0</ele><time>2026-04-11T13:34:03Z</time></trkpt><trkpt lat="41.83169160786195" lon="13.32434959874028"><ele>1654.0</ele><time>2026-04-11T13:34:04Z</time></trkpt><trkpt lat="41.83152854195538" lon="13.324479082650914"><ele>1653.0</ele><time>2026-04-11T13:34:05Z</time></trkpt><trkpt lat="41.831362854543805" lon="13.324596164391304"><ele>1653.0</ele><time>2026-04-11T13:34:06Z</time></trkpt><trkpt lat="41.83119666318805" lon="13.3246701562088"><ele>1653.0</ele><time>2026-04-11T13:34:07Z</time></trkpt><trkpt lat="41.83102425381705" lon="13.324719648543713"><ele>1653.0</ele><time>2026-04-11T13:34:08Z</time></trkpt><trkpt lat="41.83086768391569" lon="13.324774981504643"><ele>1659.6666666666665</ele><time>2026-04-11T13:34:09Z</time></trkpt><trkpt lat="41.83072002238082" lon="13.324820901315821"><ele>1666.3333333333333</ele><time>2026-04-11T13:34:10Z</time></trkpt><trkpt lat="41.8305804300794" lon="13.324906199156416"><ele>1673.0</ele><time>2026-04-11T13:34:11Z</time></trkpt><trkpt lat="41.83045241295243" lon="13.32500754522669"><ele>1673.0</ele><time>2026-04-11T13:34:12Z</time></trkpt><trkpt lat="41.83032595440022" lon="13.32508573128849"><ele>1673.0</ele><time>2026-04-11T13:34:13Z</time></trkpt><trkpt lat="41.83021692409838" lon="13.325127318645002"><ele>1673.0</ele><time>2026-04-11T13:34:14Z</time></trkpt><trkpt lat="41.83012455086038" lon="13.32514433771655"><ele>1673.0</ele><time>2026-04-11T13:34:15Z</time></trkpt><trkpt lat="41.83004189446005" lon="13.32515718974669"><ele>1673.0</ele><time>2026-04-11T13:34:16Z</time></trkpt><trkpt lat="41.82996471999347" lon="13.325165967430664"><ele>1673.1666666666665</ele><time>2026-04-11T13:34:17Z</time></trkpt><trkpt lat="41.82989834957892" lon="13.325134802516608"><ele>1673.3333333333333</ele><time>2026-04-11T13:34:18Z</time></trkpt><trkpt lat="41.82981716968016" lon="13.325110585255633"><ele>1673.5</ele><time>2026-04-11T13:34:19Z</time></trkpt><trkpt lat="41.8297469848794" lon="13.32507009861064"><ele>1673.6666666666665</ele><time>2026-04-11T13:34:20Z</time></trkpt><trkpt lat="41.82969244806974" lon="13.32500565509575"><ele>1673.8333333333333</ele><time>2026-04-11T13:34:21Z</time></trkpt><trkpt lat="41.82964847722372" lon="13.324875123657698"><ele>1674.0</ele><time>2026-04-11T13:34:22Z</time></trkpt><trkpt lat="41.82962970392592" lon="13.324734561749718"><ele>1670.75</ele><time>2026-04-11T13:34:23Z</time></trkpt><trkpt lat="41.82960008065466" lon="13.32457856168521"><ele>1667.5</ele><time>2026-04-11T13:34:24Z</time></trkpt><trkpt lat="41.82958039466366" lon="13.324424052965997"><ele>1664.25</ele><time>2026-04-11T13:34:25Z</time></trkpt><trkpt lat="41.829551904876595" lon="13.324260971932464"><ele>1661.0</ele><time>2026-04-11T13:34:26Z</time></trkpt><trkpt lat="41.829534758737296" lon="13.324087791430637"><ele>1661.0</ele><time>2026-04-11T13:34:27Z</time></trkpt><trkpt lat="41.82951850420945" lon="13.32391075277278"><ele>1661.0</ele><time>2026-04-11T13:34:28Z</time></trkpt><trkpt lat="41.82949777293462" lon="13.323736331872748"><ele>1661.0</ele><time>2026-04-11T13:34:29Z</time></trkpt><trkpt lat="41.829473259335586" lon="13.323556256799991"><ele>1661.0</ele><time>2026-04-11T13:34:30Z</time></trkpt><trkpt lat="41.82943469231549" lon="13.323391139344357"><ele>1660.1999999999998</ele><time>2026-04-11T13:34:31Z</time></trkpt><trkpt lat="41.82938917626079" lon="13.323241453823126"><ele>1659.3999999999999</ele><time>2026-04-11T13:34:32Z</time></trkpt><trkpt lat="41.829346683740646" lon="13.323121473105612"><ele>1658.6</ele><time>2026-04-11T13:34:33Z</time></trkpt><trkpt lat="41.82928722515937" lon="13.323031620289019"><ele>1657.8</ele><time>2026-04-11T13:34:34Z</time></trkpt><trkpt lat="41.8292179428471" lon="13.322964119806661"><ele>1657.0</ele><time>2026-04-11T13:34:35Z</time></trkpt><trkpt lat="41.82912719750028" lon="13.322913838510335"><ele>1660.0</ele><time>2026-04-11T13:34:36Z</time></trkpt><trkpt lat="41.82902448283364" lon="13.322907047910766"><ele>1663.0</ele><time>2026-04-11T13:34:37Z</time></trkpt><trkpt lat="41.82892424675964" lon="13.322951274203138"><ele>1666.0</ele><time>2026-04-11T13:34:38Z</time></trkpt><trkpt lat="41.828815266500186" lon="13.322998295108292"><ele>1669.0</ele><time>2026-04-11T13:34:39Z</time></trkpt><trkpt lat="41.82873004255348" lon="13.323047577095156"><ele>1672.0</ele><time>2026-04-11T13:34:40Z</time></trkpt><trkpt lat="41.82864283736077" lon="13.323133661027327"><ele>1675.25</ele><time>2026-04-11T13:34:41Z</time></trkpt><trkpt lat="41.828553185968836" lon="13.323240704542707"><ele>1678.5</ele><time>2026-04-11T13:34:42Z</time></trkpt><trkpt lat="41.828501649448334" lon="13.323340520929628"><ele>1681.75</ele><time>2026-04-11T13:34:43Z</time></trkpt><trkpt lat="41.828423834743745" lon="13.323466808922884"><ele>1685.0</ele><time>2026-04-11T13:34:44Z</time></trkpt><trkpt lat="41.82827191732271" lon="13.323543907571384"><ele>1685.0</ele><time>2026-04-11T13:34:45Z</time></trkpt><trkpt lat="41.8281694058904" lon="13.323556243206788"><ele>1685.0</ele><time>2026-04-11T13:34:46Z</time></trkpt><trkpt lat="41.82809230580883" lon="13.323541601221079"><ele>1685.0</ele><time>2026-04-11T13:34:47Z</time></trkpt><trkpt lat="41.82799232391476" lon="13.323550586805224"><ele>1685.0</ele><time>2026-04-11T13:34:48Z</time></trkpt><trkpt lat="41.8279198998044" lon="13.32362677663683"><ele>1685.0</ele><time>2026-04-11T13:34:49Z</time></trkpt><trkpt lat="41.82765543858463" lon="13.323825768793455"><ele>1690.0</ele><time>2026-04-11T13:34:50Z</time></trkpt><trkpt lat="41.82755998993128" lon="13.323962981411807"><ele>1695.0</ele><time>2026-04-11T13:34:51Z</time></trkpt><trkpt lat="41.82747011700856" lon="13.324072809676471"><ele>1700.0</ele><time>2026-04-11T13:34:52Z</time></trkpt><trkpt lat="41.82736146289288" lon="13.324175665343036"><ele>1705.0</ele><time>2026-04-11T13:34:53Z</time></trkpt><trkpt lat="41.82726209640607" lon="13.324263658884046"><ele>1705.0</ele><time>2026-04-11T13:34:54Z</time></trkpt><trkpt lat="41.827124365476315" lon="13.324369104177908"><ele>1705.0</ele><time>2026-04-11T13:34:55Z</time></trkpt><trkpt lat="41.82699450602482" lon="13.324458735912202"><ele>1705.0</ele><time>2026-04-11T13:34:56Z</time></trkpt><trkpt lat="41.826851909378696" lon="13.324528199380808"><ele>1710.6666666666667</ele><time>2026-04-11T13:34:57Z</time></trkpt><trkpt lat="41.826683495025605" lon="13.324599134978572"><ele>1716.3333333333335</ele><time>2026-04-11T13:34:58Z</time></trkpt><trkpt lat="41.82650985567775" lon="13.324671691378187"><ele>1722.0</ele><time>2026-04-11T13:34:59Z</time></trkpt><trkpt lat="41.826295554773736" lon="13.324775292821332"><ele>1722.0</ele><time>2026-04-11T13:35:00Z</time></trkpt><trkpt lat="41.82611759806555" lon="13.324863900393694"><ele>1722.0</ele><time>2026-04-11T13:35:01Z</time></trkpt><trkpt lat="41.825974106155996" lon="13.32496521492174"><ele>1722.0</ele><time>2026-04-11T13:35:02Z</time></trkpt><trkpt lat="41.82587259439682" lon="13.32509803489255"><ele>1719.5</ele><time>2026-04-11T13:35:03Z</time></trkpt><trkpt lat="41.82580780419137" lon="13.325258858727642"><ele>1717.0</ele><time>2026-04-11T13:35:04Z</time></trkpt><trkpt lat="41.825772343677095" lon="13.325427877121658"><ele>1714.5</ele><time>2026-04-11T13:35:05Z</time></trkpt><trkpt lat="41.82574243404519" lon="13.325627519115836"><ele>1712.0</ele><time>2026-04-11T13:35:06Z</time></trkpt><trkpt lat="41.825753247034406" lon="13.325835347123473"><ele>1712.0</ele><time>2026-04-11T13:35:07Z</time></trkpt><trkpt lat="41.825753366408705" lon="13.3260549199975"><ele>1712.0</ele><time>2026-04-11T13:35:08Z</time></trkpt><trkpt lat="41.825752865280094" lon="13.32626777062952"><ele>1712.0</ele><time>2026-04-11T13:35:09Z</time></trkpt><trkpt lat="41.82579692113292" lon="13.326484280661806"><ele>1712.6666666666665</ele><time>2026-04-11T13:35:10Z</time></trkpt><trkpt lat="41.825889220588564" lon="13.32668007492928"><ele>1713.3333333333335</ele><time>2026-04-11T13:35:11Z</time></trkpt><trkpt lat="41.82596961313365" lon="13.326892089286472"><ele>1714.0</ele><time>2026-04-11T13:35:12Z</time></trkpt><trkpt lat="41.826072688502705" lon="13.327075363072804"><ele>1722.3333333333335</ele><time>2026-04-11T13:35:13Z</time></trkpt><trkpt lat="41.82616709268415" lon="13.327244512635867"><ele>1730.6666666666665</ele><time>2026-04-11T13:35:14Z</time></trkpt><trkpt lat="41.82628173791057" lon="13.327413155004383"><ele>1739.0</ele><time>2026-04-11T13:35:15Z</time></trkpt><trkpt lat="41.82642052344243" lon="13.327574724092882"><ele>1739.0</ele><time>2026-04-11T13:35:16Z</time></trkpt><trkpt lat="41.82654504934454" lon="13.327743835883346"><ele>1739.0</ele><time>2026-04-11T13:35:17Z</time></trkpt><trkpt lat="41.82667166768153" lon="13.32791861055328"><ele>1739.0</ele><time>2026-04-11T13:35:18Z</time></trkpt><trkpt lat="41.826814588205174" lon="13.328068967916266"><ele>1745.0</ele><time>2026-04-11T13:35:19Z</time></trkpt><trkpt lat="41.82695355828827" lon="13.328224598387312"><ele>1751.0</ele><time>2026-04-11T13:35:20Z</time></trkpt><trkpt lat="41.82708250675192" lon="13.328392302812459"><ele>1757.0</ele><time>2026-04-11T13:35:21Z</time></trkpt><trkpt lat="41.827170036851484" lon="13.328595448324274"><ele>1757.0</ele><time>2026-04-11T13:35:22Z</time></trkpt><trkpt lat="41.82725100789919" lon="13.328812118261368"><ele>1757.0</ele><time>2026-04-11T13:35:23Z</time></trkpt><trkpt lat="41.82734003957804" lon="13.329047532816206"><ele>1757.0</ele><time>2026-04-11T13:35:24Z</time></trkpt><trkpt lat="41.82741230363417" lon="13.3292841276499"><ele>1757.0</ele><time>2026-04-11T13:35:25Z</time></trkpt><trkpt lat="41.82752497372464" lon="13.329494561091773"><ele>1757.0</ele><time>2026-04-11T13:35:26Z</time></trkpt><trkpt lat="41.827654335715245" lon="13.329679543720045"><ele>1757.0</ele><time>2026-04-11T13:35:27Z</time></trkpt><trkpt lat="41.82776567051827" lon="13.32987819955489"><ele>1757.0</ele><time>2026-04-11T13:35:28Z</time></trkpt><trkpt lat="41.82786872299806" lon="13.330076948335448"><ele>1757.0</ele><time>2026-04-11T13:35:29Z</time></trkpt><trkpt lat="41.8279618805316" lon="13.330260478456694"><ele>1757.0</ele><time>2026-04-11T13:35:30Z</time></trkpt><trkpt lat="41.828051372612975" lon="13.330424123194124"><ele>1750.6666666666665</ele><time>2026-04-11T13:35:31Z</time></trkpt><trkpt lat="41.8281658000257" lon="13.330571182059328"><ele>1744.3333333333335</ele><time>2026-04-11T13:35:32Z</time></trkpt><trkpt lat="41.82830580835914" lon="13.330656807123228"><ele>1738.0</ele><time>2026-04-11T13:35:33Z</time></trkpt><trkpt lat="41.828469349812025" lon="13.330721512222777"><ele>1744.6666666666667</ele><time>2026-04-11T13:35:34Z</time></trkpt><trkpt lat="41.828622236617264" lon="13.330828612880767"><ele>1751.3333333333335</ele><time>2026-04-11T13:35:35Z</time></trkpt><trkpt lat="41.82876767002734" lon="13.330929941007998"><ele>1758.0</ele><time>2026-04-11T13:35:36Z</time></trkpt><trkpt lat="41.82889471136056" lon="13.331001155044188"><ele>1758.0</ele><time>2026-04-11T13:35:37Z</time></trkpt><trkpt lat="41.82905957491556" lon="13.331014210278447"><ele>1758.0</ele><time>2026-04-11T13:35:38Z</time></trkpt><trkpt lat="41.82922428314856" lon="13.33100146184256"><ele>1758.0</ele><time>2026-04-11T13:35:39Z</time></trkpt><trkpt lat="41.829384022390755" lon="13.331090402982195"><ele>1756.3333333333335</ele><time>2026-04-11T13:35:40Z</time></trkpt><trkpt lat="41.829538441587154" lon="13.331196672149284"><ele>1754.6666666666667</ele><time>2026-04-11T13:35:41Z</time></trkpt><trkpt lat="41.829682901541325" lon="13.33131451628977"><ele>1753.0</ele><time>2026-04-11T13:35:42Z</time></trkpt><trkpt lat="41.829832370191795" lon="13.331454507739704"><ele>1753.0</ele><time>2026-04-11T13:35:43Z</time></trkpt><trkpt lat="41.82997605399941" lon="13.331597582645804"><ele>1753.0</ele><time>2026-04-11T13:35:44Z</time></trkpt><trkpt lat="41.83012096395837" lon="13.331742310544586"><ele>1753.0</ele><time>2026-04-11T13:35:45Z</time></trkpt><trkpt lat="41.830274666775914" lon="13.331894557808326"><ele>1758.3333333333335</ele><time>2026-04-11T13:35:46Z</time></trkpt><trkpt lat="41.830414466100265" lon="13.332045729169096"><ele>1763.6666666666665</ele><time>2026-04-11T13:35:47Z</time></trkpt><trkpt lat="41.83053891224918" lon="13.332209213492169"><ele>1769.0</ele><time>2026-04-11T13:35:48Z</time></trkpt><trkpt lat="41.830630162115895" lon="13.332428393751698"><ele>1769.0</ele><time>2026-04-11T13:35:49Z</time></trkpt><trkpt lat="41.83069718338057" lon="13.332653265437662"><ele>1769.0</ele><time>2026-04-11T13:35:50Z</time></trkpt><trkpt lat="41.8307368525988" lon="13.33289298132238"><ele>1769.0</ele><time>2026-04-11T13:35:51Z</time></trkpt><trkpt lat="41.83074740072051" lon="13.333135307914787"><ele>1768.5</ele><time>2026-04-11T13:35:52Z</time></trkpt><trkpt lat="41.83076706513267" lon="13.333349934303238"><ele>1768.0</ele><time>2026-04-11T13:35:53Z</time></trkpt><trkpt lat="41.830805409715225" lon="13.333535535487599"><ele>1767.5</ele><time>2026-04-11T13:35:54Z</time></trkpt><trkpt lat="41.83087207113603" lon="13.333703310708197"><ele>1767.0</ele><time>2026-04-11T13:35:55Z</time></trkpt><trkpt lat="41.830990387685965" lon="13.333833943257131"><ele>1769.0</ele><time>2026-04-11T13:35:56Z</time></trkpt><trkpt lat="41.83111825325168" lon="13.333952259470792"><ele>1771.0</ele><time>2026-04-11T13:35:57Z</time></trkpt><trkpt lat="41.83121629547209" lon="13.334092312318475"><ele>1773.0</ele><time>2026-04-11T13:35:58Z</time></trkpt><trkpt lat="41.83128144596316" lon="13.334276361549023"><ele>1773.0</ele><time>2026-04-11T13:35:59Z</time></trkpt><trkpt lat="41.831302409794205" lon="13.334495684394414"><ele>1773.0</ele><time>2026-04-11T13:36:00Z</time></trkpt><trkpt lat="41.83131605188995" lon="13.33472280546721"><ele>1773.0</ele><time>2026-04-11T13:36:01Z</time></trkpt><trkpt lat="41.83135622129229" lon="13.334951603126228"><ele>1772.6666666666665</ele><time>2026-04-11T13:36:02Z</time></trkpt><trkpt lat="41.83142425770013" lon="13.335172648778368"><ele>1772.3333333333333</ele><time>2026-04-11T13:36:03Z</time></trkpt><trkpt lat="41.83150912003515" lon="13.335380398790553"><ele>1772.0</ele><time>2026-04-11T13:36:04Z</time></trkpt><trkpt lat="41.831602608854574" lon="13.33557726970533"><ele>1772.0</ele><time>2026-04-11T13:36:05Z</time></trkpt><trkpt lat="41.83170728985773" lon="13.335775525915258"><ele>1772.0</ele><time>2026-04-11T13:36:06Z</time></trkpt><trkpt lat="41.83182296571862" lon="13.335984925847278"><ele>1772.0</ele><time>2026-04-11T13:36:07Z</time></trkpt><trkpt lat="41.831965698372464" lon="13.336202582613055"><ele>1774.6666666666665</ele><time>2026-04-11T13:36:08Z</time></trkpt><trkpt lat="41.83212406341339" lon="13.336395405819221"><ele>1777.3333333333335</ele><time>2026-04-11T13:36:09Z</time></trkpt><trkpt lat="41.83228763972356" lon="13.33653955269162"><ele>1780.0</ele><time>2026-04-11T13:36:10Z</time></trkpt><trkpt lat="41.83246550191011" lon="13.336663379320546"><ele>1780.0</ele><time>2026-04-11T13:36:11Z</time></trkpt><trkpt lat="41.83262536380765" lon="13.336759392173299"><ele>1780.0</ele><time>2026-04-11T13:36:12Z</time></trkpt><trkpt lat="41.832760747498675" lon="13.336822527336658"><ele>1780.0</ele><time>2026-04-11T13:36:13Z</time></trkpt><trkpt lat="41.83288288946399" lon="13.33686056491113"><ele>1780.0</ele><time>2026-04-11T13:36:14Z</time></trkpt><trkpt lat="41.83298387641629" lon="13.336859922539983"><ele>1781.6666666666667</ele><time>2026-04-11T13:36:15Z</time></trkpt><trkpt lat="41.83306528281639" lon="13.33684463485433"><ele>1783.3333333333335</ele><time>2026-04-11T13:36:16Z</time></trkpt><trkpt lat="41.8331307306699" lon="13.336815219478067"><ele>1785.0</ele><time>2026-04-11T13:36:17Z</time></trkpt><trkpt lat="41.83319202131348" lon="13.336785594100085"><ele>1786.6666666666665</ele><time>2026-04-11T13:36:18Z</time></trkpt><trkpt lat="41.83328250194527" lon="13.336724015351857"><ele>1788.3333333333333</ele><time>2026-04-11T13:36:20Z</time></trkpt><trkpt lat="41.833365338864375" lon="13.336726474803237"><ele>1790.0</ele><time>2026-04-11T13:36:22Z</time></trkpt><trkpt lat="41.83343520183558" lon="13.336765453965286"><ele>1791.2</ele><time>2026-04-11T13:36:23Z</time></trkpt><trkpt lat="41.83350132254816" lon="13.33678670834063"><ele>1792.4</ele><time>2026-04-11T13:36:24Z</time></trkpt><trkpt lat="41.83361135327846" lon="13.336786342647374"><ele>1793.6</ele><time>2026-04-11T13:36:26Z</time></trkpt><trkpt lat="41.83370914788059" lon="13.336769213383171"><ele>1794.8</ele><time>2026-04-11T13:36:27Z</time></trkpt><trkpt lat="41.83379133672894" lon="13.336849141993458"><ele>1796.0</ele><time>2026-04-11T13:36:29Z</time></trkpt><trkpt lat="41.83389530899623" lon="13.336921007318445"><ele>1795.9999999999998</ele><time>2026-04-11T13:36:31Z</time></trkpt><trkpt lat="41.83395772232267" lon="13.336942573344404"><ele>1796.0</ele><time>2026-04-11T13:36:32Z</time></trkpt><trkpt lat="41.8340248415907" lon="13.33695341110232"><ele>1796.0</ele><time>2026-04-11T13:36:33Z</time></trkpt><trkpt lat="41.83409508635621" lon="13.336944413123037"><ele>1796.0</ele><time>2026-04-11T13:36:34Z</time></trkpt><trkpt lat="41.83420800689049" lon="13.336934952072264"><ele>1795.9999999999998</ele><time>2026-04-11T13:36:36Z</time></trkpt><trkpt lat="41.834304884571345" lon="13.336939306158081"><ele>1796.0</ele><time>2026-04-11T13:36:38Z</time></trkpt><trkpt lat="41.83440353965971" lon="13.336950778524288"><ele>1796.7142857142856</ele><time>2026-04-11T13:36:40Z</time></trkpt><trkpt lat="41.83449033909119" lon="13.336985636796404"><ele>1797.428571428571</ele><time>2026-04-11T13:36:42Z</time></trkpt><trkpt lat="41.8345530263815" lon="13.337015887289352"><ele>1798.142857142857</ele><time>2026-04-11T13:36:44Z</time></trkpt><trkpt lat="41.83462974574388" lon="13.337041159258433"><ele>1798.8571428571427</ele><time>2026-04-11T13:36:47Z</time></trkpt><trkpt lat="41.83469131632847" lon="13.337065919939807"><ele>1799.5714285714284</ele><time>2026-04-11T13:36:49Z</time></trkpt><trkpt lat="41.8347607324713" lon="13.337064887957917"><ele>1800.2857142857142</ele><time>2026-04-11T13:36:51Z</time></trkpt><trkpt lat="41.83482851625332" lon="13.337056709423043"><ele>1801.0</ele><time>2026-04-11T13:36:53Z</time></trkpt><trkpt lat="41.834891059497885" lon="13.337009382813703"><ele>1801.0</ele><time>2026-04-11T13:36:56Z</time></trkpt><trkpt lat="41.83494358521656" lon="13.33695659911073"><ele>1801.0</ele><time>2026-04-11T13:37:00Z</time></trkpt><trkpt lat="41.83493279554486" lon="13.336867397164717"><ele>1801.0</ele><time>2026-04-11T13:40:48Z</time></trkpt><trkpt lat="41.834865906133906" lon="13.336857287845591"><ele>1801.0</ele><time>2026-04-11T13:41:01Z</time></trkpt><trkpt lat="41.834800263010784" lon="13.33682594690549"><ele>1801.0</ele><time>2026-04-11T13:42:06Z</time></trkpt><trkpt lat="41.83479419694351" lon="13.33667997294544"><ele>1801.0</ele><time>2026-04-11T13:42:53Z</time></trkpt><trkpt lat="41.83481348977424" lon="13.336765679714793"><ele>1801.0</ele><time>2026-04-11T13:43:04Z</time></trkpt><trkpt lat="41.83482943820663" lon="13.336850515878115"><ele>1801.0</ele><time>2026-04-11T13:43:07Z</time></trkpt><trkpt lat="41.834850575095295" lon="13.336940415822934"><ele>1801.0</ele><time>2026-04-11T13:59:35Z</time></trkpt><trkpt lat="41.834898540261584" lon="13.337002828949888"><ele>1801.0</ele><time>2026-04-11T13:59:42Z</time></trkpt><trkpt lat="41.83496235230287" lon="13.337020522765917"><ele>1801.0</ele><time>2026-04-11T13:59:49Z</time></trkpt><trkpt lat="41.83503301869839" lon="13.33702637551043"><ele>1801.0</ele><time>2026-04-11T13:59:58Z</time></trkpt><trkpt lat="41.83507754330246" lon="13.3369584636437"><ele>1801.0</ele><time>2026-04-11T14:00:07Z</time></trkpt><trkpt lat="41.8351322656517" lon="13.337002858127189"><ele>1801.0</ele><time>2026-04-11T14:01:21Z</time></trkpt><trkpt lat="41.83516342605645" lon="13.337082008224867"><ele>1800.5714285714287</ele><time>2026-04-11T14:01:27Z</time></trkpt><trkpt lat="41.8352005154652" lon="13.33716441970743"><ele>1800.1428571428569</ele><time>2026-04-11T14:01:34Z</time></trkpt><trkpt lat="41.83525399682397" lon="13.337228398157768"><ele>1799.7142857142856</ele><time>2026-04-11T14:01:41Z</time></trkpt><trkpt lat="41.835300779169145" lon="13.337293129104728"><ele>1799.2857142857142</ele><time>2026-04-11T14:01:48Z</time></trkpt><trkpt lat="41.835338679029306" lon="13.33737529720056"><ele>1798.8571428571427</ele><time>2026-04-11T14:01:55Z</time></trkpt><trkpt lat="41.83537498410813" lon="13.337449024459655"><ele>1798.428571428571</ele><time>2026-04-11T14:02:02Z</time></trkpt><trkpt lat="41.83541171782421" lon="13.337524616456951"><ele>1797.9999999999998</ele><time>2026-04-11T14:02:11Z</time></trkpt><trkpt lat="41.83543697768199" lon="13.337443621895895"><ele>1797.9999999999998</ele><time>2026-04-11T14:04:02Z</time></trkpt><trkpt lat="41.83539880561556" lon="13.337373106806107"><ele>1798.0</ele><time>2026-04-11T14:04:09Z</time></trkpt><trkpt lat="41.83535825683294" lon="13.337302067274017"><ele>1797.9999999999998</ele><time>2026-04-11T14:04:16Z</time></trkpt><trkpt lat="41.83531390854927" lon="13.337228975191898"><ele>1797.9999999999998</ele><time>2026-04-11T14:04:24Z</time></trkpt><trkpt lat="41.835263656713" lon="13.337177149600606"><ele>1798.0</ele><time>2026-04-11T14:04:32Z</time></trkpt><trkpt lat="41.835215058496466" lon="13.337109161789325"><ele>1797.9999999999998</ele><time>2026-04-11T14:04:49Z</time></trkpt><trkpt lat="41.835160015855266" lon="13.337051285873953"><ele>1797.9999999999998</ele><time>2026-04-11T14:04:57Z</time></trkpt><trkpt lat="41.835096255087464" lon="13.337008850958089"><ele>1798.5000000000002</ele><time>2026-04-11T14:05:05Z</time></trkpt><trkpt lat="41.83504304593255" lon="13.336958000099933"><ele>1799.0</ele><time>2026-04-11T14:05:15Z</time></trkpt><trkpt lat="41.83497960460097" lon="13.33696111163167"><ele>1799.5</ele><time>2026-04-11T14:05:22Z</time></trkpt><trkpt lat="41.8349605796055" lon="13.336859608820378"><ele>1800.0</ele><time>2026-04-11T14:14:32Z</time></trkpt><trkpt lat="41.83489775098829" lon="13.33694190474515"><ele>1800.5000000000002</ele><time>2026-04-11T14:15:39Z</time></trkpt><trkpt lat="41.834820232067884" lon="13.3369794454523"><ele>1801.0</ele><time>2026-04-11T14:15:41Z</time></trkpt><trkpt lat="41.834742911606334" lon="13.336980252197051"><ele>1801.0</ele><time>2026-04-11T14:15:43Z</time></trkpt><trkpt lat="41.83466774060455" lon="13.33696593100341"><ele>1801.0</ele><time>2026-04-11T14:15:45Z</time></trkpt><trkpt lat="41.83458346491306" lon="13.336955949881986"><ele>1801.0</ele><time>2026-04-11T14:15:48Z</time></trkpt><trkpt lat="41.834508295914944" lon="13.336905706971887"><ele>1801.0</ele><time>2026-04-11T14:15:51Z</time></trkpt><trkpt lat="41.83443105923263" lon="13.336880490839407"><ele>1801.0</ele><time>2026-04-11T14:15:53Z</time></trkpt><trkpt lat="41.834292278948865" lon="13.336849046279909"><ele>1800.0</ele><time>2026-04-11T14:15:55Z</time></trkpt><trkpt lat="41.8341892666976" lon="13.336843036512311"><ele>1799.0</ele><time>2026-04-11T14:15:56Z</time></trkpt><trkpt lat="41.83410924499085" lon="13.336828755311718"><ele>1798.0</ele><time>2026-04-11T14:15:57Z</time></trkpt><trkpt lat="41.83401924842559" lon="13.336803350958759"><ele>1797.0</ele><time>2026-04-11T14:15:59Z</time></trkpt><trkpt lat="41.83394727827179" lon="13.33674305508034"><ele>1796.0</ele><time>2026-04-11T14:16:01Z</time></trkpt><trkpt lat="41.83385390607965" lon="13.336690372600952"><ele>1795.9999999999998</ele><time>2026-04-11T14:16:03Z</time></trkpt><trkpt lat="41.83374261958423" lon="13.336652894998059"><ele>1796.0</ele><time>2026-04-11T14:16:05Z</time></trkpt><trkpt lat="41.833662599561926" lon="13.33664219377235"><ele>1796.0</ele><time>2026-04-11T14:16:07Z</time></trkpt><trkpt lat="41.83359840301619" lon="13.336632595056317"><ele>1796.0</ele><time>2026-04-11T14:16:09Z</time></trkpt><trkpt lat="41.83353316241297" lon="13.336633424912801"><ele>1795.9999999999998</ele><time>2026-04-11T14:16:11Z</time></trkpt><trkpt lat="41.83346927701126" lon="13.336631617676838"><ele>1796.0</ele><time>2026-04-11T14:16:13Z</time></trkpt><trkpt lat="41.83340660636575" lon="13.33659678678393"><ele>1794.9999999999998</ele><time>2026-04-11T14:16:15Z</time></trkpt><trkpt lat="41.833330922165175" lon="13.336540745341045"><ele>1794.0</ele><time>2026-04-11T14:16:17Z</time></trkpt><trkpt lat="41.83327720134463" lon="13.336437069134885"><ele>1793.0</ele><time>2026-04-11T14:16:19Z</time></trkpt><trkpt lat="41.833226779192074" lon="13.336294495207087"><ele>1792.0</ele><time>2026-04-11T14:16:21Z</time></trkpt><trkpt lat="41.83317933120292" lon="13.336235413058317"><ele>1790.9999999999998</ele><time>2026-04-11T14:16:22Z</time></trkpt><trkpt lat="41.833125737624144" lon="13.336179218994474"><ele>1790.0</ele><time>2026-04-11T14:16:23Z</time></trkpt><trkpt lat="41.833025104258326" lon="13.336115883973362"><ele>1788.8</ele><time>2026-04-11T14:16:25Z</time></trkpt><trkpt lat="41.83293266928986" lon="13.336110843364832"><ele>1787.6</ele><time>2026-04-11T14:16:27Z</time></trkpt><trkpt lat="41.83283948904978" lon="13.336143526461646"><ele>1786.4</ele><time>2026-04-11T14:16:29Z</time></trkpt><trkpt lat="41.83272062953249" lon="13.336218697437785"><ele>1785.2</ele><time>2026-04-11T14:16:31Z</time></trkpt><trkpt lat="41.83264908235125" lon="13.336258499139467"><ele>1784.0</ele><time>2026-04-11T14:16:32Z</time></trkpt><trkpt lat="41.83256709109052" lon="13.336298960931563"><ele>1783.9999999999998</ele><time>2026-04-11T14:16:33Z</time></trkpt><trkpt lat="41.832484894768946" lon="13.336320202763542"><ele>1784.0</ele><time>2026-04-11T14:16:34Z</time></trkpt><trkpt lat="41.832411829540575" lon="13.336326691829656"><ele>1784.0</ele><time>2026-04-11T14:16:35Z</time></trkpt><trkpt lat="41.832342806230244" lon="13.33632482436001"><ele>1784.0</ele><time>2026-04-11T14:16:36Z</time></trkpt><trkpt lat="41.83227131317417" lon="13.33630064772174"><ele>1783.9999999999998</ele><time>2026-04-11T14:16:37Z</time></trkpt><trkpt lat="41.832197346549165" lon="13.336246805824981"><ele>1784.0</ele><time>2026-04-11T14:16:38Z</time></trkpt><trkpt lat="41.832124612819406" lon="13.336163750547007"><ele>1784.0</ele><time>2026-04-11T14:16:39Z</time></trkpt><trkpt lat="41.8320568317216" lon="13.336060852520971"><ele>1784.0</ele><time>2026-04-11T14:16:40Z</time></trkpt><trkpt lat="41.83198365212948" lon="13.335941303436366"><ele>1784.0</ele><time>2026-04-11T14:16:41Z</time></trkpt><trkpt lat="41.83190581659522" lon="13.335828356405619"><ele>1784.0</ele><time>2026-04-11T14:16:42Z</time></trkpt><trkpt lat="41.83181442387007" lon="13.335706627799036"><ele>1781.6666666666665</ele><time>2026-04-11T14:16:43Z</time></trkpt><trkpt lat="41.83172191446477" lon="13.33556228716906"><ele>1779.3333333333335</ele><time>2026-04-11T14:16:44Z</time></trkpt><trkpt lat="41.83162574202713" lon="13.335396376052687"><ele>1777.0</ele><time>2026-04-11T14:16:45Z</time></trkpt><trkpt lat="41.831527032232906" lon="13.335203230119705"><ele>1777.0</ele><time>2026-04-11T14:16:46Z</time></trkpt><trkpt lat="41.831465236038596" lon="13.335017834427042"><ele>1777.0</ele><time>2026-04-11T14:16:47Z</time></trkpt><trkpt lat="41.83141849527049" lon="13.334827401257485"><ele>1777.0</ele><time>2026-04-11T14:16:48Z</time></trkpt><trkpt lat="41.831381889623216" lon="13.3346522902443"><ele>1777.0</ele><time>2026-04-11T14:16:49Z</time></trkpt><trkpt lat="41.831348005966404" lon="13.33448535033358"><ele>1776.1999999999998</ele><time>2026-04-11T14:16:50Z</time></trkpt><trkpt lat="41.83131479116258" lon="13.334335518724645"><ele>1775.3999999999999</ele><time>2026-04-11T14:16:51Z</time></trkpt><trkpt lat="41.83128802592982" lon="13.334191355937827"><ele>1774.6000000000001</ele><time>2026-04-11T14:16:52Z</time></trkpt><trkpt lat="41.83124504393691" lon="13.334062645042742"><ele>1773.8000000000002</ele><time>2026-04-11T14:16:53Z</time></trkpt><trkpt lat="41.83118294976482" lon="13.333954945666749"><ele>1773.0</ele><time>2026-04-11T14:16:54Z</time></trkpt><trkpt lat="41.831105928874024" lon="13.333852896282364"><ele>1771.5</ele><time>2026-04-11T14:16:55Z</time></trkpt><trkpt lat="41.83101724837534" lon="13.333759038466237"><ele>1770.0</ele><time>2026-04-11T14:16:56Z</time></trkpt><trkpt lat="41.8309325699768" lon="13.333654230152495"><ele>1768.5</ele><time>2026-04-11T14:16:57Z</time></trkpt><trkpt lat="41.830866668559636" lon="13.33352972593239"><ele>1767.0</ele><time>2026-04-11T14:16:58Z</time></trkpt><trkpt lat="41.83082336730658" lon="13.333393111789238"><ele>1767.5</ele><time>2026-04-11T14:16:59Z</time></trkpt><trkpt lat="41.83079311261075" lon="13.333252572858699"><ele>1768.0</ele><time>2026-04-11T14:17:00Z</time></trkpt><trkpt lat="41.83076593099785" lon="13.333105170491592"><ele>1768.5</ele><time>2026-04-11T14:17:01Z</time></trkpt><trkpt lat="41.830744060328264" lon="13.332953465377424"><ele>1769.0</ele><time>2026-04-11T14:17:02Z</time></trkpt><trkpt lat="41.83073056294828" lon="13.332798613562819"><ele>1769.0</ele><time>2026-04-11T14:17:03Z</time></trkpt><trkpt lat="41.83071259379305" lon="13.33265804934714"><ele>1769.0</ele><time>2026-04-11T14:17:04Z</time></trkpt><trkpt lat="41.830692832496176" lon="13.332557984323419"><ele>1769.0</ele><time>2026-04-11T14:17:05Z</time></trkpt><trkpt lat="41.830673136335164" lon="13.332471239601444"><ele>1769.0</ele><time>2026-04-11T14:17:06Z</time></trkpt><trkpt lat="41.83064315623338" lon="13.332362981369455"><ele>1769.0</ele><time>2026-04-11T14:17:07Z</time></trkpt><trkpt lat="41.83057720126127" lon="13.332222619604373"><ele>1771.5</ele><time>2026-04-11T14:17:08Z</time></trkpt><trkpt lat="41.830485855291585" lon="13.332084679636417"><ele>1774.0</ele><time>2026-04-11T14:17:09Z</time></trkpt><trkpt lat="41.830379017112435" lon="13.33195107313364"><ele>1776.5</ele><time>2026-04-11T14:17:10Z</time></trkpt><trkpt lat="41.830263244482616" lon="13.331816233563586"><ele>1779.0</ele><time>2026-04-11T14:17:11Z</time></trkpt><trkpt lat="41.830139818350126" lon="13.331665638653222"><ele>1777.3333333333335</ele><time>2026-04-11T14:17:12Z</time></trkpt><trkpt lat="41.82999957252856" lon="13.331528474511092"><ele>1775.6666666666667</ele><time>2026-04-11T14:17:13Z</time></trkpt><trkpt lat="41.82987088271901" lon="13.33140311710996"><ele>1774.0</ele><time>2026-04-11T14:17:14Z</time></trkpt><trkpt lat="41.82974435288455" lon="13.331293524088244"><ele>1774.0</ele><time>2026-04-11T14:17:15Z</time></trkpt><trkpt lat="41.829620276056765" lon="13.331190867612225"><ele>1774.0</ele><time>2026-04-11T14:17:16Z</time></trkpt><trkpt lat="41.829490102184735" lon="13.331101733738983"><ele>1774.0</ele><time>2026-04-11T14:17:17Z</time></trkpt><trkpt lat="41.82935769749782" lon="13.331026891707532"><ele>1774.0</ele><time>2026-04-11T14:17:18Z</time></trkpt><trkpt lat="41.82921855930021" lon="13.330968765590084"><ele>1770.0</ele><time>2026-04-11T14:17:19Z</time></trkpt><trkpt lat="41.82908541433592" lon="13.330927848258646"><ele>1766.0</ele><time>2026-04-11T14:17:20Z</time></trkpt><trkpt lat="41.82896300272127" lon="13.330928410583118"><ele>1762.0</ele><time>2026-04-11T14:17:21Z</time></trkpt><trkpt lat="41.828840144837876" lon="13.330897161739923"><ele>1758.0</ele><time>2026-04-11T14:17:22Z</time></trkpt><trkpt lat="41.82872083780511" lon="13.33082086731026"><ele>1758.0</ele><time>2026-04-11T14:17:23Z</time></trkpt><trkpt lat="41.82859364310317" lon="13.330721651648604"><ele>1758.0</ele><time>2026-04-11T14:17:24Z</time></trkpt><trkpt lat="41.82844925319472" lon="13.330632086268169"><ele>1758.0</ele><time>2026-04-11T14:17:25Z</time></trkpt><trkpt lat="41.828344294713084" lon="13.330583024736615"><ele>1758.0</ele><time>2026-04-11T14:17:26Z</time></trkpt><trkpt lat="41.828239598596" lon="13.330511373721414"><ele>1757.75</ele><time>2026-04-11T14:17:27Z</time></trkpt><trkpt lat="41.828137914354706" lon="13.330414983507463"><ele>1757.5</ele><time>2026-04-11T14:17:28Z</time></trkpt><trkpt lat="41.82804561401712" lon="13.330283799334225"><ele>1757.25</ele><time>2026-04-11T14:17:29Z</time></trkpt><trkpt lat="41.827957180836464" lon="13.330127880970846"><ele>1757.0</ele><time>2026-04-11T14:17:30Z</time></trkpt><trkpt lat="41.82787134311781" lon="13.329958991169631"><ele>1757.0</ele><time>2026-04-11T14:17:31Z</time></trkpt><trkpt lat="41.82778724972292" lon="13.329785147754341"><ele>1757.0</ele><time>2026-04-11T14:17:32Z</time></trkpt><trkpt lat="41.82770636116978" lon="13.329625229119696"><ele>1757.0</ele><time>2026-04-11T14:17:33Z</time></trkpt><trkpt lat="41.82763001085495" lon="13.329481675931836"><ele>1757.0</ele><time>2026-04-11T14:17:34Z</time></trkpt><trkpt lat="41.82755618768889" lon="13.329352107813001"><ele>1757.0</ele><time>2026-04-11T14:17:35Z</time></trkpt><trkpt lat="41.82749323663796" lon="13.329223626574853"><ele>1757.0</ele><time>2026-04-11T14:17:36Z</time></trkpt><trkpt lat="41.82743803038182" lon="13.329094546126607"><ele>1757.0</ele><time>2026-04-11T14:17:37Z</time></trkpt><trkpt lat="41.82738328853226" lon="13.328954632806234"><ele>1757.0</ele><time>2026-04-11T14:17:38Z</time></trkpt><trkpt lat="41.82732841846993" lon="13.328808921916746"><ele>1757.0</ele><time>2026-04-11T14:17:39Z</time></trkpt><trkpt lat="41.827268154609754" lon="13.328666249435907"><ele>1757.0</ele><time>2026-04-11T14:17:40Z</time></trkpt><trkpt lat="41.82720579917233" lon="13.328512005170339"><ele>1757.0</ele><time>2026-04-11T14:17:41Z</time></trkpt><trkpt lat="41.82713002041022" lon="13.328367312119395"><ele>1757.0</ele><time>2026-04-11T14:17:42Z</time></trkpt><trkpt lat="41.82703859026296" lon="13.328230858527121"><ele>1757.0</ele><time>2026-04-11T14:17:43Z</time></trkpt><trkpt lat="41.8269364276072" lon="13.328105180215083"><ele>1757.0</ele><time>2026-04-11T14:17:44Z</time></trkpt><trkpt lat="41.82683507067266" lon="13.32797981388719"><ele>1757.0</ele><time>2026-04-11T14:17:45Z</time></trkpt><trkpt lat="41.82672675554612" lon="13.32786119285166"><ele>1757.0</ele><time>2026-04-11T14:17:46Z</time></trkpt><trkpt lat="41.826626340397674" lon="13.327739672827018"><ele>1752.5</ele><time>2026-04-11T14:17:47Z</time></trkpt><trkpt lat="41.82653882230768" lon="13.327617233228557"><ele>1748.0</ele><time>2026-04-11T14:17:48Z</time></trkpt><trkpt lat="41.8264507399853" lon="13.32748742126554"><ele>1743.5</ele><time>2026-04-11T14:17:49Z</time></trkpt><trkpt lat="41.826362221106024" lon="13.327360234366166"><ele>1739.0</ele><time>2026-04-11T14:17:50Z</time></trkpt><trkpt lat="41.826276093926786" lon="13.327245119837313"><ele>1743.0</ele><time>2026-04-11T14:17:51Z</time></trkpt><trkpt lat="41.82619436559787" lon="13.327131490150654"><ele>1747.0</ele><time>2026-04-11T14:17:52Z</time></trkpt><trkpt lat="41.826117921731786" lon="13.327007382568956"><ele>1751.0</ele><time>2026-04-11T14:17:53Z</time></trkpt><trkpt lat="41.82604953073444" lon="13.3268577422187"><ele>1755.0</ele><time>2026-04-11T14:17:54Z</time></trkpt><trkpt lat="41.82598937830594" lon="13.32669795547496"><ele>1744.75</ele><time>2026-04-11T14:17:55Z</time></trkpt><trkpt lat="41.82593724976581" lon="13.326548475137704"><ele>1734.5</ele><time>2026-04-11T14:17:56Z</time></trkpt><trkpt lat="41.82588809163516" lon="13.326408696072674"><ele>1724.25</ele><time>2026-04-11T14:17:57Z</time></trkpt><trkpt lat="41.825844691638636" lon="13.326264215681196"><ele>1714.0</ele><time>2026-04-11T14:17:58Z</time></trkpt><trkpt lat="41.82582398858434" lon="13.326104020216054"><ele>1713.5</ele><time>2026-04-11T14:17:59Z</time></trkpt><trkpt lat="41.8258287937651" lon="13.325942952293483"><ele>1713.0</ele><time>2026-04-11T14:18:00Z</time></trkpt><trkpt lat="41.82575245609064" lon="13.325820934767245"><ele>1712.5</ele><time>2026-04-11T14:18:01Z</time></trkpt><trkpt lat="41.82576702077679" lon="13.32565203792246"><ele>1712.0</ele><time>2026-04-11T14:18:02Z</time></trkpt><trkpt lat="41.82578500832862" lon="13.325473244977289"><ele>1714.5</ele><time>2026-04-11T14:18:03Z</time></trkpt><trkpt lat="41.82582758558712" lon="13.325313888298073"><ele>1717.0</ele><time>2026-04-11T14:18:04Z</time></trkpt><trkpt lat="41.82585791669864" lon="13.32515859253997"><ele>1719.5</ele><time>2026-04-11T14:18:05Z</time></trkpt><trkpt lat="41.82592868630708" lon="13.325043803906611"><ele>1722.0</ele><time>2026-04-11T14:18:06Z</time></trkpt><trkpt lat="41.82600844087833" lon="13.324944018308672"><ele>1722.0</ele><time>2026-04-11T14:18:07Z</time></trkpt><trkpt lat="41.82607707106314" lon="13.324834241904744"><ele>1721.9999999999998</ele><time>2026-04-11T14:18:08Z</time></trkpt><trkpt lat="41.8261611823433" lon="13.3247390310697"><ele>1721.9999999999998</ele><time>2026-04-11T14:18:09Z</time></trkpt><trkpt lat="41.82625504697601" lon="13.324667798446262"><ele>1722.0</ele><time>2026-04-11T14:18:10Z</time></trkpt><trkpt lat="41.8263536999354" lon="13.324587349611647"><ele>1722.0</ele><time>2026-04-11T14:18:11Z</time></trkpt><trkpt lat="41.826469197040545" lon="13.3245193128455"><ele>1716.3333333333335</ele><time>2026-04-11T14:18:12Z</time></trkpt><trkpt lat="41.826614878157294" lon="13.32446811400252"><ele>1710.6666666666667</ele><time>2026-04-11T14:18:13Z</time></trkpt><trkpt lat="41.826773047340474" lon="13.324391587019358"><ele>1705.0</ele><time>2026-04-11T14:18:14Z</time></trkpt><trkpt lat="41.82691618211184" lon="13.324332467149963"><ele>1705.0</ele><time>2026-04-11T14:18:15Z</time></trkpt><trkpt lat="41.82705900112211" lon="13.324267759238852"><ele>1705.0</ele><time>2026-04-11T14:18:16Z</time></trkpt><trkpt lat="41.82720214353496" lon="13.324195217114548"><ele>1705.0</ele><time>2026-04-11T14:18:17Z</time></trkpt><trkpt lat="41.827342162632114" lon="13.324111559124177"><ele>1705.0</ele><time>2026-04-11T14:18:18Z</time></trkpt><trkpt lat="41.82747108672072" lon="13.324032522087187"><ele>1705.0</ele><time>2026-04-11T14:18:19Z</time></trkpt><trkpt lat="41.82760568034703" lon="13.323956932969992"><ele>1705.0</ele><time>2026-04-11T14:18:20Z</time></trkpt><trkpt lat="41.82767074438343" lon="13.323824728276858"><ele>1705.0</ele><time>2026-04-11T14:18:21Z</time></trkpt><trkpt lat="41.82773267775322" lon="13.32373453404097"><ele>1701.0</ele><time>2026-04-11T14:18:22Z</time></trkpt><trkpt lat="41.82780542599833" lon="13.323663894866218"><ele>1697.0</ele><time>2026-04-11T14:18:23Z</time></trkpt><trkpt lat="41.8278824873961" lon="13.323601408552008"><ele>1693.0</ele><time>2026-04-11T14:18:24Z</time></trkpt><trkpt lat="41.82798266639114" lon="13.32355960835975"><ele>1689.0</ele><time>2026-04-11T14:18:25Z</time></trkpt><trkpt lat="41.82808018921229" lon="13.323554613836444"><ele>1685.0</ele><time>2026-04-11T14:18:26Z</time></trkpt><trkpt lat="41.82818314839617" lon="13.323570807926744"><ele>1685.0</ele><time>2026-04-11T14:18:27Z</time></trkpt><trkpt lat="41.82828455330699" lon="13.323579099699419"><ele>1685.0</ele><time>2026-04-11T14:18:28Z</time></trkpt><trkpt lat="41.82838779297343" lon="13.32356005217324"><ele>1685.0</ele><time>2026-04-11T14:18:29Z</time></trkpt><trkpt lat="41.82848699022001" lon="13.323492784172977"><ele>1685.0</ele><time>2026-04-11T14:18:30Z</time></trkpt><trkpt lat="41.82856571676606" lon="13.32339593296192"><ele>1685.0</ele><time>2026-04-11T14:18:31Z</time></trkpt><trkpt lat="41.828624161011724" lon="13.3232770436275"><ele>1685.4</ele><time>2026-04-11T14:18:32Z</time></trkpt><trkpt lat="41.82867836089359" lon="13.323193182067575"><ele>1685.8</ele><time>2026-04-11T14:18:33Z</time></trkpt><trkpt lat="41.82873053558601" lon="13.323116245953806"><ele>1686.1999999999998</ele><time>2026-04-11T14:18:34Z</time></trkpt><trkpt lat="41.82879345597773" lon="13.323050328489437"><ele>1686.6</ele><time>2026-04-11T14:18:35Z</time></trkpt><trkpt lat="41.82887907924293" lon="13.322991718808955"><ele>1687.0</ele><time>2026-04-11T14:18:36Z</time></trkpt><trkpt lat="41.82898932452486" lon="13.322942605419787"><ele>1684.0</ele><time>2026-04-11T14:18:37Z</time></trkpt><trkpt lat="41.829095384002656" lon="13.322916544085691"><ele>1681.0</ele><time>2026-04-11T14:18:38Z</time></trkpt><trkpt lat="41.8291757691288" lon="13.322920969584043"><ele>1678.0</ele><time>2026-04-11T14:18:39Z</time></trkpt><trkpt lat="41.829269182075315" lon="13.322973370339897"><ele>1675.0</ele><time>2026-04-11T14:18:40Z</time></trkpt><trkpt lat="41.82935188014292" lon="13.323062445868842"><ele>1672.0</ele><time>2026-04-11T14:18:41Z</time></trkpt><trkpt lat="41.82940341044997" lon="13.323161603870458"><ele>1669.5000000000002</ele><time>2026-04-11T14:18:42Z</time></trkpt><trkpt lat="41.829450199362405" lon="13.32325257804231"><ele>1667.0</ele><time>2026-04-11T14:18:43Z</time></trkpt><trkpt lat="41.82949231487199" lon="13.323334931466649"><ele>1664.5</ele><time>2026-04-11T14:18:44Z</time></trkpt><trkpt lat="41.829522988359386" lon="13.323439918239888"><ele>1662.0</ele><time>2026-04-11T14:18:45Z</time></trkpt><trkpt lat="41.82954414512004" lon="13.323555752313537"><ele>1659.5000000000002</ele><time>2026-04-11T14:18:46Z</time></trkpt><trkpt lat="41.8295541912898" lon="13.323669720961494"><ele>1657.0</ele><time>2026-04-11T14:18:47Z</time></trkpt><trkpt lat="41.82956066479888" lon="13.323797838955286"><ele>1657.8</ele><time>2026-04-11T14:18:48Z</time></trkpt><trkpt lat="41.829571173133594" lon="13.32393400326496"><ele>1658.6</ele><time>2026-04-11T14:18:49Z</time></trkpt><trkpt lat="41.82958242325688" lon="13.324080681185958"><ele>1659.3999999999999</ele><time>2026-04-11T14:18:50Z</time></trkpt><trkpt lat="41.82959791974595" lon="13.324220536171287"><ele>1660.1999999999998</ele><time>2026-04-11T14:18:51Z</time></trkpt><trkpt lat="41.829612342325504" lon="13.324352885093894"><ele>1661.0</ele><time>2026-04-11T14:18:52Z</time></trkpt><trkpt lat="41.82963029661818" lon="13.324489917142502"><ele>1661.0</ele><time>2026-04-11T14:18:53Z</time></trkpt><trkpt lat="41.82964636170056" lon="13.324633138842279"><ele>1661.0</ele><time>2026-04-11T14:18:54Z</time></trkpt><trkpt lat="41.82967595278635" lon="13.324762886273417"><ele>1661.0</ele><time>2026-04-11T14:18:55Z</time></trkpt><trkpt lat="41.82970397503259" lon="13.324885102570583"><ele>1661.0</ele><time>2026-04-11T14:18:56Z</time></trkpt><trkpt lat="41.82975224374814" lon="13.324990436230703"><ele>1661.0</ele><time>2026-04-11T14:18:57Z</time></trkpt><trkpt lat="41.829820839816755" lon="13.325067779542582"><ele>1663.4</ele><time>2026-04-11T14:18:58Z</time></trkpt><trkpt lat="41.829909283411766" lon="13.325125575947588"><ele>1665.8</ele><time>2026-04-11T14:18:59Z</time></trkpt><trkpt lat="41.83001339208224" lon="13.325157644456668"><ele>1668.2</ele><time>2026-04-11T14:19:00Z</time></trkpt><trkpt lat="41.83011611661213" lon="13.32515845931043"><ele>1670.6000000000001</ele><time>2026-04-11T14:19:01Z</time></trkpt><trkpt lat="41.83023395293966" lon="13.325137907466546"><ele>1673.0</ele><time>2026-04-11T14:19:02Z</time></trkpt><trkpt lat="41.83033809475653" lon="13.325105941596602"><ele>1673.0</ele><time>2026-04-11T14:19:03Z</time></trkpt><trkpt lat="41.83043107882067" lon="13.325078626503508"><ele>1673.0</ele><time>2026-04-11T14:19:04Z</time></trkpt><trkpt lat="41.83054096465308" lon="13.32504429618637"><ele>1673.0</ele><time>2026-04-11T14:19:05Z</time></trkpt><trkpt lat="41.83064067348678" lon="13.324997063522336"><ele>1673.0</ele><time>2026-04-11T14:19:06Z</time></trkpt><trkpt lat="41.83074521716225" lon="13.324934761361899"><ele>1673.0</ele><time>2026-04-11T14:19:07Z</time></trkpt><trkpt lat="41.83085626149102" lon="13.324866130701018"><ele>1673.0</ele><time>2026-04-11T14:19:08Z</time></trkpt><trkpt lat="41.830973420584726" lon="13.324809053006994"><ele>1673.0</ele><time>2026-04-11T14:19:09Z</time></trkpt><trkpt lat="41.831099698863376" lon="13.324758809685077"><ele>1673.0</ele><time>2026-04-11T14:19:10Z</time></trkpt><trkpt lat="41.83121107684835" lon="13.324700408837826"><ele>1673.0</ele><time>2026-04-11T14:19:11Z</time></trkpt><trkpt lat="41.83133127419826" lon="13.324654150960749"><ele>1666.3333333333333</ele><time>2026-04-11T14:19:12Z</time></trkpt><trkpt lat="41.83145943191566" lon="13.324606815366128"><ele>1659.6666666666665</ele><time>2026-04-11T14:19:13Z</time></trkpt><trkpt lat="41.83161051839149" lon="13.324539832106414"><ele>1653.0</ele><time>2026-04-11T14:19:14Z</time></trkpt><trkpt lat="41.831752230437594" lon="13.324432830267877"><ele>1653.75</ele><time>2026-04-11T14:19:15Z</time></trkpt><trkpt lat="41.8318933089356" lon="13.324338961777862"><ele>1654.5</ele><time>2026-04-11T14:19:15.999Z</time></trkpt><trkpt lat="41.83202863735819" lon="13.324252565068383"><ele>1655.25</ele><time>2026-04-11T14:19:16.999Z</time></trkpt><trkpt lat="41.832155032670165" lon="13.324176045018875"><ele>1656.0</ele><time>2026-04-11T14:19:17.999Z</time></trkpt><trkpt lat="41.83227708803295" lon="13.324110783754803"><ele>1656.0</ele><time>2026-04-11T14:19:18.999Z</time></trkpt><trkpt lat="41.83237835051748" lon="13.324065839424748"><ele>1656.0</ele><time>2026-04-11T14:19:19.999Z</time></trkpt><trkpt lat="41.83248698519257" lon="13.324039919493634"><ele>1656.0</ele><time>2026-04-11T14:19:20.999Z</time></trkpt><trkpt lat="41.832593414500586" lon="13.324037358379167"><ele>1656.0</ele><time>2026-04-11T14:19:21.999Z</time></trkpt><trkpt lat="41.832697372154335" lon="13.324012691926852"><ele>1656.0</ele><time>2026-04-11T14:19:22.999Z</time></trkpt><trkpt lat="41.832794704423215" lon="13.324095502598839"><ele>1652.75</ele><time>2026-04-11T14:19:23.999Z</time></trkpt><trkpt lat="41.832891686069566" lon="13.324165214843692"><ele>1649.5</ele><time>2026-04-11T14:19:24.999Z</time></trkpt><trkpt lat="41.83298683540953" lon="13.324243395511685"><ele>1646.25</ele><time>2026-04-11T14:19:26Z</time></trkpt><trkpt lat="41.83308560723358" lon="13.324336137100632"><ele>1643.0</ele><time>2026-04-11T14:19:27Z</time></trkpt><trkpt lat="41.833184407191744" lon="13.324407591972381"><ele>1643.0</ele><time>2026-04-11T14:19:28Z</time></trkpt><trkpt lat="41.833282397233205" lon="13.32444243544103"><ele>1643.0</ele><time>2026-04-11T14:19:29Z</time></trkpt><trkpt lat="41.83338357494351" lon="13.324454681285854"><ele>1643.0</ele><time>2026-04-11T14:19:30Z</time></trkpt><trkpt lat="41.8334844505216" lon="13.324466519896077"><ele>1643.0</ele><time>2026-04-11T14:19:31Z</time></trkpt><trkpt lat="41.83360330564283" lon="13.324500935089354"><ele>1643.0</ele><time>2026-04-11T14:19:32Z</time></trkpt><trkpt lat="41.833719463811526" lon="13.324537260569075"><ele>1642.0</ele><time>2026-04-11T14:19:33Z</time></trkpt><trkpt lat="41.83386034163636" lon="13.324540011109116"><ele>1641.0</ele><time>2026-04-11T14:19:34Z</time></trkpt><trkpt lat="41.83399602869677" lon="13.324504711866267"><ele>1640.0</ele><time>2026-04-11T14:19:35Z</time></trkpt><trkpt lat="41.83413875957356" lon="13.324424212888172"><ele>1639.0</ele><time>2026-04-11T14:19:36Z</time></trkpt><trkpt lat="41.83434361816015" lon="13.3243183066541"><ele>1639.0</ele><time>2026-04-11T14:19:37Z</time></trkpt><trkpt lat="41.83454438210368" lon="13.324248483495424"><ele>1639.0</ele><time>2026-04-11T14:19:38Z</time></trkpt><trkpt lat="41.83474251389815" lon="13.324174309150479"><ele>1639.0</ele><time>2026-04-11T14:19:39Z</time></trkpt><trkpt lat="41.834919741885614" lon="13.324122740051926"><ele>1639.0</ele><time>2026-04-11T14:19:40Z</time></trkpt><trkpt lat="41.83506180587806" lon="13.324080364412195"><ele>1639.0</ele><time>2026-04-11T14:19:41Z</time></trkpt><trkpt lat="41.83519495290877" lon="13.324044559144173"><ele>1639.0</ele><time>2026-04-11T14:19:42Z</time></trkpt><trkpt lat="41.83530826380824" lon="13.32400886587659"><ele>1639.0</ele><time>2026-04-11T14:19:43Z</time></trkpt><trkpt lat="41.83541739317422" lon="13.323970844132571"><ele>1635.5000000000002</ele><time>2026-04-11T14:19:44Z</time></trkpt><trkpt lat="41.835488515470075" lon="13.32391371029174"><ele>1632.0</ele><time>2026-04-11T14:19:45Z</time></trkpt><trkpt lat="41.8355245325546" lon="13.32382638325058"><ele>1628.5</ele><time>2026-04-11T14:19:46Z</time></trkpt><trkpt lat="41.83552901488309" lon="13.323708538278057"><ele>1625.0</ele><time>2026-04-11T14:19:47Z</time></trkpt><trkpt lat="41.83548329004858" lon="13.323598392950803"><ele>1621.5000000000002</ele><time>2026-04-11T14:19:48Z</time></trkpt><trkpt lat="41.83540373563566" lon="13.323508967894965"><ele>1618.0</ele><time>2026-04-11T14:19:49Z</time></trkpt><trkpt lat="41.835302539499416" lon="13.323472351966075"><ele>1618.25</ele><time>2026-04-11T14:19:50Z</time></trkpt><trkpt lat="41.83518369775199" lon="13.323494672854332"><ele>1618.5</ele><time>2026-04-11T14:19:51Z</time></trkpt><trkpt lat="41.83507924543517" lon="13.32357241285556"><ele>1618.75</ele><time>2026-04-11T14:19:52Z</time></trkpt><trkpt lat="41.834942900926215" lon="13.32363656636602"><ele>1619.0</ele><time>2026-04-11T14:19:53Z</time></trkpt><trkpt lat="41.83480964207746" lon="13.323678981181306"><ele>1619.0</ele><time>2026-04-11T14:19:54Z</time></trkpt><trkpt lat="41.83468077468065" lon="13.323699924405696"><ele>1619.0</ele><time>2026-04-11T14:19:55Z</time></trkpt><trkpt lat="41.834535735953686" lon="13.323707322592396"><ele>1619.0</ele><time>2026-04-11T14:19:56Z</time></trkpt><trkpt lat="41.83437584712487" lon="13.32372049820408"><ele>1619.0</ele><time>2026-04-11T14:19:57Z</time></trkpt><trkpt lat="41.83421404312888" lon="13.323754709526531"><ele>1616.0</ele><time>2026-04-11T14:19:58Z</time></trkpt><trkpt lat="41.83406761422434" lon="13.323797910399966"><ele>1613.0</ele><time>2026-04-11T14:19:59Z</time></trkpt><trkpt lat="41.833917743861605" lon="13.323835264341438"><ele>1610.0</ele><time>2026-04-11T14:20:00Z</time></trkpt><trkpt lat="41.83377078375681" lon="13.323867641106867"><ele>1610.0</ele><time>2026-04-11T14:20:01Z</time></trkpt><trkpt lat="41.8336063873522" lon="13.323878325998109"><ele>1610.0</ele><time>2026-04-11T14:20:02Z</time></trkpt><trkpt lat="41.83345568643834" lon="13.323834563836039"><ele>1610.0</ele><time>2026-04-11T14:20:03Z</time></trkpt><trkpt lat="41.83331386203785" lon="13.323762945106122"><ele>1610.5</ele><time>2026-04-11T14:20:04Z</time></trkpt><trkpt lat="41.833193844416755" lon="13.323696010350698"><ele>1611.0</ele><time>2026-04-11T14:20:05Z</time></trkpt><trkpt lat="41.83306589385921" lon="13.323620362005554"><ele>1611.5</ele><time>2026-04-11T14:20:06Z</time></trkpt><trkpt lat="41.832956620220166" lon="13.323503905319134"><ele>1612.0</ele><time>2026-04-11T14:20:07Z</time></trkpt><trkpt lat="41.83287983396443" lon="13.323338372910078"><ele>1612.0</ele><time>2026-04-11T14:20:08Z</time></trkpt><trkpt lat="41.8327903963398" lon="13.32318252835505"><ele>1612.0</ele><time>2026-04-11T14:20:09Z</time></trkpt><trkpt lat="41.832695007722215" lon="13.323026271442892"><ele>1612.0</ele><time>2026-04-11T14:20:10Z</time></trkpt><trkpt lat="41.832626155950805" lon="13.322897365313773"><ele>1612.0</ele><time>2026-04-11T14:20:11Z</time></trkpt><trkpt lat="41.832558934638456" lon="13.322784213945324"><ele>1608.0</ele><time>2026-04-11T14:20:12Z</time></trkpt><trkpt lat="41.83242846651429" lon="13.322770544978592"><ele>1604.0</ele><time>2026-04-11T14:20:14Z</time></trkpt><trkpt lat="41.832345826599834" lon="13.322834979623373"><ele>1600.0</ele><time>2026-04-11T14:20:15Z</time></trkpt><trkpt lat="41.83223075559595" lon="13.32291792755271"><ele>1596.0</ele><time>2026-04-11T14:20:16Z</time></trkpt><trkpt lat="41.832088012875936" lon="13.322993089219604"><ele>1601.3333333333335</ele><time>2026-04-11T14:20:17Z</time></trkpt><trkpt lat="41.83192281356785" lon="13.323074010876553"><ele>1606.6666666666667</ele><time>2026-04-11T14:20:18Z</time></trkpt><trkpt lat="41.8317753078704" lon="13.323132680265784"><ele>1612.0</ele><time>2026-04-11T14:20:19Z</time></trkpt><trkpt lat="41.83161997928087" lon="13.32318719802565"><ele>1612.0</ele><time>2026-04-11T14:20:20Z</time></trkpt><trkpt lat="41.8314641637008" lon="13.323232083057393"><ele>1612.0</ele><time>2026-04-11T14:20:21Z</time></trkpt><trkpt lat="41.831324937678254" lon="13.323211869096456"><ele>1612.0</ele><time>2026-04-11T14:20:22Z</time></trkpt><trkpt lat="41.83119659224755" lon="13.323235058362943"><ele>1612.0</ele><time>2026-04-11T14:20:23Z</time></trkpt><trkpt lat="41.83108186161401" lon="13.323241031121698"><ele>1612.0</ele><time>2026-04-11T14:20:24Z</time></trkpt><trkpt lat="41.830988710602526" lon="13.323156465530754"><ele>1612.0</ele><time>2026-04-11T14:20:25Z</time></trkpt><trkpt lat="41.830903580005305" lon="13.32307652250617"><ele>1612.0</ele><time>2026-04-11T14:20:26Z</time></trkpt><trkpt lat="41.830859879414604" lon="13.322958028514318"><ele>1612.0</ele><time>2026-04-11T14:20:27Z</time></trkpt><trkpt lat="41.830836876927" lon="13.322793611279717"><ele>1612.0</ele><time>2026-04-11T14:20:28Z</time></trkpt><trkpt lat="41.83084498809647" lon="13.32257930376065"><ele>1610.3333333333335</ele><time>2026-04-11T14:20:29Z</time></trkpt><trkpt lat="41.83086283854817" lon="13.322369031694295"><ele>1608.6666666666665</ele><time>2026-04-11T14:20:30Z</time></trkpt><trkpt lat="41.83089234762144" lon="13.322157341708271"><ele>1607.0</ele><time>2026-04-11T14:20:31Z</time></trkpt><trkpt lat="41.83096045065109" lon="13.321930990187157"><ele>1593.0</ele><time>2026-04-11T14:20:32Z</time></trkpt><trkpt lat="41.83100752084639" lon="13.321681247582793"><ele>1579.0</ele><time>2026-04-11T14:20:33Z</time></trkpt><trkpt lat="41.831033470375814" lon="13.321450591812825"><ele>1565.0</ele><time>2026-04-11T14:20:34Z</time></trkpt><trkpt lat="41.83103143842438" lon="13.321239354088227"><ele>1563.25</ele><time>2026-04-11T14:20:35Z</time></trkpt><trkpt lat="41.83103838268571" lon="13.321044008400815"><ele>1561.5</ele><time>2026-04-11T14:20:36Z</time></trkpt><trkpt lat="41.83102154786802" lon="13.320872515451365"><ele>1559.75</ele><time>2026-04-11T14:20:37Z</time></trkpt><trkpt lat="41.83102020909989" lon="13.320762279542722"><ele>1558.0</ele><time>2026-04-11T14:20:38Z</time></trkpt><trkpt lat="41.83100096827558" lon="13.320625557530908"><ele>1557.5</ele><time>2026-04-11T14:20:39Z</time></trkpt><trkpt lat="41.83092875269195" lon="13.32054331722842"><ele>1557.0</ele><time>2026-04-11T14:20:40Z</time></trkpt><trkpt lat="41.83082009013923" lon="13.320474180374442"><ele>1556.5</ele><time>2026-04-11T14:20:41Z</time></trkpt><trkpt lat="41.83067947869098" lon="13.320400272316277"><ele>1556.0</ele><time>2026-04-11T14:20:42Z</time></trkpt><trkpt lat="41.83051607725903" lon="13.320296711486076"><ele>1556.0</ele><time>2026-04-11T14:20:43Z</time></trkpt><trkpt lat="41.83034501804023" lon="13.320218025671567"><ele>1556.0</ele><time>2026-04-11T14:20:44Z</time></trkpt><trkpt lat="41.83017870816497" lon="13.32014808795796"><ele>1556.0</ele><time>2026-04-11T14:20:45Z</time></trkpt><trkpt lat="41.8300007667422" lon="13.320085211081452"><ele>1561.6666666666665</ele><time>2026-04-11T14:20:46Z</time></trkpt><trkpt lat="41.82981408304195" lon="13.32004529054818"><ele>1567.3333333333335</ele><time>2026-04-11T14:20:47Z</time></trkpt><trkpt lat="41.82962375673638" lon="13.320004273285612"><ele>1573.0</ele><time>2026-04-11T14:20:48Z</time></trkpt><trkpt lat="41.82943267556214" lon="13.319960287672556"><ele>1572.0</ele><time>2026-04-11T14:20:49Z</time></trkpt><trkpt lat="41.82923469160354" lon="13.319910993540173"><ele>1571.0</ele><time>2026-04-11T14:20:50Z</time></trkpt><trkpt lat="41.82904656307864" lon="13.319876257785586"><ele>1570.0</ele><time>2026-04-11T14:20:51Z</time></trkpt><trkpt lat="41.828868698024195" lon="13.319870341666025"><ele>1570.0</ele><time>2026-04-11T14:20:52Z</time></trkpt><trkpt lat="41.82871057785335" lon="13.319863086133832"><ele>1570.0</ele><time>2026-04-11T14:20:53Z</time></trkpt><trkpt lat="41.82853171024285" lon="13.319942339088014"><ele>1570.0</ele><time>2026-04-11T14:20:54Z</time></trkpt><trkpt lat="41.828353725670254" lon="13.320050673881287"><ele>1563.6666666666667</ele><time>2026-04-11T14:20:55Z</time></trkpt><trkpt lat="41.828181307428196" lon="13.320194199587243"><ele>1557.3333333333335</ele><time>2026-04-11T14:20:56Z</time></trkpt><trkpt lat="41.82801298023218" lon="13.320342304753424"><ele>1551.0</ele><time>2026-04-11T14:20:57Z</time></trkpt><trkpt lat="41.827836758730506" lon="13.320503037597636"><ele>1552.0</ele><time>2026-04-11T14:20:58Z</time></trkpt><trkpt lat="41.82764875522203" lon="13.320662096022671"><ele>1553.0</ele><time>2026-04-11T14:20:59Z</time></trkpt><trkpt lat="41.82745774299407" lon="13.32081227710638"><ele>1554.0</ele><time>2026-04-11T14:21:00Z</time></trkpt><trkpt lat="41.82725333939693" lon="13.320946641524817"><ele>1554.0</ele><time>2026-04-11T14:21:01Z</time></trkpt><trkpt lat="41.82705149251622" lon="13.321083191782453"><ele>1554.0</ele><time>2026-04-11T14:21:02Z</time></trkpt><trkpt lat="41.826773356231605" lon="13.321164863002227"><ele>1557.0</ele><time>2026-04-11T14:21:03Z</time></trkpt><trkpt lat="41.826511348189634" lon="13.321294722832711"><ele>1560.0</ele><time>2026-04-11T14:21:04Z</time></trkpt><trkpt lat="41.826247771183894" lon="13.321417411080182"><ele>1551.0</ele><time>2026-04-11T14:21:05Z</time></trkpt><trkpt lat="41.82595889553681" lon="13.3215131031149"><ele>1542.0</ele><time>2026-04-11T14:21:06Z</time></trkpt><trkpt lat="41.8256368748351" lon="13.321611171399585"><ele>1542.0</ele><time>2026-04-11T14:21:07Z</time></trkpt><trkpt lat="41.82532552301953" lon="13.321721854869011"><ele>1542.0</ele><time>2026-04-11T14:21:08Z</time></trkpt><trkpt lat="41.825054947565285" lon="13.321808558025014"><ele>1530.5</ele><time>2026-04-11T14:21:09Z</time></trkpt><trkpt lat="41.82481281450921" lon="13.321888041951466"><ele>1519.0</ele><time>2026-04-11T14:21:10Z</time></trkpt><trkpt lat="41.82460110797076" lon="13.321949238049246"><ele>1519.0</ele><time>2026-04-11T14:21:11Z</time></trkpt><trkpt lat="41.82439834068443" lon="13.322023013969693"><ele>1519.0</ele><time>2026-04-11T14:21:12Z</time></trkpt><trkpt lat="41.82431654810794" lon="13.322193660048034"><ele>1519.0</ele><time>2026-04-11T14:21:12.999Z</time></trkpt><trkpt lat="41.82411657115245" lon="13.322332912444917"><ele>1522.0</ele><time>2026-04-11T14:21:13.999Z</time></trkpt><trkpt lat="41.82393337368765" lon="13.322475785784551"><ele>1525.0</ele><time>2026-04-11T14:21:14.999Z</time></trkpt><trkpt lat="41.82377245743456" lon="13.322611745948379"><ele>1528.0</ele><time>2026-04-11T14:21:15.999Z</time></trkpt><trkpt lat="41.82364558750196" lon="13.322778445611064"><ele>1528.0</ele><time>2026-04-11T14:21:16.999Z</time></trkpt><trkpt lat="41.82351946307775" lon="13.322914149060383"><ele>1528.0</ele><time>2026-04-11T14:21:17.999Z</time></trkpt><trkpt lat="41.82343039541547" lon="13.323080628364533"><ele>1528.0</ele><time>2026-04-11T14:21:18.999Z</time></trkpt><trkpt lat="41.82335099378662" lon="13.32325617419774"><ele>1524.75</ele><time>2026-04-11T14:21:19.999Z</time></trkpt><trkpt lat="41.823278374077574" lon="13.323428202419098"><ele>1521.5</ele><time>2026-04-11T14:21:20.999Z</time></trkpt><trkpt lat="41.8232521826927" lon="13.32361969874394"><ele>1518.25</ele><time>2026-04-11T14:21:21.999Z</time></trkpt><trkpt lat="41.82326422998879" lon="13.323825470285657"><ele>1515.0</ele><time>2026-04-11T14:21:22.999Z</time></trkpt><trkpt lat="41.82330298672669" lon="13.324050125198882"><ele>1515.0</ele><time>2026-04-11T14:21:23.999Z</time></trkpt><trkpt lat="41.82332194857101" lon="13.32428535930816"><ele>1515.0</ele><time>2026-04-11T14:21:24.999Z</time></trkpt><trkpt lat="41.823313302230986" lon="13.324511378153757"><ele>1515.0</ele><time>2026-04-11T14:21:25.999Z</time></trkpt><trkpt lat="41.8232906730507" lon="13.324720229769595"><ele>1517.6666666666667</ele><time>2026-04-11T14:21:26.999Z</time></trkpt><trkpt lat="41.82326085384997" lon="13.324919048505377"><ele>1520.3333333333335</ele><time>2026-04-11T14:21:27.999Z</time></trkpt><trkpt lat="41.823197790698494" lon="13.32512167984927"><ele>1523.0</ele><time>2026-04-11T14:21:28.999Z</time></trkpt><trkpt lat="41.823113129693056" lon="13.325288201789487"><ele>1523.0</ele><time>2026-04-11T14:21:29.999Z</time></trkpt><trkpt lat="41.82297519321875" lon="13.325430467412533"><ele>1523.0</ele><time>2026-04-11T14:21:30.999Z</time></trkpt><trkpt lat="41.82283090641818" lon="13.325576653071309"><ele>1523.0</ele><time>2026-04-11T14:21:32Z</time></trkpt><trkpt lat="41.822738303944824" lon="13.325730372241878"><ele>1516.3333333333335</ele><time>2026-04-11T14:21:33Z</time></trkpt><trkpt lat="41.822595072133055" lon="13.32585414259424"><ele>1509.6666666666667</ele><time>2026-04-11T14:21:34Z</time></trkpt><trkpt lat="41.822471760201715" lon="13.32598093890686"><ele>1503.0</ele><time>2026-04-11T14:21:35Z</time></trkpt><trkpt lat="41.82236456572641" lon="13.326099594459407"><ele>1503.0</ele><time>2026-04-11T14:21:36Z</time></trkpt><trkpt lat="41.822257640918764" lon="13.326224729315937"><ele>1503.0</ele><time>2026-04-11T14:21:37Z</time></trkpt><trkpt lat="41.822179391408426" lon="13.326372218595141"><ele>1503.0</ele><time>2026-04-11T14:21:38Z</time></trkpt><trkpt lat="41.82213804246577" lon="13.32661785164923"><ele>1506.3333333333333</ele><time>2026-04-11T14:21:39Z</time></trkpt><trkpt lat="41.82213275523714" lon="13.326800966105564"><ele>1509.6666666666665</ele><time>2026-04-11T14:21:40Z</time></trkpt><trkpt lat="41.82215531734832" lon="13.32699976678458"><ele>1513.0</ele><time>2026-04-11T14:21:41Z</time></trkpt><trkpt lat="41.82218675864228" lon="13.327215203475651"><ele>1512.0</ele><time>2026-04-11T14:21:42Z</time></trkpt><trkpt lat="41.822213585191086" lon="13.327451305886438"><ele>1511.0</ele><time>2026-04-11T14:21:43Z</time></trkpt><trkpt lat="41.8222380833221" lon="13.327676122248432"><ele>1510.0</ele><time>2026-04-11T14:21:44Z</time></trkpt><trkpt lat="41.82223382775512" lon="13.327899463074042"><ele>1508.0</ele><time>2026-04-11T14:21:45Z</time></trkpt><trkpt lat="41.82221749502123" lon="13.32810621743258"><ele>1506.0</ele><time>2026-04-11T14:21:46Z</time></trkpt><trkpt lat="41.82216913972273" lon="13.328285856716727"><ele>1504.0</ele><time>2026-04-11T14:21:47Z</time></trkpt><trkpt lat="41.822096324669445" lon="13.328483295314904"><ele>1504.0</ele><time>2026-04-11T14:21:48Z</time></trkpt><trkpt lat="41.82201784397484" lon="13.328686650553921"><ele>1504.0</ele><time>2026-04-11T14:21:49Z</time></trkpt><trkpt lat="41.82193812859257" lon="13.328897568348651"><ele>1504.0</ele><time>2026-04-11T14:21:50Z</time></trkpt><trkpt lat="41.821861254364535" lon="13.329084679044662"><ele>1495.3333333333333</ele><time>2026-04-11T14:21:51Z</time></trkpt><trkpt lat="41.82176831535537" lon="13.329251402772426"><ele>1486.6666666666667</ele><time>2026-04-11T14:21:52Z</time></trkpt><trkpt lat="41.821633266433196" lon="13.329375834131898"><ele>1478.0</ele><time>2026-04-11T14:21:53Z</time></trkpt><trkpt lat="41.82145401772855" lon="13.329458609217527"><ele>1478.0</ele><time>2026-04-11T14:21:54Z</time></trkpt><trkpt lat="41.82127471705988" lon="13.329542961029086"><ele>1478.0</ele><time>2026-04-11T14:21:55Z</time></trkpt><trkpt lat="41.82109387346969" lon="13.329594220924557"><ele>1478.0</ele><time>2026-04-11T14:21:56Z</time></trkpt><trkpt lat="41.820969542720235" lon="13.329605005269485"><ele>1478.0</ele><time>2026-04-11T14:21:57Z</time></trkpt><trkpt lat="41.82085324810452" lon="13.329560526299236"><ele>1478.0</ele><time>2026-04-11T14:21:59Z</time></trkpt><trkpt lat="41.8207966515699" lon="13.329491472900774"><ele>1478.0</ele><time>2026-04-11T14:22:00Z</time></trkpt><trkpt lat="41.82077026322459" lon="13.329393781336027"><ele>1478.0</ele><time>2026-04-11T14:22:01Z</time></trkpt><trkpt lat="41.82073834550451" lon="13.329297153164275"><ele>1478.0</ele><time>2026-04-11T14:22:02Z</time></trkpt><trkpt lat="41.820705134356544" lon="13.329190894540591"><ele>1478.0</ele><time>2026-04-11T14:22:03Z</time></trkpt><trkpt lat="41.82098308017893" lon="13.329098851868228"><ele>1478.0</ele><time>2026-04-11T14:22:04Z</time></trkpt><trkpt lat="41.821089203502254" lon="13.329038045821047"><ele>1478.0</ele><time>2026-04-11T14:22:05Z</time></trkpt><trkpt lat="41.82123828558984" lon="13.328964176724721"><ele>1478.0</ele><time>2026-04-11T14:22:06Z</time></trkpt><trkpt lat="41.821362638992504" lon="13.328851503232569"><ele>1478.0</ele><time>2026-04-11T14:22:07Z</time></trkpt><trkpt lat="41.821466049071525" lon="13.328720225548349"><ele>1477.25</ele><time>2026-04-11T14:22:08Z</time></trkpt><trkpt lat="41.82155767305091" lon="13.328575138355589"><ele>1476.5</ele><time>2026-04-11T14:22:09Z</time></trkpt><trkpt lat="41.821631499067735" lon="13.328419744234061"><ele>1475.75</ele><time>2026-04-11T14:22:10Z</time></trkpt><trkpt lat="41.82169322225042" lon="13.328263856922838"><ele>1475.0</ele><time>2026-04-11T14:22:11Z</time></trkpt><trkpt lat="41.82175233934814" lon="13.328120623853549"><ele>1474.25</ele><time>2026-04-11T14:22:12Z</time></trkpt><trkpt lat="41.82175901819986" lon="13.32797959946096"><ele>1473.5</ele><time>2026-04-11T14:22:13Z</time></trkpt><trkpt lat="41.82172561125468" lon="13.3277625738595"><ele>1472.75</ele><time>2026-04-11T14:22:14Z</time></trkpt><trkpt lat="41.82166555563628" lon="13.327565794640611"><ele>1472.0</ele><time>2026-04-11T14:22:15Z</time></trkpt><trkpt lat="41.82158404324416" lon="13.327340563644436"><ele>1472.6666666666667</ele><time>2026-04-11T14:22:16Z</time></trkpt><trkpt lat="41.82150437082392" lon="13.327117055704397"><ele>1473.3333333333333</ele><time>2026-04-11T14:22:17Z</time></trkpt><trkpt lat="41.821408625747324" lon="13.326910625550182"><ele>1474.0</ele><time>2026-04-11T14:22:18Z</time></trkpt><trkpt lat="41.821342547609184" lon="13.32671233945014"><ele>1474.0</ele><time>2026-04-11T14:22:19Z</time></trkpt><trkpt lat="41.82128451605773" lon="13.326551451405383"><ele>1474.0</ele><time>2026-04-11T14:22:20Z</time></trkpt><trkpt lat="41.82123471880709" lon="13.326358127781761"><ele>1474.0</ele><time>2026-04-11T14:22:21Z</time></trkpt><trkpt lat="41.82120458510691" lon="13.326153203820123"><ele>1474.0</ele><time>2026-04-11T14:22:22Z</time></trkpt><trkpt lat="41.82119072840623" lon="13.325956694951847"><ele>1472.25</ele><time>2026-04-11T14:22:23Z</time></trkpt><trkpt lat="41.821213039152994" lon="13.325779768993177"><ele>1470.5</ele><time>2026-04-11T14:22:24Z</time></trkpt><trkpt lat="41.821247001758096" lon="13.32563279105869"><ele>1468.75</ele><time>2026-04-11T14:22:25Z</time></trkpt><trkpt lat="41.821313681297156" lon="13.325511585059607"><ele>1467.0</ele><time>2026-04-11T14:22:26Z</time></trkpt><trkpt lat="41.821408391389596" lon="13.325446041971"><ele>1461.0</ele><time>2026-04-11T14:22:27Z</time></trkpt><trkpt lat="41.821543375690425" lon="13.325333651911107"><ele>1455.0</ele><time>2026-04-11T14:22:28Z</time></trkpt><trkpt lat="41.82171100372247" lon="13.325182598282893"><ele>1449.0</ele><time>2026-04-11T14:22:29Z</time></trkpt><trkpt lat="41.821843059818974" lon="13.32500243955843"><ele>1454.0</ele><time>2026-04-11T14:22:30Z</time></trkpt><trkpt lat="41.82196374396818" lon="13.324806056675262"><ele>1459.0</ele><time>2026-04-11T14:22:31Z</time></trkpt><trkpt lat="41.8220645925147" lon="13.324624777324932"><ele>1464.0</ele><time>2026-04-11T14:22:32Z</time></trkpt><trkpt lat="41.82212970938139" lon="13.32445890720651"><ele>1464.0</ele><time>2026-04-11T14:22:33Z</time></trkpt><trkpt lat="41.822193657889365" lon="13.324288215280612"><ele>1464.0</ele><time>2026-04-11T14:22:34Z</time></trkpt><trkpt lat="41.82223221369455" lon="13.324132684455913"><ele>1464.0</ele><time>2026-04-11T14:22:35Z</time></trkpt><trkpt lat="41.822185963243356" lon="13.323991552980349"><ele>1464.0</ele><time>2026-04-11T14:22:36Z</time></trkpt><trkpt lat="41.8221117740158" lon="13.323801907119794"><ele>1465.3333333333333</ele><time>2026-04-11T14:22:37Z</time></trkpt><trkpt lat="41.8220256913137" lon="13.323569384414547"><ele>1466.6666666666665</ele><time>2026-04-11T14:22:38Z</time></trkpt><trkpt lat="41.8219618932122" lon="13.323372522952427"><ele>1468.0</ele><time>2026-04-11T14:22:39Z</time></trkpt><trkpt lat="41.82192549467827" lon="13.323179607434843"><ele>1466.6666666666665</ele><time>2026-04-11T14:22:40Z</time></trkpt><trkpt lat="41.82191523994769" lon="13.322958701908094"><ele>1465.3333333333333</ele><time>2026-04-11T14:22:41Z</time></trkpt><trkpt lat="41.82190213080728" lon="13.32268813468741"><ele>1464.0</ele><time>2026-04-11T14:22:42Z</time></trkpt><trkpt lat="41.8218817510962" lon="13.322451684412796"><ele>1464.0</ele><time>2026-04-11T14:22:43Z</time></trkpt><trkpt lat="41.82185932423112" lon="13.322238517511165"><ele>1464.0</ele><time>2026-04-11T14:22:44Z</time></trkpt><trkpt lat="41.82180283598122" lon="13.322046798473712"><ele>1464.0</ele><time>2026-04-11T14:22:45Z</time></trkpt><trkpt lat="41.821711571720954" lon="13.321877151708936"><ele>1452.6666666666667</ele><time>2026-04-11T14:22:46Z</time></trkpt><trkpt lat="41.82161796094939" lon="13.321712188962332"><ele>1441.3333333333335</ele><time>2026-04-11T14:22:47Z</time></trkpt><trkpt lat="41.82151624935904" lon="13.32153955882897"><ele>1430.0</ele><time>2026-04-11T14:22:48Z</time></trkpt><trkpt lat="41.821418236670674" lon="13.321374004224033"><ele>1430.0</ele><time>2026-04-11T14:22:49Z</time></trkpt><trkpt lat="41.82132619980147" lon="13.32121984954575"><ele>1430.0</ele><time>2026-04-11T14:22:50Z</time></trkpt><trkpt lat="41.821257170361626" lon="13.321113791899297"><ele>1430.0</ele><time>2026-04-11T14:22:51Z</time></trkpt><trkpt lat="41.821202977904015" lon="13.321049844793754"><ele>1430.0</ele><time>2026-04-11T14:22:52Z</time></trkpt><trkpt lat="41.82107958045567" lon="13.32105171986272"><ele>1430.0</ele><time>2026-04-11T14:22:54Z</time></trkpt><trkpt lat="41.82103564665249" lon="13.321164609979299"><ele>1429.3333333333335</ele><time>2026-04-11T14:22:55Z</time></trkpt><trkpt lat="41.82102653374577" lon="13.321415716346651"><ele>1428.6666666666667</ele><time>2026-04-11T14:22:57Z</time></trkpt><trkpt lat="41.821106573693406" lon="13.321619724563442"><ele>1428.0</ele><time>2026-04-11T14:22:58Z</time></trkpt><trkpt lat="41.82118347639312" lon="13.321785506798966"><ele>1428.0</ele><time>2026-04-11T14:22:59Z</time></trkpt><trkpt lat="41.821270894373626" lon="13.32196988892547"><ele>1428.0</ele><time>2026-04-11T14:23:00Z</time></trkpt><trkpt lat="41.821370077021264" lon="13.322160430883697"><ele>1428.0</ele><time>2026-04-11T14:23:01Z</time></trkpt><trkpt lat="41.82142098889802" lon="13.32239211267226"><ele>1426.0</ele><time>2026-04-11T14:23:02Z</time></trkpt><trkpt lat="41.82144878297138" lon="13.32259602766111"><ele>1424.0</ele><time>2026-04-11T14:23:03Z</time></trkpt><trkpt lat="41.82141665742925" lon="13.322892116213978"><ele>1422.0</ele><time>2026-04-11T14:23:03.999Z</time></trkpt><trkpt lat="41.82140260819738" lon="13.323108604350248"><ele>1421.25</ele><time>2026-04-11T14:23:04.999Z</time></trkpt><trkpt lat="41.82141409108494" lon="13.323316524398296"><ele>1420.5</ele><time>2026-04-11T14:23:05.999Z</time></trkpt><trkpt lat="41.82145577728963" lon="13.323495360064806"><ele>1419.75</ele><time>2026-04-11T14:23:06.999Z</time></trkpt><trkpt lat="41.8214790952829" lon="13.32364097652376"><ele>1419.0</ele><time>2026-04-11T14:23:07.999Z</time></trkpt><trkpt lat="41.82150053076663" lon="13.323844651912028"><ele>1421.0</ele><time>2026-04-11T14:23:08.999Z</time></trkpt><trkpt lat="41.8215128312945" lon="13.32397948364819"><ele>1423.0</ele><time>2026-04-11T14:23:09.999Z</time></trkpt><trkpt lat="41.82149030375271" lon="13.32409550344576"><ele>1425.0</ele><time>2026-04-11T14:23:10.999Z</time></trkpt><trkpt lat="41.821408714339114" lon="13.324197160242065"><ele>1427.0</ele><time>2026-04-11T14:23:11.999Z</time></trkpt><trkpt lat="41.821268922351955" lon="13.324302000811738"><ele>1427.0</ele><time>2026-04-11T14:23:12.999Z</time></trkpt><trkpt lat="41.82109110841039" lon="13.324386026074336"><ele>1427.0</ele><time>2026-04-11T14:23:13.999Z</time></trkpt><trkpt lat="41.820922442418464" lon="13.324484175732126"><ele>1427.0</ele><time>2026-04-11T14:23:14.999Z</time></trkpt><trkpt lat="41.82071304108489" lon="13.324548707786448"><ele>1417.3333333333335</ele><time>2026-04-11T14:23:15.999Z</time></trkpt><trkpt lat="41.820524715664966" lon="13.324600804118438"><ele>1407.6666666666667</ele><time>2026-04-11T14:23:16.999Z</time></trkpt><trkpt lat="41.820330005394545" lon="13.324654524595656"><ele>1398.0</ele><time>2026-04-11T14:23:17.999Z</time></trkpt><trkpt lat="41.82018715809247" lon="13.324703486977818"><ele>1396.4</ele><time>2026-04-11T14:23:18.999Z</time></trkpt><trkpt lat="41.82005864812939" lon="13.324759478348538"><ele>1394.8000000000002</ele><time>2026-04-11T14:23:19.999Z</time></trkpt><trkpt lat="41.81993906814981" lon="13.324836092429486"><ele>1393.2</ele><time>2026-04-11T14:23:20.999Z</time></trkpt><trkpt lat="41.81989673828238" lon="13.324904130195174"><ele>1391.6</ele><time>2026-04-11T14:23:21.999Z</time></trkpt><trkpt lat="41.81984768153208" lon="13.325002149666204"><ele>1390.0</ele><time>2026-04-11T14:23:22.999Z</time></trkpt><trkpt lat="41.819827310176315" lon="13.32514003277446"><ele>1390.0</ele><time>2026-04-11T14:23:23.999Z</time></trkpt><trkpt lat="41.819818369061224" lon="13.325321043143413"><ele>1390.0</ele><time>2026-04-11T14:23:24.999Z</time></trkpt><trkpt lat="41.819822949321136" lon="13.325586021566092"><ele>1390.0</ele><time>2026-04-11T14:23:25.999Z</time></trkpt><trkpt lat="41.8198405092966" lon="13.325845242169802"><ele>1390.3333333333333</ele><time>2026-04-11T14:23:26.999Z</time></trkpt><trkpt lat="41.81984755830757" lon="13.326066423357505"><ele>1390.6666666666667</ele><time>2026-04-11T14:23:27.999Z</time></trkpt><trkpt lat="41.81985856753184" lon="13.326275859458166"><ele>1391.0</ele><time>2026-04-11T14:23:28.999Z</time></trkpt><trkpt lat="41.81986748356664" lon="13.326452442781754"><ele>1392.6</ele><time>2026-04-11T14:23:29.999Z</time></trkpt><trkpt lat="41.81987388850587" lon="13.326612886213217"><ele>1394.1999999999998</ele><time>2026-04-11T14:23:30.999Z</time></trkpt><trkpt lat="41.81984427737854" lon="13.326743325619258"><ele>1395.8000000000002</ele><time>2026-04-11T14:23:31.999Z</time></trkpt><trkpt lat="41.81979442365187" lon="13.3268491864279"><ele>1397.4</ele><time>2026-04-11T14:23:32.999Z</time></trkpt><trkpt lat="41.819702984515" lon="13.326912192239302"><ele>1399.0</ele><time>2026-04-11T14:23:33.999Z</time></trkpt><trkpt lat="41.81958183980724" lon="13.326857230285036"><ele>1399.0</ele><time>2026-04-11T14:23:34.999Z</time></trkpt><trkpt lat="41.81943248473161" lon="13.3268726243256"><ele>1399.0</ele><time>2026-04-11T14:23:35.999Z</time></trkpt><trkpt lat="41.81927602559698" lon="13.326958040391714"><ele>1399.0</ele><time>2026-04-11T14:23:36.999Z</time></trkpt><trkpt lat="41.819099106717715" lon="13.327044680950047"><ele>1398.0</ele><time>2026-04-11T14:23:38Z</time></trkpt><trkpt lat="41.81894894667094" lon="13.327162881404062"><ele>1397.0</ele><time>2026-04-11T14:23:39Z</time></trkpt><trkpt lat="41.81881606579479" lon="13.327295465704436"><ele>1396.0</ele><time>2026-04-11T14:23:40Z</time></trkpt><trkpt lat="41.81868611729769" lon="13.327429053910224"><ele>1396.0</ele><time>2026-04-11T14:23:41Z</time></trkpt><trkpt lat="41.8185424730365" lon="13.327616433858104"><ele>1396.0</ele><time>2026-04-11T14:23:42Z</time></trkpt><trkpt lat="41.818411798169144" lon="13.327775317470072"><ele>1396.0</ele><time>2026-04-11T14:23:43Z</time></trkpt><trkpt lat="41.81828633550254" lon="13.327925710105415"><ele>1390.6666666666665</ele><time>2026-04-11T14:23:44Z</time></trkpt><trkpt lat="41.818182937993754" lon="13.328083769391704"><ele>1385.3333333333333</ele><time>2026-04-11T14:23:45Z</time></trkpt><trkpt lat="41.81808673959091" lon="13.328255160908753"><ele>1380.0</ele><time>2026-04-11T14:23:46Z</time></trkpt><trkpt lat="41.81800562130149" lon="13.328470981270128"><ele>1380.0</ele><time>2026-04-11T14:23:47Z</time></trkpt><trkpt lat="41.81795942030663" lon="13.32870612733278"><ele>1380.0</ele><time>2026-04-11T14:23:48Z</time></trkpt><trkpt lat="41.817921851355656" lon="13.328962771511723"><ele>1380.0</ele><time>2026-04-11T14:23:49Z</time></trkpt><trkpt lat="41.81789414673527" lon="13.329227055194693"><ele>1380.3333333333333</ele><time>2026-04-11T14:23:50Z</time></trkpt><trkpt lat="41.81787191256379" lon="13.329482695592532"><ele>1380.6666666666665</ele><time>2026-04-11T14:23:51Z</time></trkpt><trkpt lat="41.81786737796152" lon="13.329725637911867"><ele>1381.0</ele><time>2026-04-11T14:23:52Z</time></trkpt><trkpt lat="41.81786786556352" lon="13.329934593123701"><ele>1381.0</ele><time>2026-04-11T14:23:53Z</time></trkpt><trkpt lat="41.81787597676181" lon="13.33013433835686"><ele>1381.0</ele><time>2026-04-11T14:23:54Z</time></trkpt><trkpt lat="41.81792754771182" lon="13.33031409030233"><ele>1381.0</ele><time>2026-04-11T14:23:55Z</time></trkpt><trkpt lat="41.81799961557263" lon="13.330501480948046"><ele>1377.0</ele><time>2026-04-11T14:23:56Z</time></trkpt><trkpt lat="41.81810633644196" lon="13.330693197545658"><ele>1373.0</ele><time>2026-04-11T14:23:57Z</time></trkpt><trkpt lat="41.81816433290437" lon="13.330890528076"><ele>1369.0</ele><time>2026-04-11T14:23:58Z</time></trkpt><trkpt lat="41.818207184871135" lon="13.331112323311675"><ele>1369.0</ele><time>2026-04-11T14:23:59Z</time></trkpt><trkpt lat="41.81822002144989" lon="13.331328309160691"><ele>1369.0</ele><time>2026-04-11T14:24:00Z</time></trkpt><trkpt lat="41.81823922368084" lon="13.331537049027647"><ele>1369.0</ele><time>2026-04-11T14:24:01Z</time></trkpt><trkpt lat="41.81825673411784" lon="13.331735041983816"><ele>1367.0</ele><time>2026-04-11T14:24:02Z</time></trkpt><trkpt lat="41.81826818918675" lon="13.33190144052687"><ele>1365.0</ele><time>2026-04-11T14:24:03Z</time></trkpt><trkpt lat="41.8182680016989" lon="13.332058112822693"><ele>1363.0</ele><time>2026-04-11T14:24:04Z</time></trkpt><trkpt lat="41.818260647355714" lon="13.332187328219806"><ele>1361.0</ele><time>2026-04-11T14:24:05Z</time></trkpt><trkpt lat="41.818239441897504" lon="13.332292745680569"><ele>1359.0</ele><time>2026-04-11T14:24:06Z</time></trkpt><trkpt lat="41.81817178328892" lon="13.332358582091505"><ele>1359.0</ele><time>2026-04-11T14:24:07Z</time></trkpt><trkpt lat="41.81809152844571" lon="13.332379939076702"><ele>1359.0</ele><time>2026-04-11T14:24:08Z</time></trkpt><trkpt lat="41.818011712271755" lon="13.332335177344476"><ele>1359.0</ele><time>2026-04-11T14:24:09Z</time></trkpt><trkpt lat="41.817949040966255" lon="13.332205954311014"><ele>1359.0</ele><time>2026-04-11T14:24:10Z</time></trkpt><trkpt lat="41.8179669352808" lon="13.332040626237589"><ele>1359.0</ele><time>2026-04-11T14:24:11Z</time></trkpt><trkpt lat="41.81800451225174" lon="13.331871535941767"><ele>1359.0</ele><time>2026-04-11T14:24:12Z</time></trkpt><trkpt lat="41.81803361997837" lon="13.331684579053874"><ele>1359.0</ele><time>2026-04-11T14:24:13Z</time></trkpt><trkpt lat="41.818037140558516" lon="13.331494590109404"><ele>1359.0</ele><time>2026-04-11T14:24:14Z</time></trkpt><trkpt lat="41.81799442444849" lon="13.331343695248654"><ele>1359.0</ele><time>2026-04-11T14:24:15Z</time></trkpt><trkpt lat="41.817914586869925" lon="13.33113085946694"><ele>1362.3333333333333</ele><time>2026-04-11T14:24:16Z</time></trkpt><trkpt lat="41.817830951348725" lon="13.330938120642877"><ele>1365.6666666666665</ele><time>2026-04-11T14:24:17Z</time></trkpt><trkpt lat="41.81772330729198" lon="13.330758320730965"><ele>1369.0</ele><time>2026-04-11T14:24:18Z</time></trkpt><trkpt lat="41.81761190461541" lon="13.330587573440507"><ele>1359.0</ele><time>2026-04-11T14:24:19Z</time></trkpt><trkpt lat="41.81750824342363" lon="13.330413846505207"><ele>1349.0</ele><time>2026-04-11T14:24:20Z</time></trkpt><trkpt lat="41.81742763080595" lon="13.330208390986058"><ele>1339.0</ele><time>2026-04-11T14:24:21Z</time></trkpt><trkpt lat="41.81736208830202" lon="13.329982056898448"><ele>1339.0</ele><time>2026-04-11T14:24:22Z</time></trkpt><trkpt lat="41.817312072533745" lon="13.329757720488915"><ele>1339.0</ele><time>2026-04-11T14:24:23Z</time></trkpt><trkpt lat="41.81726833586856" lon="13.329535849107648"><ele>1339.0</ele><time>2026-04-11T14:24:24Z</time></trkpt><trkpt lat="41.81725220804962" lon="13.329328464370489"><ele>1340.0</ele><time>2026-04-11T14:24:25Z</time></trkpt><trkpt lat="41.81725200273995" lon="13.329117130764025"><ele>1341.0</ele><time>2026-04-11T14:24:26Z</time></trkpt><trkpt lat="41.81726476845472" lon="13.328881533614062"><ele>1342.0</ele><time>2026-04-11T14:24:27Z</time></trkpt><trkpt lat="41.81728283299178" lon="13.328646549173811"><ele>1338.6666666666665</ele><time>2026-04-11T14:24:28Z</time></trkpt><trkpt lat="41.8173305987676" lon="13.328406241711189"><ele>1335.3333333333333</ele><time>2026-04-11T14:24:29Z</time></trkpt><trkpt lat="41.81739071402879" lon="13.328174652215074"><ele>1332.0</ele><time>2026-04-11T14:24:30Z</time></trkpt><trkpt lat="41.81744584033436" lon="13.327988956012502"><ele>1338.6666666666667</ele><time>2026-04-11T14:24:31Z</time></trkpt><trkpt lat="41.817558085972486" lon="13.32781684716177"><ele>1345.3333333333335</ele><time>2026-04-11T14:24:32Z</time></trkpt><trkpt lat="41.81767053520161" lon="13.327672809219566"><ele>1352.0</ele><time>2026-04-11T14:24:33Z</time></trkpt><trkpt lat="41.817815880087146" lon="13.32753865306723"><ele>1352.0</ele><time>2026-04-11T14:24:34Z</time></trkpt><trkpt lat="41.817965955652106" lon="13.327393982561802"><ele>1352.0</ele><time>2026-04-11T14:24:35Z</time></trkpt><trkpt lat="41.81809420331967" lon="13.327248017930915"><ele>1352.0</ele><time>2026-04-11T14:24:36Z</time></trkpt><trkpt lat="41.81818515351606" lon="13.327066051317654"><ele>1342.0</ele><time>2026-04-11T14:24:37Z</time></trkpt><trkpt lat="41.81823622336442" lon="13.326866298862926"><ele>1332.0</ele><time>2026-04-11T14:24:38Z</time></trkpt><trkpt lat="41.81832500499283" lon="13.326674585132475"><ele>1322.0</ele><time>2026-04-11T14:24:39Z</time></trkpt><trkpt lat="41.81843599265271" lon="13.326452135533522"><ele>1329.6666666666667</ele><time>2026-04-11T14:24:40Z</time></trkpt><trkpt lat="41.818569645056236" lon="13.32626375797136"><ele>1337.3333333333333</ele><time>2026-04-11T14:24:41Z</time></trkpt><trkpt lat="41.818694109574494" lon="13.326075831002372"><ele>1345.0</ele><time>2026-04-11T14:24:42Z</time></trkpt><trkpt lat="41.818783540911404" lon="13.325883490269996"><ele>1345.0</ele><time>2026-04-11T14:24:43Z</time></trkpt><trkpt lat="41.81882387342741" lon="13.325716071288305"><ele>1345.0</ele><time>2026-04-11T14:24:44Z</time></trkpt><trkpt lat="41.8188218075181" lon="13.325515748890936"><ele>1345.0</ele><time>2026-04-11T14:24:45Z</time></trkpt><trkpt lat="41.81875925188437" lon="13.325301572894201"><ele>1344.3333333333333</ele><time>2026-04-11T14:24:46Z</time></trkpt><trkpt lat="41.81864806321466" lon="13.32513900891082"><ele>1343.6666666666667</ele><time>2026-04-11T14:24:47Z</time></trkpt><trkpt lat="41.81855235513766" lon="13.324978804720516"><ele>1343.0</ele><time>2026-04-11T14:24:48Z</time></trkpt><trkpt lat="41.818443696973" lon="13.32480699028015"><ele>1329.0</ele><time>2026-04-11T14:24:49Z</time></trkpt><trkpt lat="41.818323972449704" lon="13.324602426493223"><ele>1315.0</ele><time>2026-04-11T14:24:50Z</time></trkpt><trkpt lat="41.81824817833077" lon="13.324423182792732"><ele>1301.0</ele><time>2026-04-11T14:24:51Z</time></trkpt><trkpt lat="41.81819264564332" lon="13.324249092550007"><ele>1301.0</ele><time>2026-04-11T14:24:52Z</time></trkpt><trkpt lat="41.81818456562272" lon="13.324114687603318"><ele>1301.0</ele><time>2026-04-11T14:24:53Z</time></trkpt><trkpt lat="41.81817613058788" lon="13.323968610591736"><ele>1301.0</ele><time>2026-04-11T14:24:54Z</time></trkpt><trkpt lat="41.81826442334448" lon="13.323847331797081"><ele>1301.0</ele><time>2026-04-11T14:24:55Z</time></trkpt><trkpt lat="41.81836402380587" lon="13.323753295460659"><ele>1306.6666666666667</ele><time>2026-04-11T14:24:56Z</time></trkpt><trkpt lat="41.81850792214531" lon="13.323598379755836"><ele>1312.3333333333333</ele><time>2026-04-11T14:24:57Z</time></trkpt><trkpt lat="41.81865805287176" lon="13.32343247392572"><ele>1318.0</ele><time>2026-04-11T14:24:58Z</time></trkpt><trkpt lat="41.81883500172638" lon="13.323263920278698"><ele>1318.0</ele><time>2026-04-11T14:24:59Z</time></trkpt><trkpt lat="41.818986399347" lon="13.32312136912028"><ele>1318.0</ele><time>2026-04-11T14:25:00Z</time></trkpt><trkpt lat="41.819081381581796" lon="13.323032688256726"><ele>1318.0</ele><time>2026-04-11T14:25:01Z</time></trkpt><trkpt lat="41.81917374858611" lon="13.322926173877146"><ele>1318.0</ele><time>2026-04-11T14:25:02Z</time></trkpt><trkpt lat="41.81918787996342" lon="13.322798486119577"><ele>1318.25</ele><time>2026-04-11T14:25:03Z</time></trkpt><trkpt lat="41.81915000502523" lon="13.322640469532248"><ele>1318.5</ele><time>2026-04-11T14:25:04Z</time></trkpt><trkpt lat="41.819078367276646" lon="13.322494962069522"><ele>1318.75</ele><time>2026-04-11T14:25:05Z</time></trkpt><trkpt lat="41.818974564770706" lon="13.32231685911538"><ele>1319.0</ele><time>2026-04-11T14:25:06Z</time></trkpt><trkpt lat="41.81884189731199" lon="13.322167996046664"><ele>1319.0</ele><time>2026-04-11T14:25:07Z</time></trkpt><trkpt lat="41.818695983862995" lon="13.32202994033721"><ele>1319.0</ele><time>2026-04-11T14:25:08Z</time></trkpt><trkpt lat="41.81853064209978" lon="13.321844738322495"><ele>1319.0</ele><time>2026-04-11T14:25:09Z</time></trkpt><trkpt lat="41.81839713257394" lon="13.321686978580443"><ele>1310.3333333333335</ele><time>2026-04-11T14:25:10Z</time></trkpt><trkpt lat="41.818283403014014" lon="13.321548414988156"><ele>1301.6666666666667</ele><time>2026-04-11T14:25:11Z</time></trkpt><trkpt lat="41.81815451480554" lon="13.321406832543046"><ele>1293.0</ele><time>2026-04-11T14:25:12Z</time></trkpt><trkpt lat="41.81805135224834" lon="13.321272682500169"><ele>1293.0</ele><time>2026-04-11T14:25:13Z</time></trkpt><trkpt lat="41.81795676650683" lon="13.321162366217926"><ele>1293.0</ele><time>2026-04-11T14:25:13.999Z</time></trkpt><trkpt lat="41.81790707802097" lon="13.321006040530104"><ele>1293.0</ele><time>2026-04-11T14:25:14.999Z</time></trkpt><trkpt lat="41.81788465312169" lon="13.320816115748388"><ele>1293.0</ele><time>2026-04-11T14:25:15.999Z</time></trkpt><trkpt lat="41.817864463294256" lon="13.320616064967306"><ele>1293.6000000000001</ele><time>2026-04-11T14:25:16.999Z</time></trkpt><trkpt lat="41.81779793499651" lon="13.320469454393292"><ele>1294.2</ele><time>2026-04-11T14:25:17.999Z</time></trkpt><trkpt lat="41.8176949354222" lon="13.320386389012048"><ele>1294.8</ele><time>2026-04-11T14:25:18.999Z</time></trkpt><trkpt lat="41.81760283957186" lon="13.320296554812119"><ele>1295.4</ele><time>2026-04-11T14:25:19.999Z</time></trkpt><trkpt lat="41.81754933689143" lon="13.32020849922075"><ele>1296.0</ele><time>2026-04-11T14:25:20.999Z</time></trkpt><trkpt lat="41.817544796425025" lon="13.320038228174083"><ele>1292.0</ele><time>2026-04-11T14:25:21.999Z</time></trkpt><trkpt lat="41.817570340228706" lon="13.319904940393277"><ele>1288.0</ele><time>2026-04-11T14:25:22.999Z</time></trkpt><trkpt lat="41.8176411918988" lon="13.319770506661532"><ele>1284.0</ele><time>2026-04-11T14:25:23.999Z</time></trkpt><trkpt lat="41.81774849186856" lon="13.319590485789456"><ele>1280.0</ele><time>2026-04-11T14:25:24.999Z</time></trkpt><trkpt lat="41.81786114561399" lon="13.319365605631228"><ele>1280.0</ele><time>2026-04-11T14:25:25.999Z</time></trkpt><trkpt lat="41.817925958633964" lon="13.319186999787442"><ele>1280.0</ele><time>2026-04-11T14:25:26.999Z</time></trkpt><trkpt lat="41.81795857623421" lon="13.319015958279845"><ele>1280.0</ele><time>2026-04-11T14:25:27.999Z</time></trkpt><trkpt lat="41.81795261011364" lon="13.318870460759282"><ele>1280.0</ele><time>2026-04-11T14:25:28.999Z</time></trkpt><trkpt lat="41.817913155799864" lon="13.318748974364492"><ele>1279.5</ele><time>2026-04-11T14:25:29.999Z</time></trkpt><trkpt lat="41.817833753632584" lon="13.318659030669517"><ele>1279.0</ele><time>2026-04-11T14:25:30.999Z</time></trkpt><trkpt lat="41.81770019977141" lon="13.318574546827628"><ele>1278.5</ele><time>2026-04-11T14:25:31.999Z</time></trkpt><trkpt lat="41.81756880345799" lon="13.31854015209234"><ele>1278.0</ele><time>2026-04-11T14:25:32.999Z</time></trkpt><trkpt lat="41.817383539516044" lon="13.31848423348172"><ele>1271.3333333333333</ele><time>2026-04-11T14:25:33.999Z</time></trkpt><trkpt lat="41.81717388595133" lon="13.318420356557366"><ele>1264.6666666666665</ele><time>2026-04-11T14:25:34.999Z</time></trkpt><trkpt lat="41.81695228734635" lon="13.318345735338847"><ele>1258.0</ele><time>2026-04-11T14:25:35.999Z</time></trkpt><trkpt lat="41.81671347075096" lon="13.318266730438436"><ele>1251.5</ele><time>2026-04-11T14:25:36.999Z</time></trkpt><trkpt lat="41.81646721916003" lon="13.318202197655433"><ele>1245.0</ele><time>2026-04-11T14:25:37.999Z</time></trkpt><trkpt lat="41.816232359052506" lon="13.318150354092"><ele>1245.0</ele><time>2026-04-11T14:25:38.999Z</time></trkpt><trkpt lat="41.81602060208851" lon="13.318104654563964"><ele>1245.0</ele><time>2026-04-11T14:25:39.999Z</time></trkpt><trkpt lat="41.815846701781226" lon="13.31805691216421"><ele>1245.0</ele><time>2026-04-11T14:25:40.999Z</time></trkpt><trkpt lat="41.81565579230929" lon="13.317987133289265"><ele>1242.6666666666667</ele><time>2026-04-11T14:25:41.999Z</time></trkpt><trkpt lat="41.8154934610558" lon="13.317897034217662"><ele>1240.3333333333335</ele><time>2026-04-11T14:25:43Z</time></trkpt><trkpt lat="41.81532656033161" lon="13.317797036190832"><ele>1238.0</ele><time>2026-04-11T14:25:44Z</time></trkpt><trkpt lat="41.81513737236438" lon="13.31769597366976"><ele>1235.0</ele><time>2026-04-11T14:25:45Z</time></trkpt><trkpt lat="41.81496250511772" lon="13.31757052895482"><ele>1232.0</ele><time>2026-04-11T14:25:46Z</time></trkpt><trkpt lat="41.81480735369832" lon="13.31741085173914"><ele>1229.0</ele><time>2026-04-11T14:25:47Z</time></trkpt><trkpt lat="41.814663952619966" lon="13.317278388883759"><ele>1228.3333333333335</ele><time>2026-04-11T14:25:48Z</time></trkpt><trkpt lat="41.81452207412861" lon="13.31714281609624"><ele>1227.6666666666667</ele><time>2026-04-11T14:25:49Z</time></trkpt><trkpt lat="41.814387039219966" lon="13.317009377818323"><ele>1227.0</ele><time>2026-04-11T14:25:50Z</time></trkpt><trkpt lat="41.81426121598877" lon="13.316883059743144"><ele>1224.5</ele><time>2026-04-11T14:25:51Z</time></trkpt><trkpt lat="41.81414311136883" lon="13.316761664516854"><ele>1222.0</ele><time>2026-04-11T14:25:52Z</time></trkpt><trkpt lat="41.814037728821575" lon="13.31663875595539"><ele>1219.5</ele><time>2026-04-11T14:25:53Z</time></trkpt><trkpt lat="41.81395343108966" lon="13.31651150871872"><ele>1217.0</ele><time>2026-04-11T14:25:54Z</time></trkpt><trkpt lat="41.813893190524475" lon="13.316365321709357"><ele>1216.0</ele><time>2026-04-11T14:25:55Z</time></trkpt><trkpt lat="41.81386428189083" lon="13.3162143205673"><ele>1215.0</ele><time>2026-04-11T14:25:56Z</time></trkpt><trkpt lat="41.81389075502122" lon="13.316066012004612"><ele>1214.0</ele><time>2026-04-11T14:25:57Z</time></trkpt><trkpt lat="41.81391236380658" lon="13.31592273073654"><ele>1213.0</ele><time>2026-04-11T14:25:58Z</time></trkpt><trkpt lat="41.81393027927569" lon="13.315797010706799"><ele>1212.0</ele><time>2026-04-11T14:25:59Z</time></trkpt><trkpt lat="41.813920723679594" lon="13.315671947551001"><ele>1212.0</ele><time>2026-04-11T14:26:00Z</time></trkpt><trkpt lat="41.8138811358608" lon="13.31556108305028"><ele>1212.0</ele><time>2026-04-11T14:26:01Z</time></trkpt><trkpt lat="41.81383139244245" lon="13.315447831960705"><ele>1212.0</ele><time>2026-04-11T14:26:02Z</time></trkpt><trkpt lat="41.81377437150188" lon="13.315340224326823"><ele>1212.0</ele><time>2026-04-11T14:26:03Z</time></trkpt><trkpt lat="41.81370359188467" lon="13.315259148628666"><ele>1212.0</ele><time>2026-04-11T14:26:04Z</time></trkpt><trkpt lat="41.81361452029266" lon="13.315208652566994"><ele>1212.0</ele><time>2026-04-11T14:26:05Z</time></trkpt><trkpt lat="41.81351026202392" lon="13.31520470030287"><ele>1212.0</ele><time>2026-04-11T14:26:06Z</time></trkpt><trkpt lat="41.81340565813288" lon="13.315252036627781"><ele>1212.0</ele><time>2026-04-11T14:26:07Z</time></trkpt><trkpt lat="41.813317159048786" lon="13.315347600407835"><ele>1212.0</ele><time>2026-04-11T14:26:08Z</time></trkpt><trkpt lat="41.813221841397684" lon="13.31540492985824"><ele>1212.0</ele><time>2026-04-11T14:26:09Z</time></trkpt><trkpt lat="41.813157978377504" lon="13.315661836663452"><ele>1210.75</ele><time>2026-04-11T14:26:10Z</time></trkpt><trkpt lat="41.81312422020424" lon="13.315837722610592"><ele>1209.5</ele><time>2026-04-11T14:26:11Z</time></trkpt><trkpt lat="41.81309716491135" lon="13.315998178174036"><ele>1208.25</ele><time>2026-04-11T14:26:12Z</time></trkpt><trkpt lat="41.813111132800394" lon="13.316172454727939"><ele>1207.0</ele><time>2026-04-11T14:26:13Z</time></trkpt><trkpt lat="41.813122877060216" lon="13.31634043672878"><ele>1205.6</ele><time>2026-04-11T14:26:14Z</time></trkpt><trkpt lat="41.81316509411278" lon="13.316482746651452"><ele>1204.2</ele><time>2026-04-11T14:26:15Z</time></trkpt><trkpt lat="41.813217609754616" lon="13.316598218007046"><ele>1202.8</ele><time>2026-04-11T14:26:16Z</time></trkpt><trkpt lat="41.81329130348537" lon="13.316690820313752"><ele>1201.4</ele><time>2026-04-11T14:26:17Z</time></trkpt><trkpt lat="41.813375971468105" lon="13.316781841472325"><ele>1200.0</ele><time>2026-04-11T14:26:19Z</time></trkpt><trkpt lat="41.8133514540704" lon="13.316907368973363"><ele>1200.0</ele><time>2026-04-11T14:26:21Z</time></trkpt><trkpt lat="41.81328813917932" lon="13.316951134458693"><ele>1200.0</ele><time>2026-04-11T14:26:22Z</time></trkpt><trkpt lat="41.81320894126672" lon="13.31694130467163"><ele>1200.0</ele><time>2026-04-11T14:26:23Z</time></trkpt><trkpt lat="41.81312142048713" lon="13.316917483776871"><ele>1200.0</ele><time>2026-04-11T14:26:24Z</time></trkpt><trkpt lat="41.813011009997126" lon="13.31682092380344"><ele>1200.0</ele><time>2026-04-11T14:26:25Z</time></trkpt><trkpt lat="41.81292175003758" lon="13.316745934784592"><ele>1200.0</ele><time>2026-04-11T14:26:26Z</time></trkpt><trkpt lat="41.81284570837045" lon="13.316659372727653"><ele>1200.0</ele><time>2026-04-11T14:26:27Z</time></trkpt><trkpt lat="41.81277717358322" lon="13.316542084695778"><ele>1200.0</ele><time>2026-04-11T14:26:28Z</time></trkpt><trkpt lat="41.81274513351341" lon="13.316391308123436"><ele>1200.0</ele><time>2026-04-11T14:26:29Z</time></trkpt><trkpt lat="41.812723819053396" lon="13.31621837920983"><ele>1201.75</ele><time>2026-04-11T14:26:30Z</time></trkpt><trkpt lat="41.8127148693991" lon="13.316056175243128"><ele>1203.5</ele><time>2026-04-11T14:26:31Z</time></trkpt><trkpt lat="41.81270747388518" lon="13.315905121948257"><ele>1205.25</ele><time>2026-04-11T14:26:32Z</time></trkpt><trkpt lat="41.812708234660185" lon="13.3157436002742"><ele>1207.0</ele><time>2026-04-11T14:26:33Z</time></trkpt><trkpt lat="41.81270802598647" lon="13.31558491825956"><ele>1205.5</ele><time>2026-04-11T14:26:34Z</time></trkpt><trkpt lat="41.812708035677986" lon="13.315419003538214"><ele>1204.0</ele><time>2026-04-11T14:26:35Z</time></trkpt><trkpt lat="41.81271210863496" lon="13.31525751584888"><ele>1202.5</ele><time>2026-04-11T14:26:36Z</time></trkpt><trkpt lat="41.812744319807116" lon="13.31509035048782"><ele>1201.0</ele><time>2026-04-11T14:26:37Z</time></trkpt><trkpt lat="41.812809263720695" lon="13.314914683981648"><ele>1197.75</ele><time>2026-04-11T14:26:38Z</time></trkpt><trkpt lat="41.81286972373549" lon="13.314729810099205"><ele>1194.5</ele><time>2026-04-11T14:26:39Z</time></trkpt><trkpt lat="41.81295395460685" lon="13.314552936011745"><ele>1191.25</ele><time>2026-04-11T14:26:40Z</time></trkpt><trkpt lat="41.813043386053735" lon="13.314414472142502"><ele>1188.0</ele><time>2026-04-11T14:26:41Z</time></trkpt><trkpt lat="41.813132848704534" lon="13.31428012579466"><ele>1188.0</ele><time>2026-04-11T14:26:42Z</time></trkpt><trkpt lat="41.81320478852502" lon="13.314132573417062"><ele>1188.0</ele><time>2026-04-11T14:26:43Z</time></trkpt><trkpt lat="41.813263848169136" lon="13.313951873301415"><ele>1188.0</ele><time>2026-04-11T14:26:44Z</time></trkpt><trkpt lat="41.81327725591143" lon="13.31373650213173"><ele>1188.0</ele><time>2026-04-11T14:26:45Z</time></trkpt><trkpt lat="41.81327509690586" lon="13.313517487482638"><ele>1184.0</ele><time>2026-04-11T14:26:46Z</time></trkpt><trkpt lat="41.8132857476223" lon="13.313295612886147"><ele>1180.0</ele><time>2026-04-11T14:26:47Z</time></trkpt><trkpt lat="41.813309200420534" lon="13.313099357421523"><ele>1176.0</ele><time>2026-04-11T14:26:48Z</time></trkpt><trkpt lat="41.81334815826865" lon="13.312918619620092"><ele>1176.25</ele><time>2026-04-11T14:26:49Z</time></trkpt><trkpt lat="41.81341956031964" lon="13.31274587683246"><ele>1176.5</ele><time>2026-04-11T14:26:50Z</time></trkpt><trkpt lat="41.81349966802399" lon="13.312581333358608"><ele>1176.75</ele><time>2026-04-11T14:26:51Z</time></trkpt><trkpt lat="41.8135831720997" lon="13.312414941044619"><ele>1177.0</ele><time>2026-04-11T14:26:52Z</time></trkpt><trkpt lat="41.813680377682374" lon="13.312281209313644"><ele>1173.5</ele><time>2026-04-11T14:26:53Z</time></trkpt><trkpt lat="41.81379262034251" lon="13.312198626573787"><ele>1170.0</ele><time>2026-04-11T14:26:54Z</time></trkpt><trkpt lat="41.81389157131944" lon="13.31209054713972"><ele>1166.5</ele><time>2026-04-11T14:26:55Z</time></trkpt><trkpt lat="41.813974175493414" lon="13.311953923475244"><ele>1163.0</ele><time>2026-04-11T14:26:56Z</time></trkpt><trkpt lat="41.814068126248074" lon="13.311829288686909"><ele>1163.0</ele><time>2026-04-11T14:26:57Z</time></trkpt><trkpt lat="41.814088058375454" lon="13.311628494285783"><ele>1163.0</ele><time>2026-04-11T14:26:58Z</time></trkpt><trkpt lat="41.814139247790955" lon="13.311423960551384"><ele>1163.0</ele><time>2026-04-11T14:26:59Z</time></trkpt><trkpt lat="41.814215646442705" lon="13.311294540378007"><ele>1163.0</ele><time>2026-04-11T14:27:00Z</time></trkpt><trkpt lat="41.814323132173826" lon="13.31123195054125"><ele>1160.25</ele><time>2026-04-11T14:27:01Z</time></trkpt><trkpt lat="41.81445646194928" lon="13.311128535086013"><ele>1157.5</ele><time>2026-04-11T14:27:02Z</time></trkpt><trkpt lat="41.81456050578654" lon="13.311006388285964"><ele>1154.75</ele><time>2026-04-11T14:27:02.999Z</time></trkpt><trkpt lat="41.81460065691417" lon="13.310836635163556"><ele>1152.0</ele><time>2026-04-11T14:27:03.999Z</time></trkpt><trkpt lat="41.814611996902116" lon="13.310660414382914"><ele>1148.6666666666667</ele><time>2026-04-11T14:27:04.999Z</time></trkpt><trkpt lat="41.81457543665274" lon="13.310464984963419"><ele>1145.3333333333335</ele><time>2026-04-11T14:27:05.999Z</time></trkpt><trkpt lat="41.81449634660548" lon="13.310300211010272"><ele>1142.0</ele><time>2026-04-11T14:27:06.999Z</time></trkpt><trkpt lat="41.81439631918146" lon="13.310137472350158"><ele>1144.0</ele><time>2026-04-11T14:27:07.999Z</time></trkpt><trkpt lat="41.81428923058047" lon="13.310011941012515"><ele>1146.0</ele><time>2026-04-11T14:27:08.999Z</time></trkpt><trkpt lat="41.81418880662183" lon="13.309932395696903"><ele>1148.0</ele><time>2026-04-11T14:27:09.999Z</time></trkpt><trkpt lat="41.81406631550999" lon="13.309900703930666"><ele>1150.0</ele><time>2026-04-11T14:27:10.999Z</time></trkpt><trkpt lat="41.81397962950528" lon="13.309907214317265"><ele>1150.0</ele><time>2026-04-11T14:27:11.999Z</time></trkpt><trkpt lat="41.81385723055361" lon="13.310007714814605"><ele>1150.0</ele><time>2026-04-11T14:27:12.999Z</time></trkpt><trkpt lat="41.813761779630156" lon="13.310127985574567"><ele>1150.0</ele><time>2026-04-11T14:27:13.999Z</time></trkpt><trkpt lat="41.81369438252521" lon="13.310308576139404"><ele>1150.0</ele><time>2026-04-11T14:27:14.999Z</time></trkpt><trkpt lat="41.813695142595805" lon="13.310486773235247"><ele>1152.5</ele><time>2026-04-11T14:27:15.999Z</time></trkpt><trkpt lat="41.813741587426115" lon="13.310644490869965"><ele>1155.0</ele><time>2026-04-11T14:27:16.999Z</time></trkpt><trkpt lat="41.81377186307476" lon="13.31082444722661"><ele>1157.5</ele><time>2026-04-11T14:27:17.999Z</time></trkpt><trkpt lat="41.81373103872184" lon="13.311010051924184"><ele>1160.0</ele><time>2026-04-11T14:27:18.999Z</time></trkpt><trkpt lat="41.81367609029414" lon="13.311233548994958"><ele>1160.75</ele><time>2026-04-11T14:27:19.999Z</time></trkpt><trkpt lat="41.81360423078028" lon="13.31142841841737"><ele>1161.5</ele><time>2026-04-11T14:27:20.999Z</time></trkpt><trkpt lat="41.81355494170029" lon="13.31163138130283"><ele>1162.25</ele><time>2026-04-11T14:27:21.999Z</time></trkpt><trkpt lat="41.81346245368986" lon="13.311740191016264"><ele>1163.0</ele><time>2026-04-11T14:27:22.999Z</time></trkpt><trkpt lat="41.813333753070005" lon="13.311815730167426"><ele>1161.6666666666667</ele><time>2026-04-11T14:27:23.999Z</time></trkpt><trkpt lat="41.81319829330422" lon="13.311904479419399"><ele>1160.3333333333333</ele><time>2026-04-11T14:27:24.999Z</time></trkpt><trkpt lat="41.81310213654225" lon="13.312039320498409"><ele>1159.0</ele><time>2026-04-11T14:27:25.999Z</time></trkpt><trkpt lat="41.81302558751698" lon="13.312248745917318"><ele>1159.0</ele><time>2026-04-11T14:27:26.999Z</time></trkpt><trkpt lat="41.812924473710396" lon="13.312455843107891"><ele>1159.0</ele><time>2026-04-11T14:27:27.999Z</time></trkpt><trkpt lat="41.812830019080906" lon="13.31265760836844"><ele>1159.0</ele><time>2026-04-11T14:27:28.999Z</time></trkpt><trkpt lat="41.8127213156347" lon="13.312870476365804"><ele>1151.6666666666665</ele><time>2026-04-11T14:27:29.999Z</time></trkpt><trkpt lat="41.812636856968005" lon="13.313081580188456"><ele>1144.3333333333333</ele><time>2026-04-11T14:27:30.999Z</time></trkpt><trkpt lat="41.81256559563443" lon="13.313288680113956"><ele>1137.0</ele><time>2026-04-11T14:27:31.999Z</time></trkpt><trkpt lat="41.81247056646148" lon="13.313468023630401"><ele>1137.0</ele><time>2026-04-11T14:27:32.999Z</time></trkpt><trkpt lat="41.81232750206842" lon="13.313574488184859"><ele>1137.0</ele><time>2026-04-11T14:27:33.999Z</time></trkpt><trkpt lat="41.812164802850155" lon="13.31365525885403"><ele>1137.0</ele><time>2026-04-11T14:27:34.999Z</time></trkpt><trkpt lat="41.81202044923324" lon="13.313792922872397"><ele>1132.3333333333333</ele><time>2026-04-11T14:27:35.999Z</time></trkpt><trkpt lat="41.8118871762911" lon="13.313948238067923"><ele>1127.6666666666665</ele><time>2026-04-11T14:27:36.999Z</time></trkpt><trkpt lat="41.811785934333216" lon="13.314153995970543"><ele>1123.0</ele><time>2026-04-11T14:27:37.999Z</time></trkpt><trkpt lat="41.811682694162656" lon="13.314313674556333"><ele>1123.0</ele><time>2026-04-11T14:27:38.999Z</time></trkpt><trkpt lat="41.81159322794215" lon="13.314438587517223"><ele>1123.0</ele><time>2026-04-11T14:27:39.999Z</time></trkpt><trkpt lat="41.81148749220712" lon="13.314552120270623"><ele>1123.0</ele><time>2026-04-11T14:27:40.999Z</time></trkpt><trkpt lat="41.81138706890888" lon="13.314617644003052"><ele>1123.0</ele><time>2026-04-11T14:27:41.999Z</time></trkpt><trkpt lat="41.81128033413978" lon="13.314600030405028"><ele>1123.0</ele><time>2026-04-11T14:27:42.999Z</time></trkpt><trkpt lat="41.81119131002529" lon="13.314570098770128"><ele>1123.0</ele><time>2026-04-11T14:27:43.999Z</time></trkpt><trkpt lat="41.8111450817533" lon="13.31449932669618"><ele>1123.0</ele><time>2026-04-11T14:27:46.999Z</time></trkpt><trkpt lat="41.81102215809473" lon="13.313931606675807"><ele>1120.0</ele><time>2026-04-11T14:27:47.999Z</time></trkpt><trkpt lat="41.81110082668002" lon="13.313801393593673"><ele>1117.0</ele><time>2026-04-11T14:27:49Z</time></trkpt><trkpt lat="41.81117497951556" lon="13.313622856522581"><ele>1114.0</ele><time>2026-04-11T14:27:50Z</time></trkpt><trkpt lat="41.81131000066912" lon="13.313472135108329"><ele>1114.0</ele><time>2026-04-11T14:27:51Z</time></trkpt><trkpt lat="41.81139626721199" lon="13.313298891367195"><ele>1114.0</ele><time>2026-04-11T14:27:52Z</time></trkpt><trkpt lat="41.8114369751503" lon="13.313103907618167"><ele>1114.0</ele><time>2026-04-11T14:27:53Z</time></trkpt><trkpt lat="41.81144823366424" lon="13.31291605013299"><ele>1114.0</ele><time>2026-04-11T14:27:54Z</time></trkpt><trkpt lat="41.81141079850586" lon="13.31275702511357"><ele>1112.75</ele><time>2026-04-11T14:27:55Z</time></trkpt><trkpt lat="41.81137171411762" lon="13.312563881347499"><ele>1111.5</ele><time>2026-04-11T14:27:56Z</time></trkpt><trkpt lat="41.811290451135356" lon="13.312401718983702"><ele>1110.25</ele><time>2026-04-11T14:27:57Z</time></trkpt><trkpt lat="41.8112274962254" lon="13.312246343746832"><ele>1109.0</ele><time>2026-04-11T14:27:58Z</time></trkpt><trkpt lat="41.81119277063479" lon="13.312124065639022"><ele>1108.0</ele><time>2026-04-11T14:27:59Z</time></trkpt><trkpt lat="41.81123424116448" lon="13.311973939357506"><ele>1107.0</ele><time>2026-04-11T14:28:00Z</time></trkpt><trkpt lat="41.81133874951343" lon="13.311875286422357"><ele>1106.0</ele><time>2026-04-11T14:28:01Z</time></trkpt><trkpt lat="41.81146103327067" lon="13.31175659531526"><ele>1105.0</ele><time>2026-04-11T14:28:02Z</time></trkpt><trkpt lat="41.81157203971664" lon="13.311626675605865"><ele>1105.0</ele><time>2026-04-11T14:28:03Z</time></trkpt><trkpt lat="41.811574881388594" lon="13.311411972941524"><ele>1105.0</ele><time>2026-04-11T14:28:04Z</time></trkpt><trkpt lat="41.81158191172458" lon="13.311195216663135"><ele>1105.0</ele><time>2026-04-11T14:28:05Z</time></trkpt><trkpt lat="41.81157993600576" lon="13.310972039705305"><ele>1103.3333333333333</ele><time>2026-04-11T14:28:06Z</time></trkpt><trkpt lat="41.811534194491806" lon="13.310702413385744"><ele>1101.6666666666667</ele><time>2026-04-11T14:28:07Z</time></trkpt><trkpt lat="41.81149699454801" lon="13.31043657079803"><ele>1100.0</ele><time>2026-04-11T14:28:08Z</time></trkpt><trkpt lat="41.81145771274453" lon="13.310158474900907"><ele>1099.6666666666667</ele><time>2026-04-11T14:28:09Z</time></trkpt><trkpt lat="41.81142264989747" lon="13.309891353596164"><ele>1099.3333333333333</ele><time>2026-04-11T14:28:10Z</time></trkpt><trkpt lat="41.8113836917409" lon="13.309630719700749"><ele>1099.0</ele><time>2026-04-11T14:28:11Z</time></trkpt><trkpt lat="41.8113441030528" lon="13.309397328196578"><ele>1096.6666666666665</ele><time>2026-04-11T14:28:12Z</time></trkpt><trkpt lat="41.81130330417039" lon="13.309176726036897"><ele>1094.3333333333333</ele><time>2026-04-11T14:28:13Z</time></trkpt><trkpt lat="41.8112440895815" lon="13.309012198784071"><ele>1092.0</ele><time>2026-04-11T14:28:14Z</time></trkpt><trkpt lat="41.81117631158629" lon="13.308837278403212"><ele>1090.5</ele><time>2026-04-11T14:28:15Z</time></trkpt><trkpt lat="41.81110489665706" lon="13.308695741849567"><ele>1089.0</ele><time>2026-04-11T14:28:16Z</time></trkpt><trkpt lat="41.8110028321088" lon="13.308616940876986"><ele>1087.5</ele><time>2026-04-11T14:28:17Z</time></trkpt><trkpt lat="41.810878674157784" lon="13.308582272582788"><ele>1086.0</ele><time>2026-04-11T14:28:18Z</time></trkpt><trkpt lat="41.81074926366673" lon="13.308611741493666"><ele>1084.3333333333333</ele><time>2026-04-11T14:28:19Z</time></trkpt><trkpt lat="41.8106372243959" lon="13.308683604307172"><ele>1082.6666666666665</ele><time>2026-04-11T14:28:20Z</time></trkpt><trkpt lat="41.81053274641501" lon="13.30882884113514"><ele>1081.0</ele><time>2026-04-11T14:28:21Z</time></trkpt><trkpt lat="41.81042595193644" lon="13.309035651632623"><ele>1079.6666666666665</ele><time>2026-04-11T14:28:22Z</time></trkpt><trkpt lat="41.81033485437869" lon="13.309244745255967"><ele>1078.3333333333333</ele><time>2026-04-11T14:28:23Z</time></trkpt><trkpt lat="41.81024852642988" lon="13.309385843286819"><ele>1077.0</ele><time>2026-04-11T14:28:24Z</time></trkpt><trkpt lat="41.81013737406843" lon="13.309503101414101"><ele>1077.0</ele><time>2026-04-11T14:28:25Z</time></trkpt><trkpt lat="41.81004868266184" lon="13.309499928031055"><ele>1077.0</ele><time>2026-04-11T14:28:26Z</time></trkpt><trkpt lat="41.80990959235976" lon="13.30952779267641"><ele>1077.0</ele><time>2026-04-11T14:28:27Z</time></trkpt><trkpt lat="41.809737187593235" lon="13.30959880284123"><ele>1077.0</ele><time>2026-04-11T14:28:28Z</time></trkpt><trkpt lat="41.809540813038" lon="13.309705891714957"><ele>1076.5</ele><time>2026-04-11T14:28:29Z</time></trkpt><trkpt lat="41.8093805960377" lon="13.309784266011182"><ele>1076.0</ele><time>2026-04-11T14:28:30Z</time></trkpt><trkpt lat="41.8092582494877" lon="13.30987103311649"><ele>1075.5</ele><time>2026-04-11T14:28:31Z</time></trkpt><trkpt lat="41.80916356114095" lon="13.310001619340975"><ele>1075.0</ele><time>2026-04-11T14:28:32Z</time></trkpt><trkpt lat="41.809091370675525" lon="13.310188886812055"><ele>1075.0</ele><time>2026-04-11T14:28:33Z</time></trkpt><trkpt lat="41.80903337600842" lon="13.310389883235871"><ele>1075.0</ele><time>2026-04-11T14:28:34Z</time></trkpt><trkpt lat="41.80897154320182" lon="13.310566541090827"><ele>1075.0</ele><time>2026-04-11T14:28:35Z</time></trkpt><trkpt lat="41.80897370665735" lon="13.31072593176976"><ele>1075.0</ele><time>2026-04-11T14:28:36Z</time></trkpt><trkpt lat="41.80900561499196" lon="13.310913268526324"><ele>1075.75</ele><time>2026-04-11T14:28:37Z</time></trkpt><trkpt lat="41.80903282630268" lon="13.311096243978989"><ele>1076.5</ele><time>2026-04-11T14:28:38Z</time></trkpt><trkpt lat="41.808996843970455" lon="13.311235634305563"><ele>1077.25</ele><time>2026-04-11T14:28:39Z</time></trkpt><trkpt lat="41.808949733357665" lon="13.311368432873278"><ele>1078.0</ele><time>2026-04-11T14:28:40Z</time></trkpt><trkpt lat="41.808874334355515" lon="13.31145439792454"><ele>1078.0</ele><time>2026-04-11T14:28:41Z</time></trkpt><trkpt lat="41.80881243851101" lon="13.311485013029335"><ele>1078.0</ele><time>2026-04-11T14:28:42Z</time></trkpt><trkpt lat="41.808692793786776" lon="13.311483512017865"><ele>1078.0</ele><time>2026-04-11T14:28:43Z</time></trkpt><trkpt lat="41.80857827693702" lon="13.311373054602205"><ele>1078.0</ele><time>2026-04-11T14:28:44Z</time></trkpt><trkpt lat="41.808498108079434" lon="13.311225303745633"><ele>1069.6666666666665</ele><time>2026-04-11T14:28:45Z</time></trkpt><trkpt lat="41.808447013969136" lon="13.31103480071506"><ele>1061.3333333333333</ele><time>2026-04-11T14:28:46Z</time></trkpt><trkpt lat="41.80837571914693" lon="13.310760485182865"><ele>1053.0</ele><time>2026-04-11T14:28:47Z</time></trkpt><trkpt lat="41.808313082962385" lon="13.310470851633621"><ele>1052.6666666666667</ele><time>2026-04-11T14:28:48Z</time></trkpt><trkpt lat="41.80829449691686" lon="13.310195930870226"><ele>1052.3333333333335</ele><time>2026-04-11T14:28:49Z</time></trkpt><trkpt lat="41.808283549223425" lon="13.309937058843726"><ele>1052.0</ele><time>2026-04-11T14:28:49.999Z</time></trkpt><trkpt lat="41.808268403895255" lon="13.309708015082135"><ele>1049.75</ele><time>2026-04-11T14:28:50.999Z</time></trkpt><trkpt lat="41.808258906126184" lon="13.309503775861018"><ele>1047.5</ele><time>2026-04-11T14:28:51.999Z</time></trkpt><trkpt lat="41.808283962560154" lon="13.30931671658794"><ele>1045.25</ele><time>2026-04-11T14:28:52.999Z</time></trkpt><trkpt lat="41.80836546621802" lon="13.309204782049878"><ele>1043.0</ele><time>2026-04-11T14:28:53.999Z</time></trkpt><trkpt lat="41.808498164280856" lon="13.309107444890328"><ele>1044.75</ele><time>2026-04-11T14:28:54.999Z</time></trkpt><trkpt lat="41.80862726528899" lon="13.309041360497709"><ele>1046.5</ele><time>2026-04-11T14:28:55.999Z</time></trkpt><trkpt lat="41.80874030710949" lon="13.308928323324494"><ele>1048.25</ele><time>2026-04-11T14:28:56.999Z</time></trkpt><trkpt lat="41.80880993287862" lon="13.308732973223828"><ele>1050.0</ele><time>2026-04-11T14:28:57.999Z</time></trkpt><trkpt lat="41.80887718202688" lon="13.308505121007382"><ele>1050.0</ele><time>2026-04-11T14:28:58.999Z</time></trkpt><trkpt lat="41.808947176030024" lon="13.308322060366539"><ele>1050.0</ele><time>2026-04-11T14:28:59.999Z</time></trkpt><trkpt lat="41.8090532035239" lon="13.308187271881456"><ele>1050.0</ele><time>2026-04-11T14:29:00.999Z</time></trkpt><trkpt lat="41.809185092724604" lon="13.308094153652425"><ele>1050.0</ele><time>2026-04-11T14:29:01.999Z</time></trkpt><trkpt lat="41.809322225336615" lon="13.307981312683342"><ele>1051.3333333333333</ele><time>2026-04-11T14:29:02.999Z</time></trkpt><trkpt lat="41.809444769753156" lon="13.30785890878662"><ele>1052.6666666666665</ele><time>2026-04-11T14:29:03.999Z</time></trkpt><trkpt lat="41.80951315282748" lon="13.307669706267355"><ele>1054.0</ele><time>2026-04-11T14:29:04.999Z</time></trkpt><trkpt lat="41.809543504680484" lon="13.307443621277274"><ele>1049.6666666666665</ele><time>2026-04-11T14:29:05.999Z</time></trkpt><trkpt lat="41.809586584018575" lon="13.307198730095246"><ele>1045.3333333333333</ele><time>2026-04-11T14:29:06.999Z</time></trkpt><trkpt lat="41.80967361296877" lon="13.306927092080542"><ele>1041.0</ele><time>2026-04-11T14:29:07.999Z</time></trkpt><trkpt lat="41.80979319411029" lon="13.306701414685339"><ele>1041.0</ele><time>2026-04-11T14:29:08.999Z</time></trkpt><trkpt lat="41.80989498968968" lon="13.30649557710086"><ele>1041.0</ele><time>2026-04-11T14:29:09.999Z</time></trkpt><trkpt lat="41.80996533740611" lon="13.306319341640542"><ele>1041.0</ele><time>2026-04-11T14:29:10.999Z</time></trkpt><trkpt lat="41.80998178613606" lon="13.306134516650332"><ele>1037.6666666666667</ele><time>2026-04-11T14:29:11.999Z</time></trkpt><trkpt lat="41.80994510088991" lon="13.305908425634568"><ele>1034.3333333333335</ele><time>2026-04-11T14:29:12.999Z</time></trkpt><trkpt lat="41.809919377749125" lon="13.305661839291362"><ele>1031.0</ele><time>2026-04-11T14:29:13.999Z</time></trkpt><trkpt lat="41.80993627449165" lon="13.305352297254393"><ele>1028.3333333333335</ele><time>2026-04-11T14:29:14.999Z</time></trkpt><trkpt lat="41.809954377829115" lon="13.305051401867795"><ele>1025.6666666666667</ele><time>2026-04-11T14:29:15.999Z</time></trkpt><trkpt lat="41.80999433881785" lon="13.304755987531388"><ele>1023.0</ele><time>2026-04-11T14:29:16.999Z</time></trkpt><trkpt lat="41.81002905816705" lon="13.304518975616908"><ele>1023.75</ele><time>2026-04-11T14:29:17.999Z</time></trkpt><trkpt lat="41.810065024199005" lon="13.304403533309454"><ele>1024.5</ele><time>2026-04-11T14:29:18.999Z</time></trkpt><trkpt lat="41.81015128134402" lon="13.304267132316719"><ele>1025.25</ele><time>2026-04-11T14:29:19.999Z</time></trkpt><trkpt lat="41.81024255015635" lon="13.304203052558211"><ele>1026.0</ele><time>2026-04-11T14:29:20.999Z</time></trkpt><trkpt lat="41.810367652404054" lon="13.304128125194268"><ele>1026.0</ele><time>2026-04-11T14:29:21.999Z</time></trkpt><trkpt lat="41.81055281628464" lon="13.304016992153558"><ele>1026.0</ele><time>2026-04-11T14:29:22.999Z</time></trkpt><trkpt lat="41.81069514459829" lon="13.303894176769038"><ele>1026.0</ele><time>2026-04-11T14:29:23.999Z</time></trkpt><trkpt lat="41.810825575205904" lon="13.303776544744597"><ele>1023.25</ele><time>2026-04-11T14:29:24.999Z</time></trkpt><trkpt lat="41.81088387891602" lon="13.303642192922362"><ele>1020.5</ele><time>2026-04-11T14:29:25.999Z</time></trkpt><trkpt lat="41.8108968381033" lon="13.303437532199563"><ele>1017.75</ele><time>2026-04-11T14:29:26.999Z</time></trkpt><trkpt lat="41.81087616297368" lon="13.303213898155468"><ele>1015.0</ele><time>2026-04-11T14:29:27.999Z</time></trkpt><trkpt lat="41.81086654855705" lon="13.30295223307573"><ele>1012.5</ele><time>2026-04-11T14:29:28.999Z</time></trkpt><trkpt lat="41.81086276940759" lon="13.302745293249139"><ele>1010.0</ele><time>2026-04-11T14:29:29.999Z</time></trkpt><trkpt lat="41.81089731891347" lon="13.302587114413928"><ele>1007.5</ele><time>2026-04-11T14:29:30.999Z</time></trkpt><trkpt lat="41.81094985521447" lon="13.302453557909606"><ele>1005.0</ele><time>2026-04-11T14:29:31.999Z</time></trkpt><trkpt lat="41.81106556266204" lon="13.30233740306193"><ele>1005.0</ele><time>2026-04-11T14:29:32.999Z</time></trkpt><trkpt lat="41.811196721262334" lon="13.302262389890695"><ele>1005.0</ele><time>2026-04-11T14:29:33.999Z</time></trkpt><trkpt lat="41.8113269338651" lon="13.302184028731697"><ele>1005.0</ele><time>2026-04-11T14:29:34.999Z</time></trkpt><trkpt lat="41.81144226840789" lon="13.30215651598317"><ele>1005.0</ele><time>2026-04-11T14:29:35.999Z</time></trkpt><trkpt lat="41.81157295544003" lon="13.302167418967972"><ele>1005.0</ele><time>2026-04-11T14:29:36.999Z</time></trkpt><trkpt lat="41.81169984079594" lon="13.302217359562807"><ele>1005.0</ele><time>2026-04-11T14:29:37.999Z</time></trkpt><trkpt lat="41.811805783860855" lon="13.302307668107318"><ele>1005.0</ele><time>2026-04-11T14:29:38.999Z</time></trkpt><trkpt lat="41.81189699535343" lon="13.302426266272217"><ele>1005.0</ele><time>2026-04-11T14:29:39.999Z</time></trkpt><trkpt lat="41.81193244536143" lon="13.302608567996568"><ele>1002.5</ele><time>2026-04-11T14:29:40.999Z</time></trkpt><trkpt lat="41.81199477686339" lon="13.302763849751178"><ele>1000.0</ele><time>2026-04-11T14:29:41.999Z</time></trkpt><trkpt lat="41.812080249716885" lon="13.302893945946552"><ele>997.5</ele><time>2026-04-11T14:29:42.999Z</time></trkpt><trkpt lat="41.812217310537676" lon="13.302956798322041"><ele>995.0</ele><time>2026-04-11T14:29:43.999Z</time></trkpt><trkpt lat="41.81234185754698" lon="13.303009733026121"><ele>995.0</ele><time>2026-04-11T14:29:44.999Z</time></trkpt><trkpt lat="41.81246713394534" lon="13.303017258748781"><ele>995.0</ele><time>2026-04-11T14:29:45.999Z</time></trkpt><trkpt lat="41.812582410749556" lon="13.302969553359977"><ele>995.0</ele><time>2026-04-11T14:29:46.999Z</time></trkpt><trkpt lat="41.81266008644697" lon="13.302900137516515"><ele>995.0</ele><time>2026-04-11T14:29:47.999Z</time></trkpt><trkpt lat="41.81272600586996" lon="13.302824559315184"><ele>995.0</ele><time>2026-04-11T14:29:48.999Z</time></trkpt><trkpt lat="41.812739713489044" lon="13.302599657752022"><ele>998.3333333333334</ele><time>2026-04-11T14:29:49.999Z</time></trkpt><trkpt lat="41.81277665256908" lon="13.302347911465807"><ele>1001.6666666666667</ele><time>2026-04-11T14:29:50.999Z</time></trkpt><trkpt lat="41.812862313234" lon="13.302081336342356"><ele>1005.0</ele><time>2026-04-11T14:29:51.999Z</time></trkpt><trkpt lat="41.812935879717976" lon="13.301916322650841"><ele>997.6666666666667</ele><time>2026-04-11T14:29:52.999Z</time></trkpt><trkpt lat="41.81310626123617" lon="13.301880369131634"><ele>990.3333333333334</ele><time>2026-04-11T14:29:53.999Z</time></trkpt><trkpt lat="41.81323449247921" lon="13.301810544658284"><ele>983.0</ele><time>2026-04-11T14:29:55Z</time></trkpt><trkpt lat="41.81335236517196" lon="13.301686330882921"><ele>983.0</ele><time>2026-04-11T14:29:56Z</time></trkpt><trkpt lat="41.813447362287015" lon="13.30151192212185"><ele>983.0</ele><time>2026-04-11T14:29:57Z</time></trkpt><trkpt lat="41.81353315025232" lon="13.301377922551769"><ele>983.0</ele><time>2026-04-11T14:29:58Z</time></trkpt><trkpt lat="41.81366631661925" lon="13.301317033153277"><ele>983.0</ele><time>2026-04-11T14:29:59Z</time></trkpt><trkpt lat="41.813809044814285" lon="13.301340947107848"><ele>983.6666666666667</ele><time>2026-04-11T14:30:00Z</time></trkpt><trkpt lat="41.81394522096402" lon="13.301421006555994"><ele>984.3333333333333</ele><time>2026-04-11T14:30:01Z</time></trkpt><trkpt lat="41.81410262049198" lon="13.301474153469051"><ele>985.0</ele><time>2026-04-11T14:30:02Z</time></trkpt><trkpt lat="41.81425305136585" lon="13.301406148800293"><ele>985.25</ele><time>2026-04-11T14:30:03Z</time></trkpt><trkpt lat="41.814363441751986" lon="13.301317433150304"><ele>985.5</ele><time>2026-04-11T14:30:04Z</time></trkpt><trkpt lat="41.814446075577614" lon="13.301183091619485"><ele>985.75</ele><time>2026-04-11T14:30:05Z</time></trkpt><trkpt lat="41.81449900444738" lon="13.300983440373196"><ele>986.0</ele><time>2026-04-11T14:30:06Z</time></trkpt><trkpt lat="41.81454578379345" lon="13.300741222555875"><ele>982.0</ele><time>2026-04-11T14:30:07Z</time></trkpt><trkpt lat="41.81454636091936" lon="13.300525498883486"><ele>978.0</ele><time>2026-04-11T14:30:08Z</time></trkpt><trkpt lat="41.81453127082559" lon="13.300327603991242"><ele>974.0</ele><time>2026-04-11T14:30:09Z</time></trkpt><trkpt lat="41.81444819641428" lon="13.300158421293792"><ele>974.0</ele><time>2026-04-11T14:30:10Z</time></trkpt><trkpt lat="41.81434743417776" lon="13.299990487686719"><ele>974.0</ele><time>2026-04-11T14:30:11Z</time></trkpt><trkpt lat="41.814228586852174" lon="13.299724837246668"><ele>974.0</ele><time>2026-04-11T14:30:12Z</time></trkpt><trkpt lat="41.81412539461319" lon="13.299511560504904"><ele>967.0</ele><time>2026-04-11T14:30:13Z</time></trkpt><trkpt lat="41.81404184043774" lon="13.299303812314006"><ele>960.0</ele><time>2026-04-11T14:30:14Z</time></trkpt><trkpt lat="41.81398070780766" lon="13.299128158591413"><ele>953.0</ele><time>2026-04-11T14:30:15Z</time></trkpt><trkpt lat="41.81391666222669" lon="13.29896852422782"><ele>949.5</ele><time>2026-04-11T14:30:16Z</time></trkpt><trkpt lat="41.81384168283785" lon="13.298853352072454"><ele>946.0</ele><time>2026-04-11T14:30:17Z</time></trkpt><trkpt lat="41.813729606137564" lon="13.298757706223427"><ele>942.5</ele><time>2026-04-11T14:30:18Z</time></trkpt><trkpt lat="41.81361940416392" lon="13.298724757368104"><ele>939.0</ele><time>2026-04-11T14:30:19Z</time></trkpt><trkpt lat="41.81351070907985" lon="13.298765239044325"><ele>939.75</ele><time>2026-04-11T14:30:20Z</time></trkpt><trkpt lat="41.813414853754075" lon="13.29886589625214"><ele>940.5</ele><time>2026-04-11T14:30:21Z</time></trkpt><trkpt lat="41.81333591464341" lon="13.298976106579124"><ele>941.25</ele><time>2026-04-11T14:30:22Z</time></trkpt><trkpt lat="41.81335398399099" lon="13.299180814704592"><ele>942.0</ele><time>2026-04-11T14:30:23Z</time></trkpt><trkpt lat="41.81338115424618" lon="13.299356159184324"><ele>944.0</ele><time>2026-04-11T14:30:24Z</time></trkpt><trkpt lat="41.813381028113305" lon="13.299561377219673"><ele>946.0</ele><time>2026-04-11T14:30:25Z</time></trkpt><trkpt lat="41.81335883401486" lon="13.299730680370404"><ele>948.0</ele><time>2026-04-11T14:30:26Z</time></trkpt><trkpt lat="41.8132984921892" lon="13.29984907102107"><ele>950.0</ele><time>2026-04-11T14:30:27Z</time></trkpt><trkpt lat="41.81322994595979" lon="13.299964058232586"><ele>951.5</ele><time>2026-04-11T14:30:28Z</time></trkpt><trkpt lat="41.81313036536328" lon="13.300006663628427"><ele>953.0</ele><time>2026-04-11T14:30:29Z</time></trkpt><trkpt lat="41.81301587755127" lon="13.300007930717214"><ele>954.5</ele><time>2026-04-11T14:30:30Z</time></trkpt><trkpt lat="41.81290042323621" lon="13.299962524184377"><ele>956.0</ele><time>2026-04-11T14:30:31Z</time></trkpt><trkpt lat="41.81278438183361" lon="13.299869298775304"><ele>954.5</ele><time>2026-04-11T14:30:32Z</time></trkpt><trkpt lat="41.812717070721455" lon="13.29973439067496"><ele>953.0</ele><time>2026-04-11T14:30:33Z</time></trkpt><trkpt lat="41.8126352770154" lon="13.299594998048464"><ele>951.5</ele><time>2026-04-11T14:30:34Z</time></trkpt><trkpt lat="41.81254909082483" lon="13.299435498593056"><ele>950.0</ele><time>2026-04-11T14:30:35Z</time></trkpt><trkpt lat="41.81248181510919" lon="13.299284758098016"><ele>948.5</ele><time>2026-04-11T14:30:36Z</time></trkpt><trkpt lat="41.81241155106663" lon="13.299095530729742"><ele>947.0</ele><time>2026-04-11T14:30:37Z</time></trkpt><trkpt lat="41.812373168896805" lon="13.298921589335079"><ele>945.5</ele><time>2026-04-11T14:30:38Z</time></trkpt><trkpt lat="41.81233931948237" lon="13.298743295849631"><ele>944.0</ele><time>2026-04-11T14:30:39Z</time></trkpt><trkpt lat="41.81230847697675" lon="13.298557962348768"><ele>941.0</ele><time>2026-04-11T14:30:40Z</time></trkpt><trkpt lat="41.812272705431816" lon="13.298386587035804"><ele>938.0</ele><time>2026-04-11T14:30:41Z</time></trkpt><trkpt lat="41.81222964225984" lon="13.298233819948083"><ele>935.0</ele><time>2026-04-11T14:30:42Z</time></trkpt><trkpt lat="41.81214330212423" lon="13.298102146368715"><ele>932.0</ele><time>2026-04-11T14:30:43Z</time></trkpt><trkpt lat="41.8120595299897" lon="13.297993203977025"><ele>929.75</ele><time>2026-04-11T14:30:44Z</time></trkpt><trkpt lat="41.811953392194695" lon="13.297910125334683"><ele>927.5</ele><time>2026-04-11T14:30:45Z</time></trkpt><trkpt lat="41.81185425525108" lon="13.297822475314213"><ele>925.25</ele><time>2026-04-11T14:30:46Z</time></trkpt><trkpt lat="41.81177197512278" lon="13.29771597357047"><ele>923.0</ele><time>2026-04-11T14:30:47Z</time></trkpt><trkpt lat="41.81171741908521" lon="13.297580152717304"><ele>922.75</ele><time>2026-04-11T14:30:48Z</time></trkpt><trkpt lat="41.81167756017794" lon="13.297455404928332"><ele>922.5</ele><time>2026-04-11T14:30:49Z</time></trkpt><trkpt lat="41.81164071210722" lon="13.297309335969409"><ele>922.25</ele><time>2026-04-11T14:30:50Z</time></trkpt><trkpt lat="41.811572156969476" lon="13.297153814179246"><ele>922.0</ele><time>2026-04-11T14:30:50.999Z</time></trkpt><trkpt lat="41.81148946938751" lon="13.297054708628313"><ele>920.0</ele><time>2026-04-11T14:30:51.999Z</time></trkpt><trkpt lat="41.811371667662954" lon="13.296982042328626"><ele>918.0</ele><time>2026-04-11T14:30:52.999Z</time></trkpt><trkpt lat="41.81127050332883" lon="13.296922961497692"><ele>916.0</ele><time>2026-04-11T14:30:53.999Z</time></trkpt><trkpt lat="41.81110592058575" lon="13.296931110827137"><ele>914.0</ele><time>2026-04-11T14:30:54.999Z</time></trkpt><trkpt lat="41.81096002888567" lon="13.296934660276634"><ele>914.0</ele><time>2026-04-11T14:30:55.999Z</time></trkpt><trkpt lat="41.81081745006703" lon="13.296948165273559"><ele>914.0</ele><time>2026-04-11T14:30:56.999Z</time></trkpt><trkpt lat="41.810676715021565" lon="13.296963863136128"><ele>914.0</ele><time>2026-04-11T14:30:57.999Z</time></trkpt><trkpt lat="41.8105486154103" lon="13.296986884644626"><ele>914.0</ele><time>2026-04-11T14:30:58.999Z</time></trkpt><trkpt lat="41.81043447332125" lon="13.297041630710371"><ele>914.0</ele><time>2026-04-11T14:30:59.999Z</time></trkpt><trkpt lat="41.81033327310952" lon="13.297150552909654"><ele>914.0</ele><time>2026-04-11T14:31:00.999Z</time></trkpt><trkpt lat="41.81025181324725" lon="13.297311268714717"><ele>914.0</ele><time>2026-04-11T14:31:01.999Z</time></trkpt><trkpt lat="41.81018921740171" lon="13.297514149590201"><ele>914.0</ele><time>2026-04-11T14:31:02.999Z</time></trkpt><trkpt lat="41.810108039370185" lon="13.297684237394748"><ele>910.75</ele><time>2026-04-11T14:31:03.999Z</time></trkpt><trkpt lat="41.810038614634955" lon="13.297812462325348"><ele>907.5</ele><time>2026-04-11T14:31:04.999Z</time></trkpt><trkpt lat="41.809915490838705" lon="13.297893499964248"><ele>904.25</ele><time>2026-04-11T14:31:05.999Z</time></trkpt><trkpt lat="41.80978156339568" lon="13.297900685605189"><ele>901.0</ele><time>2026-04-11T14:31:06.999Z</time></trkpt><trkpt lat="41.80964569116736" lon="13.29790679528715"><ele>901.0</ele><time>2026-04-11T14:31:07.999Z</time></trkpt><trkpt lat="41.809502447313754" lon="13.297965612210877"><ele>901.0</ele><time>2026-04-11T14:31:08.999Z</time></trkpt><trkpt lat="41.80934595722418" lon="13.298055003984498"><ele>901.0</ele><time>2026-04-11T14:31:09.999Z</time></trkpt><trkpt lat="41.80917262496868" lon="13.298209100467465"><ele>901.6666666666666</ele><time>2026-04-11T14:31:10.999Z</time></trkpt><trkpt lat="41.808999743247675" lon="13.298360494705882"><ele>902.3333333333333</ele><time>2026-04-11T14:31:11.999Z</time></trkpt><trkpt lat="41.80886205601627" lon="13.298489343920451"><ele>903.0</ele><time>2026-04-11T14:31:12.999Z</time></trkpt><trkpt lat="41.808758916459276" lon="13.298613158462379"><ele>903.0</ele><time>2026-04-11T14:31:13.999Z</time></trkpt><trkpt lat="41.80872006150405" lon="13.298777284940101"><ele>903.0</ele><time>2026-04-11T14:31:14.999Z</time></trkpt><trkpt lat="41.80870210587102" lon="13.298983710577819"><ele>903.0</ele><time>2026-04-11T14:31:15.999Z</time></trkpt><trkpt lat="41.808673083866424" lon="13.29919944813022"><ele>903.0</ele><time>2026-04-11T14:31:16.999Z</time></trkpt><trkpt lat="41.80868979271147" lon="13.299407003235537"><ele>902.2</ele><time>2026-04-11T14:31:17.999Z</time></trkpt><trkpt lat="41.80865770918695" lon="13.299571548228203"><ele>901.4</ele><time>2026-04-11T14:31:18.999Z</time></trkpt><trkpt lat="41.80860636977994" lon="13.299703775396557"><ele>900.6000000000001</ele><time>2026-04-11T14:31:19.999Z</time></trkpt><trkpt lat="41.80855380516928" lon="13.299809400592077"><ele>899.8000000000001</ele><time>2026-04-11T14:31:20.999Z</time></trkpt><trkpt lat="41.808468827192065" lon="13.299828561365302"><ele>899.0</ele><time>2026-04-11T14:31:21.999Z</time></trkpt><trkpt lat="41.80838958022305" lon="13.299830086410022"><ele>899.0</ele><time>2026-04-11T14:31:22.999Z</time></trkpt><trkpt lat="41.808322068665916" lon="13.299783759051193"><ele>899.0</ele><time>2026-04-11T14:31:23.999Z</time></trkpt><trkpt lat="41.808213487009255" lon="13.299738504584585"><ele>899.0</ele><time>2026-04-11T14:31:24.999Z</time></trkpt><trkpt lat="41.80809402551427" lon="13.299700527700654"><ele>899.0</ele><time>2026-04-11T14:31:25.999Z</time></trkpt><trkpt lat="41.80794886436361" lon="13.299692457764955"><ele>899.0</ele><time>2026-04-11T14:31:26.999Z</time></trkpt><trkpt lat="41.80779397765699" lon="13.299744469965761"><ele>899.0</ele><time>2026-04-11T14:31:27.999Z</time></trkpt><trkpt lat="41.807679529538014" lon="13.299858667731689"><ele>899.0</ele><time>2026-04-11T14:31:28.999Z</time></trkpt><trkpt lat="41.80759681800808" lon="13.300012715142206"><ele>899.0</ele><time>2026-04-11T14:31:29.999Z</time></trkpt><trkpt lat="41.807540543667635" lon="13.300185000697086"><ele>895.0</ele><time>2026-04-11T14:31:30.999Z</time></trkpt><trkpt lat="41.80750999431712" lon="13.30039043784144"><ele>891.0</ele><time>2026-04-11T14:31:31.999Z</time></trkpt><trkpt lat="41.8074731310522" lon="13.30057140153011"><ele>887.0</ele><time>2026-04-11T14:31:32.999Z</time></trkpt><trkpt lat="41.807447802453794" lon="13.30075555540013"><ele>883.0</ele><time>2026-04-11T14:31:33.999Z</time></trkpt><trkpt lat="41.80741019974861" lon="13.30092989568623"><ele>883.0</ele><time>2026-04-11T14:31:34.999Z</time></trkpt><trkpt lat="41.807305768887026" lon="13.301051733271118"><ele>883.0</ele><time>2026-04-11T14:31:35.999Z</time></trkpt><trkpt lat="41.80721450184227" lon="13.301220370508146"><ele>883.0</ele><time>2026-04-11T14:31:36.999Z</time></trkpt><trkpt lat="41.807112328649495" lon="13.301374392086126"><ele>883.0</ele><time>2026-04-11T14:31:37.999Z</time></trkpt><trkpt lat="41.8070479644668" lon="13.301580824738997"><ele>887.0</ele><time>2026-04-11T14:31:38.999Z</time></trkpt><trkpt lat="41.80702235873176" lon="13.301851055976039"><ele>891.0</ele><time>2026-04-11T14:31:39.999Z</time></trkpt><trkpt lat="41.807017463188686" lon="13.302157829558071"><ele>895.0</ele><time>2026-04-11T14:31:40.999Z</time></trkpt><trkpt lat="41.80702429251621" lon="13.302441357603245"><ele>895.0</ele><time>2026-04-11T14:31:41.999Z</time></trkpt><trkpt lat="41.80705694295078" lon="13.302702473851046"><ele>895.0</ele><time>2026-04-11T14:31:42.999Z</time></trkpt><trkpt lat="41.80709915795927" lon="13.302972208959249"><ele>895.0</ele><time>2026-04-11T14:31:43.999Z</time></trkpt><trkpt lat="41.807135718265855" lon="13.303229699698505"><ele>892.6666666666666</ele><time>2026-04-11T14:31:44.999Z</time></trkpt><trkpt lat="41.80717330111447" lon="13.303439515026172"><ele>890.3333333333333</ele><time>2026-04-11T14:31:45.999Z</time></trkpt><trkpt lat="41.807183337872786" lon="13.303648752355192"><ele>888.0</ele><time>2026-04-11T14:31:46.999Z</time></trkpt><trkpt lat="41.80720381862973" lon="13.303826125844427"><ele>885.75</ele><time>2026-04-11T14:31:47.999Z</time></trkpt><trkpt lat="41.807220443457155" lon="13.30397508447185"><ele>883.5</ele><time>2026-04-11T14:31:48.999Z</time></trkpt><trkpt lat="41.80723983040833" lon="13.30413999562403"><ele>881.25</ele><time>2026-04-11T14:31:49.999Z</time></trkpt><trkpt lat="41.80726094506841" lon="13.304324685888053"><ele>879.0</ele><time>2026-04-11T14:31:50.999Z</time></trkpt><trkpt lat="41.80727681788843" lon="13.304490463581688"><ele>879.0</ele><time>2026-04-11T14:31:51.999Z</time></trkpt><trkpt lat="41.80728192172231" lon="13.30464736815257"><ele>879.0</ele><time>2026-04-11T14:31:52.999Z</time></trkpt><trkpt lat="41.80727428294022" lon="13.304808222692625"><ele>879.0</ele><time>2026-04-11T14:31:53.999Z</time></trkpt><trkpt lat="41.807248164715" lon="13.30496206513693"><ele>879.0</ele><time>2026-04-11T14:31:54.999Z</time></trkpt><trkpt lat="41.80719242257985" lon="13.30509051200613"><ele>879.6666666666667</ele><time>2026-04-11T14:31:55.999Z</time></trkpt><trkpt lat="41.807098925355504" lon="13.305209152375074"><ele>880.3333333333334</ele><time>2026-04-11T14:31:56.999Z</time></trkpt><trkpt lat="41.80695520192322" lon="13.305328813125826"><ele>881.0</ele><time>2026-04-11T14:31:57.999Z</time></trkpt><trkpt lat="41.80678949345227" lon="13.30544661309727"><ele>875.6666666666667</ele><time>2026-04-11T14:31:58.999Z</time></trkpt><trkpt lat="41.80657966315857" lon="13.305564210089665"><ele>870.3333333333333</ele><time>2026-04-11T14:31:59.999Z</time></trkpt><trkpt lat="41.806389331839476" lon="13.305669185767247"><ele>865.0</ele><time>2026-04-11T14:32:01Z</time></trkpt><trkpt lat="41.80624594032991" lon="13.30577839281713"><ele>865.0</ele><time>2026-04-11T14:32:02Z</time></trkpt><trkpt lat="41.806115556553365" lon="13.305924661265314"><ele>865.0</ele><time>2026-04-11T14:32:03Z</time></trkpt><trkpt lat="41.805994425107194" lon="13.306162891086895"><ele>865.0</ele><time>2026-04-11T14:32:04Z</time></trkpt><trkpt lat="41.80587912379742" lon="13.306365701065435"><ele>854.0</ele><time>2026-04-11T14:32:05Z</time></trkpt><trkpt lat="41.80568807749727" lon="13.306806399539568"><ele>843.0</ele><time>2026-04-11T14:32:06Z</time></trkpt><trkpt lat="41.80552669833812" lon="13.30718056876787"><ele>847.5</ele><time>2026-04-11T14:32:07Z</time></trkpt><trkpt lat="41.80536897908816" lon="13.307545732759742"><ele>852.0</ele><time>2026-04-11T14:32:08Z</time></trkpt><trkpt lat="41.805178813050084" lon="13.307933506403096"><ele>843.0</ele><time>2026-04-11T14:32:09Z</time></trkpt><trkpt lat="41.804991363957065" lon="13.308284365730158"><ele>834.0</ele><time>2026-04-11T14:32:10Z</time></trkpt><trkpt lat="41.804822212857914" lon="13.308525448657496"><ele>834.0</ele><time>2026-04-11T14:32:11Z</time></trkpt><trkpt lat="41.80466483047309" lon="13.308815992293152"><ele>834.0</ele><time>2026-04-11T14:32:12Z</time></trkpt><trkpt lat="41.80453550062607" lon="13.309087860976552"><ele>837.6666666666667</ele><time>2026-04-11T14:32:13Z</time></trkpt><trkpt lat="41.80441683991025" lon="13.309360855498666"><ele>841.3333333333334</ele><time>2026-04-11T14:32:14Z</time></trkpt><trkpt lat="41.80428195637355" lon="13.309578377662577"><ele>845.0</ele><time>2026-04-11T14:32:15Z</time></trkpt><trkpt lat="41.804179669822005" lon="13.309738320539632"><ele>838.6666666666667</ele><time>2026-04-11T14:32:16Z</time></trkpt><trkpt lat="41.804074139529035" lon="13.309928420125472"><ele>832.3333333333333</ele><time>2026-04-11T14:32:17Z</time></trkpt><trkpt lat="41.804009581254434" lon="13.310094328419947"><ele>826.0</ele><time>2026-04-11T14:32:18Z</time></trkpt><trkpt lat="41.803980868816254" lon="13.310297366518268"><ele>826.0</ele><time>2026-04-11T14:32:19Z</time></trkpt><trkpt lat="41.80398897009853" lon="13.310525563799093"><ele>826.0</ele><time>2026-04-11T14:32:20Z</time></trkpt><trkpt lat="41.80398448747681" lon="13.310725478261443"><ele>826.0</ele><time>2026-04-11T14:32:21Z</time></trkpt><trkpt lat="41.80395100236557" lon="13.310884180030264"><ele>826.0</ele><time>2026-04-11T14:32:22Z</time></trkpt><trkpt lat="41.803887040552354" lon="13.310974632729149"><ele>827.4</ele><time>2026-04-11T14:32:23Z</time></trkpt><trkpt lat="41.80381162197389" lon="13.31102079481886"><ele>828.8</ele><time>2026-04-11T14:32:24Z</time></trkpt><trkpt lat="41.80372568176688" lon="13.311011900893154"><ele>830.1999999999999</ele><time>2026-04-11T14:32:25Z</time></trkpt><trkpt lat="41.80362632160909" lon="13.310945701391521"><ele>831.5999999999999</ele><time>2026-04-11T14:32:26Z</time></trkpt><trkpt lat="41.803570671661866" lon="13.31081451467513"><ele>833.0</ele><time>2026-04-11T14:32:27Z</time></trkpt><trkpt lat="41.803564933166165" lon="13.310646410372156"><ele>830.6666666666667</ele><time>2026-04-11T14:32:28Z</time></trkpt><trkpt lat="41.80360023002954" lon="13.310480048601006"><ele>828.3333333333333</ele><time>2026-04-11T14:32:29Z</time></trkpt><trkpt lat="41.80366835790714" lon="13.310323912017765"><ele>826.0</ele><time>2026-04-11T14:32:30Z</time></trkpt><trkpt lat="41.8037791227776" lon="13.310022315450368"><ele>826.0</ele><time>2026-04-11T14:32:31Z</time></trkpt><trkpt lat="41.803870431639126" lon="13.309786651095202"><ele>826.0</ele><time>2026-04-11T14:32:32Z</time></trkpt><trkpt lat="41.803973364321244" lon="13.309575601224259"><ele>826.0</ele><time>2026-04-11T14:32:33Z</time></trkpt><trkpt lat="41.804078065011744" lon="13.309338569172464"><ele>821.6666666666666</ele><time>2026-04-11T14:32:34Z</time></trkpt><trkpt lat="41.804176631838" lon="13.3090948764915"><ele>817.3333333333333</ele><time>2026-04-11T14:32:35Z</time></trkpt><trkpt lat="41.80425742332091" lon="13.308859755760727"><ele>813.0</ele><time>2026-04-11T14:32:36Z</time></trkpt><trkpt lat="41.804311844521514" lon="13.308609816613686"><ele>816.0</ele><time>2026-04-11T14:32:37Z</time></trkpt><trkpt lat="41.804337754635156" lon="13.308383993104094"><ele>819.0</ele><time>2026-04-11T14:32:38Z</time></trkpt><trkpt lat="41.80434125315258" lon="13.30811963398314"><ele>822.0</ele><time>2026-04-11T14:32:39Z</time></trkpt><trkpt lat="41.80437293248207" lon="13.3078357565063"><ele>822.0</ele><time>2026-04-11T14:32:40Z</time></trkpt><trkpt lat="41.80441863228805" lon="13.307581812726028"><ele>822.0</ele><time>2026-04-11T14:32:41Z</time></trkpt><trkpt lat="41.80447127358417" lon="13.307343407658001"><ele>822.0</ele><time>2026-04-11T14:32:42Z</time></trkpt><trkpt lat="41.80453903709102" lon="13.307129422277692"><ele>817.6666666666667</ele><time>2026-04-11T14:32:43Z</time></trkpt><trkpt lat="41.80460096785732" lon="13.306935157823172"><ele>813.3333333333334</ele><time>2026-04-11T14:32:44Z</time></trkpt><trkpt lat="41.804670417019935" lon="13.306738107561415"><ele>809.0</ele><time>2026-04-11T14:32:45Z</time></trkpt><trkpt lat="41.80478624344816" lon="13.306538873121674"><ele>803.6666666666667</ele><time>2026-04-11T14:32:46Z</time></trkpt><trkpt lat="41.80493216623965" lon="13.306317561553318"><ele>798.3333333333333</ele><time>2026-04-11T14:32:47Z</time></trkpt><trkpt lat="41.80502693384125" lon="13.306052831120741"><ele>793.0</ele><time>2026-04-11T14:32:48Z</time></trkpt><trkpt lat="41.80511233084223" lon="13.305744249601874"><ele>799.3333333333333</ele><time>2026-04-11T14:32:48.999Z</time></trkpt><trkpt lat="41.80516611040273" lon="13.305458683691107"><ele>805.6666666666667</ele><time>2026-04-11T14:32:49.999Z</time></trkpt><trkpt lat="41.805189207388324" lon="13.305274702854534"><ele>812.0</ele><time>2026-04-11T14:32:50.999Z</time></trkpt><trkpt lat="41.805240993181854" lon="13.305073086017584"><ele>812.0</ele><time>2026-04-11T14:32:51.999Z</time></trkpt><trkpt lat="41.80531683033505" lon="13.304930629613635"><ele>812.0</ele><time>2026-04-11T14:32:52.999Z</time></trkpt><trkpt lat="41.80542486711103" lon="13.30485629443311"><ele>812.0</ele><time>2026-04-11T14:32:53.999Z</time></trkpt><trkpt lat="41.805551972584674" lon="13.304788386997124"><ele>812.0</ele><time>2026-04-11T14:32:54.999Z</time></trkpt><trkpt lat="41.80569806096674" lon="13.304719423272642"><ele>816.25</ele><time>2026-04-11T14:32:55.999Z</time></trkpt><trkpt lat="41.80583979427291" lon="13.304648556468141"><ele>820.5</ele><time>2026-04-11T14:32:56.999Z</time></trkpt><trkpt lat="41.80595517887699" lon="13.304563689705054"><ele>824.75</ele><time>2026-04-11T14:32:57.999Z</time></trkpt><trkpt lat="41.806039772338934" lon="13.304423573201063"><ele>829.0</ele><time>2026-04-11T14:32:58.999Z</time></trkpt><trkpt lat="41.806075857317985" lon="13.304249989747342"><ele>829.0</ele><time>2026-04-11T14:32:59.999Z</time></trkpt><trkpt lat="41.80608210384938" lon="13.304059781524321"><ele>829.0</ele><time>2026-04-11T14:33:00.999Z</time></trkpt><trkpt lat="41.806021424588245" lon="13.303818639685378"><ele>829.0</ele><time>2026-04-11T14:33:01.999Z</time></trkpt><trkpt lat="41.80598720831182" lon="13.30360179987499"><ele>813.6666666666666</ele><time>2026-04-11T14:33:02.999Z</time></trkpt><trkpt lat="41.80594295549152" lon="13.303348790065076"><ele>798.3333333333333</ele><time>2026-04-11T14:33:03.999Z</time></trkpt><trkpt lat="41.80587969748763" lon="13.303081722866215"><ele>783.0</ele><time>2026-04-11T14:33:04.999Z</time></trkpt><trkpt lat="41.805810338780816" lon="13.302831172861667"><ele>783.0</ele><time>2026-04-11T14:33:05.999Z</time></trkpt><trkpt lat="41.80576998785056" lon="13.302599397125665"><ele>783.0</ele><time>2026-04-11T14:33:06.999Z</time></trkpt><trkpt lat="41.805737797804056" lon="13.302379388745743"><ele>783.0</ele><time>2026-04-11T14:33:07.999Z</time></trkpt><trkpt lat="41.80571078352379" lon="13.302167226797817"><ele>782.4</ele><time>2026-04-11T14:33:08.999Z</time></trkpt><trkpt lat="41.80570785439151" lon="13.302015819499557"><ele>781.8</ele><time>2026-04-11T14:33:09.999Z</time></trkpt><trkpt lat="41.8057309964759" lon="13.301903827109964"><ele>781.2</ele><time>2026-04-11T14:33:10.999Z</time></trkpt><trkpt lat="41.805726043853504" lon="13.301771093760912"><ele>780.6</ele><time>2026-04-11T14:33:11.999Z</time></trkpt><trkpt lat="41.80567938428643" lon="13.301648603331088"><ele>780.0</ele><time>2026-04-11T14:33:13.999Z</time></trkpt><trkpt lat="41.8056067366077" lon="13.301659998771706"><ele>780.0</ele><time>2026-04-11T14:33:14.999Z</time></trkpt><trkpt lat="41.805536983379966" lon="13.301727554601955"><ele>780.0</ele><time>2026-04-11T14:33:15.999Z</time></trkpt><trkpt lat="41.80546794897568" lon="13.30184616960177"><ele>780.0</ele><time>2026-04-11T14:33:16.999Z</time></trkpt><trkpt lat="41.80547475473138" lon="13.30200851131894"><ele>780.0</ele><time>2026-04-11T14:33:17.999Z</time></trkpt><trkpt lat="41.8054901973409" lon="13.302218904574056"><ele>780.75</ele><time>2026-04-11T14:33:18.999Z</time></trkpt><trkpt lat="41.80550598801934" lon="13.302419379554385"><ele>781.5</ele><time>2026-04-11T14:33:19.999Z</time></trkpt><trkpt lat="41.80551884661217" lon="13.30260019796477"><ele>782.25</ele><time>2026-04-11T14:33:20.999Z</time></trkpt><trkpt lat="41.805531258327406" lon="13.302774732503758"><ele>783.0</ele><time>2026-04-11T14:33:21.999Z</time></trkpt><trkpt lat="41.80554523648882" lon="13.30293066634224"><ele>783.0</ele><time>2026-04-11T14:33:22.999Z</time></trkpt><trkpt lat="41.80556064235349" lon="13.303077960157108"><ele>783.0</ele><time>2026-04-11T14:33:23.999Z</time></trkpt><trkpt lat="41.80557805487653" lon="13.303221352457294"><ele>783.0</ele><time>2026-04-11T14:33:24.999Z</time></trkpt><trkpt lat="41.805596900892404" lon="13.30337687053951"><ele>783.0</ele><time>2026-04-11T14:33:25.999Z</time></trkpt><trkpt lat="41.80561758954374" lon="13.303544283331098"><ele>782.8</ele><time>2026-04-11T14:33:26.999Z</time></trkpt><trkpt lat="41.8056201167299" lon="13.303699696507516"><ele>782.5999999999999</ele><time>2026-04-11T14:33:27.999Z</time></trkpt><trkpt lat="41.80559804415001" lon="13.30385028383087"><ele>782.4000000000001</ele><time>2026-04-11T14:33:28.999Z</time></trkpt><trkpt lat="41.80554847238006" lon="13.303966259478841"><ele>782.2</ele><time>2026-04-11T14:33:29.999Z</time></trkpt><trkpt lat="41.80549873710863" lon="13.304039064457344"><ele>782.0</ele><time>2026-04-11T14:33:30.999Z</time></trkpt><trkpt lat="41.80541875003934" lon="13.304116065965463"><ele>782.0</ele><time>2026-04-11T14:33:31.999Z</time></trkpt><trkpt lat="41.80529377037738" lon="13.304084106112185"><ele>782.0</ele><time>2026-04-11T14:33:32.999Z</time></trkpt><trkpt lat="41.80515157704215" lon="13.304073973531727"><ele>782.0</ele><time>2026-04-11T14:33:33.999Z</time></trkpt><trkpt lat="41.80499356110907" lon="13.304093307041205"><ele>782.0</ele><time>2026-04-11T14:33:34.999Z</time></trkpt><trkpt lat="41.804846125338926" lon="13.304141931238302"><ele>770.3333333333334</ele><time>2026-04-11T14:33:35.999Z</time></trkpt><trkpt lat="41.80470381089185" lon="13.304231190379529"><ele>758.6666666666667</ele><time>2026-04-11T14:33:36.999Z</time></trkpt><trkpt lat="41.80459356260939" lon="13.30436396518751"><ele>747.0</ele><time>2026-04-11T14:33:37.999Z</time></trkpt><trkpt lat="41.804467077024334" lon="13.304496351811755"><ele>747.0</ele><time>2026-04-11T14:33:38.999Z</time></trkpt><trkpt lat="41.804349345898" lon="13.30462064762691"><ele>747.0</ele><time>2026-04-11T14:33:39.999Z</time></trkpt><trkpt lat="41.80425013862066" lon="13.304727724540998"><ele>747.0</ele><time>2026-04-11T14:33:40.999Z</time></trkpt><trkpt lat="41.80416502252037" lon="13.304844320409831"><ele>747.0</ele><time>2026-04-11T14:33:41.999Z</time></trkpt><trkpt lat="41.80411177641677" lon="13.304964870083575"><ele>748.0</ele><time>2026-04-11T14:33:42.999Z</time></trkpt><trkpt lat="41.8040794265996" lon="13.30515552021699"><ele>749.0</ele><time>2026-04-11T14:33:43.999Z</time></trkpt><trkpt lat="41.80407749284295" lon="13.305355504197188"><ele>750.0</ele><time>2026-04-11T14:33:44.999Z</time></trkpt><trkpt lat="41.80406633624381" lon="13.305535671498568"><ele>751.0</ele><time>2026-04-11T14:33:45.999Z</time></trkpt><trkpt lat="41.80397157887184" lon="13.305658048263359"><ele>751.0</ele><time>2026-04-11T14:33:46.999Z</time></trkpt><trkpt lat="41.803855297116186" lon="13.305760769315512"><ele>751.0</ele><time>2026-04-11T14:33:47.999Z</time></trkpt><trkpt lat="41.803735743665996" lon="13.305874836598118"><ele>751.0</ele><time>2026-04-11T14:33:48.999Z</time></trkpt><trkpt lat="41.803617783864354" lon="13.306064265057874"><ele>751.0</ele><time>2026-04-11T14:33:49.999Z</time></trkpt><trkpt lat="41.803508365645015" lon="13.306297924955258"><ele>751.0</ele><time>2026-04-11T14:33:50.999Z</time></trkpt><trkpt lat="41.80344501725486" lon="13.306574947371395"><ele>751.0</ele><time>2026-04-11T14:33:51.999Z</time></trkpt><trkpt lat="41.8033589224329" lon="13.306816659196267"><ele>747.3333333333334</ele><time>2026-04-11T14:33:52.999Z</time></trkpt><trkpt lat="41.803245042547864" lon="13.307051020900175"><ele>743.6666666666666</ele><time>2026-04-11T14:33:53.999Z</time></trkpt><trkpt lat="41.80312658191181" lon="13.307266986597945"><ele>740.0</ele><time>2026-04-11T14:33:54.999Z</time></trkpt><trkpt lat="41.80301832244859" lon="13.307462628901533"><ele>740.0</ele><time>2026-04-11T14:33:55.999Z</time></trkpt><trkpt lat="41.8029270423314" lon="13.307675090966402"><ele>740.0</ele><time>2026-04-11T14:33:56.999Z</time></trkpt><trkpt lat="41.80287610641054" lon="13.307908126203458"><ele>740.0</ele><time>2026-04-11T14:33:57.999Z</time></trkpt><trkpt lat="41.80284794152431" lon="13.308138160868156"><ele>743.3333333333333</ele><time>2026-04-11T14:33:58.999Z</time></trkpt><trkpt lat="41.80281770575935" lon="13.30836495234298"><ele>746.6666666666666</ele><time>2026-04-11T14:33:59.999Z</time></trkpt><trkpt lat="41.80274390578541" lon="13.308559158998289"><ele>750.0</ele><time>2026-04-11T14:34:00.999Z</time></trkpt><trkpt lat="41.8026303504719" lon="13.308716537634616"><ele>736.6666666666666</ele><time>2026-04-11T14:34:01.999Z</time></trkpt><trkpt lat="41.80252242869563" lon="13.30886710196327"><ele>723.3333333333333</ele><time>2026-04-11T14:34:02.999Z</time></trkpt><trkpt lat="41.802406746708584" lon="13.309033362831332"><ele>710.0</ele><time>2026-04-11T14:34:03.999Z</time></trkpt><trkpt lat="41.80229030461665" lon="13.309219662717918"><ele>710.0</ele><time>2026-04-11T14:34:04.999Z</time></trkpt><trkpt lat="41.80218057925743" lon="13.309411474918438"><ele>710.0</ele><time>2026-04-11T14:34:06Z</time></trkpt><trkpt lat="41.80208485449521" lon="13.309609533954578"><ele>710.0</ele><time>2026-04-11T14:34:07Z</time></trkpt><trkpt lat="41.80200948839076" lon="13.309795462527774"><ele>716.5</ele><time>2026-04-11T14:34:08Z</time></trkpt><trkpt lat="41.801913144614645" lon="13.309960640158305"><ele>723.0</ele><time>2026-04-11T14:34:09Z</time></trkpt><trkpt lat="41.80182591775827" lon="13.31012463181366"><ele>729.5</ele><time>2026-04-11T14:34:10Z</time></trkpt><trkpt lat="41.80174210461073" lon="13.310270042406243"><ele>736.0</ele><time>2026-04-11T14:34:11Z</time></trkpt><trkpt lat="41.8016705364028" lon="13.310417559600134"><ele>727.0</ele><time>2026-04-11T14:34:12Z</time></trkpt><trkpt lat="41.80160823738106" lon="13.310540050683459"><ele>718.0</ele><time>2026-04-11T14:34:13Z</time></trkpt><trkpt lat="41.80155433751337" lon="13.310675761523878"><ele>709.0</ele><time>2026-04-11T14:34:15Z</time></trkpt><trkpt lat="41.80148385795902" lon="13.31080563281579"><ele>700.0</ele><time>2026-04-11T14:34:17Z</time></trkpt><trkpt lat="41.80142079261435" lon="13.310925495583533"><ele>700.0</ele><time>2026-04-11T14:34:19Z</time></trkpt><trkpt lat="41.801359854716566" lon="13.311013941711737"><ele>700.0</ele><time>2026-04-11T14:34:21Z</time></trkpt><trkpt lat="41.80130563281723" lon="13.31109400649167"><ele>700.0</ele><time>2026-04-11T14:34:23Z</time></trkpt><trkpt lat="41.80125642542273" lon="13.31117143716918"><ele>700.0</ele><time>2026-04-11T14:34:25Z</time></trkpt><trkpt lat="41.80120705906161" lon="13.311237209702245"><ele>700.0</ele><time>2026-04-11T14:34:27Z</time></trkpt><trkpt lat="41.8011565006846" lon="13.311312255229051"><ele>700.0</ele><time>2026-04-11T14:34:29Z</time></trkpt><trkpt lat="41.80109805577242" lon="13.31138957392952"><ele>696.8333333333334</ele><time>2026-04-11T14:34:31Z</time></trkpt><trkpt lat="41.80104501591904" lon="13.311463777528706"><ele>693.6666666666667</ele><time>2026-04-11T14:34:33Z</time></trkpt><trkpt lat="41.80097696076788" lon="13.31154909946528"><ele>690.5</ele><time>2026-04-11T14:34:36Z</time></trkpt><trkpt lat="41.80093719123783" lon="13.311616018114389"><ele>687.3333333333334</ele><time>2026-04-11T14:34:37.999Z</time></trkpt><trkpt lat="41.800892675772786" lon="13.31167693402626"><ele>684.1666666666666</ele><time>2026-04-11T14:34:39.999Z</time></trkpt><trkpt lat="41.800835279364044" lon="13.31175330957879"><ele>681.0</ele><time>2026-04-11T14:34:41.999Z</time></trkpt><trkpt lat="41.800771430952054" lon="13.311844935540691"><ele>681.0</ele><time>2026-04-11T14:34:43.999Z</time></trkpt><trkpt lat="41.800740209311094" lon="13.311974727333473"><ele>681.0</ele><time>2026-04-11T14:34:45.999Z</time></trkpt><trkpt lat="41.80071178213828" lon="13.312113095809847"><ele>681.0</ele><time>2026-04-11T14:34:47.999Z</time></trkpt><trkpt lat="41.80071365412894" lon="13.31228620006596"><ele>681.0</ele><time>2026-04-11T14:34:49.999Z</time></trkpt><trkpt lat="41.80071894433305" lon="13.312379878366546"><ele>681.0</ele><time>2026-04-11T14:34:50.999Z</time></trkpt><trkpt lat="41.80072032234364" lon="13.312488947670548"><ele>680.8333333333334</ele><time>2026-04-11T14:34:51.999Z</time></trkpt><trkpt lat="41.800720704919094" lon="13.312601189255968"><ele>680.6666666666666</ele><time>2026-04-11T14:34:52.999Z</time></trkpt><trkpt lat="41.80073434559354" lon="13.312714794928912"><ele>680.5</ele><time>2026-04-11T14:34:53.999Z</time></trkpt><trkpt lat="41.800722535695954" lon="13.312828598411931"><ele>680.3333333333333</ele><time>2026-04-11T14:34:54.999Z</time></trkpt><trkpt lat="41.800707197429055" lon="13.312936431380933"><ele>680.1666666666666</ele><time>2026-04-11T14:34:55.999Z</time></trkpt><trkpt lat="41.80069389944658" lon="13.313051116626404"><ele>680.0</ele><time>2026-04-11T14:34:56.999Z</time></trkpt><trkpt lat="41.80067876645381" lon="13.313164950373498"><ele>680.0</ele><time>2026-04-11T14:34:57.999Z</time></trkpt><trkpt lat="41.8006551174949" lon="13.313280225001584"><ele>680.0</ele><time>2026-04-11T14:34:58.999Z</time></trkpt><trkpt lat="41.800661192214264" lon="13.313403732263716"><ele>680.0</ele><time>2026-04-11T14:34:59.999Z</time></trkpt><trkpt lat="41.80068822998536" lon="13.313528111975474"><ele>680.0</ele><time>2026-04-11T14:35:00.999Z</time></trkpt><trkpt lat="41.80072553131042" lon="13.313644425299701"><ele>680.0</ele><time>2026-04-11T14:35:01.999Z</time></trkpt><trkpt lat="41.800778031223786" lon="13.313760002849325"><ele>680.0</ele><time>2026-04-11T14:35:02.999Z</time></trkpt><trkpt lat="41.80083121574882" lon="13.31386703599918"><ele>680.0</ele><time>2026-04-11T14:35:03.999Z</time></trkpt><trkpt lat="41.80087863530497" lon="13.313973040451462"><ele>680.0</ele><time>2026-04-11T14:35:04.999Z</time></trkpt><trkpt lat="41.80090853769506" lon="13.314071001585932"><ele>680.0</ele><time>2026-04-11T14:35:05.999Z</time></trkpt><trkpt lat="41.80091817220643" lon="13.314165721767992"><ele>680.0</ele><time>2026-04-11T14:35:06.999Z</time></trkpt><trkpt lat="41.80090983371321" lon="13.314258817857503"><ele>680.0</ele><time>2026-04-11T14:35:07.999Z</time></trkpt><trkpt lat="41.80088856958437" lon="13.314352178833504"><ele>679.1666666666666</ele><time>2026-04-11T14:35:08.999Z</time></trkpt><trkpt lat="41.80085248385822" lon="13.314450332678435"><ele>678.3333333333333</ele><time>2026-04-11T14:35:09.999Z</time></trkpt><trkpt lat="41.80078243622871" lon="13.31453083610903"><ele>677.5</ele><time>2026-04-11T14:35:10.999Z</time></trkpt><trkpt lat="41.80071078264434" lon="13.314575315439274"><ele>676.6666666666666</ele><time>2026-04-11T14:35:11.999Z</time></trkpt><trkpt lat="41.80064452154554" lon="13.314606234694255"><ele>675.8333333333334</ele><time>2026-04-11T14:35:12.999Z</time></trkpt><trkpt lat="41.80058596854968" lon="13.314547690879712"><ele>675.0</ele><time>2026-04-11T14:35:13.999Z</time></trkpt><trkpt lat="41.8005290347869" lon="13.314498607332224"><ele>675.0</ele><time>2026-04-11T14:35:14.999Z</time></trkpt><trkpt lat="41.80047623361981" lon="13.314284016832211"><ele>675.0</ele><time>2026-04-11T14:35:15.999Z</time></trkpt><trkpt lat="41.800437095680834" lon="13.314166312997802"><ele>675.0</ele><time>2026-04-11T14:35:16.999Z</time></trkpt><trkpt lat="41.800406851036215" lon="13.31400676136469"><ele>675.0</ele><time>2026-04-11T14:35:17.999Z</time></trkpt><trkpt lat="41.80036389071745" lon="13.313851036364412"><ele>676.25</ele><time>2026-04-11T14:35:18.999Z</time></trkpt><trkpt lat="41.800319864807236" lon="13.313676365391094"><ele>677.5</ele><time>2026-04-11T14:35:19.999Z</time></trkpt><trkpt lat="41.80028416573876" lon="13.313489986993627"><ele>678.75</ele><time>2026-04-11T14:35:20.999Z</time></trkpt><trkpt lat="41.800229099239466" lon="13.313339561451635"><ele>680.0</ele><time>2026-04-11T14:35:21.999Z</time></trkpt><trkpt lat="41.80016541427893" lon="13.31319765594817"><ele>675.8</ele><time>2026-04-11T14:35:22.999Z</time></trkpt><trkpt lat="41.80011337361174" lon="13.313097842524819"><ele>671.6</ele><time>2026-04-11T14:35:23.999Z</time></trkpt><trkpt lat="41.80004575681267" lon="13.312938344289696"><ele>667.4000000000001</ele><time>2026-04-11T14:35:25.999Z</time></trkpt><trkpt lat="41.79996278646781" lon="13.312829378584107"><ele>663.2</ele><time>2026-04-11T14:35:27.999Z</time></trkpt><trkpt lat="41.79988442344208" lon="13.312763250882364"><ele>659.0</ele><time>2026-04-11T14:35:29.999Z</time></trkpt><trkpt lat="41.79982782111169" lon="13.312685525673684"><ele>659.0</ele><time>2026-04-11T14:35:31.999Z</time></trkpt><trkpt lat="41.79975645835466" lon="13.312649067602958"><ele>659.0</ele><time>2026-04-11T14:35:35.999Z</time></trkpt><trkpt lat="41.799686970820325" lon="13.312579339198393"><ele>659.0</ele><time>2026-04-11T14:35:39.999Z</time></trkpt><trkpt lat="41.799601173997246" lon="13.312543666336454"><ele>659.0</ele><time>2026-04-11T14:35:42.999Z</time></trkpt><trkpt lat="41.79953301316396" lon="13.312541808753508"><ele>659.0</ele><time>2026-04-11T14:35:47.999Z</time></trkpt><trkpt lat="41.79947538474007" lon="13.312503194633955"><ele>659.0</ele><time>2026-04-11T14:35:50.999Z</time></trkpt><trkpt lat="41.799379698358884" lon="13.312470256514633"><ele>659.0</ele><time>2026-04-11T14:35:52.999Z</time></trkpt><trkpt lat="41.79932346047064" lon="13.312535595830132"><ele>659.0</ele><time>2026-04-11T14:35:55.999Z</time></trkpt><trkpt lat="41.79931571543284" lon="13.31264985110764"><ele>659.0</ele><time>2026-04-11T14:36:02.999Z</time></trkpt><trkpt lat="41.79932309845342" lon="13.31273578574309"><ele>659.0</ele><time>2026-04-11T14:36:03.999Z</time></trkpt><trkpt lat="41.79935530390553" lon="13.312819731943936"><ele>659.0</ele><time>2026-04-11T14:36:04.999Z</time></trkpt><trkpt lat="41.799432632764805" lon="13.312934125611998"><ele>659.0</ele><time>2026-04-11T14:36:06.999Z</time></trkpt><trkpt lat="41.799541462597254" lon="13.312978920049384"><ele>657.5</ele><time>2026-04-11T14:36:08.999Z</time></trkpt><trkpt lat="41.79963396240716" lon="13.313092827749518"><ele>656.0</ele><time>2026-04-11T14:36:10.999Z</time></trkpt><trkpt lat="41.79968259525074" lon="13.31315519977848"><ele>654.5</ele><time>2026-04-11T14:36:12Z</time></trkpt><trkpt lat="41.7997352829089" lon="13.313215521779718"><ele>653.0</ele><time>2026-04-11T14:36:13Z</time></trkpt><trkpt lat="41.799773412964626" lon="13.313288965857499"><ele>651.5</ele><time>2026-04-11T14:36:14Z</time></trkpt><trkpt lat="41.79981315441069" lon="13.313370175160557"><ele>650.0</ele><time>2026-04-11T14:36:15Z</time></trkpt><trkpt lat="41.799854280173484" lon="13.313490730951253"><ele>650.0</ele><time>2026-04-11T14:36:17Z</time></trkpt><trkpt lat="41.799891093053915" lon="13.313628561873458"><ele>650.0</ele><time>2026-04-11T14:36:19Z</time></trkpt><trkpt lat="41.79989999516998" lon="13.313717315643006"><ele>650.0</ele><time>2026-04-11T14:36:20Z</time></trkpt><trkpt lat="41.79995602357836" lon="13.313894746367978"><ele>650.0</ele><time>2026-04-11T14:36:22Z</time></trkpt><trkpt lat="41.799975181276054" lon="13.313983001358622"><ele>650.0</ele><time>2026-04-11T14:36:23Z</time></trkpt><trkpt lat="41.799968024757746" lon="13.314100348894794"><ele>650.0</ele><time>2026-04-11T14:36:25Z</time></trkpt><trkpt lat="41.79986351090911" lon="13.314054387699919"><ele>650.0</ele><time>2026-04-11T14:36:28Z</time></trkpt><trkpt lat="41.79981710712425" lon="13.313887012143443"><ele>650.0</ele><time>2026-04-11T14:36:30Z</time></trkpt><trkpt lat="41.79979400271737" lon="13.313682148764983"><ele>650.0</ele><time>2026-04-11T14:36:31Z</time></trkpt><trkpt lat="41.79977680765044" lon="13.313551773027548"><ele>650.0</ele><time>2026-04-11T14:36:32Z</time></trkpt><trkpt lat="41.79976149106441" lon="13.313441150802811"><ele>650.0</ele><time>2026-04-11T14:36:33Z</time></trkpt><trkpt lat="41.799754476583296" lon="13.313341085953905"><ele>650.0</ele><time>2026-04-11T14:36:35Z</time></trkpt><trkpt lat="41.799667687449634" lon="13.313312470894198"><ele>650.0</ele><time>2026-04-11T14:36:37Z</time></trkpt><trkpt lat="41.79954026080839" lon="13.313382492284493"><ele>650.0</ele><time>2026-04-11T14:36:39Z</time></trkpt><trkpt lat="41.79948594917553" lon="13.313479893559787"><ele>650.0</ele><time>2026-04-11T14:36:40Z</time></trkpt><trkpt lat="41.799485151606184" lon="13.313658486308784"><ele>650.0</ele><time>2026-04-11T14:36:41Z</time></trkpt><trkpt lat="41.799494155283654" lon="13.313802362334785"><ele>650.0</ele><time>2026-04-11T14:36:42Z</time></trkpt><trkpt lat="41.79950070346582" lon="13.313906606923023"><ele>650.0</ele><time>2026-04-11T14:36:43Z</time></trkpt><trkpt lat="41.799507771960144" lon="13.314018995986578"><ele>650.0</ele><time>2026-04-11T14:36:43.999Z</time></trkpt><trkpt lat="41.79951618732744" lon="13.314134312038597"><ele>649.8</ele><time>2026-04-11T14:36:45.999Z</time></trkpt><trkpt lat="41.799527380144795" lon="13.314286324313075"><ele>649.6</ele><time>2026-04-11T14:36:47.999Z</time></trkpt><trkpt lat="41.7995382052473" lon="13.31443334271745"><ele>649.4000000000001</ele><time>2026-04-11T14:36:49.999Z</time></trkpt><trkpt lat="41.79955269030544" lon="13.314595846414617"><ele>649.2</ele><time>2026-04-11T14:36:51.999Z</time></trkpt><trkpt lat="41.79958152132203" lon="13.314726224462477"><ele>649.0</ele><time>2026-04-11T14:36:53.999Z</time></trkpt><trkpt lat="41.799608393718486" lon="13.314879351829136"><ele>648.0</ele><time>2026-04-11T14:36:55.999Z</time></trkpt><trkpt lat="41.79963258643398" lon="13.315024848016307"><ele>647.0</ele><time>2026-04-11T14:36:57.999Z</time></trkpt><trkpt lat="41.79968797814394" lon="13.31517083314154"><ele>646.0</ele><time>2026-04-11T14:36:59.999Z</time></trkpt><trkpt lat="41.799732436317356" lon="13.31526164763206"><ele>645.0</ele><time>2026-04-11T14:37:00.999Z</time></trkpt><trkpt lat="41.79977308456415" lon="13.315346428608457"><ele>644.0</ele><time>2026-04-11T14:37:01.999Z</time></trkpt><trkpt lat="41.79981161219605" lon="13.315418877253029"><ele>644.0</ele><time>2026-04-11T14:37:02.999Z</time></trkpt><trkpt lat="41.799847700043756" lon="13.315488183088267"><ele>644.0</ele><time>2026-04-11T14:37:03.999Z</time></trkpt><trkpt lat="41.799884110390266" lon="13.315558884700458"><ele>644.0</ele><time>2026-04-11T14:37:04.999Z</time></trkpt><trkpt lat="41.799935371338584" lon="13.315620139509143"><ele>644.0</ele><time>2026-04-11T14:37:05.999Z</time></trkpt><trkpt lat="41.799979870938955" lon="13.31571243228057"><ele>644.0</ele><time>2026-04-11T14:37:06.999Z</time></trkpt><trkpt lat="41.8000134474544" lon="13.315810031293214"><ele>644.0</ele><time>2026-04-11T14:37:07.999Z</time></trkpt><trkpt lat="41.80007093630563" lon="13.315885732187589"><ele>644.0</ele><time>2026-04-11T14:37:08.999Z</time></trkpt><trkpt lat="41.80011976092207" lon="13.315991767732609"><ele>643.8333333333333</ele><time>2026-04-11T14:37:09.999Z</time></trkpt><trkpt lat="41.80016215783151" lon="13.31610202032286"><ele>643.6666666666666</ele><time>2026-04-11T14:37:10.999Z</time></trkpt><trkpt lat="41.800207390178635" lon="13.316190972046956"><ele>643.5</ele><time>2026-04-11T14:37:11.999Z</time></trkpt><trkpt lat="41.800255375336064" lon="13.316285337532053"><ele>643.3333333333334</ele><time>2026-04-11T14:37:12.999Z</time></trkpt><trkpt lat="41.800303734104915" lon="13.316380437573457"><ele>643.1666666666667</ele><time>2026-04-11T14:37:13.999Z</time></trkpt><trkpt lat="41.800351547137495" lon="13.31647727218014"><ele>643.0</ele><time>2026-04-11T14:37:14.999Z</time></trkpt><trkpt lat="41.8003989247114" lon="13.316576044111697"><ele>643.0</ele><time>2026-04-11T14:37:15.999Z</time></trkpt><trkpt lat="41.80043884469446" lon="13.316661422518274"><ele>643.0</ele><time>2026-04-11T14:37:16.999Z</time></trkpt><trkpt lat="41.80047449596804" lon="13.316739732400837"><ele>643.0</ele><time>2026-04-11T14:37:17.999Z</time></trkpt><trkpt lat="41.80054346027686" lon="13.316865274000168"><ele>643.0</ele><time>2026-04-11T14:37:19.999Z</time></trkpt><trkpt lat="41.80054299666222" lon="13.317005790057408"><ele>643.0</ele><time>2026-04-11T14:37:21.999Z</time></trkpt><trkpt lat="41.800457529727645" lon="13.317060653111437"><ele>643.0</ele><time>2026-04-11T14:37:23.999Z</time></trkpt><trkpt lat="41.80039367138714" lon="13.317001169445621"><ele>643.0</ele><time>2026-04-11T14:37:24.999Z</time></trkpt><trkpt lat="41.80032820648733" lon="13.316888120769987"><ele>643.0</ele><time>2026-04-11T14:37:25.999Z</time></trkpt><trkpt lat="41.80026062970711" lon="13.316771452444314"><ele>643.0</ele><time>2026-04-11T14:37:26.999Z</time></trkpt><trkpt lat="41.80019104800832" lon="13.316604704281914"><ele>643.0</ele><time>2026-04-11T14:37:27.999Z</time></trkpt><trkpt lat="41.80010909554327" lon="13.316427446761537"><ele>638.6666666666667</ele><time>2026-04-11T14:37:28.999Z</time></trkpt><trkpt lat="41.80001478385577" lon="13.316254373225059"><ele>634.3333333333334</ele><time>2026-04-11T14:37:29.999Z</time></trkpt><trkpt lat="41.79992101056753" lon="13.316074759358024"><ele>630.0</ele><time>2026-04-11T14:37:30.999Z</time></trkpt><trkpt lat="41.7998315363657" lon="13.31593571515885"><ele>630.0</ele><time>2026-04-11T14:37:31.999Z</time></trkpt><trkpt lat="41.799736352555286" lon="13.315836651723032"><ele>630.0</ele><time>2026-04-11T14:37:32.999Z</time></trkpt><trkpt lat="41.79962240405548" lon="13.315765642567241"><ele>630.0</ele><time>2026-04-11T14:37:33.999Z</time></trkpt><trkpt lat="41.79950550833675" lon="13.315692897589251"><ele>630.0</ele><time>2026-04-11T14:37:34.999Z</time></trkpt><trkpt lat="41.79936975547457" lon="13.315610932733502"><ele>627.25</ele><time>2026-04-11T14:37:35.999Z</time></trkpt><trkpt lat="41.79924506864533" lon="13.315527985280713"><ele>624.5</ele><time>2026-04-11T14:37:36.999Z</time></trkpt><trkpt lat="41.79913561902041" lon="13.315456282000271"><ele>621.75</ele><time>2026-04-11T14:37:37.999Z</time></trkpt><trkpt lat="41.79903963225114" lon="13.315360827720738"><ele>619.0</ele><time>2026-04-11T14:37:38.999Z</time></trkpt><trkpt lat="41.79895430604329" lon="13.31522750201088"><ele>619.0</ele><time>2026-04-11T14:37:39.999Z</time></trkpt><trkpt lat="41.79886442462951" lon="13.315088145364903"><ele>619.0</ele><time>2026-04-11T14:37:40.999Z</time></trkpt><trkpt lat="41.79879369450052" lon="13.314941090478833"><ele>619.0</ele><time>2026-04-11T14:37:41.999Z</time></trkpt><trkpt lat="41.79872316078973" lon="13.314807481428355"><ele>619.0</ele><time>2026-04-11T14:37:42.999Z</time></trkpt><trkpt lat="41.79866623889274" lon="13.314695938700027"><ele>619.0</ele><time>2026-04-11T14:37:43.999Z</time></trkpt><trkpt lat="41.798617900165745" lon="13.314595888073924"><ele>619.0</ele><time>2026-04-11T14:37:44.999Z</time></trkpt><trkpt lat="41.7984923345412" lon="13.31453912106024"><ele>619.0</ele><time>2026-04-11T14:37:46.999Z</time></trkpt><trkpt lat="41.798428100937926" lon="13.314587277039323"><ele>619.0</ele><time>2026-04-11T14:37:47.999Z</time></trkpt><trkpt lat="41.79839037410468" lon="13.314686363709743"><ele>619.0</ele><time>2026-04-11T14:37:48.999Z</time></trkpt><trkpt lat="41.798355344354974" lon="13.314795096434732"><ele>619.0</ele><time>2026-04-11T14:37:49.999Z</time></trkpt><trkpt lat="41.79842974745979" lon="13.314964100979866"><ele>619.0</ele><time>2026-04-11T14:37:50.999Z</time></trkpt><trkpt lat="41.79848984884588" lon="13.315134932937008"><ele>619.0</ele><time>2026-04-11T14:37:51.999Z</time></trkpt><trkpt lat="41.79854390392596" lon="13.315286516609085"><ele>619.0</ele><time>2026-04-11T14:37:52.999Z</time></trkpt><trkpt lat="41.79860881501984" lon="13.315466145289982"><ele>615.5</ele><time>2026-04-11T14:37:53.999Z</time></trkpt><trkpt lat="41.798670583539504" lon="13.31563292027834"><ele>612.0</ele><time>2026-04-11T14:37:54.999Z</time></trkpt><trkpt lat="41.79872399391277" lon="13.315774497242149"><ele>608.5</ele><time>2026-04-11T14:37:55.999Z</time></trkpt><trkpt lat="41.79877322996768" lon="13.31591088406857"><ele>605.0</ele><time>2026-04-11T14:37:56.999Z</time></trkpt><trkpt lat="41.79881047502517" lon="13.316025207988732"><ele>605.0</ele><time>2026-04-11T14:37:57.999Z</time></trkpt><trkpt lat="41.798839192843886" lon="13.316134753105832"><ele>605.0</ele><time>2026-04-11T14:37:58.999Z</time></trkpt><trkpt lat="41.79884693988543" lon="13.31623092199917"><ele>605.0</ele><time>2026-04-11T14:37:59.999Z</time></trkpt><trkpt lat="41.79877826165915" lon="13.31636384650068"><ele>605.0</ele><time>2026-04-11T14:38:01.999Z</time></trkpt><trkpt lat="41.79870742537872" lon="13.316411212825077"><ele>605.0</ele><time>2026-04-11T14:38:02.999Z</time></trkpt><trkpt lat="41.79861042126774" lon="13.316430103903606"><ele>605.0</ele><time>2026-04-11T14:38:03.999Z</time></trkpt><trkpt lat="41.798531592698716" lon="13.316339690339788"><ele>605.0</ele><time>2026-04-11T14:38:04.999Z</time></trkpt><trkpt lat="41.798456381203245" lon="13.316188219175634"><ele>605.0</ele><time>2026-04-11T14:38:05.999Z</time></trkpt><trkpt lat="41.79837642317422" lon="13.316039749588937"><ele>605.0</ele><time>2026-04-11T14:38:06.999Z</time></trkpt><trkpt lat="41.79829802544884" lon="13.315901798567031"><ele>604.25</ele><time>2026-04-11T14:38:07.999Z</time></trkpt><trkpt lat="41.79820612099857" lon="13.315757664542609"><ele>603.5</ele><time>2026-04-11T14:38:08.999Z</time></trkpt><trkpt lat="41.79811347619091" lon="13.315602953578873"><ele>602.75</ele><time>2026-04-11T14:38:09.999Z</time></trkpt><trkpt lat="41.798029819948866" lon="13.315454341458318"><ele>602.0</ele><time>2026-04-11T14:38:10.999Z</time></trkpt><trkpt lat="41.79795707255904" lon="13.315314142188866"><ele>602.0</ele><time>2026-04-11T14:38:11.999Z</time></trkpt><trkpt lat="41.79789748272934" lon="13.315199170933823"><ele>602.0</ele><time>2026-04-11T14:38:12.999Z</time></trkpt><trkpt lat="41.79781452694207" lon="13.315138265639192"><ele>602.0</ele><time>2026-04-11T14:38:13.999Z</time></trkpt><trkpt lat="41.797758053094654" lon="13.315087076908169"><ele>602.0</ele><time>2026-04-11T14:38:14.999Z</time></trkpt><trkpt lat="41.79764298829064" lon="13.31516071921409"><ele>602.0</ele><time>2026-04-11T14:38:15.999Z</time></trkpt><trkpt lat="41.79754121797117" lon="13.315233676955938"><ele>599.6</ele><time>2026-04-11T14:38:16.999Z</time></trkpt><trkpt lat="41.79743940473936" lon="13.31530711832719"><ele>597.2</ele><time>2026-04-11T14:38:18Z</time></trkpt><trkpt lat="41.79734314096686" lon="13.315388196512227"><ele>594.8</ele><time>2026-04-11T14:38:19Z</time></trkpt><trkpt lat="41.79724912811121" lon="13.315458918008558"><ele>592.4</ele><time>2026-04-11T14:38:20Z</time></trkpt><trkpt lat="41.79716466844588" lon="13.3155511530701"><ele>590.0</ele><time>2026-04-11T14:38:21Z</time></trkpt><trkpt lat="41.79707695722123" lon="13.315626002356835"><ele>588.0</ele><time>2026-04-11T14:38:22Z</time></trkpt><trkpt lat="41.79697152852163" lon="13.315695751272774"><ele>586.0</ele><time>2026-04-11T14:38:23Z</time></trkpt><trkpt lat="41.79685288870077" lon="13.315709859719176"><ele>584.0</ele><time>2026-04-11T14:38:24Z</time></trkpt><trkpt lat="41.79673214559002" lon="13.315745091479549"><ele>582.0</ele><time>2026-04-11T14:38:25Z</time></trkpt><trkpt lat="41.79663063171354" lon="13.31578327979814"><ele>581.5</ele><time>2026-04-11T14:38:26Z</time></trkpt><trkpt lat="41.79653889441288" lon="13.31575328219442"><ele>581.0</ele><time>2026-04-11T14:38:27Z</time></trkpt><trkpt lat="41.79649201135276" lon="13.315648865768367"><ele>580.5</ele><time>2026-04-11T14:38:28Z</time></trkpt><trkpt lat="41.79642403694956" lon="13.315492158478124"><ele>580.0</ele><time>2026-04-11T14:38:29Z</time></trkpt><trkpt lat="41.79639477398489" lon="13.31522279227798"><ele>580.0</ele><time>2026-04-11T14:38:30Z</time></trkpt><trkpt lat="41.79632195725408" lon="13.315032138365886"><ele>580.0</ele><time>2026-04-11T14:38:31Z</time></trkpt><trkpt lat="41.796244465632725" lon="13.314869813858708"><ele>580.0</ele><time>2026-04-11T14:38:32Z</time></trkpt><trkpt lat="41.79619725450991" lon="13.31473061539702"><ele>580.0</ele><time>2026-04-11T14:38:33Z</time></trkpt><trkpt lat="41.79613138273551" lon="13.31457188548667"><ele>580.0</ele><time>2026-04-11T14:38:34Z</time></trkpt><trkpt lat="41.7960699710252" lon="13.31440825542709"><ele>580.0</ele><time>2026-04-11T14:38:35Z</time></trkpt><trkpt lat="41.796023057401406" lon="13.314273079325442"><ele>580.0</ele><time>2026-04-11T14:38:36Z</time></trkpt><trkpt lat="41.79597464355219" lon="13.314163426539213"><ele>580.0</ele><time>2026-04-11T14:38:37Z</time></trkpt><trkpt lat="41.795896923245344" lon="13.314059213763391"><ele>579.6</ele><time>2026-04-11T14:38:38Z</time></trkpt><trkpt lat="41.795798909262146" lon="13.314034762647657"><ele>579.2</ele><time>2026-04-11T14:38:39Z</time></trkpt><trkpt lat="41.79568819292182" lon="13.314065774407084"><ele>578.8</ele><time>2026-04-11T14:38:40Z</time></trkpt><trkpt lat="41.795582107191564" lon="13.31415191994422"><ele>578.4</ele><time>2026-04-11T14:38:41Z</time></trkpt><trkpt lat="41.795492745723614" lon="13.31423494629642"><ele>578.0</ele><time>2026-04-11T14:38:42Z</time></trkpt><trkpt lat="41.79541752973491" lon="13.314308586477939"><ele>578.0</ele><time>2026-04-11T14:38:43Z</time></trkpt><trkpt lat="41.79535010935958" lon="13.31437116620406"><ele>578.0</ele><time>2026-04-11T14:38:43.999Z</time></trkpt><trkpt lat="41.79526892529926" lon="13.314426198526439"><ele>578.0</ele><time>2026-04-11T14:38:45.999Z</time></trkpt><trkpt lat="41.79532815189919" lon="13.314595580684673"><ele>578.0</ele><time>2026-04-11T14:38:50.999Z</time></trkpt><trkpt lat="41.795235484802866" lon="13.314454767989847"><ele>578.0</ele><time>2026-04-11T14:39:32.999Z</time></trkpt><trkpt lat="41.795312368598445" lon="13.314618513306748"><ele>578.0</ele><time>2026-04-11T14:39:50.999Z</time></trkpt><trkpt lat="41.79525080820391" lon="13.31471281591395"><ele>578.0</ele><time>2026-04-11T14:52:46Z</time></trkpt><trkpt lat="41.79517984957447" lon="13.314744120215428"><ele>578.0</ele><time>2026-04-11T14:52:48Z</time></trkpt><trkpt lat="41.79512079801301" lon="13.314692037686928"><ele>578.0</ele><time>2026-04-11T14:52:51Z</time></trkpt><trkpt lat="41.795046577528915" lon="13.314646933942534"><ele>577.0</ele><time>2026-04-11T14:52:56Z</time></trkpt><trkpt lat="41.794985390327035" lon="13.314668372638007"><ele>576.0</ele><time>2026-04-11T14:52:57Z</time></trkpt><trkpt lat="41.79489229810033" lon="13.314780740844604"><ele>575.0</ele><time>2026-04-11T14:52:58Z</time></trkpt><trkpt lat="41.794758220092" lon="13.314891592638599"><ele>574.0</ele><time>2026-04-11T14:52:59Z</time></trkpt><trkpt lat="41.794620958714695" lon="13.314993981323699"><ele>574.0</ele><time>2026-04-11T14:53:00Z</time></trkpt><trkpt lat="41.79446922901376" lon="13.31511235746615"><ele>574.0</ele><time>2026-04-11T14:53:01Z</time></trkpt><trkpt lat="41.794329049240154" lon="13.315233889362357"><ele>574.0</ele><time>2026-04-11T14:53:02Z</time></trkpt><trkpt lat="41.794167336246204" lon="13.31535714046849"><ele>577.0</ele><time>2026-04-11T14:53:03Z</time></trkpt><trkpt lat="41.79398135410401" lon="13.315498757972767"><ele>580.0</ele><time>2026-04-11T14:53:04Z</time></trkpt><trkpt lat="41.793799511998095" lon="13.315625509269273"><ele>583.0</ele><time>2026-04-11T14:53:05Z</time></trkpt><trkpt lat="41.79361964154089" lon="13.315754969502175"><ele>579.3333333333334</ele><time>2026-04-11T14:53:06Z</time></trkpt><trkpt lat="41.79344018044396" lon="13.31586212659144"><ele>575.6666666666666</ele><time>2026-04-11T14:53:07Z</time></trkpt><trkpt lat="41.793261289769994" lon="13.315969666653249"><ele>572.0</ele><time>2026-04-11T14:53:08Z</time></trkpt><trkpt lat="41.79307621015097" lon="13.316091845988618"><ele>572.0</ele><time>2026-04-11T14:53:09Z</time></trkpt><trkpt lat="41.792883494529896" lon="13.316199397060968"><ele>572.0</ele><time>2026-04-11T14:53:10Z</time></trkpt><trkpt lat="41.79269601910451" lon="13.31629327007096"><ele>572.0</ele><time>2026-04-11T14:53:11Z</time></trkpt><trkpt lat="41.79250510834285" lon="13.31638788608165"><ele>566.0</ele><time>2026-04-11T14:53:12Z</time></trkpt><trkpt lat="41.79231281049552" lon="13.316481748130228"><ele>560.0</ele><time>2026-04-11T14:53:13Z</time></trkpt><trkpt lat="41.792132076146785" lon="13.316560229580217"><ele>554.0</ele><time>2026-04-11T14:53:14Z</time></trkpt><trkpt lat="41.79196102040951" lon="13.316616298830318"><ele>552.6666666666666</ele><time>2026-04-11T14:53:15Z</time></trkpt><trkpt lat="41.791787863189164" lon="13.316631692378552"><ele>551.3333333333334</ele><time>2026-04-11T14:53:16Z</time></trkpt><trkpt lat="41.79160865127086" lon="13.316618612630648"><ele>550.0</ele><time>2026-04-11T14:53:17Z</time></trkpt><trkpt lat="41.79142860611233" lon="13.316571531425769"><ele>550.0</ele><time>2026-04-11T14:53:18Z</time></trkpt><trkpt lat="41.791249602205674" lon="13.316495167165527"><ele>550.0</ele><time>2026-04-11T14:53:19Z</time></trkpt><trkpt lat="41.79107733078421" lon="13.316402752418577"><ele>550.0</ele><time>2026-04-11T14:53:20Z</time></trkpt><trkpt lat="41.79090802243026" lon="13.316272899144089"><ele>550.6666666666667</ele><time>2026-04-11T14:53:21Z</time></trkpt><trkpt lat="41.79074644203484" lon="13.316142159989717"><ele>551.3333333333334</ele><time>2026-04-11T14:53:22Z</time></trkpt><trkpt lat="41.790627721620545" lon="13.315973699116986"><ele>552.0</ele><time>2026-04-11T14:53:23Z</time></trkpt><trkpt lat="41.790527784790186" lon="13.315779696585684"><ele>554.6666666666666</ele><time>2026-04-11T14:53:24Z</time></trkpt><trkpt lat="41.79044489716738" lon="13.31557013442483"><ele>557.3333333333333</ele><time>2026-04-11T14:53:25Z</time></trkpt><trkpt lat="41.79036334644801" lon="13.315352467039851"><ele>560.0</ele><time>2026-04-11T14:53:26Z</time></trkpt><trkpt lat="41.790277852301394" lon="13.315120293495356"><ele>560.0</ele><time>2026-04-11T14:53:27Z</time></trkpt><trkpt lat="41.79018827184155" lon="13.314877255924092"><ele>560.0</ele><time>2026-04-11T14:53:28Z</time></trkpt><trkpt lat="41.79010027828334" lon="13.314638523600475"><ele>560.0</ele><time>2026-04-11T14:53:29Z</time></trkpt><trkpt lat="41.79002250803765" lon="13.314395279649057"><ele>553.6666666666666</ele><time>2026-04-11T14:53:30Z</time></trkpt><trkpt lat="41.78995213815919" lon="13.314157431374309"><ele>547.3333333333334</ele><time>2026-04-11T14:53:31Z</time></trkpt><trkpt lat="41.78991604015656" lon="13.313890611316518"><ele>541.0</ele><time>2026-04-11T14:53:32Z</time></trkpt><trkpt lat="41.789887757424644" lon="13.313601151669138"><ele>541.0</ele><time>2026-04-11T14:53:33Z</time></trkpt><trkpt lat="41.78985884049568" lon="13.313310336043495"><ele>541.0</ele><time>2026-04-11T14:53:34Z</time></trkpt><trkpt lat="41.78983614418441" lon="13.31304871268921"><ele>541.0</ele><time>2026-04-11T14:53:35Z</time></trkpt><trkpt lat="41.78981331166628" lon="13.312846009852741"><ele>541.0</ele><time>2026-04-11T14:53:36Z</time></trkpt><trkpt lat="41.789775346780964" lon="13.31263192231567"><ele>541.0</ele><time>2026-04-11T14:53:37Z</time></trkpt><trkpt lat="41.78971191395729" lon="13.312435499981746"><ele>541.0</ele><time>2026-04-11T14:53:38Z</time></trkpt><trkpt lat="41.789621642493906" lon="13.312267022316533"><ele>541.6666666666667</ele><time>2026-04-11T14:53:39Z</time></trkpt><trkpt lat="41.78950423810621" lon="13.31211581659025"><ele>542.3333333333334</ele><time>2026-04-11T14:53:40Z</time></trkpt><trkpt lat="41.789363107159154" lon="13.311986981060059"><ele>543.0</ele><time>2026-04-11T14:53:41Z</time></trkpt><trkpt lat="41.789195866169806" lon="13.311899644472952"><ele>539.3333333333334</ele><time>2026-04-11T14:53:42Z</time></trkpt><trkpt lat="41.78902258474865" lon="13.311844804930127"><ele>535.6666666666667</ele><time>2026-04-11T14:53:43Z</time></trkpt><trkpt lat="41.78883665992487" lon="13.31183739609647"><ele>532.0</ele><time>2026-04-11T14:53:44Z</time></trkpt><trkpt lat="41.788648261094345" lon="13.311877309217513"><ele>530.3333333333334</ele><time>2026-04-11T14:53:45Z</time></trkpt><trkpt lat="41.78844931185992" lon="13.312008108643846"><ele>528.6666666666666</ele><time>2026-04-11T14:53:46Z</time></trkpt><trkpt lat="41.78828210770748" lon="13.312133473296132"><ele>527.0</ele><time>2026-04-11T14:53:47Z</time></trkpt><trkpt lat="41.788124538499225" lon="13.312290680740277"><ele>526.3333333333333</ele><time>2026-04-11T14:53:48Z</time></trkpt><trkpt lat="41.7879700395471" lon="13.312459753755004"><ele>525.6666666666666</ele><time>2026-04-11T14:53:49Z</time></trkpt><trkpt lat="41.7878092358802" lon="13.312623688358444"><ele>525.0</ele><time>2026-04-11T14:53:50Z</time></trkpt><trkpt lat="41.78764657771873" lon="13.312784725331527"><ele>524.3333333333334</ele><time>2026-04-11T14:53:51Z</time></trkpt><trkpt lat="41.78748504321847" lon="13.31294185686889"><ele>523.6666666666667</ele><time>2026-04-11T14:53:52Z</time></trkpt><trkpt lat="41.78732849188322" lon="13.31309401597755"><ele>523.0</ele><time>2026-04-11T14:53:53Z</time></trkpt><trkpt lat="41.78717403562046" lon="13.313247065292801"><ele>522.3333333333334</ele><time>2026-04-11T14:53:54Z</time></trkpt><trkpt lat="41.78701865723003" lon="13.313395759633678"><ele>521.6666666666666</ele><time>2026-04-11T14:53:55Z</time></trkpt><trkpt lat="41.786867362845314" lon="13.313542268113016"><ele>521.0</ele><time>2026-04-11T14:53:56Z</time></trkpt><trkpt lat="41.78671942022047" lon="13.31369231708203"><ele>520.0</ele><time>2026-04-11T14:53:57Z</time></trkpt><trkpt lat="41.78657027963362" lon="13.313839663833587"><ele>519.0</ele><time>2026-04-11T14:53:58Z</time></trkpt><trkpt lat="41.78642389964123" lon="13.31398224607893"><ele>518.0</ele><time>2026-04-11T14:53:59Z</time></trkpt><trkpt lat="41.786277978331995" lon="13.314121078303009"><ele>517.6666666666666</ele><time>2026-04-11T14:54:00Z</time></trkpt><trkpt lat="41.78613484547495" lon="13.314260287962478"><ele>517.3333333333334</ele><time>2026-04-11T14:54:01Z</time></trkpt><trkpt lat="41.785992551164775" lon="13.314389878734909"><ele>517.0</ele><time>2026-04-11T14:54:02Z</time></trkpt><trkpt lat="41.78585195528719" lon="13.314534461772865"><ele>517.0</ele><time>2026-04-11T14:54:03Z</time></trkpt><trkpt lat="41.78569449784703" lon="13.31466535395735"><ele>517.0</ele><time>2026-04-11T14:54:04Z</time></trkpt><trkpt lat="41.785537329282576" lon="13.314765790746565"><ele>517.0</ele><time>2026-04-11T14:54:05Z</time></trkpt><trkpt lat="41.78537296818887" lon="13.314846090122646"><ele>515.3333333333334</ele><time>2026-04-11T14:54:06Z</time></trkpt><trkpt lat="41.785196137003695" lon="13.314896558446032"><ele>513.6666666666666</ele><time>2026-04-11T14:54:07Z</time></trkpt><trkpt lat="41.78501634756165" lon="13.3149261644485"><ele>512.0</ele><time>2026-04-11T14:54:08Z</time></trkpt><trkpt lat="41.78483154071064" lon="13.31493192377236"><ele>510.66666666666663</ele><time>2026-04-11T14:54:09Z</time></trkpt><trkpt lat="41.78464040222268" lon="13.314921446377321"><ele>509.33333333333337</ele><time>2026-04-11T14:54:10Z</time></trkpt><trkpt lat="41.78444197393476" lon="13.314917151756687"><ele>508.0</ele><time>2026-04-11T14:54:11Z</time></trkpt><trkpt lat="41.784243196250856" lon="13.314915392468283"><ele>506.33333333333337</ele><time>2026-04-11T14:54:12Z</time></trkpt><trkpt lat="41.78403525529185" lon="13.314914473546766"><ele>504.66666666666663</ele><time>2026-04-11T14:54:13Z</time></trkpt><trkpt lat="41.78383259494442" lon="13.314922514757185"><ele>503.0</ele><time>2026-04-11T14:54:14Z</time></trkpt><trkpt lat="41.78363487193345" lon="13.31492340863332"><ele>502.3333333333333</ele><time>2026-04-11T14:54:15Z</time></trkpt><trkpt lat="41.78344212200396" lon="13.314920179537298"><ele>501.66666666666663</ele><time>2026-04-11T14:54:16Z</time></trkpt><trkpt lat="41.78324646391955" lon="13.314916655027409"><ele>501.0</ele><time>2026-04-11T14:54:17Z</time></trkpt><trkpt lat="41.78304733137214" lon="13.314917425655523"><ele>501.0</ele><time>2026-04-11T14:54:18Z</time></trkpt><trkpt lat="41.78284606998868" lon="13.31491796578961"><ele>501.0</ele><time>2026-04-11T14:54:19Z</time></trkpt><trkpt lat="41.782635939126244" lon="13.314919508539411"><ele>501.0</ele><time>2026-04-11T14:54:20Z</time></trkpt><trkpt lat="41.78242339405162" lon="13.314920293746367"><ele>500.33333333333337</ele><time>2026-04-11T14:54:21Z</time></trkpt><trkpt lat="41.782208944685536" lon="13.314921520636616"><ele>499.6666666666667</ele><time>2026-04-11T14:54:22Z</time></trkpt><trkpt lat="41.782008386928126" lon="13.314917413131429"><ele>499.0</ele><time>2026-04-11T14:54:23Z</time></trkpt><trkpt lat="41.781814902264564" lon="13.314914540396241"><ele>499.0</ele><time>2026-04-11T14:54:24Z</time></trkpt><trkpt lat="41.7816204369311" lon="13.314923841002381"><ele>499.0</ele><time>2026-04-11T14:54:25Z</time></trkpt><trkpt lat="41.78143212708228" lon="13.314967545517948"><ele>499.0</ele><time>2026-04-11T14:54:26Z</time></trkpt><trkpt lat="41.78124757713993" lon="13.315045295107382"><ele>499.0</ele><time>2026-04-11T14:54:27Z</time></trkpt><trkpt lat="41.78107237664499" lon="13.315163024244244"><ele>499.0</ele><time>2026-04-11T14:54:28Z</time></trkpt><trkpt lat="41.78091377116352" lon="13.315311958479127"><ele>499.0</ele><time>2026-04-11T14:54:29Z</time></trkpt><trkpt lat="41.780766654753485" lon="13.315491741226309"><ele>497.0</ele><time>2026-04-11T14:54:30Z</time></trkpt><trkpt lat="41.78063424819029" lon="13.315696098793547"><ele>495.0</ele><time>2026-04-11T14:54:31Z</time></trkpt><trkpt lat="41.78050865109196" lon="13.315913122967462"><ele>493.0</ele><time>2026-04-11T14:54:32Z</time></trkpt><trkpt lat="41.78037954016131" lon="13.316126779006908"><ele>493.0</ele><time>2026-04-11T14:54:33Z</time></trkpt><trkpt lat="41.78024925868529" lon="13.316336570567708"><ele>493.0</ele><time>2026-04-11T14:54:34Z</time></trkpt><trkpt lat="41.780116695342706" lon="13.316548586995882"><ele>493.0</ele><time>2026-04-11T14:54:35Z</time></trkpt><trkpt lat="41.77998447287998" lon="13.316757560793828"><ele>493.0</ele><time>2026-04-11T14:54:36Z</time></trkpt><trkpt lat="41.77985125259843" lon="13.31696392668173"><ele>493.0</ele><time>2026-04-11T14:54:37Z</time></trkpt><trkpt lat="41.77971949549425" lon="13.317175573312598"><ele>493.0</ele><time>2026-04-11T14:54:38Z</time></trkpt><trkpt lat="41.779587943533" lon="13.317387703719842"><ele>493.0</ele><time>2026-04-11T14:54:39Z</time></trkpt><trkpt lat="41.77945576745781" lon="13.317598234751562"><ele>493.0</ele><time>2026-04-11T14:54:40Z</time></trkpt><trkpt lat="41.7793241357569" lon="13.317812661598666"><ele>493.0</ele><time>2026-04-11T14:54:41Z</time></trkpt><trkpt lat="41.779192969696666" lon="13.318018178923316"><ele>493.33333333333337</ele><time>2026-04-11T14:54:42Z</time></trkpt><trkpt lat="41.77905709546761" lon="13.318195664297903"><ele>493.66666666666663</ele><time>2026-04-11T14:54:43Z</time></trkpt><trkpt lat="41.778911818278914" lon="13.31835023461871"><ele>494.0</ele><time>2026-04-11T14:54:44Z</time></trkpt><trkpt lat="41.77876158280654" lon="13.318486611025238"><ele>494.0</ele><time>2026-04-11T14:54:45Z</time></trkpt><trkpt lat="41.778599077887364" lon="13.318581179925593"><ele>494.0</ele><time>2026-04-11T14:54:46Z</time></trkpt><trkpt lat="41.77843743273569" lon="13.318655418000803"><ele>494.0</ele><time>2026-04-11T14:54:47Z</time></trkpt><trkpt lat="41.778290252956296" lon="13.318721219973023"><ele>494.5</ele><time>2026-04-11T14:54:48Z</time></trkpt><trkpt lat="41.77814848615178" lon="13.318782793243495"><ele>495.0</ele><time>2026-04-11T14:54:49Z</time></trkpt><trkpt lat="41.77801731966779" lon="13.318846526690793"><ele>495.5</ele><time>2026-04-11T14:54:50Z</time></trkpt><trkpt lat="41.777890059613526" lon="13.318904181971781"><ele>496.0</ele><time>2026-04-11T14:54:51Z</time></trkpt><trkpt lat="41.77777006745469" lon="13.318960285966641"><ele>494.5</ele><time>2026-04-11T14:54:52Z</time></trkpt><trkpt lat="41.777651930313624" lon="13.319013459053341"><ele>493.0</ele><time>2026-04-11T14:54:53Z</time></trkpt><trkpt lat="41.77754154637927" lon="13.31906490702802"><ele>491.5</ele><time>2026-04-11T14:54:54Z</time></trkpt><trkpt lat="41.77743626983074" lon="13.31910967736768"><ele>490.0</ele><time>2026-04-11T14:54:55Z</time></trkpt><trkpt lat="41.77733305950514" lon="13.319156908237634"><ele>490.0</ele><time>2026-04-11T14:54:56Z</time></trkpt><trkpt lat="41.77721930280281" lon="13.319209650619726"><ele>490.0</ele><time>2026-04-11T14:54:57Z</time></trkpt><trkpt lat="41.77709746046475" lon="13.31926277626073"><ele>490.0</ele><time>2026-04-11T14:54:58Z</time></trkpt><trkpt lat="41.77697602669987" lon="13.319320819076024"><ele>490.0</ele><time>2026-04-11T14:54:59Z</time></trkpt><trkpt lat="41.776857588355774" lon="13.31937710295186"><ele>490.25</ele><time>2026-04-11T14:55:00Z</time></trkpt><trkpt lat="41.77673954943999" lon="13.319433197462786"><ele>490.5</ele><time>2026-04-11T14:55:01Z</time></trkpt><trkpt lat="41.77662125639143" lon="13.319489658734737"><ele>490.75</ele><time>2026-04-11T14:55:02Z</time></trkpt><trkpt lat="41.77650290831399" lon="13.319543506942354"><ele>491.0</ele><time>2026-04-11T14:55:03Z</time></trkpt><trkpt lat="41.77638117082819" lon="13.319586517265607"><ele>491.0</ele><time>2026-04-11T14:55:04Z</time></trkpt><trkpt lat="41.776260938685255" lon="13.319644951819697"><ele>491.0</ele><time>2026-04-11T14:55:05Z</time></trkpt><trkpt lat="41.77613643755778" lon="13.31970300121851"><ele>491.0</ele><time>2026-04-11T14:55:06Z</time></trkpt><trkpt lat="41.77601059667016" lon="13.319763660773834"><ele>491.0</ele><time>2026-04-11T14:55:07Z</time></trkpt><trkpt lat="41.77588331606971" lon="13.319824030735395"><ele>489.25</ele><time>2026-04-11T14:55:08Z</time></trkpt><trkpt lat="41.775754376692866" lon="13.319883444385747"><ele>487.5</ele><time>2026-04-11T14:55:09Z</time></trkpt><trkpt lat="41.77562421744635" lon="13.319946131365748"><ele>485.75</ele><time>2026-04-11T14:55:10Z</time></trkpt><trkpt lat="41.77550165447199" lon="13.320007332942573"><ele>484.0</ele><time>2026-04-11T14:55:11Z</time></trkpt><trkpt lat="41.77538851979814" lon="13.320061582445547"><ele>484.00000000000006</ele><time>2026-04-11T14:55:12Z</time></trkpt><trkpt lat="41.77528451547629" lon="13.320109547213379"><ele>484.0</ele><time>2026-04-11T14:55:13Z</time></trkpt><trkpt lat="41.77518802572931" lon="13.320155948971905"><ele>484.0</ele><time>2026-04-11T14:55:14Z</time></trkpt><trkpt lat="41.77510622061985" lon="13.32019558423581"><ele>484.0</ele><time>2026-04-11T14:55:15Z</time></trkpt><trkpt lat="41.77504067112405" lon="13.320225287388274"><ele>484.00000000000006</ele><time>2026-04-11T14:55:16Z</time></trkpt><trkpt lat="41.77497258325601" lon="13.320254200411641"><ele>484.0</ele><time>2026-04-11T14:55:18Z</time></trkpt><trkpt lat="41.77490095593505" lon="13.320248172494507"><ele>483.79999999999995</ele><time>2026-04-11T14:55:22Z</time></trkpt><trkpt lat="41.77479859949758" lon="13.320262746259228"><ele>483.59999999999997</ele><time>2026-04-11T14:55:24Z</time></trkpt><trkpt lat="41.77471390520346" lon="13.320307795408901"><ele>483.4</ele><time>2026-04-11T14:55:25Z</time></trkpt><trkpt lat="41.77463251508546" lon="13.320360453676077"><ele>483.2</ele><time>2026-04-11T14:55:26Z</time></trkpt><trkpt lat="41.77453950262411" lon="13.320417076372872"><ele>483.0</ele><time>2026-04-11T14:55:27Z</time></trkpt><trkpt lat="41.7744305665404" lon="13.320469802482009"><ele>483.0</ele><time>2026-04-11T14:55:28Z</time></trkpt><trkpt lat="41.774315212337235" lon="13.320514514249556"><ele>483.0</ele><time>2026-04-11T14:55:29Z</time></trkpt><trkpt lat="41.77419028829131" lon="13.320532158698454"><ele>483.0</ele><time>2026-04-11T14:55:30Z</time></trkpt><trkpt lat="41.77406608619752" lon="13.320527318912962"><ele>483.0</ele><time>2026-04-11T14:55:31Z</time></trkpt><trkpt lat="41.77394252496273" lon="13.320509775341955"><ele>483.0</ele><time>2026-04-11T14:55:32Z</time></trkpt><trkpt lat="41.77380834487038" lon="13.320444633300818"><ele>483.0</ele><time>2026-04-11T14:55:33Z</time></trkpt><trkpt lat="41.77369403709255" lon="13.320349432540013"><ele>483.0</ele><time>2026-04-11T14:55:34Z</time></trkpt><trkpt lat="41.77360315197103" lon="13.320231411744"><ele>483.0</ele><time>2026-04-11T14:55:35Z</time></trkpt><trkpt lat="41.77352303085778" lon="13.320122960988881"><ele>482.5</ele><time>2026-04-11T14:55:36Z</time></trkpt><trkpt lat="41.773436011871794" lon="13.32000717758751"><ele>482.0</ele><time>2026-04-11T14:55:37Z</time></trkpt><trkpt lat="41.7733378065385" lon="13.31988280086592"><ele>481.5</ele><time>2026-04-11T14:55:38Z</time></trkpt><trkpt lat="41.77323324574221" lon="13.319750526598632"><ele>481.0</ele><time>2026-04-11T14:55:39Z</time></trkpt><trkpt lat="41.773118910478296" lon="13.319627530529667"><ele>481.0</ele><time>2026-04-11T14:55:40Z</time></trkpt><trkpt lat="41.772993672848564" lon="13.319470918994744"><ele>481.0</ele><time>2026-04-11T14:55:41Z</time></trkpt><trkpt lat="41.77287107652418" lon="13.319301580743529"><ele>481.0</ele><time>2026-04-11T14:55:42Z</time></trkpt><trkpt lat="41.77274429133883" lon="13.319126042787063"><ele>480.0</ele><time>2026-04-11T14:55:43Z</time></trkpt><trkpt lat="41.772613541006145" lon="13.31896315875156"><ele>479.0</ele><time>2026-04-11T14:55:44Z</time></trkpt><trkpt lat="41.77248701937761" lon="13.318797064128733"><ele>478.0</ele><time>2026-04-11T14:55:45Z</time></trkpt><trkpt lat="41.772354706501126" lon="13.318644256637667"><ele>478.0</ele><time>2026-04-11T14:55:46Z</time></trkpt><trkpt lat="41.77222183395569" lon="13.318509354515177"><ele>478.0</ele><time>2026-04-11T14:55:47Z</time></trkpt><trkpt lat="41.77207984178469" lon="13.31837921338527"><ele>478.0</ele><time>2026-04-11T14:55:48Z</time></trkpt><trkpt lat="41.77192027905647" lon="13.318283588503869"><ele>476.6666666666667</ele><time>2026-04-11T14:55:49Z</time></trkpt><trkpt lat="41.771743955338245" lon="13.318229571506388"><ele>475.33333333333337</ele><time>2026-04-11T14:55:50Z</time></trkpt><trkpt lat="41.77154615903199" lon="13.31819574838735"><ele>474.0</ele><time>2026-04-11T14:55:51Z</time></trkpt><trkpt lat="41.77137043763944" lon="13.318130826111073"><ele>474.0</ele><time>2026-04-11T14:55:52Z</time></trkpt><trkpt lat="41.77115182901415" lon="13.318154108010868"><ele>474.0</ele><time>2026-04-11T14:55:53Z</time></trkpt><trkpt lat="41.77093981202257" lon="13.318213968487647"><ele>474.0</ele><time>2026-04-11T14:55:54Z</time></trkpt><trkpt lat="41.77072693997639" lon="13.318321164671232"><ele>472.0</ele><time>2026-04-11T14:55:55Z</time></trkpt><trkpt lat="41.770518818966245" lon="13.318477820220805"><ele>470.0</ele><time>2026-04-11T14:55:56Z</time></trkpt><trkpt lat="41.77030093439841" lon="13.318626568894457"><ele>469.5</ele><time>2026-04-11T14:55:57Z</time></trkpt><trkpt lat="41.77009159133295" lon="13.318764459928445"><ele>469.0</ele><time>2026-04-11T14:55:58Z</time></trkpt><trkpt lat="41.76987942428439" lon="13.318893390170036"><ele>466.5</ele><time>2026-04-11T14:55:59Z</time></trkpt><trkpt lat="41.76967084476011" lon="13.319019837645266"><ele>464.0</ele><time>2026-04-11T14:56:00Z</time></trkpt><trkpt lat="41.76946279378072" lon="13.319145947236846"><ele>464.0</ele><time>2026-04-11T14:56:01Z</time></trkpt><trkpt lat="41.76924939987167" lon="13.319268253605822"><ele>464.0</ele><time>2026-04-11T14:56:02Z</time></trkpt><trkpt lat="41.76904049320352" lon="13.3193944606296"><ele>464.0</ele><time>2026-04-11T14:56:03Z</time></trkpt><trkpt lat="41.768829216325166" lon="13.319518949798162"><ele>464.0</ele><time>2026-04-11T14:56:04Z</time></trkpt><trkpt lat="41.768609814395745" lon="13.319641748551485"><ele>461.0</ele><time>2026-04-11T14:56:05Z</time></trkpt><trkpt lat="41.76839429986379" lon="13.319771022272773"><ele>458.0</ele><time>2026-04-11T14:56:06Z</time></trkpt><trkpt lat="41.76818928675004" lon="13.319885451764147"><ele>458.0</ele><time>2026-04-11T14:56:07Z</time></trkpt><trkpt lat="41.767997724979566" lon="13.319991391752055"><ele>458.0</ele><time>2026-04-11T14:56:08Z</time></trkpt><trkpt lat="41.76780868216783" lon="13.320095936661934"><ele>458.0</ele><time>2026-04-11T14:56:09Z</time></trkpt><trkpt lat="41.767612352161585" lon="13.32017356694813"><ele>457.66666666666663</ele><time>2026-04-11T14:56:10Z</time></trkpt><trkpt lat="41.76740353053341" lon="13.320209432710282"><ele>457.33333333333337</ele><time>2026-04-11T14:56:11Z</time></trkpt><trkpt lat="41.76718923601918" lon="13.320203469621"><ele>457.0</ele><time>2026-04-11T14:56:12Z</time></trkpt><trkpt lat="41.766976486554064" lon="13.320136398626934"><ele>455.33333333333337</ele><time>2026-04-11T14:56:13Z</time></trkpt><trkpt lat="41.766753965803495" lon="13.320073931095283"><ele>453.66666666666663</ele><time>2026-04-11T14:56:14Z</time></trkpt><trkpt lat="41.766553484707856" lon="13.319966622867215"><ele>452.0</ele><time>2026-04-11T14:56:15Z</time></trkpt><trkpt lat="41.76634599628472" lon="13.319860950671465"><ele>452.0</ele><time>2026-04-11T14:56:16Z</time></trkpt><trkpt lat="41.76612916811003" lon="13.319773103548386"><ele>452.0</ele><time>2026-04-11T14:56:17Z</time></trkpt><trkpt lat="41.765909791093385" lon="13.319729631936335"><ele>452.0</ele><time>2026-04-11T14:56:18Z</time></trkpt><trkpt lat="41.76569942680878" lon="13.319708084439803"><ele>453.66666666666663</ele><time>2026-04-11T14:56:19Z</time></trkpt><trkpt lat="41.7654999110554" lon="13.319698348021127"><ele>455.33333333333337</ele><time>2026-04-11T14:56:20Z</time></trkpt><trkpt lat="41.76531351356839" lon="13.319693857652979"><ele>457.0</ele><time>2026-04-11T14:56:21Z</time></trkpt><trkpt lat="41.76512832630402" lon="13.319697285517032"><ele>453.6666666666667</ele><time>2026-04-11T14:56:22Z</time></trkpt><trkpt lat="41.76492974136594" lon="13.319726357335721"><ele>450.33333333333337</ele><time>2026-04-11T14:56:23Z</time></trkpt><trkpt lat="41.76471768314599" lon="13.319787518287221"><ele>447.0</ele><time>2026-04-11T14:56:24Z</time></trkpt><trkpt lat="41.76449541433525" lon="13.319859494782655"><ele>444.66666666666663</ele><time>2026-04-11T14:56:25Z</time></trkpt><trkpt lat="41.76428281229772" lon="13.319962849137385"><ele>442.3333333333333</ele><time>2026-04-11T14:56:26Z</time></trkpt><trkpt lat="41.76408215147727" lon="13.320046978664369"><ele>440.0</ele><time>2026-04-11T14:56:27Z</time></trkpt><trkpt lat="41.763897666969875" lon="13.320139354819721"><ele>440.0</ele><time>2026-04-11T14:56:28Z</time></trkpt><trkpt lat="41.76372560483219" lon="13.32023939012977"><ele>440.0</ele><time>2026-04-11T14:56:29Z</time></trkpt><trkpt lat="41.76356099173732" lon="13.32033759957766"><ele>440.0</ele><time>2026-04-11T14:56:30Z</time></trkpt><trkpt lat="41.7634023135337" lon="13.320431046852878"><ele>440.66666666666663</ele><time>2026-04-11T14:56:31Z</time></trkpt><trkpt lat="41.76324624533383" lon="13.320516706062456"><ele>441.33333333333337</ele><time>2026-04-11T14:56:32Z</time></trkpt><trkpt lat="41.76309135726805" lon="13.32060287401558"><ele>442.0</ele><time>2026-04-11T14:56:33Z</time></trkpt><trkpt lat="41.762935064377025" lon="13.32069593738607"><ele>440.0</ele><time>2026-04-11T14:56:34Z</time></trkpt><trkpt lat="41.76277820625687" lon="13.320790860560562"><ele>438.0</ele><time>2026-04-11T14:56:35Z</time></trkpt><trkpt lat="41.76262093337081" lon="13.320884073478819"><ele>436.0</ele><time>2026-04-11T14:56:36Z</time></trkpt><trkpt lat="41.7624642359917" lon="13.320977681962377"><ele>435.6666666666667</ele><time>2026-04-11T14:56:37Z</time></trkpt><trkpt lat="41.76230194856238" lon="13.32106377342147"><ele>435.33333333333337</ele><time>2026-04-11T14:56:38Z</time></trkpt><trkpt lat="41.76212690985076" lon="13.32113392138346"><ele>435.0</ele><time>2026-04-11T14:56:39Z</time></trkpt><trkpt lat="41.76194133094716" lon="13.32119033879721"><ele>434.0</ele><time>2026-04-11T14:56:40Z</time></trkpt><trkpt lat="41.761751102367725" lon="13.321245579734176"><ele>433.0</ele><time>2026-04-11T14:56:41Z</time></trkpt><trkpt lat="41.7615554414356" lon="13.321316221867013"><ele>432.0</ele><time>2026-04-11T14:56:42Z</time></trkpt><trkpt lat="41.7613390562565" lon="13.321396343504471"><ele>430.5</ele><time>2026-04-11T14:56:43Z</time></trkpt><trkpt lat="41.76109875860945" lon="13.32146561110959"><ele>429.0</ele><time>2026-04-11T14:56:44Z</time></trkpt><trkpt lat="41.76087722943817" lon="13.321523993017813"><ele>429.0</ele><time>2026-04-11T14:56:45Z</time></trkpt><trkpt lat="41.760683129451756" lon="13.321588361668073"><ele>429.0</ele><time>2026-04-11T14:56:46Z</time></trkpt><trkpt lat="41.76052430166799" lon="13.32164392218114"><ele>429.0</ele><time>2026-04-11T14:56:47Z</time></trkpt><trkpt lat="41.76037771820963" lon="13.321695832660696"><ele>429.0</ele><time>2026-04-11T14:56:48Z</time></trkpt><trkpt lat="41.76024111501525" lon="13.321741176749242"><ele>429.0</ele><time>2026-04-11T14:56:49Z</time></trkpt><trkpt lat="41.76010564428264" lon="13.3217825684385"><ele>429.0</ele><time>2026-04-11T14:56:50Z</time></trkpt><trkpt lat="41.75996307144777" lon="13.32182542285714"><ele>429.0</ele><time>2026-04-11T14:56:51Z</time></trkpt><trkpt lat="41.759791178093664" lon="13.321890740416196"><ele>430.33333333333337</ele><time>2026-04-11T14:56:52Z</time></trkpt><trkpt lat="41.759604980087175" lon="13.321966261879972"><ele>431.6666666666667</ele><time>2026-04-11T14:56:53Z</time></trkpt><trkpt lat="41.759407383376015" lon="13.322033353713206"><ele>433.0</ele><time>2026-04-11T14:56:54Z</time></trkpt><trkpt lat="41.75920342788674" lon="13.322107288972687"><ele>433.6666666666667</ele><time>2026-04-11T14:56:55Z</time></trkpt><trkpt lat="41.75900162622213" lon="13.322193428436636"><ele>434.33333333333337</ele><time>2026-04-11T14:56:56Z</time></trkpt><trkpt lat="41.75879585744626" lon="13.322282575758974"><ele>435.0</ele><time>2026-04-11T14:56:57Z</time></trkpt><trkpt lat="41.75859888342468" lon="13.322366368450046"><ele>432.0</ele><time>2026-04-11T14:56:58Z</time></trkpt><trkpt lat="41.75842586935362" lon="13.322443062424462"><ele>429.0</ele><time>2026-04-11T14:56:59Z</time></trkpt><trkpt lat="41.75826189893321" lon="13.322516399559772"><ele>426.0</ele><time>2026-04-11T14:57:00Z</time></trkpt><trkpt lat="41.758107664048055" lon="13.32259073098402"><ele>426.0</ele><time>2026-04-11T14:57:01Z</time></trkpt><trkpt lat="41.757956760392474" lon="13.322673834454745"><ele>426.0</ele><time>2026-04-11T14:57:02Z</time></trkpt><trkpt lat="41.75780803033777" lon="13.322776282871642"><ele>426.0</ele><time>2026-04-11T14:57:03Z</time></trkpt><trkpt lat="41.7576775419914" lon="13.3228975189925"><ele>426.5</ele><time>2026-04-11T14:57:04Z</time></trkpt><trkpt lat="41.757565782497686" lon="13.323017118142236"><ele>427.0</ele><time>2026-04-11T14:57:05Z</time></trkpt><trkpt lat="41.757463890625985" lon="13.323144530470106"><ele>427.5</ele><time>2026-04-11T14:57:06Z</time></trkpt><trkpt lat="41.75737295212371" lon="13.32328516894505"><ele>428.0</ele><time>2026-04-11T14:57:07Z</time></trkpt><trkpt lat="41.75728477921744" lon="13.32343485866399"><ele>427.0</ele><time>2026-04-11T14:57:08Z</time></trkpt><trkpt lat="41.75720874363223" lon="13.323574313395227"><ele>426.0</ele><time>2026-04-11T14:57:09Z</time></trkpt><trkpt lat="41.75714452875143" lon="13.323700775061337"><ele>425.0</ele><time>2026-04-11T14:57:10Z</time></trkpt><trkpt lat="41.75707972023506" lon="13.32381830939637"><ele>424.0</ele><time>2026-04-11T14:57:11Z</time></trkpt><trkpt lat="41.7569982991367" lon="13.323958880141335"><ele>425.0</ele><time>2026-04-11T14:57:12Z</time></trkpt><trkpt lat="41.7569176263746" lon="13.324136956762535"><ele>426.0</ele><time>2026-04-11T14:57:13Z</time></trkpt><trkpt lat="41.75682447838878" lon="13.324336116842419"><ele>427.0</ele><time>2026-04-11T14:57:14Z</time></trkpt><trkpt lat="41.75671708334409" lon="13.324544061961895"><ele>425.6666666666667</ele><time>2026-04-11T14:57:15Z</time></trkpt><trkpt lat="41.75659613290557" lon="13.324761335276547"><ele>424.33333333333337</ele><time>2026-04-11T14:57:16Z</time></trkpt><trkpt lat="41.7564660514385" lon="13.324994670839864"><ele>423.0</ele><time>2026-04-11T14:57:17Z</time></trkpt><trkpt lat="41.75632943470505" lon="13.325249393499218"><ele>423.0</ele><time>2026-04-11T14:57:18Z</time></trkpt><trkpt lat="41.75618085511726" lon="13.325528760638848"><ele>423.0</ele><time>2026-04-11T14:57:19Z</time></trkpt><trkpt lat="41.75601314336692" lon="13.325835887774934"><ele>424.5</ele><time>2026-04-11T14:57:20Z</time></trkpt><trkpt lat="41.755832763349474" lon="13.326164668926063"><ele>426.0</ele><time>2026-04-11T14:57:21Z</time></trkpt><trkpt lat="41.75565303585901" lon="13.326497844551675"><ele>422.5</ele><time>2026-04-11T14:57:22Z</time></trkpt><trkpt lat="41.75547119730761" lon="13.326831599401176"><ele>419.0</ele><time>2026-04-11T14:57:23Z</time></trkpt><trkpt lat="41.755307680988906" lon="13.327130056738246"><ele>423.0</ele><time>2026-04-11T14:57:24Z</time></trkpt><trkpt lat="41.755158352713686" lon="13.32740533427726"><ele>427.0</ele><time>2026-04-11T14:57:25Z</time></trkpt><trkpt lat="41.75502001088294" lon="13.327662309326191"><ele>427.0</ele><time>2026-04-11T14:57:26Z</time></trkpt><trkpt lat="41.75488903229056" lon="13.327906073594045"><ele>427.0</ele><time>2026-04-11T14:57:27Z</time></trkpt><trkpt lat="41.754766899471974" lon="13.328135096879901"><ele>427.0</ele><time>2026-04-11T14:57:28Z</time></trkpt><trkpt lat="41.754651398016144" lon="13.328351212055233"><ele>426.33333333333337</ele><time>2026-04-11T14:57:29Z</time></trkpt><trkpt lat="41.75454433368143" lon="13.328551721561308"><ele>425.66666666666663</ele><time>2026-04-11T14:57:30Z</time></trkpt><trkpt lat="41.75444568226462" lon="13.328736864038499"><ele>425.0</ele><time>2026-04-11T14:57:31Z</time></trkpt><trkpt lat="41.75435573885725" lon="13.328912796893471"><ele>425.0</ele><time>2026-04-11T14:57:32Z</time></trkpt><trkpt lat="41.75425396767947" lon="13.32910717961342"><ele>425.0</ele><time>2026-04-11T14:57:33Z</time></trkpt><trkpt lat="41.75412114962491" lon="13.329326053186103"><ele>425.0</ele><time>2026-04-11T14:57:34Z</time></trkpt><trkpt lat="41.753980126135396" lon="13.329536169968204"><ele>425.0</ele><time>2026-04-11T14:57:35Z</time></trkpt><trkpt lat="41.75385450192572" lon="13.32971063404062"><ele>425.0</ele><time>2026-04-11T14:57:36Z</time></trkpt><trkpt lat="41.753749792336876" lon="13.329862468926498"><ele>425.0</ele><time>2026-04-11T14:57:37Z</time></trkpt><trkpt lat="41.75365035856215" lon="13.329998605025464"><ele>423.66666666666663</ele><time>2026-04-11T14:57:38Z</time></trkpt><trkpt lat="41.75353857695929" lon="13.330107830715306"><ele>422.33333333333337</ele><time>2026-04-11T14:57:39Z</time></trkpt><trkpt lat="41.75338749601615" lon="13.330180124249884"><ele>421.0</ele><time>2026-04-11T14:57:40Z</time></trkpt><trkpt lat="41.753220025972844" lon="13.330174743256322"><ele>421.0</ele><time>2026-04-11T14:57:41Z</time></trkpt><trkpt lat="41.753043187865984" lon="13.330158013604516"><ele>421.0</ele><time>2026-04-11T14:57:42Z</time></trkpt><trkpt lat="41.75287373262782" lon="13.330093183536007"><ele>421.0</ele><time>2026-04-11T14:57:43Z</time></trkpt><trkpt lat="41.75270613072288" lon="13.33005870703085"><ele>418.6666666666667</ele><time>2026-04-11T14:57:44Z</time></trkpt><trkpt lat="41.752551451744104" lon="13.330057800690131"><ele>416.33333333333337</ele><time>2026-04-11T14:57:45Z</time></trkpt><trkpt lat="41.7524027679659" lon="13.330079396271234"><ele>414.0</ele><time>2026-04-11T14:57:46Z</time></trkpt><trkpt lat="41.75224435137916" lon="13.33012958294923"><ele>414.0</ele><time>2026-04-11T14:57:47Z</time></trkpt><trkpt lat="41.75208020119447" lon="13.330195144103007"><ele>414.0</ele><time>2026-04-11T14:57:48Z</time></trkpt><trkpt lat="41.75191485157367" lon="13.330283035939972"><ele>414.0</ele><time>2026-04-11T14:57:49Z</time></trkpt><trkpt lat="41.751754028551446" lon="13.330384893442476"><ele>415.66666666666663</ele><time>2026-04-11T14:57:50Z</time></trkpt><trkpt lat="41.75159712519161" lon="13.330490923295212"><ele>417.3333333333333</ele><time>2026-04-11T14:57:51Z</time></trkpt><trkpt lat="41.75144276184916" lon="13.330592675926821"><ele>419.0</ele><time>2026-04-11T14:57:52Z</time></trkpt><trkpt lat="41.75128526306973" lon="13.330699516322316"><ele>418.66666666666663</ele><time>2026-04-11T14:57:53Z</time></trkpt><trkpt lat="41.751128088656515" lon="13.330814357854717"><ele>418.33333333333337</ele><time>2026-04-11T14:57:54Z</time></trkpt><trkpt lat="41.750966361296456" lon="13.330927669695138"><ele>418.0</ele><time>2026-04-11T14:57:55Z</time></trkpt><trkpt lat="41.750808017264475" lon="13.331037928708207"><ele>418.0</ele><time>2026-04-11T14:57:56Z</time></trkpt><trkpt lat="41.7506568926191" lon="13.331124416359577"><ele>418.0</ele><time>2026-04-11T14:57:57Z</time></trkpt><trkpt lat="41.750495097812845" lon="13.331180945091766"><ele>418.0</ele><time>2026-04-11T14:57:58Z</time></trkpt><trkpt lat="41.75032779795818" lon="13.331209810312938"><ele>418.6666666666667</ele><time>2026-04-11T14:57:59Z</time></trkpt><trkpt lat="41.75016368786768" lon="13.331214174768169"><ele>419.33333333333337</ele><time>2026-04-11T14:58:00Z</time></trkpt><trkpt lat="41.75000556938223" lon="13.331247382280608"><ele>420.0</ele><time>2026-04-11T14:58:01Z</time></trkpt><trkpt lat="41.749848377749636" lon="13.331309365487964"><ele>420.0</ele><time>2026-04-11T14:58:02Z</time></trkpt><trkpt lat="41.749694616279065" lon="13.331385069218797"><ele>420.0</ele><time>2026-04-11T14:58:03Z</time></trkpt><trkpt lat="41.74962035728494" lon="13.331628056409949"><ele>420.0</ele><time>2026-04-11T14:58:04Z</time></trkpt><trkpt lat="41.749533981511654" lon="13.33181705471913"><ele>413.66666666666663</ele><time>2026-04-11T14:58:05Z</time></trkpt><trkpt lat="41.749475935770775" lon="13.3320343816252"><ele>407.3333333333333</ele><time>2026-04-11T14:58:06Z</time></trkpt><trkpt lat="41.74942884127721" lon="13.332291917302314"><ele>401.0</ele><time>2026-04-11T14:58:07Z</time></trkpt><trkpt lat="41.74936209154189" lon="13.33253985442028"><ele>399.0</ele><time>2026-04-11T14:58:08Z</time></trkpt><trkpt lat="41.74929927167001" lon="13.33280215394378"><ele>397.0</ele><time>2026-04-11T14:58:09Z</time></trkpt><trkpt lat="41.749234662489094" lon="13.333068450233622"><ele>395.0</ele><time>2026-04-11T14:58:10Z</time></trkpt><trkpt lat="41.749167806004095" lon="13.333342987065587"><ele>394.0</ele><time>2026-04-11T14:58:11Z</time></trkpt><trkpt lat="41.74909811720503" lon="13.333603972419477"><ele>393.0</ele><time>2026-04-11T14:58:12Z</time></trkpt><trkpt lat="41.74901656330965" lon="13.333866891277468"><ele>392.0</ele><time>2026-04-11T14:58:13Z</time></trkpt><trkpt lat="41.74892809328237" lon="13.334118137412757"><ele>391.66666666666663</ele><time>2026-04-11T14:58:14Z</time></trkpt><trkpt lat="41.74883065625091" lon="13.334357648846046"><ele>391.33333333333337</ele><time>2026-04-11T14:58:15Z</time></trkpt><trkpt lat="41.748734930262586" lon="13.334584109765588"><ele>391.0</ele><time>2026-04-11T14:58:16Z</time></trkpt><trkpt lat="41.7486205243823" lon="13.334806800797697"><ele>389.0</ele><time>2026-04-11T14:58:17Z</time></trkpt><trkpt lat="41.74849828507852" lon="13.335021346590086"><ele>387.0</ele><time>2026-04-11T14:58:18Z</time></trkpt><trkpt lat="41.74837237563546" lon="13.335214443286493"><ele>385.0</ele><time>2026-04-11T14:58:19Z</time></trkpt><trkpt lat="41.74824671505621" lon="13.335399043270712"><ele>384.6666666666667</ele><time>2026-04-11T14:58:20Z</time></trkpt><trkpt lat="41.74814631035287" lon="13.335560037009795"><ele>384.33333333333337</ele><time>2026-04-11T14:58:21Z</time></trkpt><trkpt lat="41.74804067063486" lon="13.33573706578764"><ele>384.0</ele><time>2026-04-11T14:58:22Z</time></trkpt><trkpt lat="41.7479265932062" lon="13.335897037031387"><ele>384.0</ele><time>2026-04-11T14:58:23Z</time></trkpt><trkpt lat="41.747826038509466" lon="13.33604319984406"><ele>384.0</ele><time>2026-04-11T14:58:24Z</time></trkpt><trkpt lat="41.74770848582294" lon="13.336207232082264"><ele>384.0</ele><time>2026-04-11T14:58:25Z</time></trkpt><trkpt lat="41.747589568397245" lon="13.33638537360204"><ele>383.0</ele><time>2026-04-11T14:58:26Z</time></trkpt><trkpt lat="41.74747777414577" lon="13.336547603428498"><ele>382.0</ele><time>2026-04-11T14:58:27Z</time></trkpt><trkpt lat="41.747371948213605" lon="13.336700409704672"><ele>381.0</ele><time>2026-04-11T14:58:28Z</time></trkpt><trkpt lat="41.74727749619285" lon="13.336839530865156"><ele>381.0</ele><time>2026-04-11T14:58:29Z</time></trkpt><trkpt lat="41.747184732083994" lon="13.336974792225492"><ele>381.0</ele><time>2026-04-11T14:58:30Z</time></trkpt><trkpt lat="41.74708862486595" lon="13.33711662429506"><ele>381.0</ele><time>2026-04-11T14:58:31Z</time></trkpt><trkpt lat="41.746987586273804" lon="13.337259972364002"><ele>381.0</ele><time>2026-04-11T14:58:32Z</time></trkpt><trkpt lat="41.746884977533476" lon="13.3374068940194"><ele>379.0</ele><time>2026-04-11T14:58:33Z</time></trkpt><trkpt lat="41.74678222397484" lon="13.337556351520275"><ele>377.0</ele><time>2026-04-11T14:58:34Z</time></trkpt><trkpt lat="41.746673775567764" lon="13.337709632812073"><ele>375.0</ele><time>2026-04-11T14:58:35Z</time></trkpt><trkpt lat="41.7465643274108" lon="13.337866871018472"><ele>375.0</ele><time>2026-04-11T14:58:36Z</time></trkpt><trkpt lat="41.74644388877289" lon="13.338009874482143"><ele>375.0</ele><time>2026-04-11T14:58:37Z</time></trkpt><trkpt lat="41.74632279056165" lon="13.338129184703808"><ele>375.0</ele><time>2026-04-11T14:58:38Z</time></trkpt><trkpt lat="41.746202974099674" lon="13.338217802712117"><ele>375.0</ele><time>2026-04-11T14:58:39Z</time></trkpt><trkpt lat="41.74608350436635" lon="13.338293318366"><ele>374.5</ele><time>2026-04-11T14:58:40Z</time></trkpt><trkpt lat="41.74596649261355" lon="13.338360329873053"><ele>374.0</ele><time>2026-04-11T14:58:41Z</time></trkpt><trkpt lat="41.74584055284322" lon="13.338423443304892"><ele>373.5</ele><time>2026-04-11T14:58:42Z</time></trkpt><trkpt lat="41.745706451033115" lon="13.338479287329818"><ele>373.0</ele><time>2026-04-11T14:58:43Z</time></trkpt><trkpt lat="41.74557441115036" lon="13.338520391999921"><ele>373.0</ele><time>2026-04-11T14:58:44Z</time></trkpt><trkpt lat="41.745445190043036" lon="13.338543550631107"><ele>373.0</ele><time>2026-04-11T14:58:45Z</time></trkpt><trkpt lat="41.745310451573175" lon="13.338550650433174"><ele>373.0</ele><time>2026-04-11T14:58:46Z</time></trkpt><trkpt lat="41.745170602112154" lon="13.338535186041668"><ele>373.0</ele><time>2026-04-11T14:58:47Z</time></trkpt><trkpt lat="41.745021566817975" lon="13.338495414229515"><ele>375.0</ele><time>2026-04-11T14:58:48Z</time></trkpt><trkpt lat="41.74485772247469" lon="13.338450396406907"><ele>377.0</ele><time>2026-04-11T14:58:49Z</time></trkpt><trkpt lat="41.74468427783909" lon="13.338413298275782"><ele>379.0</ele><time>2026-04-11T14:58:50Z</time></trkpt><trkpt lat="41.74449377063684" lon="13.338359940519046"><ele>381.0</ele><time>2026-04-11T14:58:51Z</time></trkpt><trkpt lat="41.7442753261243" lon="13.33830210497256"><ele>383.0</ele><time>2026-04-11T14:58:52Z</time></trkpt><trkpt lat="41.744034875662194" lon="13.338223046149508"><ele>383.0</ele><time>2026-04-11T14:58:53Z</time></trkpt><trkpt lat="41.74380300094189" lon="13.338156477960803"><ele>383.0</ele><time>2026-04-11T14:58:54Z</time></trkpt><trkpt lat="41.743602594670115" lon="13.338103824409272"><ele>383.0</ele><time>2026-04-11T14:58:55Z</time></trkpt><trkpt lat="41.74341749357689" lon="13.338054750549047"><ele>384.6666666666667</ele><time>2026-04-11T14:58:56Z</time></trkpt><trkpt lat="41.74323839344746" lon="13.33802079148504"><ele>386.33333333333337</ele><time>2026-04-11T14:58:57Z</time></trkpt><trkpt lat="41.743068841426684" lon="13.338017260920461"><ele>388.0</ele><time>2026-04-11T14:58:58Z</time></trkpt><trkpt lat="41.74289810670106" lon="13.338038670960415"><ele>387.6666666666667</ele><time>2026-04-11T14:58:59Z</time></trkpt><trkpt lat="41.742738710017534" lon="13.33811814831624"><ele>387.33333333333337</ele><time>2026-04-11T14:59:00Z</time></trkpt><trkpt lat="41.7425995424623" lon="13.33823856148497"><ele>387.0</ele><time>2026-04-11T14:59:01Z</time></trkpt><trkpt lat="41.74248303151053" lon="13.33838497992681"><ele>387.0</ele><time>2026-04-11T14:59:02Z</time></trkpt><trkpt lat="41.742394570286045" lon="13.338557102186911"><ele>387.0</ele><time>2026-04-11T14:59:03Z</time></trkpt><trkpt lat="41.74232993029034" lon="13.338731419208331"><ele>387.0</ele><time>2026-04-11T14:59:04Z</time></trkpt><trkpt lat="41.74227239861171" lon="13.338887968504613"><ele>387.0</ele><time>2026-04-11T14:59:05Z</time></trkpt><trkpt lat="41.74221124746579" lon="13.33904367558057"><ele>388.0</ele><time>2026-04-11T14:59:06Z</time></trkpt><trkpt lat="41.74214807415373" lon="13.339205140284655"><ele>389.0</ele><time>2026-04-11T14:59:07Z</time></trkpt><trkpt lat="41.74208158296375" lon="13.33936667402083"><ele>390.0</ele><time>2026-04-11T14:59:08Z</time></trkpt><trkpt lat="41.74201334365622" lon="13.33953082698598"><ele>391.0</ele><time>2026-04-11T14:59:09Z</time></trkpt><trkpt lat="41.7419552449677" lon="13.339677136065564"><ele>390.8</ele><time>2026-04-11T14:59:10Z</time></trkpt><trkpt lat="41.741905149236885" lon="13.339807095314637"><ele>390.6</ele><time>2026-04-11T14:59:11Z</time></trkpt><trkpt lat="41.74186116354594" lon="13.339926356884105"><ele>390.4</ele><time>2026-04-11T14:59:12Z</time></trkpt><trkpt lat="41.74181913912494" lon="13.340038230159482"><ele>390.2</ele><time>2026-04-11T14:59:13Z</time></trkpt><trkpt lat="41.741779328748855" lon="13.340160262651171"><ele>390.0</ele><time>2026-04-11T14:59:14Z</time></trkpt><trkpt lat="41.74173813720902" lon="13.34031037515508"><ele>390.0</ele><time>2026-04-11T14:59:15Z</time></trkpt><trkpt lat="41.7417133760113" lon="13.34049683891815"><ele>390.0</ele><time>2026-04-11T14:59:16Z</time></trkpt><trkpt lat="41.741701818793366" lon="13.340703786204115"><ele>390.0</ele><time>2026-04-11T14:59:17Z</time></trkpt><trkpt lat="41.74168223046092" lon="13.340929541669027"><ele>390.0</ele><time>2026-04-11T14:59:18Z</time></trkpt><trkpt lat="41.74168815946459" lon="13.341169888948569"><ele>390.0</ele><time>2026-04-11T14:59:19Z</time></trkpt><trkpt lat="41.74173300457356" lon="13.341418283423248"><ele>390.0</ele><time>2026-04-11T14:59:20Z</time></trkpt><trkpt lat="41.74174917318954" lon="13.341676819664436"><ele>390.0</ele><time>2026-04-11T14:59:21Z</time></trkpt><trkpt lat="41.7417625907961" lon="13.34194553062033"><ele>390.0</ele><time>2026-04-11T14:59:22Z</time></trkpt><trkpt lat="41.741766472356986" lon="13.342183707840913"><ele>390.0</ele><time>2026-04-11T14:59:23Z</time></trkpt><trkpt lat="41.741714898786114" lon="13.342380608958262"><ele>391.0</ele><time>2026-04-11T14:59:24Z</time></trkpt><trkpt lat="41.74167559141591" lon="13.3425609226654"><ele>392.0</ele><time>2026-04-11T14:59:25Z</time></trkpt><trkpt lat="41.74161358746306" lon="13.34273630707839"><ele>393.0</ele><time>2026-04-11T14:59:26Z</time></trkpt><trkpt lat="41.741540402712616" lon="13.342900727168828"><ele>394.0</ele><time>2026-04-11T14:59:27Z</time></trkpt><trkpt lat="41.741439288286074" lon="13.343012728235214"><ele>394.75</ele><time>2026-04-11T14:59:28Z</time></trkpt><trkpt lat="41.741336082285585" lon="13.343105387853347"><ele>395.5</ele><time>2026-04-11T14:59:29Z</time></trkpt><trkpt lat="41.74122500498985" lon="13.343170658527402"><ele>396.25</ele><time>2026-04-11T14:59:30Z</time></trkpt><trkpt lat="41.74110466633737" lon="13.343219865038897"><ele>397.0</ele><time>2026-04-11T14:59:31Z</time></trkpt><trkpt lat="41.740984854301544" lon="13.34327252378812"><ele>397.0</ele><time>2026-04-11T14:59:32Z</time></trkpt><trkpt lat="41.74086833807028" lon="13.343316182773696"><ele>397.0</ele><time>2026-04-11T14:59:33Z</time></trkpt><trkpt lat="41.74075005436565" lon="13.343354203993949"><ele>397.0</ele><time>2026-04-11T14:59:34Z</time></trkpt><trkpt lat="41.74063460931822" lon="13.34338981496189"><ele>397.0</ele><time>2026-04-11T14:59:35Z</time></trkpt><trkpt lat="41.74051625877512" lon="13.343432735582022"><ele>397.0</ele><time>2026-04-11T14:59:36Z</time></trkpt><trkpt lat="41.740384599938494" lon="13.343483217155255"><ele>397.0</ele><time>2026-04-11T14:59:37Z</time></trkpt><trkpt lat="41.74023696512581" lon="13.343535458074726"><ele>397.0</ele><time>2026-04-11T14:59:38Z</time></trkpt><trkpt lat="41.74008327233264" lon="13.343587421573064"><ele>397.0</ele><time>2026-04-11T14:59:39Z</time></trkpt><trkpt lat="41.73992916821668" lon="13.343643335153745"><ele>397.0</ele><time>2026-04-11T14:59:40Z</time></trkpt><trkpt lat="41.739773341031565" lon="13.3437091898837"><ele>397.0</ele><time>2026-04-11T14:59:41Z</time></trkpt><trkpt lat="41.73960573068461" lon="13.343787045978086"><ele>397.0</ele><time>2026-04-11T14:59:42Z</time></trkpt><trkpt lat="41.739422350325995" lon="13.34386234433949"><ele>401.0</ele><time>2026-04-11T14:59:43Z</time></trkpt><trkpt lat="41.73922690416184" lon="13.3439347098714"><ele>405.0</ele><time>2026-04-11T14:59:44Z</time></trkpt><trkpt lat="41.73893939041251" lon="13.344004913152453"><ele>405.0</ele><time>2026-04-11T14:59:45Z</time></trkpt><trkpt lat="41.73867682225457" lon="13.34407654337627"><ele>405.0</ele><time>2026-04-11T14:59:46Z</time></trkpt><trkpt lat="41.7384179454482" lon="13.344168799655716"><ele>406.5</ele><time>2026-04-11T14:59:47Z</time></trkpt><trkpt lat="41.73819316644167" lon="13.34425154020294"><ele>408.0</ele><time>2026-04-11T14:59:48Z</time></trkpt><trkpt lat="41.73797782639632" lon="13.344332562811488"><ele>408.0</ele><time>2026-04-11T14:59:49Z</time></trkpt><trkpt lat="41.737767089031834" lon="13.344402020524713"><ele>408.0</ele><time>2026-04-11T14:59:50Z</time></trkpt><trkpt lat="41.737558180712554" lon="13.3444702075862"><ele>408.0</ele><time>2026-04-11T14:59:51Z</time></trkpt><trkpt lat="41.73733762576547" lon="13.344495674327451"><ele>409.0</ele><time>2026-04-11T14:59:52Z</time></trkpt><trkpt lat="41.737113681368996" lon="13.344512178519857"><ele>410.0</ele><time>2026-04-11T14:59:53Z</time></trkpt><trkpt lat="41.7368987338781" lon="13.344504028911263"><ele>411.0</ele><time>2026-04-11T14:59:54Z</time></trkpt><trkpt lat="41.736688164540524" lon="13.344471831297176"><ele>412.33333333333337</ele><time>2026-04-11T14:59:55Z</time></trkpt><trkpt lat="41.73647986273273" lon="13.344414123224306"><ele>413.6666666666667</ele><time>2026-04-11T14:59:56Z</time></trkpt><trkpt lat="41.73627601824999" lon="13.3443453346475"><ele>415.0</ele><time>2026-04-11T14:59:57Z</time></trkpt><trkpt lat="41.736068514890526" lon="13.34424808298171"><ele>417.0</ele><time>2026-04-11T14:59:58Z</time></trkpt><trkpt lat="41.73585240110746" lon="13.34412038922918"><ele>419.0</ele><time>2026-04-11T14:59:59Z</time></trkpt><trkpt lat="41.73564775161892" lon="13.34397137496986"><ele>413.0</ele><time>2026-04-11T15:00:00Z</time></trkpt><trkpt lat="41.73544515660246" lon="13.343824668123046"><ele>407.0</ele><time>2026-04-11T15:00:01Z</time></trkpt><trkpt lat="41.73523332089291" lon="13.343708271171355"><ele>409.5</ele><time>2026-04-11T15:00:02Z</time></trkpt><trkpt lat="41.735016035792285" lon="13.343617343922919"><ele>412.0</ele><time>2026-04-11T15:00:03Z</time></trkpt><trkpt lat="41.734785160596175" lon="13.343563923054793"><ele>412.0</ele><time>2026-04-11T15:00:04Z</time></trkpt><trkpt lat="41.7345567527364" lon="13.343535313785674"><ele>412.0</ele><time>2026-04-11T15:00:05Z</time></trkpt><trkpt lat="41.73432377342533" lon="13.343533470532538"><ele>413.0</ele><time>2026-04-11T15:00:06Z</time></trkpt><trkpt lat="41.734079637129" lon="13.343558845674321"><ele>414.0</ele><time>2026-04-11T15:00:07Z</time></trkpt><trkpt lat="41.733819455166994" lon="13.343603474302169"><ele>415.0</ele><time>2026-04-11T15:00:08Z</time></trkpt><trkpt lat="41.73355038840979" lon="13.343651934364598"><ele>416.0</ele><time>2026-04-11T15:00:09Z</time></trkpt><trkpt lat="41.73328379402172" lon="13.343703227900383"><ele>416.0</ele><time>2026-04-11T15:00:10Z</time></trkpt><trkpt lat="41.73305287527684" lon="13.343760090851227"><ele>416.0</ele><time>2026-04-11T15:00:11Z</time></trkpt><trkpt lat="41.73283910441091" lon="13.343837508093243"><ele>422.66666666666663</ele><time>2026-04-11T15:00:12Z</time></trkpt><trkpt lat="41.732618453458436" lon="13.343902095908335"><ele>429.33333333333337</ele><time>2026-04-11T15:00:13Z</time></trkpt><trkpt lat="41.7324296670961" lon="13.344054457520157"><ele>436.0</ele><time>2026-04-11T15:00:14Z</time></trkpt><trkpt lat="41.73225745006765" lon="13.344119280162204"><ele>436.0</ele><time>2026-04-11T15:00:15Z</time></trkpt><trkpt lat="41.732083185249614" lon="13.344193748801251"><ele>436.0</ele><time>2026-04-11T15:00:16Z</time></trkpt><trkpt lat="41.73192623615369" lon="13.34425913607179"><ele>436.0</ele><time>2026-04-11T15:00:17Z</time></trkpt><trkpt lat="41.731782751120825" lon="13.344318390003549"><ele>433.5</ele><time>2026-04-11T15:00:18Z</time></trkpt><trkpt lat="41.73165289373682" lon="13.344374842776306"><ele>431.0</ele><time>2026-04-11T15:00:19Z</time></trkpt><trkpt lat="41.731530703997684" lon="13.344429223808564"><ele>428.5</ele><time>2026-04-11T15:00:20Z</time></trkpt><trkpt lat="41.731416364362595" lon="13.344477724271384"><ele>426.0</ele><time>2026-04-11T15:00:21Z</time></trkpt><trkpt lat="41.73131980676494" lon="13.344522050037119"><ele>426.0</ele><time>2026-04-11T15:00:22Z</time></trkpt><trkpt lat="41.7312353960594" lon="13.34456614480017"><ele>426.0</ele><time>2026-04-11T15:00:23Z</time></trkpt><trkpt lat="41.731170696383366" lon="13.344602681492947"><ele>426.0</ele><time>2026-04-11T15:00:24Z</time></trkpt><trkpt lat="41.73107599806183" lon="13.344644793115142"><ele>426.0</ele><time>2026-04-11T15:00:26Z</time></trkpt><trkpt lat="41.730987090598596" lon="13.344681063370121"><ele>426.0</ele><time>2026-04-11T15:00:28Z</time></trkpt><trkpt lat="41.73092737937219" lon="13.34471015943716"><ele>426.0</ele><time>2026-04-11T15:00:29Z</time></trkpt><trkpt lat="41.73085599143827" lon="13.344752940951526"><ele>428.4</ele><time>2026-04-11T15:00:30Z</time></trkpt><trkpt lat="41.730764282475974" lon="13.344810033750312"><ele>430.8</ele><time>2026-04-11T15:00:31Z</time></trkpt><trkpt lat="41.730670890468545" lon="13.344862871371175"><ele>433.19999999999993</ele><time>2026-04-11T15:00:32Z</time></trkpt><trkpt lat="41.73058012473733" lon="13.344906046789086"><ele>435.59999999999997</ele><time>2026-04-11T15:00:33Z</time></trkpt><trkpt lat="41.730488157470845" lon="13.344958483110666"><ele>438.0</ele><time>2026-04-11T15:00:34Z</time></trkpt><trkpt lat="41.73039791245516" lon="13.345011821954216"><ele>438.0</ele><time>2026-04-11T15:00:35Z</time></trkpt><trkpt lat="41.7303184077496" lon="13.345045566740875"><ele>438.0</ele><time>2026-04-11T15:00:36Z</time></trkpt><trkpt lat="41.73024333940758" lon="13.345087712931857"><ele>438.0</ele><time>2026-04-11T15:00:37Z</time></trkpt><trkpt lat="41.73017827374717" lon="13.345159250733976"><ele>438.0</ele><time>2026-04-11T15:00:38Z</time></trkpt><trkpt lat="41.7300928215999" lon="13.345178996638353"><ele>438.0</ele><time>2026-04-11T15:00:39Z</time></trkpt><trkpt lat="41.730017803373535" lon="13.345216660860311"><ele>438.0</ele><time>2026-04-11T15:00:40Z</time></trkpt><trkpt lat="41.72994999493677" lon="13.345258177446091"><ele>438.3333333333333</ele><time>2026-04-11T15:00:41Z</time></trkpt><trkpt lat="41.7298789808156" lon="13.345305670602754"><ele>438.66666666666663</ele><time>2026-04-11T15:00:42Z</time></trkpt><trkpt lat="41.72981604722079" lon="13.34535598186438"><ele>439.0</ele><time>2026-04-11T15:00:43Z</time></trkpt><trkpt lat="41.729749977904234" lon="13.345401494928678"><ele>439.3333333333333</ele><time>2026-04-11T15:00:44Z</time></trkpt><trkpt lat="41.729674249398705" lon="13.345448782703372"><ele>439.66666666666663</ele><time>2026-04-11T15:00:45Z</time></trkpt><trkpt lat="41.72958434229394" lon="13.345490521038283"><ele>440.0</ele><time>2026-04-11T15:00:46Z</time></trkpt><trkpt lat="41.72949641175163" lon="13.345544803944282"><ele>437.8</ele><time>2026-04-11T15:00:47Z</time></trkpt><trkpt lat="41.72940387225683" lon="13.345609096546614"><ele>435.6</ele><time>2026-04-11T15:00:48Z</time></trkpt><trkpt lat="41.729307159342454" lon="13.345667870076538"><ele>433.4</ele><time>2026-04-11T15:00:49Z</time></trkpt><trkpt lat="41.729218649644146" lon="13.34572466551955"><ele>431.2</ele><time>2026-04-11T15:00:50Z</time></trkpt><trkpt lat="41.729138132280475" lon="13.345778101343521"><ele>429.0</ele><time>2026-04-11T15:00:51Z</time></trkpt><trkpt lat="41.729058525220914" lon="13.345834713776389"><ele>428.79999999999995</ele><time>2026-04-11T15:00:52Z</time></trkpt><trkpt lat="41.72897112425811" lon="13.34588655580385"><ele>428.59999999999997</ele><time>2026-04-11T15:00:53Z</time></trkpt><trkpt lat="41.72888376659636" lon="13.345940750444802"><ele>428.4</ele><time>2026-04-11T15:00:54Z</time></trkpt><trkpt lat="41.7287947983921" lon="13.34599792349355"><ele>428.2</ele><time>2026-04-11T15:00:55Z</time></trkpt><trkpt lat="41.72869624302458" lon="13.346056727786419"><ele>428.0</ele><time>2026-04-11T15:00:56Z</time></trkpt><trkpt lat="41.72859500019371" lon="13.346109038963249"><ele>431.66666666666663</ele><time>2026-04-11T15:00:57Z</time></trkpt><trkpt lat="41.728432380642666" lon="13.346179095283482"><ele>435.33333333333337</ele><time>2026-04-11T15:00:58Z</time></trkpt><trkpt lat="41.72830792934448" lon="13.34625021008535"><ele>439.0</ele><time>2026-04-11T15:00:59Z</time></trkpt><trkpt lat="41.72816343747687" lon="13.346334510364409"><ele>431.33333333333337</ele><time>2026-04-11T15:01:00Z</time></trkpt><trkpt lat="41.72802435925597" lon="13.346414366427403"><ele>423.66666666666663</ele><time>2026-04-11T15:01:01Z</time></trkpt><trkpt lat="41.72788249487916" lon="13.346505589393836"><ele>416.0</ele><time>2026-04-11T15:01:02Z</time></trkpt><trkpt lat="41.72775625397566" lon="13.346590705585102"><ele>420.0</ele><time>2026-04-11T15:01:03Z</time></trkpt><trkpt lat="41.72761802372979" lon="13.346667495009752"><ele>424.0</ele><time>2026-04-11T15:01:04Z</time></trkpt><trkpt lat="41.72746526593036" lon="13.346742557267316"><ele>428.0</ele><time>2026-04-11T15:01:05Z</time></trkpt><trkpt lat="41.72729008600322" lon="13.346804926006024"><ele>428.0</ele><time>2026-04-11T15:01:06Z</time></trkpt><trkpt lat="41.727091469244925" lon="13.34686765745677"><ele>428.0</ele><time>2026-04-11T15:01:07Z</time></trkpt><trkpt lat="41.72686085333608" lon="13.346930032460087"><ele>428.0</ele><time>2026-04-11T15:01:08Z</time></trkpt><trkpt lat="41.726649082704604" lon="13.346993059502763"><ele>430.0</ele><time>2026-04-11T15:01:09Z</time></trkpt><trkpt lat="41.72646793670626" lon="13.347045344224954"><ele>432.0</ele><time>2026-04-11T15:01:10Z</time></trkpt><trkpt lat="41.72629723387503" lon="13.347096839279459"><ele>434.0</ele><time>2026-04-11T15:01:11Z</time></trkpt><trkpt lat="41.72613612927606" lon="13.347144886257635"><ele>433.3333333333333</ele><time>2026-04-11T15:01:12Z</time></trkpt><trkpt lat="41.725982377949556" lon="13.347187148455932"><ele>432.66666666666663</ele><time>2026-04-11T15:01:13Z</time></trkpt><trkpt lat="41.725823323875794" lon="13.347225924762414"><ele>432.0</ele><time>2026-04-11T15:01:14Z</time></trkpt><trkpt lat="41.72565208590818" lon="13.347272677020758"><ele>423.66666666666663</ele><time>2026-04-11T15:01:15Z</time></trkpt><trkpt lat="41.72548939449273" lon="13.347324943684358"><ele>415.3333333333333</ele><time>2026-04-11T15:01:16Z</time></trkpt><trkpt lat="41.72533411631815" lon="13.347365581449896"><ele>407.0</ele><time>2026-04-11T15:01:17Z</time></trkpt><trkpt lat="41.72519356586635" lon="13.347405624959917"><ele>406.5</ele><time>2026-04-11T15:01:18Z</time></trkpt><trkpt lat="41.72505692379056" lon="13.347442886247327"><ele>406.0</ele><time>2026-04-11T15:01:19Z</time></trkpt><trkpt lat="41.72493034425188" lon="13.347481141945902"><ele>405.5</ele><time>2026-04-11T15:01:20Z</time></trkpt><trkpt lat="41.7248191248534" lon="13.34751948596916"><ele>405.0</ele><time>2026-04-11T15:01:21Z</time></trkpt><trkpt lat="41.72471610546171" lon="13.347546231145394"><ele>405.0</ele><time>2026-04-11T15:01:22Z</time></trkpt><trkpt lat="41.72461640562016" lon="13.347566104939725"><ele>405.0</ele><time>2026-04-11T15:01:23Z</time></trkpt><trkpt lat="41.72450399122198" lon="13.347575447465065"><ele>405.0</ele><time>2026-04-11T15:01:24Z</time></trkpt><trkpt lat="41.72437991295122" lon="13.347585470499565"><ele>405.0</ele><time>2026-04-11T15:01:25Z</time></trkpt><trkpt lat="41.724187265014535" lon="13.347627093860119"><ele>404.33333333333337</ele><time>2026-04-11T15:01:26Z</time></trkpt><trkpt lat="41.723985562938466" lon="13.347655865361315"><ele>403.6666666666667</ele><time>2026-04-11T15:01:27Z</time></trkpt><trkpt lat="41.72379466950191" lon="13.347685351890366"><ele>403.0</ele><time>2026-04-11T15:01:28Z</time></trkpt><trkpt lat="41.72361647143547" lon="13.347725334778495"><ele>402.33333333333337</ele><time>2026-04-11T15:01:29Z</time></trkpt><trkpt lat="41.72343515327925" lon="13.347771225685593"><ele>401.66666666666663</ele><time>2026-04-11T15:01:30Z</time></trkpt><trkpt lat="41.723237165231474" lon="13.347834335054884"><ele>401.0</ele><time>2026-04-11T15:01:31Z</time></trkpt><trkpt lat="41.723067647915805" lon="13.34786394999765"><ele>401.0</ele><time>2026-04-11T15:01:32Z</time></trkpt><trkpt lat="41.72289791394927" lon="13.34789400922918"><ele>401.0</ele><time>2026-04-11T15:01:33Z</time></trkpt><trkpt lat="41.722744686685296" lon="13.347914389476754"><ele>401.0</ele><time>2026-04-11T15:01:34Z</time></trkpt><trkpt lat="41.72261395057731" lon="13.347944392796093"><ele>399.0</ele><time>2026-04-11T15:01:35Z</time></trkpt><trkpt lat="41.72249116879974" lon="13.347966388088269"><ele>397.0</ele><time>2026-04-11T15:01:36Z</time></trkpt><trkpt lat="41.7223930070536" lon="13.347961283755026"><ele>395.0</ele><time>2026-04-11T15:01:37Z</time></trkpt><trkpt lat="41.722276787670424" lon="13.347911148458365"><ele>393.0</ele><time>2026-04-11T15:01:38Z</time></trkpt><trkpt lat="41.722182066630246" lon="13.347806940020575"><ele>393.0</ele><time>2026-04-11T15:01:39Z</time></trkpt><trkpt lat="41.722106776819" lon="13.347666796284331"><ele>393.0</ele><time>2026-04-11T15:01:40Z</time></trkpt><trkpt lat="41.72205556090563" lon="13.347505966792674"><ele>393.0</ele><time>2026-04-11T15:01:41Z</time></trkpt><trkpt lat="41.7220166617691" lon="13.347322695093418"><ele>393.0</ele><time>2026-04-11T15:01:42Z</time></trkpt><trkpt lat="41.72198169368542" lon="13.347123638678191"><ele>399.0</ele><time>2026-04-11T15:01:43Z</time></trkpt><trkpt lat="41.72195543850993" lon="13.346918048917484"><ele>405.0</ele><time>2026-04-11T15:01:44Z</time></trkpt><trkpt lat="41.721943014853004" lon="13.346697342985859"><ele>411.0</ele><time>2026-04-11T15:01:45Z</time></trkpt><trkpt lat="41.72192503063458" lon="13.346515921324777"><ele>413.75</ele><time>2026-04-11T15:01:46Z</time></trkpt><trkpt lat="41.7219076940496" lon="13.346346449506214"><ele>416.5</ele><time>2026-04-11T15:01:47Z</time></trkpt><trkpt lat="41.72192057986361" lon="13.346157235668745"><ele>419.25</ele><time>2026-04-11T15:01:48Z</time></trkpt><trkpt lat="41.721906274623116" lon="13.345992489214312"><ele>422.0</ele><time>2026-04-11T15:01:49Z</time></trkpt><trkpt lat="41.72188705228552" lon="13.345839354176652"><ele>412.25</ele><time>2026-04-11T15:01:50Z</time></trkpt><trkpt lat="41.72186354416775" lon="13.345691007076498"><ele>402.5</ele><time>2026-04-11T15:01:51Z</time></trkpt><trkpt lat="41.72183850619014" lon="13.34554744294249"><ele>392.75</ele><time>2026-04-11T15:01:52Z</time></trkpt><trkpt lat="41.72177966604194" lon="13.34537537757609"><ele>383.0</ele><time>2026-04-11T15:01:53Z</time></trkpt><trkpt lat="41.7216777824394" lon="13.34530073056456"><ele>383.0</ele><time>2026-04-11T15:01:55Z</time></trkpt><trkpt lat="41.721574297811976" lon="13.345257180654558"><ele>383.0</ele><time>2026-04-11T15:01:56Z</time></trkpt><trkpt lat="41.721460989918214" lon="13.345272572380265"><ele>383.0</ele><time>2026-04-11T15:01:57Z</time></trkpt><trkpt lat="41.721354917600735" lon="13.345342910811015"><ele>383.0</ele><time>2026-04-11T15:01:58Z</time></trkpt><trkpt lat="41.721277323805786" lon="13.345464282002764"><ele>382.6666666666667</ele><time>2026-04-11T15:01:59Z</time></trkpt><trkpt lat="41.72124569930264" lon="13.345640694373033"><ele>382.3333333333333</ele><time>2026-04-11T15:02:00Z</time></trkpt><trkpt lat="41.721252304460236" lon="13.345858110041458"><ele>382.0</ele><time>2026-04-11T15:02:01Z</time></trkpt><trkpt lat="41.721233280166516" lon="13.346064077387217"><ele>382.0</ele><time>2026-04-11T15:02:02Z</time></trkpt><trkpt lat="41.7212271926826" lon="13.346232604037132"><ele>382.0</ele><time>2026-04-11T15:02:03Z</time></trkpt><trkpt lat="41.72123549994357" lon="13.346373569794304"><ele>382.0</ele><time>2026-04-11T15:02:04Z</time></trkpt><trkpt lat="41.72122660469644" lon="13.346513741302347"><ele>382.0</ele><time>2026-04-11T15:02:05Z</time></trkpt><trkpt lat="41.72122005439566" lon="13.346668888093149"><ele>381.75</ele><time>2026-04-11T15:02:06Z</time></trkpt><trkpt lat="41.72121642263934" lon="13.346827837907275"><ele>381.5</ele><time>2026-04-11T15:02:07Z</time></trkpt><trkpt lat="41.72121210446177" lon="13.346984660904353"><ele>381.25</ele><time>2026-04-11T15:02:08Z</time></trkpt><trkpt lat="41.7212038313491" lon="13.347140574316576"><ele>381.0</ele><time>2026-04-11T15:02:09Z</time></trkpt><trkpt lat="41.72119838186497" lon="13.347299987581366"><ele>380.6</ele><time>2026-04-11T15:02:10Z</time></trkpt><trkpt lat="41.72119105895612" lon="13.347457182134512"><ele>380.20000000000005</ele><time>2026-04-11T15:02:11Z</time></trkpt><trkpt lat="41.7211820490861" lon="13.34760664020646"><ele>379.79999999999995</ele><time>2026-04-11T15:02:12Z</time></trkpt><trkpt lat="41.72117631558126" lon="13.347757899971317"><ele>379.4</ele><time>2026-04-11T15:02:13Z</time></trkpt><trkpt lat="41.72117582300895" lon="13.347900287197806"><ele>379.0</ele><time>2026-04-11T15:02:14Z</time></trkpt><trkpt lat="41.72117121649006" lon="13.348037343741685"><ele>378.0</ele><time>2026-04-11T15:02:15Z</time></trkpt><trkpt lat="41.721156916706846" lon="13.34817883060685"><ele>377.0</ele><time>2026-04-11T15:02:16Z</time></trkpt><trkpt lat="41.72116864627659" lon="13.348346439940917"><ele>376.0</ele><time>2026-04-11T15:02:17Z</time></trkpt><trkpt lat="41.721196467298796" lon="13.34849520510874"><ele>375.0</ele><time>2026-04-11T15:02:18Z</time></trkpt><trkpt lat="41.72124913214194" lon="13.348673299400552"><ele>375.0</ele><time>2026-04-11T15:02:19Z</time></trkpt><trkpt lat="41.72132137179056" lon="13.348836272725647"><ele>375.0</ele><time>2026-04-11T15:02:20Z</time></trkpt><trkpt lat="41.72139814942562" lon="13.348993618844482"><ele>375.0</ele><time>2026-04-11T15:02:21Z</time></trkpt><trkpt lat="41.72148455246021" lon="13.349155252283039"><ele>375.0</ele><time>2026-04-11T15:02:22Z</time></trkpt><trkpt lat="41.721570155985766" lon="13.349319650746548"><ele>372.75</ele><time>2026-04-11T15:02:23Z</time></trkpt><trkpt lat="41.72165048039691" lon="13.349474167067356"><ele>370.5</ele><time>2026-04-11T15:02:24Z</time></trkpt><trkpt lat="41.721725661690066" lon="13.349618789811744"><ele>368.25</ele><time>2026-04-11T15:02:25Z</time></trkpt><trkpt lat="41.72180131133921" lon="13.34976440530615"><ele>366.0</ele><time>2026-04-11T15:02:26Z</time></trkpt><trkpt lat="41.72187007333453" lon="13.349896884500097"><ele>365.25</ele><time>2026-04-11T15:02:27Z</time></trkpt><trkpt lat="41.72193233469195" lon="13.350016839330744"><ele>364.5</ele><time>2026-04-11T15:02:28Z</time></trkpt><trkpt lat="41.721996079473065" lon="13.350138006448887"><ele>363.75</ele><time>2026-04-11T15:02:29Z</time></trkpt><trkpt lat="41.72206376766686" lon="13.350266658122045"><ele>363.0</ele><time>2026-04-11T15:02:30Z</time></trkpt><trkpt lat="41.72213043209871" lon="13.350393220823674"><ele>363.0</ele><time>2026-04-11T15:02:31Z</time></trkpt><trkpt lat="41.72220100060611" lon="13.350526595819225"><ele>363.0</ele><time>2026-04-11T15:02:32Z</time></trkpt><trkpt lat="41.722266143762255" lon="13.35065151626937"><ele>363.0</ele><time>2026-04-11T15:02:33Z</time></trkpt><trkpt lat="41.7223211280339" lon="13.350765092900364"><ele>363.0</ele><time>2026-04-11T15:02:34Z</time></trkpt><trkpt lat="41.72237096215631" lon="13.350873661884812"><ele>363.0</ele><time>2026-04-11T15:02:35Z</time></trkpt><trkpt lat="41.72240653535268" lon="13.350976418326242"><ele>361.2</ele><time>2026-04-11T15:02:36Z</time></trkpt><trkpt lat="41.72240378713296" lon="13.351061974969566"><ele>359.4</ele><time>2026-04-11T15:02:37Z</time></trkpt><trkpt lat="41.722489655458375" lon="13.351131843991594"><ele>357.59999999999997</ele><time>2026-04-11T15:02:38Z</time></trkpt><trkpt lat="41.72234604800884" lon="13.351211676738993"><ele>355.79999999999995</ele><time>2026-04-11T15:02:40Z</time></trkpt><trkpt lat="41.72224104887302" lon="13.35127892161449"><ele>354.0</ele><time>2026-04-11T15:02:42Z</time></trkpt><trkpt lat="41.722149590765" lon="13.351233314420167"><ele>354.0</ele><time>2026-04-11T15:02:43Z</time></trkpt><trkpt lat="41.722058588530224" lon="13.35115751211965"><ele>354.0</ele><time>2026-04-11T15:02:44Z</time></trkpt><trkpt lat="41.72196188336862" lon="13.351078771309085"><ele>354.0</ele><time>2026-04-11T15:02:45Z</time></trkpt><trkpt lat="41.721827046938" lon="13.351017882217974"><ele>354.0</ele><time>2026-04-11T15:02:46Z</time></trkpt><trkpt lat="41.721740244187906" lon="13.350933353769843"><ele>352.5</ele><time>2026-04-11T15:02:47Z</time></trkpt><trkpt lat="41.72165577449981" lon="13.350851097260328"><ele>351.0</ele><time>2026-04-11T15:02:48Z</time></trkpt><trkpt lat="41.72156770176432" lon="13.350765332095252"><ele>349.5</ele><time>2026-04-11T15:02:49Z</time></trkpt><trkpt lat="41.72146820945333" lon="13.350668446697592"><ele>348.0</ele><time>2026-04-11T15:02:50Z</time></trkpt><trkpt lat="41.721351900909916" lon="13.350557055665023"><ele>347.25</ele><time>2026-04-11T15:02:51Z</time></trkpt><trkpt lat="41.72122697178026" lon="13.350437277079322"><ele>346.5</ele><time>2026-04-11T15:02:52Z</time></trkpt><trkpt lat="41.72110700932287" lon="13.350322722131102"><ele>345.75</ele><time>2026-04-11T15:02:53Z</time></trkpt><trkpt lat="41.72100442452343" lon="13.350224972492564"><ele>345.0</ele><time>2026-04-11T15:02:54Z</time></trkpt><trkpt lat="41.72090792774124" lon="13.350133023923485"><ele>345.0</ele><time>2026-04-11T15:02:55Z</time></trkpt><trkpt lat="41.72081186803187" lon="13.350035600021899"><ele>345.0</ele><time>2026-04-11T15:02:56Z</time></trkpt><trkpt lat="41.72071841799006" lon="13.349931511214228"><ele>345.0</ele><time>2026-04-11T15:02:57Z</time></trkpt><trkpt lat="41.720636677190264" lon="13.349818364104468"><ele>345.0</ele><time>2026-04-11T15:02:58Z</time></trkpt><trkpt lat="41.72057198079504" lon="13.349688013822584"><ele>346.5</ele><time>2026-04-11T15:02:59Z</time></trkpt><trkpt lat="41.72051005803922" lon="13.349540398919753"><ele>348.0</ele><time>2026-04-11T15:03:00Z</time></trkpt><trkpt lat="41.72047056603068" lon="13.349370702598671"><ele>349.5</ele><time>2026-04-11T15:03:01Z</time></trkpt><trkpt lat="41.72042460973981" lon="13.349208834388222"><ele>351.0</ele><time>2026-04-11T15:03:02Z</time></trkpt><trkpt lat="41.720382381373916" lon="13.349061005908277"><ele>351.0</ele><time>2026-04-11T15:03:03Z</time></trkpt><trkpt lat="41.720352991327466" lon="13.348926503187743"><ele>351.0</ele><time>2026-04-11T15:03:04Z</time></trkpt><trkpt lat="41.72030918085469" lon="13.348774245134289"><ele>351.0</ele><time>2026-04-11T15:03:05Z</time></trkpt><trkpt lat="41.72025357978864" lon="13.348628373270968"><ele>351.0</ele><time>2026-04-11T15:03:06Z</time></trkpt><trkpt lat="41.72020474958144" lon="13.348496169728717"><ele>346.75</ele><time>2026-04-11T15:03:07Z</time></trkpt><trkpt lat="41.7201262318883" lon="13.348390292174814"><ele>342.5</ele><time>2026-04-11T15:03:08Z</time></trkpt><trkpt lat="41.7200342832187" lon="13.348287334198757"><ele>338.25</ele><time>2026-04-11T15:03:09Z</time></trkpt><trkpt lat="41.719927812308335" lon="13.348206542547128"><ele>334.0</ele><time>2026-04-11T15:03:10Z</time></trkpt><trkpt lat="41.7198145294443" lon="13.348151156140622"><ele>334.0</ele><time>2026-04-11T15:03:11Z</time></trkpt><trkpt lat="41.71970255951841" lon="13.34817037726197"><ele>334.0</ele><time>2026-04-11T15:03:12Z</time></trkpt><trkpt lat="41.71961520950738" lon="13.348126481834873"><ele>334.0</ele><time>2026-04-11T15:03:13Z</time></trkpt><trkpt lat="41.719520648271846" lon="13.348078377042636"><ele>334.0</ele><time>2026-04-11T15:03:14Z</time></trkpt><trkpt lat="41.71942739955732" lon="13.348032264736343"><ele>334.0</ele><time>2026-04-11T15:03:15Z</time></trkpt><trkpt lat="41.719356856587844" lon="13.34790995089002"><ele>334.6</ele><time>2026-04-11T15:03:16Z</time></trkpt><trkpt lat="41.71926900582026" lon="13.347869452094347"><ele>335.2</ele><time>2026-04-11T15:03:17Z</time></trkpt><trkpt lat="41.719177718562314" lon="13.347849280935202"><ele>335.8</ele><time>2026-04-11T15:03:18Z</time></trkpt><trkpt lat="41.71909336987324" lon="13.347852768087739"><ele>336.40000000000003</ele><time>2026-04-11T15:03:19Z</time></trkpt><trkpt lat="41.71900322524265" lon="13.347925105770312"><ele>337.0</ele><time>2026-04-11T15:03:20Z</time></trkpt><trkpt lat="41.71893178583323" lon="13.348063774351902"><ele>334.75</ele><time>2026-04-11T15:03:21Z</time></trkpt><trkpt lat="41.718866402420446" lon="13.348202510348244"><ele>332.5</ele><time>2026-04-11T15:03:22Z</time></trkpt><trkpt lat="41.718796919487346" lon="13.348367058180973"><ele>330.25</ele><time>2026-04-11T15:03:23Z</time></trkpt><trkpt lat="41.71871891151733" lon="13.34854854786346"><ele>328.0</ele><time>2026-04-11T15:03:24Z</time></trkpt><trkpt lat="41.718638303401974" lon="13.348735881691898"><ele>328.5</ele><time>2026-04-11T15:03:25Z</time></trkpt><trkpt lat="41.71856608738194" lon="13.348903712250126"><ele>329.0</ele><time>2026-04-11T15:03:26Z</time></trkpt><trkpt lat="41.71849470025446" lon="13.349069616439225"><ele>329.5</ele><time>2026-04-11T15:03:27Z</time></trkpt><trkpt lat="41.71842030241438" lon="13.349242088321521"><ele>330.0</ele><time>2026-04-11T15:03:28Z</time></trkpt><trkpt lat="41.71835306213092" lon="13.349397501828811"><ele>330.0</ele><time>2026-04-11T15:03:29Z</time></trkpt><trkpt lat="41.7183356378268" lon="13.349576201933987"><ele>330.0</ele><time>2026-04-11T15:03:30Z</time></trkpt><trkpt lat="41.718270890694754" lon="13.349723052653017"><ele>330.0</ele><time>2026-04-11T15:03:31Z</time></trkpt><trkpt lat="41.71820165299589" lon="13.349876672345514"><ele>330.0</ele><time>2026-04-11T15:03:32Z</time></trkpt><trkpt lat="41.71813476951107" lon="13.350031879943"><ele>328.5</ele><time>2026-04-11T15:03:33Z</time></trkpt><trkpt lat="41.718026265899745" lon="13.350155318177048"><ele>327.0</ele><time>2026-04-11T15:03:34Z</time></trkpt><trkpt lat="41.71796207874744" lon="13.350304349198327"><ele>325.5</ele><time>2026-04-11T15:03:35Z</time></trkpt><trkpt lat="41.71789484298757" lon="13.350460458524122"><ele>324.0</ele><time>2026-04-11T15:03:36Z</time></trkpt><trkpt lat="41.717827269900276" lon="13.350617351077183"><ele>324.0</ele><time>2026-04-11T15:03:37Z</time></trkpt><trkpt lat="41.71776219827879" lon="13.3507684355817"><ele>324.0</ele><time>2026-04-11T15:03:38Z</time></trkpt><trkpt lat="41.71769956582723" lon="13.350902487924008"><ele>324.0</ele><time>2026-04-11T15:03:39Z</time></trkpt><trkpt lat="41.71763403343128" lon="13.35102430022262"><ele>324.0</ele><time>2026-04-11T15:03:40Z</time></trkpt><trkpt lat="41.71755693047404" lon="13.351160452566615"><ele>324.25</ele><time>2026-04-11T15:03:41Z</time></trkpt><trkpt lat="41.71746726021362" lon="13.351278719159872"><ele>324.5</ele><time>2026-04-11T15:03:42Z</time></trkpt><trkpt lat="41.71737291529542" lon="13.35139916307987"><ele>324.75</ele><time>2026-04-11T15:03:43Z</time></trkpt><trkpt lat="41.71727604688669" lon="13.351508807094234"><ele>325.0</ele><time>2026-04-11T15:03:44Z</time></trkpt><trkpt lat="41.71717429039878" lon="13.351623755791227"><ele>325.0</ele><time>2026-04-11T15:03:45Z</time></trkpt><trkpt lat="41.717068880887375" lon="13.351734672813942"><ele>325.0</ele><time>2026-04-11T15:03:46Z</time></trkpt><trkpt lat="41.71695852958" lon="13.351834227611851"><ele>325.0</ele><time>2026-04-11T15:03:47Z</time></trkpt><trkpt lat="41.71684240505391" lon="13.351901800572866"><ele>325.0</ele><time>2026-04-11T15:03:48Z</time></trkpt><trkpt lat="41.71673208028271" lon="13.352038482070366"><ele>325.25</ele><time>2026-04-11T15:03:49Z</time></trkpt><trkpt lat="41.716593469207474" lon="13.352084104574415"><ele>325.5</ele><time>2026-04-11T15:03:50Z</time></trkpt><trkpt lat="41.716450189721314" lon="13.352122762948136"><ele>325.75</ele><time>2026-04-11T15:03:51Z</time></trkpt><trkpt lat="41.716304684059594" lon="13.352146087854594"><ele>326.0</ele><time>2026-04-11T15:03:52Z</time></trkpt><trkpt lat="41.71615824637502" lon="13.352170156814038"><ele>324.33333333333337</ele><time>2026-04-11T15:03:53Z</time></trkpt><trkpt lat="41.71600679908594" lon="13.35209961577885"><ele>322.6666666666667</ele><time>2026-04-11T15:03:54Z</time></trkpt><trkpt lat="41.715860726128874" lon="13.35211487563312"><ele>321.0</ele><time>2026-04-11T15:03:55Z</time></trkpt><trkpt lat="41.71571176047676" lon="13.352130437681105"><ele>321.0</ele><time>2026-04-11T15:03:56Z</time></trkpt><trkpt lat="41.71555294449014" lon="13.352145840418409"><ele>321.0</ele><time>2026-04-11T15:03:57Z</time></trkpt><trkpt lat="41.71539711267932" lon="13.352160510860134"><ele>321.0</ele><time>2026-04-11T15:03:58Z</time></trkpt><trkpt lat="41.715256384446036" lon="13.352173927141228"><ele>321.25</ele><time>2026-04-11T15:03:59Z</time></trkpt><trkpt lat="41.71510907995261" lon="13.352190229204716"><ele>321.5</ele><time>2026-04-11T15:04:00Z</time></trkpt><trkpt lat="41.71496093662406" lon="13.35220764925389"><ele>321.75</ele><time>2026-04-11T15:04:01Z</time></trkpt><trkpt lat="41.71481578904442" lon="13.352229699341036"><ele>322.0</ele><time>2026-04-11T15:04:02Z</time></trkpt><trkpt lat="41.714675888840084" lon="13.352259600084546"><ele>321.0</ele><time>2026-04-11T15:04:03Z</time></trkpt><trkpt lat="41.71452807977259" lon="13.352303585317436"><ele>320.0</ele><time>2026-04-11T15:04:04Z</time></trkpt><trkpt lat="41.71437872832336" lon="13.352362959937565"><ele>319.0</ele><time>2026-04-11T15:04:05Z</time></trkpt><trkpt lat="41.71423359593048" lon="13.352426069213497"><ele>319.0</ele><time>2026-04-11T15:04:06Z</time></trkpt><trkpt lat="41.71409179564249" lon="13.352497523445889"><ele>319.0</ele><time>2026-04-11T15:04:07Z</time></trkpt><trkpt lat="41.71395350483399" lon="13.35257787420311"><ele>319.0</ele><time>2026-04-11T15:04:08Z</time></trkpt><trkpt lat="41.71381494534713" lon="13.352667245977612"><ele>319.0</ele><time>2026-04-11T15:04:09Z</time></trkpt><trkpt lat="41.7136866283178" lon="13.35276237308275"><ele>319.0</ele><time>2026-04-11T15:04:10Z</time></trkpt><trkpt lat="41.71355914545729" lon="13.352863770944"><ele>319.0</ele><time>2026-04-11T15:04:11Z</time></trkpt><trkpt lat="41.713436044887196" lon="13.352975134947071"><ele>319.0</ele><time>2026-04-11T15:04:12Z</time></trkpt><trkpt lat="41.713309543603344" lon="13.353099164774704"><ele>318.0</ele><time>2026-04-11T15:04:13Z</time></trkpt><trkpt lat="41.71318323752047" lon="13.353241445201926"><ele>317.0</ele><time>2026-04-11T15:04:14Z</time></trkpt><trkpt lat="41.713080566945" lon="13.353374594005873"><ele>316.0</ele><time>2026-04-11T15:04:15Z</time></trkpt><trkpt lat="41.71298217832041" lon="13.353508064676749"><ele>315.0</ele><time>2026-04-11T15:04:16Z</time></trkpt><trkpt lat="41.71287276925453" lon="13.353656485308887"><ele>315.0</ele><time>2026-04-11T15:04:17Z</time></trkpt><trkpt lat="41.71275676279437" lon="13.353820473450508"><ele>315.0</ele><time>2026-04-11T15:04:18Z</time></trkpt><trkpt lat="41.712626576710264" lon="13.354004908875185"><ele>315.0</ele><time>2026-04-11T15:04:19Z</time></trkpt><trkpt lat="41.71252328454722" lon="13.35426358071142"><ele>314.3333333333333</ele><time>2026-04-11T15:04:20Z</time></trkpt><trkpt lat="41.71236795538293" lon="13.354460776052209"><ele>313.66666666666663</ele><time>2026-04-11T15:04:21Z</time></trkpt><trkpt lat="41.71222584874403" lon="13.354653169301962"><ele>313.0</ele><time>2026-04-11T15:04:22Z</time></trkpt><trkpt lat="41.71210269352735" lon="13.354834868454851"><ele>313.0</ele><time>2026-04-11T15:04:23Z</time></trkpt><trkpt lat="41.7119605942723" lon="13.354955362946544"><ele>313.0</ele><time>2026-04-11T15:04:24Z</time></trkpt><trkpt lat="41.711861402621544" lon="13.35509785288956"><ele>313.0</ele><time>2026-04-11T15:04:25Z</time></trkpt><trkpt lat="41.71176865890336" lon="13.35523052500548"><ele>313.0</ele><time>2026-04-11T15:04:26Z</time></trkpt><trkpt lat="41.71167758286084" lon="13.355360650952525"><ele>311.25</ele><time>2026-04-11T15:04:27Z</time></trkpt><trkpt lat="41.711582515041925" lon="13.355496480210467"><ele>309.5</ele><time>2026-04-11T15:04:28Z</time></trkpt><trkpt lat="41.711489038053514" lon="13.35563003654307"><ele>307.75</ele><time>2026-04-11T15:04:29Z</time></trkpt><trkpt lat="41.71139684250379" lon="13.35576176200626"><ele>306.0</ele><time>2026-04-11T15:04:30Z</time></trkpt><trkpt lat="41.711304859318126" lon="13.355893184019477"><ele>306.0</ele><time>2026-04-11T15:04:31Z</time></trkpt><trkpt lat="41.71121145273555" lon="13.356027571748317"><ele>306.0</ele><time>2026-04-11T15:04:32Z</time></trkpt><trkpt lat="41.711118257466914" lon="13.356161567527648"><ele>306.0</ele><time>2026-04-11T15:04:33Z</time></trkpt><trkpt lat="41.71102769203874" lon="13.356291781989915"><ele>306.0</ele><time>2026-04-11T15:04:34Z</time></trkpt><trkpt lat="41.71096874052389" lon="13.356439712301489"><ele>305.25</ele><time>2026-04-11T15:04:35Z</time></trkpt><trkpt lat="41.7108819284753" lon="13.356558275729979"><ele>304.5</ele><time>2026-04-11T15:04:36Z</time></trkpt><trkpt lat="41.71079088008164" lon="13.356688811511956"><ele>303.75</ele><time>2026-04-11T15:04:37Z</time></trkpt><trkpt lat="41.710694996014404" lon="13.356821870392492"><ele>303.0</ele><time>2026-04-11T15:04:38Z</time></trkpt><trkpt lat="41.71059350282091" lon="13.356968310332253"><ele>303.0</ele><time>2026-04-11T15:04:39Z</time></trkpt><trkpt lat="41.7104555220154" lon="13.357111910046028"><ele>303.0</ele><time>2026-04-11T15:04:40Z</time></trkpt><trkpt lat="41.710324177976666" lon="13.357297488544601"><ele>303.0</ele><time>2026-04-11T15:04:41Z</time></trkpt><trkpt lat="41.71017067296641" lon="13.357516318050802"><ele>300.5</ele><time>2026-04-11T15:04:42Z</time></trkpt><trkpt lat="41.710002935571566" lon="13.357757346974754"><ele>298.0</ele><time>2026-04-11T15:04:43Z</time></trkpt><trkpt lat="41.7098585717971" lon="13.357962820737074"><ele>298.3333333333333</ele><time>2026-04-11T15:04:44Z</time></trkpt><trkpt lat="41.70973902035962" lon="13.358132978965235"><ele>298.6666666666667</ele><time>2026-04-11T15:04:45Z</time></trkpt><trkpt lat="41.70962851012462" lon="13.358285860310893"><ele>299.0</ele><time>2026-04-11T15:04:46Z</time></trkpt><trkpt lat="41.709525547362475" lon="13.358420030323803"><ele>299.0</ele><time>2026-04-11T15:04:47Z</time></trkpt><trkpt lat="41.709429170893536" lon="13.358553790285328"><ele>299.0</ele><time>2026-04-11T15:04:48Z</time></trkpt><trkpt lat="41.709306163379566" lon="13.358657634897101"><ele>299.0</ele><time>2026-04-11T15:04:49Z</time></trkpt><trkpt lat="41.70918109240436" lon="13.358738560448728"><ele>299.0</ele><time>2026-04-11T15:04:50Z</time></trkpt><trkpt lat="41.709044670806975" lon="13.35879788602166"><ele>298.0</ele><time>2026-04-11T15:04:51Z</time></trkpt><trkpt lat="41.708897789313895" lon="13.358807178584861"><ele>297.0</ele><time>2026-04-11T15:04:52Z</time></trkpt><trkpt lat="41.708758623776184" lon="13.358814239411165"><ele>296.0</ele><time>2026-04-11T15:04:53Z</time></trkpt><trkpt lat="41.70860746205456" lon="13.358815701020637"><ele>295.0</ele><time>2026-04-11T15:04:54Z</time></trkpt><trkpt lat="41.70842494847852" lon="13.35880890232055"><ele>293.66666666666663</ele><time>2026-04-11T15:04:55Z</time></trkpt><trkpt lat="41.708205400230334" lon="13.358770467506018"><ele>292.3333333333333</ele><time>2026-04-11T15:04:56Z</time></trkpt><trkpt lat="41.7079801756156" lon="13.358734297880623"><ele>291.0</ele><time>2026-04-11T15:04:57Z</time></trkpt><trkpt lat="41.70775746251528" lon="13.358712512937373"><ele>289.0</ele><time>2026-04-11T15:04:58Z</time></trkpt><trkpt lat="41.70752618041972" lon="13.358690012259462"><ele>287.0</ele><time>2026-04-11T15:04:59Z</time></trkpt><trkpt lat="41.707292505604244" lon="13.358670299000806"><ele>287.0</ele><time>2026-04-11T15:05:00Z</time></trkpt><trkpt lat="41.70705592957572" lon="13.358650909165226"><ele>287.0</ele><time>2026-04-11T15:05:01Z</time></trkpt><trkpt lat="41.706817695715664" lon="13.358633636512511"><ele>285.0</ele><time>2026-04-11T15:05:02Z</time></trkpt><trkpt lat="41.70658933826385" lon="13.358618207498331"><ele>283.0</ele><time>2026-04-11T15:05:03Z</time></trkpt><trkpt lat="41.70636844624747" lon="13.358594301047015"><ele>283.0</ele><time>2026-04-11T15:05:04Z</time></trkpt><trkpt lat="41.70614064834224" lon="13.358557189364"><ele>283.0</ele><time>2026-04-11T15:05:05Z</time></trkpt><trkpt lat="41.70590265842519" lon="13.358476536979815"><ele>283.5</ele><time>2026-04-11T15:05:06Z</time></trkpt><trkpt lat="41.705638326334714" lon="13.35835707120096"><ele>284.0</ele><time>2026-04-11T15:05:07Z</time></trkpt><trkpt lat="41.70535622576706" lon="13.358244263565911"><ele>284.0</ele><time>2026-04-11T15:05:08Z</time></trkpt><trkpt lat="41.70510665853869" lon="13.358150447001533"><ele>284.0</ele><time>2026-04-11T15:05:09Z</time></trkpt><trkpt lat="41.704862856830935" lon="13.35806393108794"><ele>283.0</ele><time>2026-04-11T15:05:10Z</time></trkpt><trkpt lat="41.70459736677964" lon="13.357985217614534"><ele>282.0</ele><time>2026-04-11T15:05:11Z</time></trkpt><trkpt lat="41.704307658999646" lon="13.357920359693395"><ele>282.0</ele><time>2026-04-11T15:05:12Z</time></trkpt><trkpt lat="41.70405488380642" lon="13.3578591648562"><ele>282.0</ele><time>2026-04-11T15:05:13Z</time></trkpt><trkpt lat="41.70382147674564" lon="13.35780155495807"><ele>282.0</ele><time>2026-04-11T15:05:14Z</time></trkpt><trkpt lat="41.70359417645858" lon="13.357753249043661"><ele>282.0</ele><time>2026-04-11T15:05:15Z</time></trkpt><trkpt lat="41.703363545755856" lon="13.357709820095142"><ele>281.5</ele><time>2026-04-11T15:05:16Z</time></trkpt><trkpt lat="41.70313231856035" lon="13.357667829899244"><ele>281.0</ele><time>2026-04-11T15:05:17Z</time></trkpt><trkpt lat="41.70289924991185" lon="13.357623948395032"><ele>280.0</ele><time>2026-04-11T15:05:18Z</time></trkpt><trkpt lat="41.702669521638555" lon="13.357574108748949"><ele>279.0</ele><time>2026-04-11T15:05:19Z</time></trkpt><trkpt lat="41.70245991555998" lon="13.35751875804512"><ele>278.0</ele><time>2026-04-11T15:05:20Z</time></trkpt><trkpt lat="41.702255431031396" lon="13.357467037001935"><ele>278.0</ele><time>2026-04-11T15:05:21Z</time></trkpt><trkpt lat="41.70205487236182" lon="13.357416264930745"><ele>278.0</ele><time>2026-04-11T15:05:22Z</time></trkpt><trkpt lat="41.701866352308706" lon="13.357364031332764"><ele>278.0</ele><time>2026-04-11T15:05:23Z</time></trkpt><trkpt lat="41.70169100405392" lon="13.357312243047403"><ele>277.6666666666667</ele><time>2026-04-11T15:05:24Z</time></trkpt><trkpt lat="41.701523653108126" lon="13.35726456833605"><ele>277.3333333333333</ele><time>2026-04-11T15:05:25Z</time></trkpt><trkpt lat="41.70135360629672" lon="13.357217405295389"><ele>277.0</ele><time>2026-04-11T15:05:26Z</time></trkpt><trkpt lat="41.70118493787128" lon="13.357172502600319"><ele>276.66666666666663</ele><time>2026-04-11T15:05:27Z</time></trkpt><trkpt lat="41.701016952633914" lon="13.35712597904968"><ele>276.3333333333333</ele><time>2026-04-11T15:05:28Z</time></trkpt><trkpt lat="41.70085026770483" lon="13.357077988719315"><ele>276.0</ele><time>2026-04-11T15:05:29Z</time></trkpt><trkpt lat="41.70068622600127" lon="13.35702385497679"><ele>276.0</ele><time>2026-04-11T15:05:30Z</time></trkpt><trkpt lat="41.70053274035087" lon="13.356966901863352"><ele>276.0</ele><time>2026-04-11T15:05:31Z</time></trkpt><trkpt lat="41.70039020181076" lon="13.35691510880165"><ele>276.0</ele><time>2026-04-11T15:05:32Z</time></trkpt><trkpt lat="41.700249404154874" lon="13.356862639786133"><ele>275.5</ele><time>2026-04-11T15:05:33Z</time></trkpt><trkpt lat="41.700112282778186" lon="13.356805915076002"><ele>275.0</ele><time>2026-04-11T15:05:34Z</time></trkpt><trkpt lat="41.69997535582857" lon="13.356754677436866"><ele>274.5</ele><time>2026-04-11T15:05:35Z</time></trkpt><trkpt lat="41.69983379331497" lon="13.356699630608311"><ele>274.0</ele><time>2026-04-11T15:05:36Z</time></trkpt><trkpt lat="41.69968692784389" lon="13.356644811365099"><ele>274.0</ele><time>2026-04-11T15:05:37Z</time></trkpt><trkpt lat="41.69954289407242" lon="13.35659716647914"><ele>274.0</ele><time>2026-04-11T15:05:38Z</time></trkpt><trkpt lat="41.699396868487334" lon="13.35655333387802"><ele>274.0</ele><time>2026-04-11T15:05:39Z</time></trkpt><trkpt lat="41.69924855658148" lon="13.356498954465355"><ele>274.0</ele><time>2026-04-11T15:05:40Z</time></trkpt><trkpt lat="41.69910318193435" lon="13.356443190182128"><ele>274.0</ele><time>2026-04-11T15:05:41Z</time></trkpt><trkpt lat="41.6989639734123" lon="13.35638347007055"><ele>274.0</ele><time>2026-04-11T15:05:42Z</time></trkpt><trkpt lat="41.698838540299214" lon="13.356318015867673"><ele>274.0</ele><time>2026-04-11T15:05:43Z</time></trkpt><trkpt lat="41.6987223680658" lon="13.356241873114858"><ele>273.75</ele><time>2026-04-11T15:05:44Z</time></trkpt><trkpt lat="41.69860693058478" lon="13.35615744879388"><ele>273.5</ele><time>2026-04-11T15:05:45Z</time></trkpt><trkpt lat="41.69849510330082" lon="13.356071627271234"><ele>273.25</ele><time>2026-04-11T15:05:46Z</time></trkpt><trkpt lat="41.69838162988887" lon="13.35598456081074"><ele>273.0</ele><time>2026-04-11T15:05:47Z</time></trkpt><trkpt lat="41.69826549559151" lon="13.355889931580723"><ele>272.75</ele><time>2026-04-11T15:05:48Z</time></trkpt><trkpt lat="41.69815063904114" lon="13.355779234136781"><ele>272.5</ele><time>2026-04-11T15:05:49Z</time></trkpt><trkpt lat="41.69804017520034" lon="13.355661071455367"><ele>272.25</ele><time>2026-04-11T15:05:50Z</time></trkpt><trkpt lat="41.69793102646783" lon="13.355533278664458"><ele>272.0</ele><time>2026-04-11T15:05:51Z</time></trkpt><trkpt lat="41.697826706081706" lon="13.355399149591511"><ele>271.25</ele><time>2026-04-11T15:05:52Z</time></trkpt><trkpt lat="41.69774281480504" lon="13.355272720625578"><ele>270.5</ele><time>2026-04-11T15:05:53Z</time></trkpt><trkpt lat="41.697666879600256" lon="13.355147155770444"><ele>269.75</ele><time>2026-04-11T15:05:54Z</time></trkpt><trkpt lat="41.697590259426406" lon="13.355012732553774"><ele>269.0</ele><time>2026-04-11T15:05:55Z</time></trkpt><trkpt lat="41.6975177222385" lon="13.354877169911553"><ele>269.0</ele><time>2026-04-11T15:05:56Z</time></trkpt><trkpt lat="41.69744751507634" lon="13.354744039061805"><ele>269.0</ele><time>2026-04-11T15:05:57Z</time></trkpt><trkpt lat="41.697377407559756" lon="13.354605408415136"><ele>269.0</ele><time>2026-04-11T15:05:58Z</time></trkpt><trkpt lat="41.697309089763" lon="13.354457004362363"><ele>269.0</ele><time>2026-04-11T15:05:59Z</time></trkpt><trkpt lat="41.697229050896084" lon="13.354314231942642"><ele>269.5</ele><time>2026-04-11T15:06:00Z</time></trkpt><trkpt lat="41.69714364991738" lon="13.354203286586532"><ele>270.0</ele><time>2026-04-11T15:06:01Z</time></trkpt><trkpt lat="41.697054728164595" lon="13.354110711707994"><ele>270.5</ele><time>2026-04-11T15:06:02Z</time></trkpt><trkpt lat="41.69695962344839" lon="13.35402258215001"><ele>271.0</ele><time>2026-04-11T15:06:03Z</time></trkpt><trkpt lat="41.69686324367647" lon="13.353936807848795"><ele>270.40000000000003</ele><time>2026-04-11T15:06:04Z</time></trkpt><trkpt lat="41.69676741238642" lon="13.353855131887427"><ele>269.8</ele><time>2026-04-11T15:06:05Z</time></trkpt><trkpt lat="41.69667374521055" lon="13.353774712785507"><ele>269.20000000000005</ele><time>2026-04-11T15:06:06Z</time></trkpt><trkpt lat="41.69658092969655" lon="13.353693893748556"><ele>268.6</ele><time>2026-04-11T15:06:07Z</time></trkpt><trkpt lat="41.69648680125061" lon="13.3536160151946"><ele>268.0</ele><time>2026-04-11T15:06:08Z</time></trkpt><trkpt lat="41.69639390100346" lon="13.353539213430437"><ele>268.0</ele><time>2026-04-11T15:06:09Z</time></trkpt><trkpt lat="41.69629885171445" lon="13.353461627452583"><ele>268.0</ele><time>2026-04-11T15:06:10Z</time></trkpt><trkpt lat="41.696204742984705" lon="13.353384024611199"><ele>268.0</ele><time>2026-04-11T15:06:11Z</time></trkpt><trkpt lat="41.69610658577868" lon="13.353300431881726"><ele>268.0</ele><time>2026-04-11T15:06:12Z</time></trkpt><trkpt lat="41.69600569448231" lon="13.35321400550395"><ele>267.5</ele><time>2026-04-11T15:06:13Z</time></trkpt><trkpt lat="41.69590205158297" lon="13.353127875101443"><ele>267.0</ele><time>2026-04-11T15:06:14Z</time></trkpt><trkpt lat="41.69579187988803" lon="13.353044847410775"><ele>266.5</ele><time>2026-04-11T15:06:15Z</time></trkpt><trkpt lat="41.69567874071451" lon="13.352967948330042"><ele>266.0</ele><time>2026-04-11T15:06:16Z</time></trkpt><trkpt lat="41.695562881443564" lon="13.3528999801606"><ele>265.75</ele><time>2026-04-11T15:06:17Z</time></trkpt><trkpt lat="41.69544480643015" lon="13.352838052440262"><ele>265.5</ele><time>2026-04-11T15:06:18Z</time></trkpt><trkpt lat="41.69532680654759" lon="13.352780911190992"><ele>265.25</ele><time>2026-04-11T15:06:19Z</time></trkpt><trkpt lat="41.6952096593994" lon="13.352725934194853"><ele>265.0</ele><time>2026-04-11T15:06:20Z</time></trkpt><trkpt lat="41.69509155212336" lon="13.352671966024886"><ele>264.75</ele><time>2026-04-11T15:06:21Z</time></trkpt><trkpt lat="41.69496984302296" lon="13.35262026707514"><ele>264.5</ele><time>2026-04-11T15:06:22Z</time></trkpt><trkpt lat="41.6948467001363" lon="13.352572289625623"><ele>264.25</ele><time>2026-04-11T15:06:23Z</time></trkpt><trkpt lat="41.69471756648257" lon="13.352530146217601"><ele>264.0</ele><time>2026-04-11T15:06:24Z</time></trkpt><trkpt lat="41.69458647687036" lon="13.352482705105796"><ele>264.0</ele><time>2026-04-11T15:06:25Z</time></trkpt><trkpt lat="41.69445642995346" lon="13.352438207850156"><ele>264.0</ele><time>2026-04-11T15:06:26Z</time></trkpt><trkpt lat="41.69432783159565" lon="13.352405123534487"><ele>264.0</ele><time>2026-04-11T15:06:27Z</time></trkpt><trkpt lat="41.694198520539096" lon="13.352364976729486"><ele>264.0</ele><time>2026-04-11T15:06:28Z</time></trkpt><trkpt lat="41.694067692279354" lon="13.352322060356787"><ele>263.75</ele><time>2026-04-11T15:06:29Z</time></trkpt><trkpt lat="41.69393859086024" lon="13.352280134465978"><ele>263.5</ele><time>2026-04-11T15:06:30Z</time></trkpt><trkpt lat="41.69381239620077" lon="13.352239049151146"><ele>263.25</ele><time>2026-04-11T15:06:31Z</time></trkpt><trkpt lat="41.693687316745624" lon="13.352199656357636"><ele>263.0</ele><time>2026-04-11T15:06:32Z</time></trkpt><trkpt lat="41.693562967105784" lon="13.352163056075998"><ele>262.5</ele><time>2026-04-11T15:06:33Z</time></trkpt><trkpt lat="41.69343706873014" lon="13.352126431355117"><ele>262.0</ele><time>2026-04-11T15:06:34Z</time></trkpt><trkpt lat="41.693309977274055" lon="13.352094001861763"><ele>261.5</ele><time>2026-04-11T15:06:35Z</time></trkpt><trkpt lat="41.69317788540493" lon="13.352065624540446"><ele>261.0</ele><time>2026-04-11T15:06:36Z</time></trkpt><trkpt lat="41.6930405324001" lon="13.352049123970518"><ele>261.0</ele><time>2026-04-11T15:06:37Z</time></trkpt><trkpt lat="41.69290199718406" lon="13.352037666518429"><ele>261.0</ele><time>2026-04-11T15:06:38Z</time></trkpt><trkpt lat="41.69276258859548" lon="13.352019560679352"><ele>261.0</ele><time>2026-04-11T15:06:39Z</time></trkpt><trkpt lat="41.69262551278979" lon="13.352027546146807"><ele>261.0</ele><time>2026-04-11T15:06:40Z</time></trkpt><trkpt lat="41.692485996308996" lon="13.352031741436825"><ele>260.5</ele><time>2026-04-11T15:06:41Z</time></trkpt><trkpt lat="41.69235243395791" lon="13.352036294818715"><ele>260.0</ele><time>2026-04-11T15:06:42Z</time></trkpt><trkpt lat="41.692234021871414" lon="13.352041030380692"><ele>259.5</ele><time>2026-04-11T15:06:43Z</time></trkpt><trkpt lat="41.692124585141194" lon="13.352044457802254"><ele>259.0</ele><time>2026-04-11T15:06:44Z</time></trkpt><trkpt lat="41.69202347779286" lon="13.352046819871601"><ele>259.0</ele><time>2026-04-11T15:06:45Z</time></trkpt><trkpt lat="41.69192900902184" lon="13.352049296440864"><ele>259.0</ele><time>2026-04-11T15:06:46Z</time></trkpt><trkpt lat="41.691824552786564" lon="13.352054006765233"><ele>259.0</ele><time>2026-04-11T15:06:47Z</time></trkpt><trkpt lat="41.691718376502585" lon="13.35205910348116"><ele>259.0</ele><time>2026-04-11T15:06:48Z</time></trkpt><trkpt lat="41.69162707273913" lon="13.352060580667944"><ele>259.0</ele><time>2026-04-11T15:06:49Z</time></trkpt><trkpt lat="41.69154296519736" lon="13.352061219915194"><ele>259.0</ele><time>2026-04-11T15:06:50Z</time></trkpt><trkpt lat="41.69146918341832" lon="13.352058496270802"><ele>259.0</ele><time>2026-04-11T15:06:51Z</time></trkpt><trkpt lat="41.691381851733105" lon="13.352071409943989"><ele>259.0</ele><time>2026-04-11T15:06:53Z</time></trkpt><trkpt lat="41.69134032130939" lon="13.352231832189243"><ele>259.0</ele><time>2026-04-11T15:06:55Z</time></trkpt><trkpt lat="41.691329799272054" lon="13.352345542851017"><ele>259.0</ele><time>2026-04-11T15:06:56Z</time></trkpt><trkpt lat="41.69130880055263" lon="13.35246555576771"><ele>259.0</ele><time>2026-04-11T15:06:57Z</time></trkpt><trkpt lat="41.69129644197291" lon="13.35259197020476"><ele>259.0</ele><time>2026-04-11T15:06:58Z</time></trkpt><trkpt lat="41.69129018297055" lon="13.352734331563736"><ele>259.0</ele><time>2026-04-11T15:06:59Z</time></trkpt><trkpt lat="41.69129168283578" lon="13.352900124572601"><ele>259.0</ele><time>2026-04-11T15:07:00Z</time></trkpt><trkpt lat="41.69128907796539" lon="13.353036649916522"><ele>259.0</ele><time>2026-04-11T15:07:01Z</time></trkpt><trkpt lat="41.69128008128477" lon="13.353157706305653"><ele>259.16666666666663</ele><time>2026-04-11T15:07:02Z</time></trkpt><trkpt lat="41.69125979567764" lon="13.353262160964062"><ele>259.3333333333333</ele><time>2026-04-11T15:07:03Z</time></trkpt><trkpt lat="41.691227340694624" lon="13.353341596230862"><ele>259.5</ele><time>2026-04-11T15:07:04Z</time></trkpt><trkpt lat="41.69116663504479" lon="13.353396515360009"><ele>259.6666666666667</ele><time>2026-04-11T15:07:05Z</time></trkpt><trkpt lat="41.69107775679587" lon="13.353441781814013"><ele>259.83333333333337</ele><time>2026-04-11T15:07:06Z</time></trkpt><trkpt lat="41.690973856881975" lon="13.353515103368073"><ele>260.0</ele><time>2026-04-11T15:07:07Z</time></trkpt><trkpt lat="41.69089142106494" lon="13.353571251165166"><ele>259.6666666666667</ele><time>2026-04-11T15:07:08Z</time></trkpt><trkpt lat="41.69081856020533" lon="13.35361695733534"><ele>259.33333333333337</ele><time>2026-04-11T15:07:09Z</time></trkpt><trkpt lat="41.69075153501788" lon="13.353661885959882"><ele>259.0</ele><time>2026-04-11T15:07:10Z</time></trkpt><trkpt lat="41.69068004098538" lon="13.353694946631503"><ele>258.6666666666667</ele><time>2026-04-11T15:07:11Z</time></trkpt><trkpt lat="41.690607345205365" lon="13.353710936938521"><ele>258.3333333333333</ele><time>2026-04-11T15:07:12Z</time></trkpt><trkpt lat="41.69052655974109" lon="13.353710318030936"><ele>258.0</ele><time>2026-04-11T15:07:13Z</time></trkpt><trkpt lat="41.69042727674241" lon="13.353684034904347"><ele>258.0</ele><time>2026-04-11T15:07:14Z</time></trkpt><trkpt lat="41.69028896538692" lon="13.353620696584056"><ele>258.0</ele><time>2026-04-11T15:07:15Z</time></trkpt><trkpt lat="41.690167005988734" lon="13.353584098230325"><ele>258.0</ele><time>2026-04-11T15:07:16Z</time></trkpt><trkpt lat="41.690084840101754" lon="13.35357039084331"><ele>258.0</ele><time>2026-04-11T15:07:17Z</time></trkpt><trkpt lat="41.68999637502385" lon="13.3535268104506"><ele>258.0</ele><time>2026-04-11T15:07:19Z</time></trkpt><trkpt lat="41.68990878343584" lon="13.353525815630789"><ele>258.0</ele><time>2026-04-11T15:07:23Z</time></trkpt><trkpt lat="41.68982979559138" lon="13.353668718296754"><ele>258.0</ele><time>2026-04-11T15:07:25Z</time></trkpt><trkpt lat="41.6897980971619" lon="13.353761235946392"><ele>258.0</ele><time>2026-04-11T15:07:26Z</time></trkpt><trkpt lat="41.689763556770274" lon="13.35384519022516"><ele>258.0</ele><time>2026-04-11T15:07:27Z</time></trkpt><trkpt lat="41.68972309026326" lon="13.353926597209707"><ele>258.0</ele><time>2026-04-11T15:07:28Z</time></trkpt><trkpt lat="41.68967167099634" lon="13.354038086335917"><ele>258.0</ele><time>2026-04-11T15:07:29Z</time></trkpt><trkpt lat="41.689611473017614" lon="13.354180407550835"><ele>258.0</ele><time>2026-04-11T15:07:30Z</time></trkpt><trkpt lat="41.6895318838134" lon="13.354356725670781"><ele>258.0</ele><time>2026-04-11T15:07:31Z</time></trkpt><trkpt lat="41.68943778345115" lon="13.354560826673744"><ele>257.0</ele><time>2026-04-11T15:07:32Z</time></trkpt><trkpt lat="41.68934765724832" lon="13.354758524968977"><ele>256.0</ele><time>2026-04-11T15:07:33Z</time></trkpt><trkpt lat="41.689263806144204" lon="13.354953738056649"><ele>255.0</ele><time>2026-04-11T15:07:34Z</time></trkpt><trkpt lat="41.689176391490555" lon="13.35513916461262"><ele>255.0</ele><time>2026-04-11T15:07:35Z</time></trkpt><trkpt lat="41.68907892163739" lon="13.355352805358509"><ele>255.0</ele><time>2026-04-11T15:07:36Z</time></trkpt><trkpt lat="41.688977451889926" lon="13.355568782408605"><ele>255.0</ele><time>2026-04-11T15:07:37Z</time></trkpt><trkpt lat="41.68888549190446" lon="13.355760400764536"><ele>255.0</ele><time>2026-04-11T15:07:38Z</time></trkpt><trkpt lat="41.68880253468494" lon="13.355928148354588"><ele>255.0</ele><time>2026-04-11T15:07:39Z</time></trkpt><trkpt lat="41.688729158897196" lon="13.356078794003226"><ele>255.0</ele><time>2026-04-11T15:07:40Z</time></trkpt><trkpt lat="41.68865623650486" lon="13.356202857880914"><ele>255.0</ele><time>2026-04-11T15:07:41Z</time></trkpt><trkpt lat="41.6885823844187" lon="13.356302813929979"><ele>254.75</ele><time>2026-04-11T15:07:42Z</time></trkpt><trkpt lat="41.68849612885796" lon="13.356366031105248"><ele>254.5</ele><time>2026-04-11T15:07:43Z</time></trkpt><trkpt lat="41.68838962728626" lon="13.35639964053086"><ele>254.25</ele><time>2026-04-11T15:07:44Z</time></trkpt><trkpt lat="41.68826691933258" lon="13.356384545416098"><ele>254.0</ele><time>2026-04-11T15:07:45Z</time></trkpt><trkpt lat="41.688141827291275" lon="13.35633812960335"><ele>254.0</ele><time>2026-04-11T15:07:46Z</time></trkpt><trkpt lat="41.68802731208755" lon="13.356336258702449"><ele>254.0</ele><time>2026-04-11T15:07:47Z</time></trkpt><trkpt lat="41.68792651348682" lon="13.356362678552063"><ele>254.0</ele><time>2026-04-11T15:07:48Z</time></trkpt><trkpt lat="41.68782886736183" lon="13.35643923411331"><ele>254.0</ele><time>2026-04-11T15:07:49Z</time></trkpt><trkpt lat="41.687749270165774" lon="13.356561767910017"><ele>253.75</ele><time>2026-04-11T15:07:50Z</time></trkpt><trkpt lat="41.687687661548956" lon="13.356728732469875"><ele>253.5</ele><time>2026-04-11T15:07:51Z</time></trkpt><trkpt lat="41.68764002956311" lon="13.356916255185798"><ele>253.25</ele><time>2026-04-11T15:07:52Z</time></trkpt><trkpt lat="41.68758463438504" lon="13.357108655290364"><ele>253.0</ele><time>2026-04-11T15:07:53Z</time></trkpt><trkpt lat="41.687533133293535" lon="13.357321033008105"><ele>252.66666666666666</ele><time>2026-04-11T15:07:54Z</time></trkpt><trkpt lat="41.68748400819339" lon="13.357543642083792"><ele>252.33333333333331</ele><time>2026-04-11T15:07:55Z</time></trkpt><trkpt lat="41.68743424779957" lon="13.357769032989484"><ele>252.0</ele><time>2026-04-11T15:07:56Z</time></trkpt><trkpt lat="41.68738667970159" lon="13.357991520430042"><ele>252.33333333333331</ele><time>2026-04-11T15:07:57Z</time></trkpt><trkpt lat="41.687334947780556" lon="13.358199621938686"><ele>252.66666666666666</ele><time>2026-04-11T15:07:58Z</time></trkpt><trkpt lat="41.6872716017214" lon="13.358407805818405"><ele>253.0</ele><time>2026-04-11T15:07:59Z</time></trkpt><trkpt lat="41.68718555730935" lon="13.358631430803472"><ele>253.0</ele><time>2026-04-11T15:08:00Z</time></trkpt><trkpt lat="41.68708348467107" lon="13.35887285106554"><ele>253.0</ele><time>2026-04-11T15:08:01Z</time></trkpt><trkpt lat="41.686968754589635" lon="13.359134810026363"><ele>253.0</ele><time>2026-04-11T15:08:02Z</time></trkpt><trkpt lat="41.686847827745" lon="13.359438443019249"><ele>253.0</ele><time>2026-04-11T15:08:03Z</time></trkpt><trkpt lat="41.686724383675774" lon="13.359738742252635"><ele>253.0</ele><time>2026-04-11T15:08:04Z</time></trkpt><trkpt lat="41.68661425098239" lon="13.360003019276139"><ele>253.0</ele><time>2026-04-11T15:08:05Z</time></trkpt><trkpt lat="41.686510529323385" lon="13.360239100782092"><ele>253.0</ele><time>2026-04-11T15:08:06Z</time></trkpt><trkpt lat="41.686417853933314" lon="13.360462971811762"><ele>253.0</ele><time>2026-04-11T15:08:07Z</time></trkpt><trkpt lat="41.68633239117759" lon="13.360670342477992"><ele>253.0</ele><time>2026-04-11T15:08:08Z</time></trkpt><trkpt lat="41.68626213563903" lon="13.360861977158205"><ele>253.0</ele><time>2026-04-11T15:08:09Z</time></trkpt><trkpt lat="41.68620000412733" lon="13.361042842835037"><ele>253.0</ele><time>2026-04-11T15:08:10Z</time></trkpt><trkpt lat="41.686142695811775" lon="13.361204426791364"><ele>253.0</ele><time>2026-04-11T15:08:11Z</time></trkpt><trkpt lat="41.68607644416871" lon="13.361341822663285"><ele>253.25</ele><time>2026-04-11T15:08:12Z</time></trkpt><trkpt lat="41.68598567348012" lon="13.361445191231152"><ele>253.5</ele><time>2026-04-11T15:08:13Z</time></trkpt><trkpt lat="41.685872804039015" lon="13.36151257874436"><ele>253.75</ele><time>2026-04-11T15:08:14Z</time></trkpt><trkpt lat="41.68574792529347" lon="13.361556629484877"><ele>254.0</ele><time>2026-04-11T15:08:15Z</time></trkpt><trkpt lat="41.68565258634404" lon="13.361660850471981"><ele>254.0</ele><time>2026-04-11T15:08:16Z</time></trkpt><trkpt lat="41.68557830981924" lon="13.361803600232342"><ele>254.0</ele><time>2026-04-11T15:08:17Z</time></trkpt><trkpt lat="41.68552913791918" lon="13.36196908024038"><ele>254.0</ele><time>2026-04-11T15:08:18Z</time></trkpt><trkpt lat="41.685500468151375" lon="13.362153978688259"><ele>254.0</ele><time>2026-04-11T15:08:19Z</time></trkpt><trkpt lat="41.68547683472976" lon="13.362329383958103"><ele>254.39999999999998</ele><time>2026-04-11T15:08:20Z</time></trkpt><trkpt lat="41.68545623380195" lon="13.362491876445468"><ele>254.79999999999998</ele><time>2026-04-11T15:08:21Z</time></trkpt><trkpt lat="41.68543535129414" lon="13.36263903119332"><ele>255.20000000000002</ele><time>2026-04-11T15:08:22Z</time></trkpt><trkpt lat="41.68541591768602" lon="13.362778771456007"><ele>255.60000000000002</ele><time>2026-04-11T15:08:23Z</time></trkpt><trkpt lat="41.6853992163531" lon="13.362907732489507"><ele>256.0</ele><time>2026-04-11T15:08:24Z</time></trkpt><trkpt lat="41.68538026503261" lon="13.363026012463855"><ele>255.83333333333331</ele><time>2026-04-11T15:08:25Z</time></trkpt><trkpt lat="41.685366265569264" lon="13.363126991836575"><ele>255.66666666666666</ele><time>2026-04-11T15:08:26Z</time></trkpt><trkpt lat="41.68535668713833" lon="13.363216929510735"><ele>255.5</ele><time>2026-04-11T15:08:27Z</time></trkpt><trkpt lat="41.685342617982585" lon="13.363335884776063"><ele>255.33333333333331</ele><time>2026-04-11T15:08:29Z</time></trkpt><trkpt lat="41.68532956650213" lon="13.363425510522902"><ele>255.16666666666666</ele><time>2026-04-11T15:08:31Z</time></trkpt><trkpt lat="41.68531230830356" lon="13.363525848101846"><ele>255.0</ele><time>2026-04-11T15:08:37Z</time></trkpt><trkpt lat="41.68527249697061" lon="13.363693359558637"><ele>255.0</ele><time>2026-04-11T15:08:39Z</time></trkpt><trkpt lat="41.685248790393764" lon="13.363804923897568"><ele>255.0</ele><time>2026-04-11T15:08:40Z</time></trkpt><trkpt lat="41.68522837050587" lon="13.363888223077195"><ele>255.0</ele><time>2026-04-11T15:08:41Z</time></trkpt><trkpt lat="41.68520138619086" lon="13.363984521348813"><ele>255.0</ele><time>2026-04-11T15:08:42Z</time></trkpt><trkpt lat="41.68515853275086" lon="13.364119645946953"><ele>255.0</ele><time>2026-04-11T15:08:43Z</time></trkpt><trkpt lat="41.68511831379895" lon="13.364263280548213"><ele>255.0</ele><time>2026-04-11T15:08:44Z</time></trkpt><trkpt lat="41.685080094966246" lon="13.364390520135364"><ele>255.0</ele><time>2026-04-11T15:08:45Z</time></trkpt><trkpt lat="41.685048422479184" lon="13.364509425701469"><ele>255.0</ele><time>2026-04-11T15:08:46Z</time></trkpt><trkpt lat="41.68502641954374" lon="13.364623574860483"><ele>255.0</ele><time>2026-04-11T15:08:47Z</time></trkpt><trkpt lat="41.685001026294906" lon="13.364728499104954"><ele>255.0</ele><time>2026-04-11T15:08:48Z</time></trkpt><trkpt lat="41.68496467023983" lon="13.36481981365002"><ele>255.0</ele><time>2026-04-11T15:08:49Z</time></trkpt><trkpt lat="41.68491200513351" lon="13.364893363830696"><ele>254.83333333333334</ele><time>2026-04-11T15:08:50Z</time></trkpt><trkpt lat="41.68484679748985" lon="13.364945573562894"><ele>254.66666666666669</ele><time>2026-04-11T15:08:51Z</time></trkpt><trkpt lat="41.68476775880618" lon="13.364966349797221"><ele>254.5</ele><time>2026-04-11T15:08:52Z</time></trkpt><trkpt lat="41.68468134643428" lon="13.364970840104142"><ele>254.33333333333334</ele><time>2026-04-11T15:08:53Z</time></trkpt><trkpt lat="41.68458144587689" lon="13.364975491657146"><ele>254.16666666666669</ele><time>2026-04-11T15:08:54Z</time></trkpt><trkpt lat="41.684496087850555" lon="13.365003947996826"><ele>254.0</ele><time>2026-04-11T15:08:55Z</time></trkpt><trkpt lat="41.68441400051949" lon="13.365069193588292"><ele>253.79999999999998</ele><time>2026-04-11T15:08:56Z</time></trkpt><trkpt lat="41.68434620507267" lon="13.3651610651053"><ele>253.59999999999997</ele><time>2026-04-11T15:08:57Z</time></trkpt><trkpt lat="41.684292989388915" lon="13.365286117558151"><ele>253.4</ele><time>2026-04-11T15:08:58Z</time></trkpt><trkpt lat="41.68424540645369" lon="13.36542440053964"><ele>253.2</ele><time>2026-04-11T15:08:59Z</time></trkpt><trkpt lat="41.68419890901003" lon="13.365543423133477"><ele>253.0</ele><time>2026-04-11T15:09:00Z</time></trkpt><trkpt lat="41.684153514040574" lon="13.365665869103085"><ele>252.8</ele><time>2026-04-11T15:09:01Z</time></trkpt><trkpt lat="41.684070594058134" lon="13.365775583429041"><ele>252.60000000000002</ele><time>2026-04-11T15:09:02Z</time></trkpt><trkpt lat="41.68403972137816" lon="13.365913578133684"><ele>252.39999999999998</ele><time>2026-04-11T15:09:03Z</time></trkpt><trkpt lat="41.68401502012048" lon="13.366052377449119"><ele>252.2</ele><time>2026-04-11T15:09:04Z</time></trkpt><trkpt lat="41.68399178562918" lon="13.366196497365253"><ele>252.0</ele><time>2026-04-11T15:09:05Z</time></trkpt><trkpt lat="41.68397009856753" lon="13.366346571691238"><ele>252.2</ele><time>2026-04-11T15:09:06Z</time></trkpt><trkpt lat="41.683951272903386" lon="13.366493821385712"><ele>252.39999999999998</ele><time>2026-04-11T15:09:07Z</time></trkpt><trkpt lat="41.68393323680416" lon="13.366640834376357"><ele>252.60000000000002</ele><time>2026-04-11T15:09:08Z</time></trkpt><trkpt lat="41.68391693830935" lon="13.366785248989947"><ele>252.8</ele><time>2026-04-11T15:09:09Z</time></trkpt><trkpt lat="41.68390106302681" lon="13.36692591323419"><ele>253.0</ele><time>2026-04-11T15:09:10Z</time></trkpt><trkpt lat="41.683886188621166" lon="13.36705610407443"><ele>253.0</ele><time>2026-04-11T15:09:11Z</time></trkpt><trkpt lat="41.68387123522143" lon="13.36718738403799"><ele>253.0</ele><time>2026-04-11T15:09:12Z</time></trkpt><trkpt lat="41.68385536870622" lon="13.367326680425286"><ele>253.0</ele><time>2026-04-11T15:09:13Z</time></trkpt><trkpt lat="41.683838585022556" lon="13.367466846926211"><ele>253.0</ele><time>2026-04-11T15:09:14Z</time></trkpt><trkpt lat="41.68382031149962" lon="13.367618674005135"><ele>253.0</ele><time>2026-04-11T15:09:15Z</time></trkpt><trkpt lat="41.68380192213399" lon="13.367771463643635"><ele>252.8</ele><time>2026-04-11T15:09:16Z</time></trkpt><trkpt lat="41.6837833897624" lon="13.367925441413867"><ele>252.60000000000002</ele><time>2026-04-11T15:09:17Z</time></trkpt><trkpt lat="41.68376734957871" lon="13.368058934654165"><ele>252.39999999999998</ele><time>2026-04-11T15:09:18Z</time></trkpt><trkpt lat="41.68375398934542" lon="13.368180255831504"><ele>252.2</ele><time>2026-04-11T15:09:19Z</time></trkpt><trkpt lat="41.68374020718279" lon="13.368305408360985"><ele>252.0</ele><time>2026-04-11T15:09:20Z</time></trkpt><trkpt lat="41.68372732790699" lon="13.368436278364268"><ele>252.0</ele><time>2026-04-11T15:09:21Z</time></trkpt><trkpt lat="41.68371300812643" lon="13.36857682407949"><ele>252.0</ele><time>2026-04-11T15:09:22Z</time></trkpt><trkpt lat="41.68369672788654" lon="13.368734692732078"><ele>252.0</ele><time>2026-04-11T15:09:23Z</time></trkpt><trkpt lat="41.683675407277484" lon="13.368940160247453"><ele>252.0</ele><time>2026-04-11T15:09:24Z</time></trkpt><trkpt lat="41.68365449413883" lon="13.369219255942705"><ele>252.0</ele><time>2026-04-11T15:09:25Z</time></trkpt><trkpt lat="41.68364957728223" lon="13.369463842383306"><ele>252.0</ele><time>2026-04-11T15:09:26Z</time></trkpt><trkpt lat="41.68365490530375" lon="13.369682220356262"><ele>252.0</ele><time>2026-04-11T15:09:27Z</time></trkpt><trkpt lat="41.68365799564996" lon="13.369865848792358"><ele>251.75</ele><time>2026-04-11T15:09:28Z</time></trkpt><trkpt lat="41.68366071714589" lon="13.37002755980856"><ele>251.5</ele><time>2026-04-11T15:09:29Z</time></trkpt><trkpt lat="41.68366242358443" lon="13.370183078521496"><ele>251.25</ele><time>2026-04-11T15:09:30Z</time></trkpt><trkpt lat="41.683668939633414" lon="13.370353610666346"><ele>251.0</ele><time>2026-04-11T15:09:31Z</time></trkpt><trkpt lat="41.683695760957505" lon="13.370573969314721"><ele>250.66666666666669</ele><time>2026-04-11T15:09:32Z</time></trkpt><trkpt lat="41.68379735981079" lon="13.37085639866123"><ele>250.33333333333331</ele><time>2026-04-11T15:09:33Z</time></trkpt><trkpt lat="41.68388556934483" lon="13.371070049072287"><ele>250.0</ele><time>2026-04-11T15:09:34Z</time></trkpt><trkpt lat="41.68394055790046" lon="13.37123780182829"><ele>249.75</ele><time>2026-04-11T15:09:35Z</time></trkpt><trkpt lat="41.68396152486423" lon="13.371394135616333"><ele>249.5</ele><time>2026-04-11T15:09:36Z</time></trkpt><trkpt lat="41.683960614357964" lon="13.371528222935826"><ele>249.25</ele><time>2026-04-11T15:09:37Z</time></trkpt><trkpt lat="41.68392615903786" lon="13.371663807862928"><ele>249.0</ele><time>2026-04-11T15:09:38Z</time></trkpt><trkpt lat="41.683822446180265" lon="13.371783956633216"><ele>249.0</ele><time>2026-04-11T15:09:39Z</time></trkpt><trkpt lat="41.68367684797916" lon="13.371910421733109"><ele>249.0</ele><time>2026-04-11T15:09:40Z</time></trkpt><trkpt lat="41.68353019730578" lon="13.372058216106982"><ele>249.0</ele><time>2026-04-11T15:09:41Z</time></trkpt><trkpt lat="41.683392905016106" lon="13.372207003586526"><ele>249.66666666666669</ele><time>2026-04-11T15:09:42Z</time></trkpt><trkpt lat="41.683299006976185" lon="13.37241974619539"><ele>250.33333333333334</ele><time>2026-04-11T15:09:43Z</time></trkpt><trkpt lat="41.68321298066496" lon="13.372666101554856"><ele>251.0</ele><time>2026-04-11T15:09:44Z</time></trkpt><trkpt lat="41.68313929140751" lon="13.372880894857929"><ele>252.0</ele><time>2026-04-11T15:09:45Z</time></trkpt><trkpt lat="41.68309427697638" lon="13.373095110995648"><ele>253.0</ele><time>2026-04-11T15:09:46Z</time></trkpt><trkpt lat="41.68308417836814" lon="13.37333469091044"><ele>254.0</ele><time>2026-04-11T15:09:47Z</time></trkpt><trkpt lat="41.6831088805642" lon="13.373571540374792"><ele>254.0</ele><time>2026-04-11T15:09:48Z</time></trkpt><trkpt lat="41.683150548781164" lon="13.373793676432175"><ele>254.0</ele><time>2026-04-11T15:09:49Z</time></trkpt><trkpt lat="41.683222945209465" lon="13.37400272932311"><ele>254.0</ele><time>2026-04-11T15:09:50Z</time></trkpt><trkpt lat="41.68331546249577" lon="13.374199223919733"><ele>254.25</ele><time>2026-04-11T15:09:51Z</time></trkpt><trkpt lat="41.68340331520181" lon="13.374389212453993"><ele>254.5</ele><time>2026-04-11T15:09:52Z</time></trkpt><trkpt lat="41.68347444448668" lon="13.374553592079344"><ele>254.75</ele><time>2026-04-11T15:09:53Z</time></trkpt><trkpt lat="41.68353886488738" lon="13.374705115478296"><ele>255.0</ele><time>2026-04-11T15:09:54Z</time></trkpt><trkpt lat="41.683602438356935" lon="13.374848101862854"><ele>255.6</ele><time>2026-04-11T15:09:55Z</time></trkpt><trkpt lat="41.68365433848697" lon="13.374963745794417"><ele>256.2</ele><time>2026-04-11T15:09:56Z</time></trkpt><trkpt lat="41.68369469338487" lon="13.375064599109955"><ele>256.8</ele><time>2026-04-11T15:09:57Z</time></trkpt><trkpt lat="41.68372638577197" lon="13.375149625005143"><ele>257.4</ele><time>2026-04-11T15:09:58Z</time></trkpt><trkpt lat="41.68376525891688" lon="13.37525391526859"><ele>258.0</ele><time>2026-04-11T15:10:00Z</time></trkpt><trkpt lat="41.68383357988601" lon="13.375378808297816"><ele>258.0</ele><time>2026-04-11T15:10:02Z</time></trkpt><trkpt lat="41.68384818466735" lon="13.37547650309763"><ele>258.0</ele><time>2026-04-11T15:10:03Z</time></trkpt><trkpt lat="41.6838595795627" lon="13.375572971923265"><ele>258.0</ele><time>2026-04-11T15:10:04Z</time></trkpt><trkpt lat="41.68386934095516" lon="13.375672860301902"><ele>258.0</ele><time>2026-04-11T15:10:05Z</time></trkpt><trkpt lat="41.68384059474641" lon="13.37578375025167"><ele>258.0</ele><time>2026-04-11T15:10:06Z</time></trkpt><trkpt lat="41.68384815813553" lon="13.375888909959155"><ele>258.0</ele><time>2026-04-11T15:10:07Z</time></trkpt><trkpt lat="41.683856372841454" lon="13.375996985908042"><ele>257.8333333333333</ele><time>2026-04-11T15:10:08Z</time></trkpt><trkpt lat="41.683863463938245" lon="13.376100411384328"><ele>257.6666666666667</ele><time>2026-04-11T15:10:09Z</time></trkpt><trkpt lat="41.68387005697042" lon="13.376204969130306"><ele>257.5</ele><time>2026-04-11T15:10:10Z</time></trkpt><trkpt lat="41.68387570918247" lon="13.376294606537757"><ele>257.33333333333337</ele><time>2026-04-11T15:10:11Z</time></trkpt><trkpt lat="41.683877679429074" lon="13.376421378088494"><ele>257.1666666666667</ele><time>2026-04-11T15:10:13Z</time></trkpt><trkpt lat="41.683799566215214" lon="13.37650884739275"><ele>257.0</ele><time>2026-04-11T15:10:15Z</time></trkpt><trkpt lat="41.683669920930775" lon="13.376536280875913"><ele>256.5</ele><time>2026-04-11T15:10:17Z</time></trkpt><trkpt lat="41.68359235943" lon="13.376551070495262"><ele>256.0</ele><time>2026-04-11T15:10:18Z</time></trkpt><trkpt lat="41.68351919501248" lon="13.376606848473903"><ele>255.5</ele><time>2026-04-11T15:10:19Z</time></trkpt><trkpt lat="41.68344372002784" lon="13.376619622488835"><ele>255.0</ele><time>2026-04-11T15:10:20Z</time></trkpt><trkpt lat="41.68336425342073" lon="13.376630360105908"><ele>254.50000000000003</ele><time>2026-04-11T15:10:21Z</time></trkpt><trkpt lat="41.68328441434869" lon="13.376640802556405"><ele>254.0</ele><time>2026-04-11T15:10:22Z</time></trkpt><trkpt lat="41.68320418709809" lon="13.376651295778641"><ele>254.00000000000003</ele><time>2026-04-11T15:10:23Z</time></trkpt><trkpt lat="41.683122584655685" lon="13.376661968866438"><ele>254.0</ele><time>2026-04-11T15:10:24Z</time></trkpt><trkpt lat="41.68304031300241" lon="13.376672729483301"><ele>254.0</ele><time>2026-04-11T15:10:25Z</time></trkpt><trkpt lat="41.68295698382616" lon="13.376683628418622"><ele>254.0</ele><time>2026-04-11T15:10:26Z</time></trkpt><trkpt lat="41.68287574045333" lon="13.376694254511165"><ele>254.00000000000003</ele><time>2026-04-11T15:10:27Z</time></trkpt><trkpt lat="41.68279404556562" lon="13.376701893783823"><ele>254.0</ele><time>2026-04-11T15:10:28Z</time></trkpt><trkpt lat="41.68270420875619" lon="13.37670936894447"><ele>253.6</ele><time>2026-04-11T15:10:29Z</time></trkpt><trkpt lat="41.68260682731229" lon="13.376715641500065"><ele>253.2</ele><time>2026-04-11T15:10:30Z</time></trkpt><trkpt lat="41.68249741445042" lon="13.376720384250662"><ele>252.79999999999998</ele><time>2026-04-11T15:10:31Z</time></trkpt><trkpt lat="41.68238885457994" lon="13.376703122007441"><ele>252.39999999999998</ele><time>2026-04-11T15:10:32Z</time></trkpt><trkpt lat="41.682281788927014" lon="13.376707331840887"><ele>252.0</ele><time>2026-04-11T15:10:33Z</time></trkpt><trkpt lat="41.68218274746559" lon="13.376733567441299"><ele>252.0</ele><time>2026-04-11T15:10:34Z</time></trkpt><trkpt lat="41.682088449571175" lon="13.376737518116876"><ele>252.0</ele><time>2026-04-11T15:10:35Z</time></trkpt><trkpt lat="41.68198730468379" lon="13.376741755648526"><ele>252.0</ele><time>2026-04-11T15:10:36Z</time></trkpt><trkpt lat="41.681883651563695" lon="13.376746098257435"><ele>252.0</ele><time>2026-04-11T15:10:37Z</time></trkpt><trkpt lat="41.68177902152768" lon="13.376747561148017"><ele>252.0</ele><time>2026-04-11T15:10:38Z</time></trkpt><trkpt lat="41.68166399970691" lon="13.37674795173139"><ele>251.0</ele><time>2026-04-11T15:10:39Z</time></trkpt><trkpt lat="41.68153970121216" lon="13.376747490971539"><ele>250.0</ele><time>2026-04-11T15:10:40Z</time></trkpt><trkpt lat="41.68140791199636" lon="13.376747002444748"><ele>249.0</ele><time>2026-04-11T15:10:41Z</time></trkpt><trkpt lat="41.681275096873456" lon="13.376748150720884"><ele>248.0</ele><time>2026-04-11T15:10:42Z</time></trkpt><trkpt lat="41.68114357874461" lon="13.37675130274956"><ele>248.0</ele><time>2026-04-11T15:10:43Z</time></trkpt><trkpt lat="41.681024052138184" lon="13.376753711037598"><ele>248.0</ele><time>2026-04-11T15:10:44Z</time></trkpt><trkpt lat="41.68091628324295" lon="13.376733344569121"><ele>248.0</ele><time>2026-04-11T15:10:45Z</time></trkpt><trkpt lat="41.68081412982616" lon="13.376737913660374"><ele>248.0</ele><time>2026-04-11T15:10:46Z</time></trkpt><trkpt lat="41.680718624749744" lon="13.376743301571755"><ele>248.0</ele><time>2026-04-11T15:10:47Z</time></trkpt><trkpt lat="41.68063130785195" lon="13.376746876243272"><ele>248.00000000000003</ele><time>2026-04-11T15:10:48Z</time></trkpt><trkpt lat="41.68055767938738" lon="13.376744021495055"><ele>248.0</ele><time>2026-04-11T15:10:49Z</time></trkpt><trkpt lat="41.68048280323464" lon="13.376741703122251"><ele>248.0</ele><time>2026-04-11T15:10:50Z</time></trkpt><trkpt lat="41.68040872906163" lon="13.376753390469041"><ele>248.0</ele><time>2026-04-11T15:10:51Z</time></trkpt><trkpt lat="41.68034058955666" lon="13.376752528734938"><ele>248.00000000000003</ele><time>2026-04-11T15:10:52Z</time></trkpt><trkpt lat="41.680226665631594" lon="13.376749562293279"><ele>248.0</ele><time>2026-04-11T15:10:54Z</time></trkpt><trkpt lat="41.68014429390696" lon="13.37676496172471"><ele>247.5</ele><time>2026-04-11T15:10:56Z</time></trkpt><trkpt lat="41.680078309912965" lon="13.376638570051945"><ele>247.0</ele><time>2026-04-11T15:10:57Z</time></trkpt><trkpt lat="41.68005855213789" lon="13.376510763211321"><ele>246.5</ele><time>2026-04-11T15:10:58Z</time></trkpt><trkpt lat="41.67999527141226" lon="13.376327284406297"><ele>246.0</ele><time>2026-04-11T15:10:59Z</time></trkpt><trkpt lat="41.67992563673374" lon="13.376074383299763"><ele>246.0</ele><time>2026-04-11T15:11:00Z</time></trkpt><trkpt lat="41.67984573138793" lon="13.375767013802733"><ele>246.0</ele><time>2026-04-11T15:11:01Z</time></trkpt><trkpt lat="41.679764258669195" lon="13.375426128044362"><ele>246.0</ele><time>2026-04-11T15:11:02Z</time></trkpt><trkpt lat="41.679696853641005" lon="13.37514410165467"><ele>246.0</ele><time>2026-04-11T15:11:03Z</time></trkpt><trkpt lat="41.67963687276182" lon="13.374893138383614"><ele>246.0</ele><time>2026-04-11T15:11:04Z</time></trkpt><trkpt lat="41.67958446152632" lon="13.374674896816073"><ele>246.25</ele><time>2026-04-11T15:11:05Z</time></trkpt><trkpt lat="41.67953339873228" lon="13.374474723291277"><ele>246.5</ele><time>2026-04-11T15:11:06Z</time></trkpt><trkpt lat="41.6794888970696" lon="13.374300592627371"><ele>246.75</ele><time>2026-04-11T15:11:07Z</time></trkpt><trkpt lat="41.679447419226555" lon="13.374138295116127"><ele>247.0</ele><time>2026-04-11T15:11:08Z</time></trkpt><trkpt lat="41.679404324274" lon="13.373969670042143"><ele>245.99999999999997</ele><time>2026-04-11T15:11:09Z</time></trkpt><trkpt lat="41.679368379535674" lon="13.373829022824339"><ele>245.0</ele><time>2026-04-11T15:11:10Z</time></trkpt><trkpt lat="41.67933639603856" lon="13.373703875429682"><ele>244.0</ele><time>2026-04-11T15:11:11Z</time></trkpt><trkpt lat="41.679308033305574" lon="13.373592383358602"><ele>243.0</ele><time>2026-04-11T15:11:12Z</time></trkpt><trkpt lat="41.679286231450625" lon="13.373506541186556"><ele>241.99999999999997</ele><time>2026-04-11T15:11:13Z</time></trkpt><trkpt lat="41.6792624602427" lon="13.373419563020562"><ele>241.0</ele><time>2026-04-11T15:11:15Z</time></trkpt><trkpt lat="41.6794084117228" lon="13.373358321149214"><ele>242.0</ele><time>2026-04-11T15:11:18Z</time></trkpt><trkpt lat="41.67952976033407" lon="13.373332899834804"><ele>243.0</ele><time>2026-04-11T15:11:19Z</time></trkpt><trkpt lat="41.67968383428156" lon="13.37329090187026"><ele>244.0</ele><time>2026-04-11T15:11:20Z</time></trkpt><trkpt lat="41.679855865981196" lon="13.373254140603713"><ele>244.0</ele><time>2026-04-11T15:11:21Z</time></trkpt><trkpt lat="41.67997398951109" lon="13.373222096948652"><ele>243.99999999999997</ele><time>2026-04-11T15:11:22Z</time></trkpt><trkpt lat="41.68006779777349" lon="13.373222786267357"><ele>243.99999999999997</ele><time>2026-04-11T15:11:23Z</time></trkpt><trkpt lat="41.680145254107856" lon="13.373211524966667"><ele>244.0</ele><time>2026-04-11T15:11:24Z</time></trkpt><trkpt lat="41.680212421957314" lon="13.373201721021111"><ele>244.0</ele><time>2026-04-11T15:11:25Z</time></trkpt><trkpt lat="41.68031952969887" lon="13.373194904655053"><ele>244.0</ele><time>2026-04-11T15:11:27Z</time></trkpt><trkpt lat="41.68038450942129" lon="13.373183298852258"><ele>244.0</ele><time>2026-04-11T15:11:31Z</time></trkpt><trkpt lat="41.68013139724023" lon="13.37356949961562"><ele>244.0</ele><time>2026-04-11T15:11:59Z</time></trkpt><trkpt lat="41.680169103584596" lon="13.37366481013194"><ele>244.0</ele><time>2026-04-11T15:12:01Z</time></trkpt><trkpt lat="41.68020224501152" lon="13.373748581881786"><ele>244.0</ele><time>2026-04-11T15:12:04Z</time></trkpt><trkpt lat="41.680235575028604" lon="13.373832830330459"><ele>244.0</ele><time>2026-04-11T15:12:05Z</time></trkpt><trkpt lat="41.68054149131422" lon="13.373202515858756"><ele>244.66666666666666</ele><time>2026-04-11T15:12:07Z</time></trkpt><trkpt lat="41.68060981268232" lon="13.373659373216439"><ele>245.33333333333331</ele><time>2026-04-11T15:12:15Z</time></trkpt><trkpt lat="41.68057665835651" lon="13.373586908914275"><ele>246.0</ele><time>2026-04-11T15:13:08Z</time></trkpt><trkpt lat="41.68058651750333" lon="13.373496305877833"><ele>246.00000000000003</ele><time>2026-04-11T15:13:15Z</time></trkpt><trkpt lat="41.68056573860985" lon="13.37341537086991"><ele>246.0</ele><time>2026-04-11T15:13:20Z</time></trkpt><trkpt lat="41.680493624351485" lon="13.373390882265252"><ele>246.00000000000003</ele><time>2026-04-11T15:13:25Z</time></trkpt><trkpt lat="41.680475348270676" lon="13.373485843379807"><ele>246.00000000000003</ele><time>2026-04-11T15:18:56Z</time></trkpt><trkpt lat="41.68050927221191" lon="13.37356184105679"><ele>246.0</ele><time>2026-04-11T15:23:33Z</time></trkpt><trkpt lat="41.68045668657648" lon="13.373463826708171"><ele>246.00000000000003</ele><time>2026-04-11T15:28:10Z</time></trkpt><trkpt lat="41.68043047339847" lon="13.373386725907343"><ele>246.00000000000003</ele><time>2026-04-11T15:28:33Z</time></trkpt><trkpt lat="41.6804410580788" lon="13.373294115850209"><ele>246.00000000000003</ele><time>2026-04-11T15:28:40Z</time></trkpt><trkpt lat="41.68042973170282" lon="13.373209885724313"><ele>246.0</ele><time>2026-04-11T15:28:45Z</time></trkpt><trkpt lat="41.68041207000234" lon="13.373117450553085"><ele>246.00000000000003</ele><time>2026-04-11T15:28:52Z</time></trkpt><trkpt lat="41.68039135211683" lon="13.373029546485094"><ele>246.00000000000003</ele><time>2026-04-11T15:28:59Z</time></trkpt><trkpt lat="41.680441348280596" lon="13.37297576180184"><ele>246.0</ele><time>2026-04-11T15:45:06.999Z</time></trkpt><trkpt lat="41.680374510109154" lon="13.372937136807094"><ele>246.00000000000003</ele><time>2026-04-11T17:12:46Z</time></trkpt><trkpt lat="41.68039885523117" lon="13.373028366480463"><ele>246.00000000000003</ele><time>2026-04-11T17:12:52Z</time></trkpt><trkpt lat="41.680412685685816" lon="13.373118354902912"><ele>246.00000000000003</ele><time>2026-04-11T17:12:57Z</time></trkpt><trkpt lat="41.680431000187234" lon="13.373213809651544"><ele>246.0</ele><time>2026-04-11T17:13:02Z</time></trkpt><trkpt lat="41.68043211180229" lon="13.373301716017705"><ele>246.00000000000003</ele><time>2026-04-11T17:13:08Z</time></trkpt><trkpt lat="41.68045293381973" lon="13.373381475453952"><ele>246.00000000000003</ele><time>2026-04-11T17:13:13Z</time></trkpt><trkpt lat="41.68051664880069" lon="13.37339037417346"><ele>246.0</ele><time>2026-04-11T17:13:20Z</time></trkpt><trkpt lat="41.680547071849205" lon="13.373485197256377"><ele>246.00000000000003</ele><time>2026-04-11T17:13:26Z</time></trkpt><trkpt lat="41.68054935999127" lon="13.373577456066856"><ele>246.00000000000003</ele><time>2026-04-11T17:13:32Z</time></trkpt><trkpt lat="41.680595331469256" lon="13.37364197096276"><ele>246.00000000000003</ele><time>2026-04-11T17:13:37Z</time></trkpt><trkpt lat="41.680550561008985" lon="13.373573440702746"><ele>246.0</ele><time>2026-04-11T17:13:51Z</time></trkpt><trkpt lat="41.680559287576784" lon="13.373481581442022"><ele>246.00000000000003</ele><time>2026-04-11T17:13:57Z</time></trkpt><trkpt lat="41.68053303680631" lon="13.373387570040826"><ele>246.00000000000003</ele><time>2026-04-11T17:14:03Z</time></trkpt><trkpt lat="41.68046950563437" lon="13.373389592547126"><ele>246.0</ele><time>2026-04-11T17:14:08Z</time></trkpt><trkpt lat="41.68044140586831" lon="13.373309020760106"><ele>246.00000000000003</ele><time>2026-04-11T17:14:14Z</time></trkpt><trkpt lat="41.680442539122" lon="13.373223440866424"><ele>246.00000000000003</ele><time>2026-04-11T17:14:19Z</time></trkpt><trkpt lat="41.68041042745902" lon="13.373128968317305"><ele>246.00000000000003</ele><time>2026-04-11T17:14:24Z</time></trkpt><trkpt lat="41.680391249994" lon="13.373042732518577"><ele>246.0</ele><time>2026-04-11T17:14:29Z</time></trkpt><trkpt lat="41.680364219112334" lon="13.372960222956541"><ele>246.00000000000003</ele><time>2026-04-11T17:19:31Z</time></trkpt><trkpt lat="41.68030723490254" lon="13.3729223107045"><ele>246.00000000000003</ele><time>2026-04-11T17:19:37Z</time></trkpt><trkpt lat="41.68037101242838" lon="13.372958760461492"><ele>246.0</ele><time>2026-04-11T17:20:10Z</time></trkpt><trkpt lat="41.68031070311043" lon="13.372931225370072"><ele>246.00000000000003</ele><time>2026-04-11T17:20:28Z</time></trkpt><trkpt lat="41.68037527405051" lon="13.372945194649116"><ele>246.00000000000003</ele><time>2026-04-11T17:21:57Z</time></trkpt><trkpt lat="41.680405280033206" lon="13.373062983474233"><ele>246.0</ele><time>2026-04-11T17:22:01Z</time></trkpt><trkpt lat="41.68043539532951" lon="13.373172080481986"><ele>246.0</ele><time>2026-04-11T17:22:03Z</time></trkpt><trkpt lat="41.68048215823197" lon="13.373269481054782"><ele>246.0</ele><time>2026-04-11T17:22:07Z</time></trkpt><trkpt lat="41.6805099767066" lon="13.373363372892758"><ele>246.0</ele><time>2026-04-11T17:22:10Z</time></trkpt><trkpt lat="41.68055187305744" lon="13.37346398493619"><ele>246.0</ele><time>2026-04-11T17:22:13Z</time></trkpt><trkpt lat="41.68057883117752" lon="13.373541645699689"><ele>246.0</ele><time>2026-04-11T17:22:15Z</time></trkpt><trkpt lat="41.680541433304114" lon="13.37347198613174"><ele>246.0</ele><time>2026-04-11T17:22:40Z</time></trkpt><trkpt lat="41.68049014271159" lon="13.373378748096972"><ele>246.0</ele><time>2026-04-11T17:22:42Z</time></trkpt><trkpt lat="41.680464944998114" lon="13.373265468727093"><ele>246.0</ele><time>2026-04-11T17:22:45Z</time></trkpt><trkpt lat="41.68043954570734" lon="13.373158630716837"><ele>246.0</ele><time>2026-04-11T17:22:47Z</time></trkpt><trkpt lat="41.680400114924424" lon="13.373069932959309"><ele>246.0</ele><time>2026-04-11T17:22:49Z</time></trkpt><trkpt lat="41.68038783833562" lon="13.372958670216791"><ele>246.0</ele><time>2026-04-11T17:22:52Z</time></trkpt><trkpt lat="41.680320036946405" lon="13.372958884984271"><ele>245.8571428571429</ele><time>2026-04-11T17:22:55Z</time></trkpt><trkpt lat="41.68030322379434" lon="13.37287475317934"><ele>245.71428571428572</ele><time>2026-04-11T17:31:32Z</time></trkpt><trkpt lat="41.68036819538532" lon="13.372918595173838"><ele>245.57142857142858</ele><time>2026-04-11T17:31:43Z</time></trkpt><trkpt lat="41.68038473360191" lon="13.373001333852862"><ele>245.42857142857144</ele><time>2026-04-11T17:31:51Z</time></trkpt><trkpt lat="41.680351994317036" lon="13.372917596398725"><ele>245.28571428571428</ele><time>2026-04-11T17:32:14.999Z</time></trkpt><trkpt lat="41.68038544750093" lon="13.372997234299286"><ele>245.14285714285714</ele><time>2026-04-11T17:32:39Z</time></trkpt><trkpt lat="41.680353478498766" lon="13.372919572003395"><ele>245.0</ele><time>2026-04-11T17:32:56Z</time></trkpt><trkpt lat="41.68034011042839" lon="13.372832281471638"><ele>245.0</ele><time>2026-04-11T17:33:01Z</time></trkpt><trkpt lat="41.6803239354208" lon="13.37274123982526"><ele>245.0</ele><time>2026-04-11T17:33:06Z</time></trkpt><trkpt lat="41.6803625097587" lon="13.372816700144389"><ele>245.0</ele><time>2026-04-11T17:35:25Z</time></trkpt><trkpt lat="41.680387866492154" lon="13.372896274818745"><ele>245.0</ele><time>2026-04-11T17:36:01Z</time></trkpt><trkpt lat="41.68038388426362" lon="13.372985940960026"><ele>245.0</ele><time>2026-04-11T17:36:25Z</time></trkpt><trkpt lat="41.68041593190675" lon="13.373075173289852"><ele>245.0</ele><time>2026-04-11T17:45:24Z</time></trkpt><trkpt lat="41.68043236829285" lon="13.373169070157646"><ele>245.0</ele><time>2026-04-11T17:45:30Z</time></trkpt><trkpt lat="41.680449468931" lon="13.373251789605025"><ele>245.14285714285714</ele><time>2026-04-11T17:45:35Z</time></trkpt><trkpt lat="41.680449790108746" lon="13.373345959687205"><ele>245.28571428571428</ele><time>2026-04-11T17:45:42Z</time></trkpt><trkpt lat="41.68051855536918" lon="13.373373925229568"><ele>245.42857142857144</ele><time>2026-04-11T17:45:53Z</time></trkpt><trkpt lat="41.680550142582454" lon="13.37344758417303"><ele>245.57142857142858</ele><time>2026-04-11T17:45:58Z</time></trkpt><trkpt lat="41.68056381050163" lon="13.373533754439617"><ele>245.71428571428572</ele><time>2026-04-11T17:46:04Z</time></trkpt><trkpt lat="41.68057686223947" lon="13.373617346362343"><ele>245.8571428571429</ele><time>2026-04-11T17:46:10Z</time></trkpt><trkpt lat="41.68060352159534" lon="13.37369843796228"><ele>246.00000000000003</ele><time>2026-04-11T17:46:23Z</time></trkpt><trkpt lat="41.68059135427472" lon="13.37360900133269"><ele>246.0</ele><time>2026-04-11T17:46:30Z</time></trkpt><trkpt lat="41.68058449190469" lon="13.373495277703833"><ele>246.0</ele><time>2026-04-11T17:46:38Z</time></trkpt><trkpt lat="41.680592631872045" lon="13.373374174561745"><ele>246.0</ele><time>2026-04-11T17:46:46Z</time></trkpt><trkpt lat="41.68058559617454" lon="13.373284516167796"><ele>246.0</ele><time>2026-04-11T17:46:49Z</time></trkpt><trkpt lat="41.68059440554322" lon="13.373378466555181"><ele>246.0</ele><time>2026-04-11T17:46:56Z</time></trkpt><trkpt lat="41.68059272370568" lon="13.37347036350347"><ele>246.0</ele><time>2026-04-11T17:47:01Z</time></trkpt><trkpt lat="41.68055295801623" lon="13.37356502712863"><ele>246.0</ele><time>2026-04-11T17:47:35Z</time></trkpt><trkpt lat="41.680561564109446" lon="13.373478955054726"><ele>246.0</ele><time>2026-04-11T17:47:43Z</time></trkpt><trkpt lat="41.68053581063625" lon="13.373393328169074"><ele>246.0</ele><time>2026-04-11T17:47:49Z</time></trkpt><trkpt lat="41.68046557739136" lon="13.373403410288557"><ele>246.0</ele><time>2026-04-11T17:47:57Z</time></trkpt><trkpt lat="41.68048206447305" lon="13.37348985377915"><ele>246.0</ele><time>2026-04-11T17:48:21Z</time></trkpt></trkseg></trk></gpx>